GFSCGP_prec_precacc_015.txt.gz
Total_Precipitation_Accumulation
0.00 0.00 0.00 0.00 0.00 0.00 0.00 0.00 0.00 0.00 0.00 0.00 0.00 0.00 0.00 0.00 0.00 0.00 0.00 0.00 0.00 0.00 0.00 0.00 0.00 0.00 0.00 0.00 0.00 0.00 0.00 0.00 0.00 0.00 0.00 0.00 0.00 0.00 0.00 0.00 0.00 0.00 0.00 0.00
0.00 0.00 0.00 0.00 0.00 0.00 0.00 0.00 0.00 0.00 0.00 0.00 0.00 0.00 0.00 0.00 0.00 0.00 0.00 0.00 0.00 0.00 0.00 0.00 0.00 0.00 0.00 0.00 0.00 0.00 0.00 0.00 0.00 0.00 0.00 0.00 0.00 0.00 0.00 0.00 0.00 0.00 0.00 0.00
0.00 0.00 0.00 0.00 0.00 0.00 0.00 0.00 0.00 0.00 0.00 0.00 0.00 0.00 0.00 0.00 0.00 0.00 0.00 0.00 0.00 0.00 0.00 0.00 0.00 0.00 0.00 0.00 0.00 0.00 0.00 0.00 0.00 0.00 0.00 0.00 0.00 0.00 0.00 0.00 0.00 0.00 0.00 0.00
0.00 0.00 0.00 0.00 0.00 0.00 0.00 0.00 0.00 0.00 0.00 0.00 0.00 0.00 0.00 0.00 0.00 0.00 0.00 0.00 0.00 0.00 0.00 0.00 0.00 0.00 0.00 0.00 0.00 0.00 0.00 0.00 0.00 0.00 0.00 0.00 0.00 0.00 0.00 0.00 0.00 0.00 0.00 0.00
0.00 0.00 0.00 0.00 0.00 0.00 0.00 0.00 0.00 0.00 0.00 0.00 0.00 0.00 0.00 0.00 0.00 0.00 0.00 0.00 0.00 0.00 0.00 0.00 0.00 0.00 0.00 0.00 0.00 0.00 0.00 0.00 0.00 0.00 0.00 0.00 0.00 0.00 0.00 0.00 0.00 0.00 0.00 0.00
0.00 0.00 0.00 0.00 0.00 0.00 0.00 0.00 0.00 0.00 0.00 0.00 0.00 0.00 0.00 0.00 0.00 0.00 0.00 0.00 0.00 0.00 0.00 0.00 0.00 0.00 0.00 0.00 0.00 0.00 0.00 0.00 0.00 0.00 0.00 0.00 0.00 0.00 0.00 0.00 0.00 0.00 0.00 0.00
0.00 0.00 0.00 0.00 0.00 0.00 0.00 0.00 0.00 0.00 0.00 0.00 0.00 0.00 0.00 0.00 0.00 0.00 0.00 0.00 0.00 0.00 0.00 0.00 0.00 0.00 0.00 0.00 0.00 0.00 0.00 0.00 0.00 0.00 0.00 0.00 0.00 0.00 0.00 0.00 0.00 0.00 0.00 0.00
0.00 0.00 0.00 0.00 0.00 0.00 0.00 0.00 0.00 0.00 0.00 0.00 0.00 0.00 0.00 0.00 0.00 0.00 0.00 0.00 0.00 0.00 0.00 0.00 0.00 0.00 0.00 0.00 0.00 0.00 0.00 0.00 0.00 0.00 0.00 0.00 0.00 0.00 0.00 0.00 0.00 0.00 0.00 0.00
0.00 0.00 0.00 0.00 0.00 0.00 0.00 0.00 0.00 0.00 0.00 0.00 0.00 0.00 0.00 0.00 0.00 0.00 0.00 0.00 0.00 0.00 0.00 0.00 0.00 0.00 0.00 0.00 0.00 0.00 0.00 0.00 0.00 0.00 0.00 0.00 0.00 0.00 0.00 0.00 0.00 0.00 0.00 0.00
0.00 0.00 0.00 0.00 0.00 0.00 0.00 0.00 0.00 0.00 0.00 0.01 0.00 0.00 0.00 0.00 0.00 0.00 0.00 0.00 0.00 0.00 0.00 0.00 0.00 0.00 0.00 0.00 0.00 0.00 0.00 0.00 0.00 0.00 0.00 0.00 0.00 0.00 0.00 0.00 0.00 0.00 0.00 0.00
0.00 0.00 0.00 0.00 0.00 0.00 0.00 0.00 0.00 0.00 0.00 0.04 0.07 0.01 0.00 0.00 0.00 0.00 0.00 0.00 0.00 0.00 0.00 0.00 0.00 0.00 0.00 0.00 0.00 0.00 0.00 0.00 0.00 0.00 0.00 0.00 0.00 0.00 0.00 0.00 0.00 0.00 0.00 0.01
0.00 0.00 0.00 0.00 0.00 0.00 0.00 0.00 0.00 0.01 0.02 0.01 0.03 0.01 0.00 0.00 0.00 0.00 0.00 0.00 0.00 0.00 0.00 0.00 0.00 0.00 0.00 0.00 0.00 0.00 0.00 0.00 0.00 0.00 0.00 0.00 0.00 0.00 0.00 0.00 0.00 0.00 0.00 0.00
0.00 0.00 0.00 0.00 0.00 0.00 0.00 0.00 0.00 0.00 0.00 0.01 0.03 0.00 0.00 0.00 0.00 0.00 0.00 0.00 0.00 0.00 0.00 0.00 0.00 0.00 0.00 0.00 0.00 0.00 0.00 0.00 0.00 0.00 0.00 0.00 0.00 0.00 0.00 0.00 0.00 0.00 0.00 0.00
0.00 0.00 0.00 0.00 0.00 0.00 0.00 0.00 0.00 0.00 0.00 0.00 0.00 0.00 0.00 0.00 0.00 0.00 0.00 0.00 0.00 0.00 0.00 0.00 0.00 0.00 0.00 0.00 0.00 0.00 0.00 0.00 0.00 0.00 0.00 0.00 0.00 0.00 0.00 0.00 0.00 0.00 0.00 0.00
0.00 0.00 0.00 0.00 0.00 0.00 0.00 0.00 0.00 0.00 0.00 0.00 0.00 0.00 0.00 0.00 0.00 0.00 0.00 0.00 0.00 0.00 0.00 0.00 0.00 0.00 0.00 0.00 0.00 0.00 0.00 0.00 0.00 0.00 0.00 0.00 0.00 0.00 0.00 0.00 0.00 0.00 0.00 0.00
0.00 0.00 0.00 0.00 0.00 0.00 0.00 0.00 0.00 0.00 0.00 0.00 0.00 0.00 0.00 0.00 0.00 0.00 0.00 0.00 0.00 0.00 0.00 0.00 0.00 0.00 0.00 0.00 0.00 0.00 0.00 0.00 0.00 0.00 0.00 0.02 0.05 0.10 0.13 0.11 0.06 0.01 0.00 0.00
0.00 0.00 0.01 0.01 0.00 0.01 0.01 0.00 0.00 0.00 0.00 0.00 0.00 0.00 0.00 0.00 0.00 0.00 0.00 0.00 0.00 0.00 0.00 0.01 0.00 0.00 0.00 0.00 0.00 0.00 0.00 0.00 0.01 0.01 0.03 0.06 0.10 0.12 0.06 0.01 0.00 0.00 0.00 0.00
0.00 0.00 0.01 0.01 0.02 0.07 0.00 0.00 0.00 0.00 0.00 0.00 0.00 0.00 0.00 0.00 0.00 0.00 0.00 0.00 0.02 0.01 0.03 0.02 0.00 0.00 0.00 0.00 0.00 0.00 0.00 0.02 0.02 0.01 0.02 0.01 0.00 0.00 0.00 0.00 0.00 0.00 0.00 0.00
0.00 0.00 0.01 0.02 0.03 0.01 0.00 0.00 0.00 0.00 0.00 0.00 0.00 0.02 0.02 0.02 0.02 0.00 0.01 0.03 0.05 0.04 0.04 0.00 0.00 0.00 0.00 0.00 0.01 0.03 0.03 0.03 0.03 0.01 0.00 0.00 0.00 0.00 0.00 0.00 0.00 0.00 0.00 0.00
0.00 0.00 0.02 0.02 0.03 0.03 0.00 0.00 0.00 0.00 0.00 0.01 0.04 0.09 0.14 0.10 0.16 0.10 0.05 0.04 0.03 0.02 0.00 0.00 0.00 0.00 0.00 0.01 0.01 0.01 0.00 0.00 0.00 0.00 0.00 0.00 0.00 0.00 0.00 0.00 0.00 0.00 0.00 0.00
0.01 0.00 0.00 0.00 0.02 0.01 0.00 0.00 0.01 0.11 0.13 0.06 0.12 0.16 0.09 0.12 0.14 0.12 0.09 0.02 0.00 0.00 0.00 0.00 0.00 0.00 0.00 0.00 0.01 0.01 0.00 0.00 0.00 0.00 0.00 0.00 0.00 0.00 0.00 0.00 0.00 0.00 0.00 0.00
0.03 0.09 0.10 0.05 0.13 0.05 0.00 0.02 0.12 0.16 0.07 0.07 0.05 0.05 0.06 0.05 0.08 0.08 0.03 0.02 0.00 0.00 0.00 0.00 0.00 0.00 0.00 0.01 0.00 0.00 0.00 0.00 0.00 0.00 0.00 0.00 0.00 0.00 0.00 0.00 0.00 0.00 0.00 0.00
0.01 0.01 0.02 0.02 0.02 0.00 0.00 0.02 0.01 0.03 0.08 0.06 0.06 0.03 0.06 0.10 0.09 0.04 0.03 0.00 0.00 0.00 0.00 0.00 0.00 0.01 0.01 0.00 0.00 0.00 0.00 0.00 0.00 0.00 0.00 0.00 0.00 0.00 0.00 0.00 0.00 0.00 0.00 0.00
0.03 0.02 0.02 0.01 0.01 0.00 0.01 0.01 0.02 0.06 0.07 0.06 0.07 0.08 0.08 0.08 0.06 0.03 0.00 0.00 0.00 0.00 0.01 0.01 0.02 0.02 0.00 0.00 0.00 0.00 0.00 0.00 0.00 0.00 0.00 0.00 0.00 0.00 0.00 0.00 0.00 0.00 0.00 0.01
0.07 0.05 0.02 0.03 0.01 0.02 0.03 0.06 0.08 0.08 0.13 0.12 0.08 0.07 0.05 0.03 0.01 0.01 0.01 0.00 0.00 0.01 0.01 0.02 0.04 0.04 0.00 0.00 0.00 0.00 0.00 0.00 0.00 0.00 0.00 0.00 0.00 0.00 0.00 0.00 0.00 0.00 0.00 0.01
0.04 0.02 0.04 0.08 0.04 0.17 0.08 0.10 0.09 0.11 0.15 0.10 0.07 0.03 0.01 0.00 0.00 0.00 0.00 0.00 0.00 0.02 0.03 0.03 0.02 0.00 0.00 0.00 0.00 0.00 0.00 0.00 0.00 0.00 0.00 0.00 0.00 0.00 0.00 0.00 0.00 0.00 0.00 0.00

GFSCGP_prec_precacc_018.txt.gz
Total_Precipitation_Accumulation
0.00 0.00 0.00 0.00 0.00 0.00 0.00 0.00 0.00 0.00 0.00 0.00 0.00 0.00 0.00 0.00 0.00 0.00 0.00 0.00 0.00 0.00 0.00 0.00 0.00 0.00 0.00 0.00 0.00 0.00 0.00 0.00 0.00 0.00 0.00 0.00 0.00 0.00 0.00 0.00 0.00 0.00 0.00 0.00
0.00 0.00 0.00 0.00 0.00 0.00 0.00 0.00 0.00 0.00 0.00 0.00 0.00 0.00 0.00 0.00 0.00 0.00 0.00 0.00 0.00 0.00 0.00 0.00 0.00 0.00 0.00 0.00 0.00 0.00 0.00 0.00 0.00 0.00 0.00 0.00 0.00 0.00 0.00 0.00 0.00 0.00 0.00 0.00
0.00 0.00 0.00 0.00 0.00 0.00 0.00 0.00 0.00 0.00 0.00 0.00 0.00 0.00 0.00 0.00 0.00 0.00 0.00 0.00 0.00 0.00 0.00 0.00 0.00 0.00 0.00 0.00 0.00 0.00 0.00 0.00 0.00 0.00 0.00 0.00 0.00 0.00 0.00 0.00 0.00 0.00 0.00 0.00
0.00 0.00 0.00 0.00 0.00 0.00 0.00 0.00 0.00 0.00 0.00 0.00 0.00 0.00 0.00 0.00 0.00 0.00 0.00 0.00 0.00 0.00 0.00 0.00 0.00 0.00 0.00 0.00 0.00 0.00 0.00 0.00 0.00 0.00 0.00 0.00 0.00 0.00 0.00 0.00 0.00 0.00 0.00 0.00
0.00 0.00 0.00 0.00 0.00 0.00 0.00 0.00 0.00 0.00 0.00 0.00 0.00 0.00 0.00 0.00 0.00 0.00 0.00 0.00 0.00 0.00 0.00 0.00 0.00 0.00 0.00 0.00 0.00 0.00 0.00 0.00 0.00 0.00 0.00 0.00 0.00 0.00 0.00 0.00 0.00 0.00 0.00 0.00
0.00 0.00 0.00 0.00 0.00 0.00 0.00 0.00 0.00 0.00 0.00 0.00 0.00 0.00 0.00 0.00 0.00 0.00 0.00 0.00 0.00 0.00 0.00 0.00 0.00 0.00 0.00 0.00 0.00 0.00 0.00 0.00 0.00 0.00 0.00 0.00 0.00 0.00 0.00 0.00 0.00 0.00 0.00 0.00
0.00 0.00 0.00 0.00 0.00 0.00 0.00 0.00 0.00 0.00 0.00 0.00 0.00 0.00 0.00 0.00 0.00 0.00 0.00 0.00 0.00 0.00 0.00 0.00 0.00 0.00 0.00 0.00 0.00 0.00 0.00 0.00 0.00 0.00 0.00 0.00 0.00 0.00 0.00 0.00 0.00 0.00 0.00 0.00
0.00 0.00 0.00 0.00 0.00 0.00 0.00 0.00 0.00 0.00 0.00 0.00 0.00 0.00 0.00 0.00 0.00 0.00 0.00 0.00 0.00 0.00 0.00 0.00 0.00 0.00 0.00 0.00 0.00 0.00 0.00 0.00 0.00 0.00 0.00 0.00 0.00 0.00 0.00 0.00 0.00 0.00 0.00 0.00
0.00 0.00 0.00 0.00 0.00 0.00 0.00 0.00 0.00 0.00 0.00 0.00 0.00 0.00 0.00 0.00 0.00 0.00 0.00 0.00 0.00 0.00 0.00 0.00 0.00 0.00 0.00 0.00 0.00 0.00 0.00 0.00 0.00 0.00 0.00 0.00 0.00 0.00 0.00 0.00 0.00 0.00 0.00 0.00
0.00 0.00 0.00 0.00 0.00 0.00 0.00 0.00 0.00 0.00 0.00 0.01 0.00 0.00 0.00 0.00 0.00 0.00 0.00 0.00 0.00 0.00 0.00 0.00 0.00 0.00 0.00 0.00 0.00 0.00 0.00 0.00 0.00 0.00 0.00 0.00 0.00 0.00 0.00 0.00 0.00 0.00 0.00 0.00
0.00 0.00 0.00 0.00 0.00 0.00 0.00 0.00 0.00 0.00 0.00 0.04 0.07 0.01 0.00 0.00 0.00 0.00 0.00 0.00 0.00 0.00 0.00 0.00 0.00 0.00 0.00 0.00 0.00 0.00 0.00 0.00 0.00 0.00 0.00 0.00 0.00 0.00 0.00 0.00 0.00 0.00 0.00 0.01
0.00 0.00 0.00 0.00 0.00 0.00 0.00 0.00 0.00 0.01 0.02 0.01 0.03 0.01 0.00 0.00 0.00 0.00 0.00 0.00 0.00 0.00 0.00 0.00 0.00 0.00 0.00 0.00 0.00 0.00 0.00 0.00 0.00 0.00 0.00 0.00 0.00 0.00 0.00 0.00 0.00 0.00 0.00 0.00
0.00 0.00 0.00 0.00 0.00 0.00 0.00 0.00 0.00 0.00 0.00 0.01 0.03 0.00 0.00 0.00 0.00 0.00 0.00 0.00 0.00 0.00 0.00 0.00 0.00 0.00 0.00 0.00 0.00 0.00 0.00 0.00 0.00 0.00 0.00 0.00 0.00 0.00 0.00 0.00 0.00 0.00 0.00 0.00
0.00 0.00 0.00 0.00 0.00 0.00 0.00 0.00 0.00 0.00 0.00 0.00 0.00 0.00 0.00 0.00 0.00 0.00 0.00 0.00 0.00 0.00 0.00 0.00 0.00 0.00 0.00 0.00 0.00 0.00 0.00 0.00 0.00 0.00 0.00 0.00 0.00 0.00 0.00 0.00 0.00 0.00 0.00 0.01
0.00 0.00 0.00 0.00 0.00 0.00 0.00 0.00 0.00 0.00 0.00 0.00 0.00 0.00 0.00 0.00 0.00 0.00 0.00 0.00 0.00 0.00 0.00 0.00 0.00 0.00 0.00 0.00 0.00 0.00 0.00 0.00 0.00 0.00 0.00 0.00 0.00 0.00 0.01 0.01 0.02 0.03 0.02 0.01
0.00 0.00 0.00 0.00 0.00 0.00 0.00 0.00 0.00 0.00 0.00 0.00 0.00 0.00 0.00 0.00 0.00 0.00 0.00 0.00 0.00 0.00 0.00 0.00 0.00 0.00 0.00 0.00 0.00 0.00 0.00 0.00 0.00 0.00 0.00 0.02 0.06 0.12 0.16 0.14 0.09 0.03 0.01 0.01
0.00 0.00 0.01 0.01 0.00 0.01 0.01 0.00 0.00 0.00 0.00 0.00 0.00 0.00 0.00 0.00 0.00 0.00 0.00 0.00 0.00 0.00 0.00 0.01 0.00 0.00 0.00 0.00 0.00 0.00 0.00 0.00 0.01 0.01 0.03 0.06 0.10 0.12 0.06 0.01 0.00 0.00 0.00 0.00
0.00 0.00 0.01 0.01 0.02 0.07 0.00 0.00 0.00 0.00 0.00 0.00 0.00 0.00 0.00 0.00 0.00 0.00 0.00 0.00 0.02 0.01 0.03 0.02 0.00 0.00 0.00 0.00 0.00 0.00 0.00 0.02 0.02 0.01 0.02 0.02 0.00 0.00 0.00 0.00 0.00 0.00 0.00 0.00
0.00 0.00 0.01 0.02 0.03 0.02 0.00 0.00 0.00 0.00 0.00 0.00 0.00 0.02 0.02 0.02 0.02 0.00 0.01 0.03 0.05 0.04 0.04 0.00 0.00 0.00 0.00 0.00 0.01 0.03 0.03 0.03 0.03 0.01 0.00 0.00 0.00 0.00 0.00 0.00 0.00 0.00 0.00 0.00
0.00 0.00 0.02 0.02 0.03 0.03 0.00 0.00 0.00 0.00 0.00 0.01 0.04 0.09 0.14 0.10 0.16 0.10 0.06 0.04 0.03 0.02 0.00 0.00 0.00 0.00 0.00 0.01 0.01 0.01 0.00 0.00 0.00 0.00 0.00 0.00 0.00 0.00 0.00 0.00 0.00 0.00 0.00 0.00
0.01 0.00 0.00 0.00 0.02 0.01 0.00 0.00 0.01 0.11 0.13 0.06 0.12 0.16 0.09 0.12 0.14 0.13 0.09 0.02 0.00 0.00 0.00 0.00 0.00 0.00 0.00 0.00 0.01 0.01 0.00 0.00 0.00 0.00 0.00 0.00 0.00 0.00 0.00 0.00 0.00 0.00 0.00 0.00
0.03 0.09 0.10 0.05 0.14 0.05 0.00 0.02 0.12 0.16 0.07 0.07 0.05 0.05 0.06 0.07 0.10 0.08 0.03 0.02 0.00 0.00 0.00 0.00 0.00 0.00 0.00 0.01 0.00 0.00 0.00 0.00 0.00 0.00 0.00 0.00 0.00 0.00 0.00 0.00 0.00 0.00 0.00 0.00
0.01 0.01 0.02 0.03 0.02 0.00 0.00 0.02 0.01 0.03 0.08 0.06 0.06 0.05 0.11 0.16 0.10 0.04 0.03 0.00 0.00 0.00 0.00 0.00 0.00 0.01 0.01 0.00 0.00 0.00 0.00 0.00 0.00 0.00 0.00 0.00 0.00 0.00 0.00 0.00 0.00 0.00 0.00 0.00
0.04 0.02 0.02 0.02 0.01 0.00 0.01 0.01 0.02 0.06 0.07 0.07 0.14 0.17 0.13 0.09 0.06 0.03 0.00 0.00 0.00 0.00 0.01 0.01 0.02 0.02 0.00 0.00 0.00 0.00 0.00 0.00 0.00 0.00 0.00 0.00 0.00 0.00 0.00 0.00 0.00 0.00 0.00 0.01
0.07 0.05 0.03 0.04 0.01 0.02 0.03 0.06 0.09 0.10 0.18 0.23 0.16 0.11 0.06 0.03 0.01 0.01 0.01 0.00 0.00 0.01 0.01 0.02 0.04 0.04 0.00 0.00 0.00 0.00 0.00 0.00 0.00 0.00 0.00 0.00 0.00 0.00 0.00 0.00 0.00 0.00 0.00 0.01
0.04 0.02 0.04 0.08 0.05 0.19 0.11 0.16 0.20 0.21 0.23 0.15 0.08 0.03 0.01 0.01 0.00 0.00 0.00 0.00 0.00 0.02 0.03 0.03 0.02 0.00 0.00 0.00 0.00 0.00 0.00 0.00 0.00 0.00 0.00 0.00 0.00 0.00 0.00 0.00 0.00 0.00 0.00 0.00

GFSCGP_prec_precacc_024.txt.gz
Total_Precipitation_Accumulation
0.00 0.00 0.00 0.00 0.00 0.00 0.00 0.00 0.00 0.00 0.00 0.00 0.00 0.00 0.00 0.00 0.00 0.00 0.00 0.00 0.00 0.00 0.00 0.00 0.00 0.00 0.00 0.00 0.00 0.00 0.00 0.00 0.00 0.00 0.00 0.00 0.00 0.00 0.00 0.00 0.00 0.00 0.00 0.00
0.00 0.00 0.00 0.00 0.00 0.00 0.00 0.00 0.00 0.00 0.00 0.00 0.00 0.00 0.00 0.00 0.00 0.00 0.00 0.00 0.00 0.00 0.00 0.00 0.00 0.00 0.00 0.00 0.00 0.00 0.00 0.00 0.00 0.00 0.00 0.00 0.00 0.00 0.00 0.00 0.00 0.00 0.00 0.00
0.00 0.00 0.00 0.00 0.00 0.00 0.00 0.00 0.00 0.00 0.00 0.00 0.00 0.00 0.00 0.00 0.00 0.00 0.00 0.00 0.00 0.00 0.00 0.00 0.00 0.00 0.00 0.00 0.00 0.00 0.00 0.00 0.00 0.00 0.00 0.00 0.00 0.00 0.00 0.00 0.00 0.00 0.00 0.00
0.00 0.00 0.00 0.00 0.00 0.00 0.00 0.00 0.00 0.00 0.00 0.00 0.00 0.00 0.00 0.00 0.00 0.00 0.00 0.00 0.00 0.00 0.00 0.00 0.00 0.00 0.00 0.00 0.00 0.00 0.00 0.00 0.00 0.00 0.00 0.00 0.00 0.00 0.00 0.00 0.00 0.00 0.00 0.00
0.00 0.00 0.00 0.00 0.00 0.00 0.00 0.00 0.00 0.00 0.00 0.00 0.00 0.00 0.00 0.00 0.00 0.00 0.00 0.00 0.00 0.00 0.00 0.00 0.00 0.00 0.00 0.00 0.00 0.00 0.00 0.00 0.00 0.00 0.00 0.00 0.00 0.00 0.00 0.00 0.00 0.00 0.00 0.00
0.00 0.00 0.00 0.00 0.00 0.00 0.00 0.00 0.00 0.00 0.00 0.00 0.00 0.00 0.00 0.00 0.00 0.00 0.00 0.00 0.00 0.00 0.00 0.00 0.00 0.00 0.00 0.00 0.00 0.00 0.00 0.00 0.00 0.00 0.00 0.00 0.00 0.00 0.00 0.00 0.00 0.00 0.00 0.00
0.00 0.00 0.00 0.00 0.00 0.00 0.00 0.00 0.00 0.00 0.00 0.00 0.00 0.00 0.00 0.00 0.00 0.00 0.00 0.00 0.00 0.00 0.00 0.00 0.00 0.00 0.00 0.00 0.00 0.00 0.00 0.00 0.00 0.00 0.00 0.00 0.00 0.00 0.00 0.00 0.00 0.00 0.00 0.00
0.00 0.00 0.00 0.00 0.00 0.00 0.00 0.00 0.00 0.00 0.00 0.00 0.00 0.00 0.00 0.00 0.00 0.00 0.00 0.00 0.00 0.00 0.00 0.00 0.00 0.00 0.00 0.00 0.00 0.00 0.00 0.00 0.00 0.00 0.00 0.00 0.00 0.00 0.00 0.00 0.00 0.00 0.00 0.00
0.00 0.00 0.00 0.00 0.00 0.00 0.00 0.00 0.00 0.00 0.00 0.00 0.00 0.00 0.00 0.00 0.00 0.00 0.00 0.00 0.00 0.00 0.00 0.00 0.00 0.00 0.00 0.00 0.00 0.00 0.00 0.00 0.00 0.00 0.00 0.00 0.00 0.00 0.00 0.00 0.00 0.00 0.00 0.00
0.00 0.00 0.00 0.00 0.00 0.00 0.00 0.00 0.00 0.00 0.00 0.01 0.00 0.00 0.00 0.00 0.00 0.00 0.00 0.00 0.00 0.00 0.00 0.00 0.00 0.00 0.00 0.00 0.00 0.00 0.00 0.00 0.00 0.00 0.00 0.00 0.00 0.00 0.00 0.00 0.00 0.00 0.00 0.00
0.00 0.00 0.00 0.00 0.00 0.00 0.00 0.00 0.00 0.00 0.00 0.04 0.07 0.01 0.00 0.00 0.00 0.00 0.00 0.00 0.00 0.00 0.00 0.00 0.00 0.00 0.00 0.00 0.00 0.00 0.00 0.00 0.00 0.00 0.00 0.00 0.00 0.00 0.00 0.00 0.00 0.00 0.00 0.01
0.00 0.00 0.00 0.00 0.00 0.00 0.00 0.00 0.00 0.01 0.02 0.01 0.03 0.01 0.00 0.00 0.00 0.00 0.00 0.00 0.00 0.00 0.00 0.00 0.00 0.00 0.00 0.00 0.00 0.00 0.00 0.00 0.00 0.00 0.00 0.00 0.00 0.00 0.00 0.00 0.00 0.00 0.00 0.00
0.00 0.00 0.00 0.00 0.00 0.00 0.00 0.00 0.00 0.00 0.00 0.01 0.03 0.00 0.00 0.00 0.00 0.00 0.00 0.00 0.00 0.00 0.00 0.00 0.00 0.00 0.00 0.00 0.00 0.00 0.00 0.00 0.00 0.00 0.00 0.00 0.00 0.00 0.00 0.00 0.00 0.00 0.00 0.01
0.00 0.00 0.00 0.00 0.00 0.00 0.00 0.00 0.00 0.00 0.00 0.00 0.00 0.00 0.00 0.00 0.00 0.00 0.00 0.00 0.00 0.00 0.00 0.00 0.00 0.00 0.00 0.00 0.00 0.00 0.00 0.00 0.00 0.00 0.00 0.00 0.00 0.00 0.00 0.00 0.00 0.01 0.01 0.03
0.00 0.00 0.00 0.00 0.00 0.00 0.00 0.00 0.00 0.00 0.00 0.00 0.00 0.00 0.00 0.00 0.00 0.00 0.00 0.00 0.00 0.00 0.00 0.00 0.00 0.00 0.00 0.00 0.00 0.00 0.00 0.00 0.00 0.00 0.00 0.00 0.00 0.01 0.02 0.04 0.03 0.05 0.04 0.03
0.00 0.00 0.00 0.00 0.00 0.00 0.00 0.00 0.00 0.00 0.00 0.00 0.00 0.00 0.00 0.00 0.00 0.00 0.00 0.00 0.00 0.00 0.00 0.00 0.00 0.00 0.00 0.00 0.00 0.00 0.00 0.00 0.00 0.00 0.00 0.03 0.07 0.15 0.20 0.17 0.10 0.03 0.02 0.01
0.00 0.00 0.01 0.01 0.00 0.01 0.01 0.00 0.00 0.00 0.00 0.00 0.00 0.00 0.00 0.00 0.00 0.00 0.00 0.00 0.00 0.00 0.00 0.01 0.00 0.00 0.00 0.00 0.00 0.00 0.00 0.00 0.01 0.01 0.03 0.07 0.11 0.14 0.08 0.01 0.00 0.00 0.00 0.00
0.00 0.00 0.01 0.01 0.02 0.07 0.00 0.00 0.00 0.00 0.00 0.00 0.00 0.00 0.00 0.00 0.00 0.00 0.00 0.00 0.02 0.01 0.03 0.02 0.00 0.00 0.00 0.00 0.00 0.00 0.00 0.02 0.02 0.01 0.02 0.02 0.00 0.00 0.00 0.00 0.00 0.00 0.00 0.00
0.00 0.00 0.01 0.02 0.03 0.02 0.00 0.00 0.00 0.00 0.00 0.00 0.00 0.02 0.02 0.02 0.02 0.00 0.01 0.03 0.06 0.05 0.04 0.00 0.00 0.00 0.00 0.00 0.01 0.03 0.03 0.03 0.03 0.01 0.00 0.00 0.00 0.00 0.00 0.00 0.00 0.00 0.00 0.00
0.00 0.00 0.02 0.02 0.05 0.04 0.00 0.00 0.00 0.00 0.00 0.01 0.04 0.09 0.14 0.11 0.19 0.11 0.06 0.08 0.06 0.03 0.00 0.00 0.00 0.00 0.00 0.01 0.01 0.01 0.01 0.00 0.00 0.00 0.00 0.00 0.00 0.00 0.00 0.00 0.00 0.00 0.00 0.00
0.01 0.00 0.00 0.00 0.03 0.01 0.00 0.00 0.01 0.12 0.15 0.06 0.12 0.17 0.11 0.14 0.16 0.17 0.17 0.05 0.00 0.00 0.00 0.00 0.00 0.00 0.00 0.00 0.01 0.01 0.00 0.00 0.00 0.00 0.00 0.00 0.00 0.00 0.00 0.00 0.00 0.00 0.00 0.00
0.03 0.09 0.10 0.07 0.16 0.05 0.00 0.02 0.13 0.16 0.07 0.08 0.06 0.05 0.07 0.08 0.18 0.18 0.05 0.02 0.00 0.00 0.00 0.00 0.00 0.00 0.00 0.01 0.00 0.00 0.00 0.00 0.00 0.00 0.00 0.00 0.00 0.00 0.00 0.00 0.00 0.00 0.00 0.00
0.01 0.01 0.02 0.04 0.03 0.00 0.00 0.02 0.01 0.03 0.09 0.06 0.07 0.08 0.16 0.26 0.16 0.04 0.03 0.00 0.00 0.00 0.00 0.00 0.00 0.01 0.01 0.00 0.00 0.00 0.00 0.00 0.00 0.00 0.00 0.00 0.00 0.00 0.00 0.00 0.00 0.00 0.00 0.00
0.04 0.02 0.02 0.02 0.01 0.00 0.01 0.01 0.02 0.06 0.08 0.13 0.20 0.24 0.21 0.10 0.06 0.03 0.00 0.00 0.00 0.00 0.01 0.01 0.02 0.02 0.00 0.00 0.00 0.00 0.00 0.00 0.00 0.00 0.00 0.00 0.00 0.00 0.00 0.00 0.00 0.00 0.00 0.01
0.08 0.06 0.03 0.04 0.01 0.02 0.04 0.07 0.12 0.19 0.31 0.29 0.19 0.14 0.07 0.03 0.01 0.01 0.01 0.00 0.00 0.01 0.01 0.02 0.04 0.04 0.00 0.00 0.00 0.00 0.00 0.00 0.00 0.00 0.00 0.00 0.00 0.00 0.00 0.00 0.00 0.00 0.00 0.01
0.06 0.03 0.05 0.09 0.05 0.20 0.14 0.26 0.38 0.37 0.27 0.15 0.09 0.04 0.01 0.01 0.00 0.00 0.00 0.00 0.00 0.02 0.03 0.03 0.02 0.00 0.00 0.00 0.00 0.00 0.00 0.00 0.00 0.00 0.00 0.00 0.00 0.00 0.00 0.00 0.00 0.00 0.00 0.00

GFSCGP_prec_precacc_030.txt.gz
Total_Precipitation_Accumulation
0.00 0.00 0.00 0.00 0.00 0.00 0.00 0.00 0.00 0.00 0.00 0.00 0.00 0.00 0.00 0.00 0.00 0.00 0.00 0.00 0.00 0.00 0.00 0.00 0.00 0.00 0.00 0.00 0.00 0.00 0.00 0.03 0.02 0.00 0.00 0.00 0.00 0.00 0.00 0.00 0.00 0.00 0.00 0.00
0.00 0.00 0.00 0.00 0.00 0.00 0.00 0.00 0.00 0.00 0.00 0.00 0.00 0.00 0.00 0.00 0.00 0.00 0.00 0.00 0.00 0.00 0.00 0.00 0.00 0.00 0.00 0.00 0.00 0.00 0.00 0.00 0.00 0.00 0.00 0.00 0.00 0.00 0.00 0.00 0.00 0.00 0.00 0.00
0.00 0.00 0.00 0.00 0.00 0.00 0.00 0.00 0.00 0.00 0.00 0.00 0.00 0.00 0.00 0.00 0.00 0.00 0.00 0.00 0.00 0.00 0.00 0.00 0.00 0.00 0.00 0.00 0.00 0.00 0.00 0.00 0.00 0.00 0.00 0.00 0.00 0.00 0.00 0.00 0.00 0.00 0.00 0.00
0.00 0.00 0.00 0.00 0.00 0.00 0.00 0.00 0.00 0.00 0.00 0.00 0.00 0.00 0.00 0.00 0.00 0.00 0.00 0.00 0.00 0.00 0.00 0.00 0.00 0.00 0.00 0.00 0.00 0.00 0.00 0.00 0.00 0.00 0.00 0.00 0.00 0.00 0.00 0.00 0.00 0.00 0.00 0.00
0.00 0.00 0.00 0.00 0.00 0.00 0.00 0.00 0.00 0.00 0.00 0.00 0.00 0.00 0.00 0.00 0.00 0.00 0.00 0.00 0.00 0.00 0.00 0.00 0.00 0.00 0.00 0.00 0.00 0.00 0.00 0.00 0.00 0.00 0.00 0.00 0.00 0.00 0.00 0.00 0.00 0.00 0.00 0.00
0.00 0.00 0.00 0.00 0.00 0.00 0.00 0.00 0.00 0.00 0.00 0.00 0.00 0.00 0.00 0.00 0.00 0.00 0.00 0.00 0.00 0.00 0.00 0.00 0.00 0.00 0.00 0.00 0.00 0.00 0.00 0.00 0.00 0.00 0.00 0.00 0.00 0.00 0.00 0.00 0.00 0.00 0.00 0.00
0.00 0.00 0.00 0.00 0.00 0.00 0.00 0.00 0.00 0.00 0.00 0.00 0.00 0.00 0.00 0.00 0.00 0.00 0.00 0.00 0.00 0.00 0.00 0.00 0.00 0.00 0.00 0.00 0.00 0.00 0.00 0.00 0.00 0.00 0.00 0.00 0.00 0.00 0.00 0.00 0.00 0.00 0.00 0.00
0.00 0.00 0.00 0.00 0.00 0.00 0.00 0.00 0.00 0.00 0.00 0.01 0.00 0.00 0.00 0.00 0.00 0.00 0.00 0.00 0.00 0.00 0.00 0.00 0.00 0.00 0.00 0.00 0.00 0.00 0.00 0.00 0.00 0.00 0.00 0.00 0.00 0.00 0.00 0.00 0.00 0.00 0.00 0.00
0.00 0.00 0.00 0.00 0.00 0.00 0.00 0.00 0.00 0.00 0.00 0.00 0.00 0.00 0.00 0.00 0.00 0.00 0.00 0.00 0.00 0.00 0.00 0.00 0.00 0.00 0.00 0.00 0.00 0.00 0.00 0.00 0.00 0.00 0.00 0.00 0.00 0.00 0.00 0.00 0.00 0.00 0.00 0.00
0.00 0.00 0.00 0.00 0.00 0.00 0.00 0.00 0.00 0.00 0.00 0.01 0.00 0.00 0.00 0.00 0.00 0.00 0.00 0.00 0.00 0.00 0.00 0.00 0.00 0.00 0.00 0.00 0.00 0.00 0.00 0.00 0.00 0.00 0.00 0.00 0.00 0.00 0.00 0.00 0.00 0.00 0.00 0.00
0.00 0.00 0.00 0.00 0.00 0.00 0.00 0.00 0.00 0.00 0.00 0.04 0.07 0.01 0.00 0.00 0.00 0.00 0.00 0.00 0.00 0.00 0.00 0.00 0.00 0.00 0.00 0.00 0.00 0.00 0.00 0.00 0.00 0.00 0.00 0.00 0.00 0.00 0.00 0.00 0.00 0.00 0.00 0.01
0.00 0.00 0.00 0.00 0.00 0.00 0.00 0.00 0.00 0.01 0.02 0.01 0.03 0.01 0.00 0.00 0.00 0.00 0.00 0.00 0.00 0.00 0.00 0.00 0.00 0.00 0.00 0.00 0.00 0.00 0.00 0.00 0.00 0.00 0.00 0.00 0.00 0.00 0.00 0.00 0.00 0.00 0.00 0.01
0.00 0.00 0.00 0.00 0.00 0.00 0.00 0.00 0.00 0.00 0.00 0.01 0.03 0.00 0.00 0.00 0.00 0.00 0.00 0.00 0.00 0.00 0.00 0.00 0.00 0.00 0.00 0.00 0.00 0.00 0.00 0.00 0.00 0.00 0.00 0.00 0.00 0.00 0.00 0.00 0.00 0.00 0.01 0.04
0.00 0.00 0.00 0.00 0.00 0.00 0.00 0.00 0.00 0.00 0.00 0.00 0.00 0.00 0.00 0.00 0.00 0.00 0.00 0.00 0.00 0.00 0.00 0.00 0.00 0.00 0.00 0.00 0.00 0.00 0.00 0.00 0.00 0.00 0.00 0.00 0.00 0.00 0.01 0.01 0.01 0.03 0.05 0.07
0.00 0.00 0.00 0.00 0.00 0.00 0.00 0.00 0.00 0.00 0.00 0.00 0.00 0.00 0.00 0.00 0.00 0.00 0.00 0.00 0.00 0.00 0.00 0.00 0.00 0.00 0.00 0.00 0.00 0.00 0.00 0.00 0.00 0.00 0.00 0.00 0.01 0.01 0.03 0.05 0.05 0.07 0.06 0.04
0.00 0.00 0.00 0.00 0.00 0.00 0.00 0.00 0.00 0.00 0.00 0.00 0.00 0.00 0.00 0.00 0.00 0.00 0.00 0.00 0.00 0.00 0.00 0.00 0.00 0.00 0.00 0.00 0.00 0.00 0.00 0.00 0.00 0.00 0.00 0.03 0.07 0.15 0.21 0.18 0.10 0.04 0.02 0.01
0.00 0.00 0.01 0.01 0.00 0.01 0.01 0.00 0.00 0.00 0.00 0.00 0.00 0.00 0.00 0.00 0.00 0.00 0.00 0.00 0.00 0.01 0.00 0.01 0.00 0.00 0.00 0.00 0.00 0.00 0.00 0.00 0.01 0.01 0.03 0.07 0.11 0.14 0.08 0.01 0.00 0.00 0.00 0.00
0.00 0.00 0.01 0.01 0.02 0.07 0.00 0.00 0.00 0.00 0.00 0.00 0.00 0.00 0.00 0.00 0.00 0.00 0.00 0.00 0.02 0.02 0.03 0.02 0.00 0.00 0.00 0.00 0.00 0.00 0.00 0.02 0.02 0.01 0.02 0.02 0.00 0.00 0.00 0.00 0.00 0.00 0.00 0.00
0.00 0.00 0.01 0.02 0.03 0.02 0.00 0.00 0.00 0.00 0.00 0.00 0.00 0.02 0.02 0.02 0.02 0.01 0.01 0.03 0.06 0.05 0.04 0.00 0.00 0.00 0.00 0.00 0.01 0.03 0.03 0.03 0.03 0.01 0.00 0.00 0.00 0.00 0.00 0.00 0.00 0.00 0.00 0.00
0.00 0.00 0.02 0.03 0.05 0.04 0.00 0.00 0.00 0.00 0.01 0.01 0.04 0.09 0.14 0.11 0.19 0.12 0.07 0.08 0.06 0.03 0.00 0.00 0.00 0.00 0.00 0.01 0.01 0.01 0.01 0.00 0.00 0.00 0.00 0.00 0.00 0.00 0.00 0.00 0.00 0.00 0.00 0.00
0.01 0.00 0.00 0.01 0.04 0.01 0.00 0.00 0.01 0.14 0.17 0.06 0.12 0.17 0.11 0.16 0.19 0.19 0.18 0.05 0.00 0.00 0.00 0.00 0.00 0.00 0.00 0.00 0.01 0.01 0.00 0.00 0.00 0.01 0.01 0.00 0.00 0.00 0.00 0.00 0.00 0.00 0.00 0.00
0.03 0.09 0.10 0.07 0.16 0.06 0.00 0.03 0.15 0.18 0.08 0.08 0.07 0.06 0.08 0.10 0.19 0.18 0.05 0.02 0.00 0.00 0.00 0.00 0.00 0.00 0.00 0.01 0.00 0.00 0.00 0.00 0.00 0.00 0.01 0.01 0.01 0.00 0.00 0.00 0.00 0.00 0.00 0.00
0.01 0.01 0.02 0.04 0.03 0.00 0.00 0.03 0.02 0.04 0.10 0.07 0.07 0.09 0.16 0.26 0.16 0.04 0.03 0.00 0.00 0.00 0.00 0.00 0.00 0.01 0.01 0.00 0.00 0.00 0.00 0.00 0.01 0.02 0.03 0.01 0.00 0.00 0.00 0.00 0.00 0.00 0.00 0.01
0.04 0.02 0.02 0.02 0.01 0.00 0.01 0.01 0.02 0.06 0.08 0.13 0.20 0.24 0.21 0.10 0.06 0.03 0.00 0.00 0.00 0.00 0.01 0.01 0.02 0.02 0.00 0.00 0.00 0.01 0.01 0.02 0.03 0.02 0.01 0.00 0.00 0.00 0.00 0.00 0.00 0.00 0.01 0.01
0.08 0.06 0.03 0.05 0.01 0.02 0.04 0.07 0.14 0.21 0.31 0.29 0.19 0.14 0.07 0.03 0.01 0.01 0.01 0.00 0.00 0.01 0.01 0.02 0.04 0.04 0.00 0.00 0.00 0.01 0.02 0.02 0.01 0.01 0.00 0.00 0.00 0.00 0.00 0.00 0.00 0.00 0.00 0.01
0.06 0.03 0.06 0.10 0.06 0.23 0.22 0.33 0.42 0.38 0.27 0.15 0.09 0.04 0.01 0.01 0.00 0.00 0.00 0.00 0.00 0.02 0.03 0.03 0.02 0.00 0.00 0.00 0.00 0.01 0.01 0.00 0.00 0.01 0.01 0.01 0.00 0.00 0.00 0.00 0.00 0.00 0.00 0.00

GFSCGP_prec_precacc_033.txt.gz
Total_Precipitation_Accumulation
0.00 0.00 0.00 0.00 0.00 0.00 0.00 0.00 0.00 0.00 0.00 0.00 0.00 0.00 0.00 0.00 0.00 0.00 0.00 0.00 0.00 0.00 0.00 0.00 0.00 0.00 0.00 0.01 0.01 0.01 0.00 0.06 0.05 0.02 0.01 0.00 0.00 0.00 0.00 0.00 0.00 0.00 0.00 0.00
0.00 0.00 0.00 0.00 0.00 0.00 0.00 0.00 0.00 0.00 0.00 0.00 0.00 0.00 0.00 0.00 0.00 0.00 0.00 0.00 0.00 0.00 0.00 0.00 0.00 0.01 0.02 0.01 0.00 0.00 0.00 0.00 0.00 0.00 0.00 0.00 0.00 0.00 0.00 0.00 0.00 0.00 0.00 0.00
0.00 0.00 0.00 0.00 0.00 0.00 0.00 0.00 0.00 0.00 0.00 0.00 0.00 0.00 0.00 0.00 0.00 0.00 0.00 0.00 0.00 0.00 0.00 0.00 0.00 0.00 0.00 0.00 0.00 0.00 0.00 0.00 0.00 0.00 0.00 0.00 0.00 0.00 0.00 0.00 0.00 0.00 0.00 0.00
0.00 0.00 0.00 0.00 0.00 0.00 0.00 0.00 0.00 0.00 0.00 0.00 0.00 0.00 0.00 0.00 0.00 0.00 0.00 0.00 0.00 0.00 0.00 0.00 0.00 0.00 0.00 0.00 0.00 0.00 0.00 0.00 0.00 0.00 0.00 0.00 0.00 0.00 0.00 0.00 0.00 0.00 0.00 0.00
0.00 0.00 0.00 0.00 0.00 0.00 0.00 0.00 0.00 0.00 0.00 0.00 0.00 0.00 0.00 0.00 0.00 0.00 0.00 0.00 0.00 0.00 0.00 0.00 0.00 0.00 0.00 0.00 0.00 0.00 0.00 0.00 0.00 0.00 0.00 0.00 0.00 0.00 0.00 0.00 0.00 0.00 0.00 0.00
0.00 0.00 0.00 0.00 0.00 0.00 0.00 0.00 0.00 0.00 0.00 0.00 0.00 0.00 0.00 0.00 0.00 0.00 0.00 0.00 0.00 0.00 0.00 0.00 0.00 0.00 0.00 0.00 0.00 0.00 0.00 0.00 0.00 0.00 0.00 0.00 0.00 0.00 0.00 0.00 0.00 0.00 0.00 0.00
0.00 0.00 0.00 0.00 0.00 0.00 0.00 0.00 0.00 0.00 0.01 0.01 0.03 0.03 0.01 0.00 0.00 0.00 0.00 0.00 0.00 0.00 0.00 0.00 0.00 0.00 0.00 0.00 0.00 0.00 0.00 0.00 0.00 0.00 0.00 0.00 0.00 0.00 0.00 0.00 0.00 0.00 0.00 0.00
0.00 0.00 0.00 0.00 0.00 0.00 0.00 0.00 0.00 0.00 0.01 0.02 0.01 0.00 0.00 0.00 0.00 0.00 0.00 0.00 0.00 0.00 0.00 0.00 0.00 0.00 0.00 0.00 0.00 0.00 0.00 0.00 0.00 0.00 0.00 0.00 0.00 0.00 0.00 0.00 0.00 0.00 0.00 0.00
0.00 0.00 0.00 0.00 0.00 0.00 0.00 0.00 0.00 0.00 0.00 0.00 0.00 0.00 0.00 0.00 0.00 0.00 0.00 0.00 0.00 0.00 0.00 0.00 0.00 0.00 0.00 0.00 0.00 0.00 0.00 0.00 0.00 0.00 0.00 0.00 0.00 0.00 0.00 0.00 0.00 0.00 0.00 0.00
0.00 0.00 0.00 0.00 0.00 0.00 0.00 0.00 0.00 0.00 0.00 0.01 0.00 0.00 0.00 0.00 0.00 0.00 0.00 0.00 0.00 0.00 0.00 0.00 0.00 0.00 0.00 0.00 0.00 0.00 0.00 0.00 0.00 0.00 0.00 0.00 0.00 0.00 0.00 0.00 0.00 0.00 0.00 0.00
0.00 0.00 0.00 0.00 0.00 0.00 0.00 0.00 0.00 0.00 0.00 0.04 0.07 0.01 0.00 0.00 0.00 0.00 0.00 0.00 0.00 0.00 0.00 0.00 0.00 0.00 0.00 0.00 0.00 0.00 0.00 0.00 0.00 0.00 0.00 0.00 0.00 0.00 0.00 0.00 0.00 0.00 0.00 0.01
0.00 0.00 0.00 0.00 0.00 0.00 0.00 0.00 0.00 0.01 0.02 0.01 0.03 0.01 0.00 0.00 0.00 0.00 0.00 0.00 0.00 0.00 0.00 0.00 0.00 0.00 0.00 0.00 0.00 0.00 0.00 0.00 0.00 0.00 0.00 0.00 0.00 0.00 0.00 0.00 0.00 0.00 0.00 0.01
0.00 0.00 0.00 0.00 0.00 0.00 0.00 0.00 0.00 0.00 0.00 0.01 0.03 0.00 0.00 0.00 0.00 0.00 0.00 0.00 0.00 0.00 0.00 0.00 0.00 0.00 0.00 0.00 0.00 0.00 0.00 0.00 0.00 0.00 0.00 0.00 0.00 0.00 0.00 0.00 0.00 0.00 0.01 0.04
0.00 0.00 0.00 0.00 0.00 0.00 0.00 0.00 0.00 0.00 0.00 0.00 0.00 0.00 0.00 0.00 0.01 0.00 0.00 0.00 0.00 0.00 0.00 0.00 0.00 0.00 0.00 0.00 0.00 0.00 0.00 0.00 0.00 0.00 0.00 0.00 0.00 0.00 0.01 0.01 0.01 0.03 0.05 0.07
0.00 0.00 0.00 0.00 0.00 0.00 0.00 0.00 0.00 0.00 0.00 0.00 0.00 0.00 0.00 0.00 0.00 0.00 0.00 0.00 0.00 0.00 0.00 0.00 0.00 0.00 0.00 0.00 0.00 0.00 0.00 0.00 0.00 0.00 0.00 0.00 0.01 0.01 0.03 0.05 0.05 0.07 0.06 0.04
0.00 0.00 0.00 0.00 0.00 0.00 0.00 0.00 0.00 0.00 0.00 0.00 0.00 0.00 0.00 0.00 0.00 0.00 0.00 0.00 0.00 0.00 0.00 0.00 0.00 0.00 0.00 0.00 0.00 0.00 0.00 0.00 0.00 0.00 0.00 0.03 0.07 0.15 0.21 0.18 0.10 0.04 0.02 0.01
0.00 0.00 0.01 0.01 0.00 0.01 0.01 0.00 0.00 0.00 0.00 0.00 0.00 0.00 0.00 0.00 0.00 0.00 0.00 0.00 0.00 0.01 0.00 0.01 0.00 0.00 0.00 0.00 0.00 0.00 0.00 0.00 0.01 0.01 0.03 0.07 0.11 0.14 0.08 0.01 0.00 0.00 0.00 0.00
0.00 0.00 0.01 0.01 0.02 0.07 0.00 0.00 0.00 0.00 0.00 0.00 0.00 0.00 0.00 0.00 0.00 0.00 0.00 0.00 0.02 0.02 0.03 0.02 0.00 0.00 0.00 0.00 0.00 0.00 0.00 0.02 0.02 0.01 0.02 0.02 0.01 0.00 0.01 0.01 0.00 0.00 0.00 0.00
0.00 0.00 0.01 0.02 0.03 0.02 0.00 0.00 0.00 0.00 0.00 0.00 0.00 0.02 0.02 0.02 0.02 0.01 0.01 0.03 0.06 0.05 0.04 0.00 0.00 0.00 0.00 0.00 0.01 0.03 0.03 0.03 0.03 0.02 0.00 0.00 0.01 0.03 0.03 0.01 0.00 0.00 0.00 0.00
0.00 0.00 0.02 0.03 0.05 0.04 0.00 0.00 0.00 0.00 0.01 0.01 0.04 0.09 0.14 0.11 0.19 0.12 0.07 0.08 0.06 0.03 0.00 0.00 0.00 0.00 0.00 0.01 0.01 0.01 0.01 0.00 0.00 0.00 0.01 0.02 0.03 0.07 0.08 0.03 0.00 0.00 0.00 0.00
0.01 0.00 0.00 0.01 0.04 0.01 0.00 0.00 0.01 0.14 0.17 0.06 0.12 0.17 0.11 0.16 0.19 0.19 0.18 0.05 0.00 0.00 0.00 0.00 0.00 0.00 0.00 0.00 0.01 0.01 0.00 0.00 0.00 0.01 0.02 0.02 0.03 0.04 0.02 0.00 0.00 0.00 0.00 0.00
0.03 0.09 0.10 0.07 0.16 0.06 0.00 0.03 0.15 0.18 0.08 0.08 0.07 0.06 0.08 0.10 0.19 0.18 0.05 0.02 0.00 0.00 0.00 0.00 0.00 0.00 0.00 0.01 0.00 0.00 0.00 0.00 0.00 0.00 0.01 0.04 0.04 0.02 0.00 0.00 0.00 0.00 0.00 0.00
0.01 0.01 0.02 0.04 0.03 0.00 0.00 0.03 0.02 0.04 0.10 0.07 0.07 0.09 0.16 0.26 0.16 0.04 0.03 0.00 0.00 0.00 0.00 0.00 0.00 0.01 0.01 0.00 0.00 0.00 0.00 0.00 0.01 0.02 0.04 0.03 0.01 0.00 0.00 0.00 0.00 0.00 0.00 0.01
0.04 0.02 0.02 0.02 0.01 0.00 0.01 0.01 0.02 0.06 0.08 0.13 0.20 0.24 0.21 0.10 0.06 0.03 0.00 0.00 0.00 0.00 0.01 0.01 0.02 0.02 0.00 0.00 0.00 0.01 0.01 0.02 0.03 0.02 0.01 0.01 0.00 0.00 0.00 0.00 0.00 0.00 0.01 0.01
0.08 0.06 0.03 0.05 0.01 0.02 0.04 0.07 0.14 0.21 0.31 0.29 0.19 0.14 0.07 0.03 0.01 0.01 0.01 0.00 0.00 0.01 0.01 0.02 0.04 0.04 0.00 0.00 0.00 0.01 0.02 0.02 0.01 0.01 0.00 0.00 0.00 0.00 0.00 0.00 0.00 0.00 0.00 0.01
0.06 0.03 0.06 0.10 0.06 0.23 0.22 0.33 0.42 0.38 0.27 0.15 0.09 0.04 0.01 0.01 0.00 0.00 0.00 0.00 0.00 0.02 0.03 0.03 0.02 0.00 0.00 0.00 0.00 0.01 0.01 0.00 0.00 0.01 0.01 0.01 0.00 0.00 0.00 0.00 0.00 0.00 0.00 0.00

GFSCGP_prec_precacc_036.txt.gz
Total_Precipitation_Accumulation
0.00 0.00 0.00 0.00 0.00 0.00 0.00 0.00 0.00 0.00 0.00 0.00 0.00 0.00 0.00 0.00 0.00 0.00 0.00 0.00 0.00 0.00 0.00 0.00 0.00 0.00 0.01 0.04 0.07 0.08 0.11 0.18 0.14 0.07 0.03 0.01 0.00 0.00 0.00 0.00 0.00 0.00 0.00 0.00
0.00 0.00 0.00 0.00 0.00 0.00 0.00 0.00 0.00 0.00 0.00 0.00 0.00 0.00 0.00 0.00 0.00 0.00 0.00 0.00 0.00 0.00 0.00 0.00 0.01 0.05 0.06 0.07 0.07 0.04 0.01 0.00 0.00 0.00 0.00 0.00 0.00 0.00 0.00 0.00 0.00 0.00 0.00 0.00
0.00 0.00 0.00 0.00 0.00 0.00 0.00 0.00 0.00 0.00 0.00 0.00 0.00 0.00 0.00 0.00 0.00 0.00 0.00 0.00 0.00 0.00 0.00 0.00 0.02 0.02 0.01 0.01 0.00 0.00 0.00 0.00 0.00 0.00 0.00 0.00 0.00 0.00 0.00 0.00 0.00 0.00 0.00 0.00
0.00 0.00 0.00 0.00 0.00 0.00 0.00 0.00 0.00 0.00 0.00 0.00 0.00 0.00 0.00 0.00 0.00 0.00 0.00 0.00 0.00 0.00 0.00 0.00 0.00 0.00 0.00 0.00 0.00 0.00 0.00 0.00 0.00 0.00 0.00 0.00 0.00 0.00 0.00 0.00 0.00 0.00 0.00 0.00
0.00 0.00 0.00 0.00 0.00 0.00 0.00 0.00 0.00 0.00 0.00 0.00 0.00 0.00 0.00 0.00 0.00 0.00 0.00 0.00 0.00 0.00 0.00 0.00 0.00 0.00 0.00 0.00 0.00 0.00 0.00 0.00 0.00 0.00 0.00 0.00 0.00 0.00 0.00 0.00 0.00 0.00 0.00 0.00
0.00 0.00 0.00 0.00 0.00 0.00 0.00 0.00 0.00 0.00 0.00 0.00 0.00 0.00 0.00 0.00 0.00 0.00 0.00 0.00 0.00 0.00 0.00 0.00 0.00 0.00 0.00 0.00 0.00 0.00 0.00 0.00 0.00 0.00 0.00 0.00 0.00 0.00 0.00 0.00 0.00 0.00 0.00 0.00
0.00 0.00 0.00 0.00 0.00 0.00 0.00 0.00 0.00 0.00 0.01 0.02 0.04 0.04 0.01 0.00 0.00 0.00 0.00 0.00 0.00 0.00 0.00 0.00 0.00 0.00 0.00 0.00 0.00 0.00 0.00 0.00 0.00 0.00 0.00 0.00 0.00 0.00 0.00 0.00 0.00 0.00 0.00 0.00
0.00 0.00 0.00 0.00 0.00 0.00 0.00 0.00 0.00 0.00 0.01 0.02 0.01 0.00 0.00 0.00 0.00 0.00 0.00 0.00 0.00 0.00 0.00 0.00 0.00 0.00 0.00 0.00 0.00 0.00 0.00 0.00 0.00 0.00 0.00 0.00 0.00 0.00 0.00 0.00 0.00 0.00 0.00 0.00
0.00 0.00 0.00 0.00 0.00 0.00 0.00 0.00 0.00 0.00 0.00 0.00 0.00 0.00 0.00 0.00 0.00 0.00 0.00 0.00 0.00 0.00 0.00 0.00 0.00 0.00 0.00 0.00 0.00 0.00 0.00 0.00 0.00 0.00 0.00 0.00 0.00 0.00 0.00 0.00 0.00 0.00 0.00 0.00
0.00 0.00 0.00 0.00 0.00 0.00 0.00 0.00 0.00 0.00 0.00 0.01 0.00 0.00 0.00 0.00 0.00 0.00 0.00 0.00 0.00 0.00 0.00 0.00 0.00 0.00 0.00 0.00 0.00 0.00 0.00 0.00 0.00 0.00 0.00 0.00 0.00 0.00 0.00 0.00 0.00 0.00 0.00 0.00
0.00 0.00 0.00 0.00 0.00 0.00 0.00 0.00 0.00 0.00 0.00 0.04 0.07 0.01 0.00 0.00 0.00 0.00 0.00 0.00 0.00 0.00 0.00 0.00 0.00 0.00 0.00 0.00 0.00 0.00 0.00 0.00 0.00 0.00 0.00 0.00 0.00 0.00 0.00 0.00 0.00 0.00 0.00 0.01
0.00 0.00 0.00 0.00 0.00 0.00 0.00 0.00 0.00 0.01 0.02 0.01 0.03 0.01 0.00 0.00 0.00 0.00 0.00 0.00 0.00 0.00 0.00 0.00 0.00 0.00 0.00 0.00 0.00 0.00 0.00 0.00 0.00 0.00 0.00 0.00 0.00 0.00 0.00 0.00 0.00 0.00 0.00 0.01
0.00 0.00 0.00 0.00 0.00 0.00 0.00 0.00 0.00 0.00 0.00 0.01 0.03 0.00 0.00 0.00 0.00 0.00 0.00 0.00 0.00 0.00 0.00 0.00 0.00 0.00 0.00 0.00 0.00 0.00 0.00 0.00 0.00 0.00 0.00 0.00 0.00 0.00 0.00 0.00 0.00 0.00 0.01 0.04
0.00 0.00 0.00 0.00 0.00 0.00 0.00 0.00 0.00 0.00 0.00 0.00 0.00 0.00 0.00 0.00 0.01 0.00 0.00 0.00 0.00 0.00 0.00 0.00 0.00 0.00 0.00 0.00 0.00 0.00 0.00 0.00 0.00 0.00 0.00 0.00 0.00 0.00 0.01 0.01 0.01 0.03 0.05 0.07
0.00 0.00 0.00 0.00 0.00 0.00 0.00 0.00 0.00 0.00 0.00 0.00 0.00 0.00 0.00 0.00 0.00 0.00 0.00 0.00 0.00 0.00 0.00 0.00 0.00 0.00 0.00 0.00 0.00 0.00 0.00 0.00 0.00 0.00 0.00 0.00 0.01 0.01 0.03 0.05 0.05 0.07 0.06 0.04
0.00 0.00 0.00 0.00 0.00 0.00 0.00 0.00 0.00 0.00 0.00 0.00 0.00 0.00 0.00 0.00 0.00 0.00 0.00 0.00 0.00 0.00 0.00 0.00 0.00 0.00 0.00 0.00 0.00 0.00 0.00 0.00 0.00 0.00 0.00 0.03 0.07 0.15 0.21 0.19 0.11 0.04 0.03 0.02
0.00 0.00 0.01 0.01 0.00 0.01 0.01 0.00 0.00 0.00 0.00 0.00 0.00 0.00 0.00 0.00 0.00 0.00 0.00 0.00 0.00 0.01 0.00 0.01 0.00 0.00 0.00 0.00 0.00 0.00 0.00 0.00 0.01 0.01 0.03 0.07 0.11 0.14 0.08 0.02 0.02 0.07 0.08 0.01
0.00 0.00 0.01 0.01 0.02 0.07 0.00 0.00 0.00 0.00 0.00 0.00 0.00 0.00 0.00 0.00 0.00 0.00 0.00 0.00 0.02 0.02 0.03 0.02 0.00 0.00 0.00 0.00 0.00 0.00 0.00 0.02 0.02 0.01 0.02 0.02 0.01 0.00 0.01 0.05 0.08 0.07 0.04 0.01
0.00 0.00 0.01 0.02 0.03 0.02 0.00 0.00 0.00 0.00 0.00 0.00 0.00 0.02 0.02 0.02 0.02 0.01 0.01 0.03 0.06 0.05 0.04 0.00 0.00 0.00 0.00 0.00 0.01 0.03 0.03 0.03 0.03 0.02 0.00 0.00 0.01 0.03 0.05 0.06 0.09 0.05 0.01 0.00
0.00 0.00 0.02 0.03 0.05 0.04 0.00 0.00 0.00 0.00 0.01 0.01 0.04 0.09 0.14 0.11 0.19 0.12 0.07 0.08 0.06 0.03 0.00 0.00 0.00 0.00 0.00 0.01 0.01 0.01 0.01 0.00 0.00 0.00 0.01 0.02 0.03 0.07 0.10 0.07 0.01 0.00 0.00 0.00
0.01 0.00 0.00 0.01 0.04 0.01 0.00 0.00 0.01 0.14 0.17 0.06 0.12 0.17 0.11 0.16 0.19 0.19 0.18 0.05 0.00 0.00 0.00 0.00 0.00 0.00 0.00 0.00 0.01 0.01 0.00 0.00 0.00 0.01 0.02 0.02 0.03 0.04 0.03 0.01 0.00 0.00 0.00 0.00
0.03 0.09 0.10 0.07 0.16 0.06 0.00 0.03 0.15 0.18 0.08 0.08 0.07 0.06 0.08 0.10 0.19 0.18 0.05 0.02 0.00 0.00 0.00 0.00 0.00 0.00 0.00 0.01 0.00 0.00 0.00 0.00 0.00 0.00 0.01 0.04 0.04 0.02 0.01 0.00 0.00 0.00 0.00 0.00
0.01 0.01 0.02 0.04 0.03 0.00 0.00 0.03 0.02 0.04 0.10 0.07 0.07 0.09 0.16 0.26 0.16 0.04 0.03 0.00 0.00 0.00 0.00 0.00 0.00 0.01 0.01 0.00 0.00 0.00 0.00 0.00 0.01 0.02 0.04 0.03 0.01 0.01 0.00 0.00 0.00 0.00 0.00 0.01
0.04 0.02 0.02 0.02 0.01 0.00 0.01 0.01 0.02 0.06 0.08 0.13 0.20 0.24 0.21 0.10 0.06 0.03 0.00 0.00 0.00 0.00 0.01 0.01 0.02 0.02 0.00 0.00 0.00 0.01 0.01 0.02 0.03 0.02 0.01 0.01 0.00 0.00 0.00 0.00 0.00 0.00 0.01 0.01
0.08 0.06 0.03 0.05 0.01 0.02 0.04 0.07 0.14 0.21 0.31 0.29 0.19 0.14 0.07 0.03 0.01 0.01 0.01 0.00 0.00 0.01 0.01 0.02 0.04 0.04 0.00 0.00 0.00 0.01 0.02 0.02 0.01 0.01 0.00 0.00 0.00 0.01 0.00 0.00 0.00 0.00 0.00 0.01
0.06 0.03 0.06 0.10 0.06 0.23 0.22 0.33 0.42 0.38 0.27 0.15 0.09 0.04 0.01 0.01 0.00 0.00 0.00 0.00 0.00 0.02 0.03 0.03 0.02 0.00 0.00 0.00 0.00 0.01 0.01 0.00 0.00 0.02 0.01 0.01 0.00 0.00 0.00 0.00 0.00 0.00 0.00 0.00

GFSCGP_prec_precacc_039.txt.gz
Total_Precipitation_Accumulation
0.00 0.00 0.00 0.00 0.00 0.00 0.00 0.00 0.00 0.00 0.00 0.00 0.00 0.00 0.00 0.00 0.00 0.00 0.00 0.00 0.00 0.00 0.00 0.00 0.00 0.01 0.01 0.06 0.18 0.30 0.34 0.35 0.21 0.13 0.07 0.02 0.01 0.01 0.00 0.00 0.00 0.00 0.00 0.00
0.00 0.00 0.00 0.00 0.00 0.00 0.00 0.00 0.00 0.00 0.00 0.00 0.00 0.00 0.00 0.00 0.00 0.00 0.00 0.00 0.00 0.00 0.00 0.00 0.02 0.08 0.11 0.15 0.16 0.09 0.04 0.01 0.01 0.00 0.00 0.00 0.00 0.00 0.00 0.00 0.00 0.00 0.00 0.00
0.00 0.00 0.00 0.00 0.00 0.00 0.00 0.00 0.00 0.00 0.00 0.00 0.00 0.00 0.00 0.00 0.00 0.00 0.00 0.00 0.00 0.00 0.00 0.02 0.06 0.07 0.05 0.04 0.01 0.00 0.00 0.00 0.00 0.00 0.00 0.00 0.00 0.00 0.00 0.00 0.00 0.00 0.00 0.00
0.00 0.00 0.00 0.00 0.00 0.00 0.00 0.00 0.00 0.00 0.00 0.00 0.00 0.00 0.00 0.00 0.00 0.00 0.00 0.00 0.00 0.00 0.00 0.01 0.01 0.00 0.00 0.00 0.00 0.00 0.00 0.00 0.00 0.00 0.00 0.00 0.00 0.00 0.00 0.00 0.00 0.00 0.00 0.00
0.00 0.00 0.00 0.00 0.00 0.00 0.00 0.00 0.00 0.00 0.00 0.00 0.00 0.00 0.00 0.00 0.00 0.00 0.00 0.00 0.00 0.00 0.00 0.00 0.00 0.00 0.00 0.00 0.00 0.00 0.00 0.00 0.00 0.00 0.00 0.00 0.00 0.00 0.00 0.00 0.00 0.00 0.00 0.00
0.00 0.00 0.00 0.00 0.00 0.00 0.00 0.00 0.00 0.00 0.00 0.00 0.00 0.00 0.00 0.00 0.00 0.00 0.00 0.00 0.00 0.00 0.00 0.00 0.00 0.00 0.00 0.00 0.00 0.00 0.00 0.00 0.00 0.00 0.00 0.00 0.00 0.00 0.00 0.00 0.00 0.00 0.00 0.00
0.00 0.00 0.00 0.00 0.00 0.00 0.00 0.00 0.00 0.00 0.01 0.02 0.04 0.04 0.01 0.00 0.00 0.00 0.00 0.00 0.00 0.00 0.00 0.00 0.00 0.00 0.00 0.00 0.00 0.00 0.00 0.00 0.00 0.00 0.00 0.00 0.00 0.00 0.00 0.00 0.00 0.00 0.00 0.00
0.00 0.00 0.00 0.00 0.00 0.00 0.00 0.00 0.00 0.00 0.01 0.02 0.01 0.00 0.00 0.00 0.00 0.00 0.00 0.00 0.00 0.00 0.00 0.00 0.00 0.00 0.00 0.00 0.00 0.00 0.00 0.00 0.00 0.00 0.00 0.00 0.00 0.00 0.00 0.00 0.00 0.00 0.00 0.00
0.00 0.00 0.00 0.00 0.00 0.00 0.00 0.00 0.00 0.00 0.00 0.00 0.00 0.00 0.00 0.00 0.00 0.00 0.00 0.00 0.00 0.00 0.00 0.00 0.00 0.00 0.00 0.00 0.00 0.00 0.00 0.00 0.00 0.00 0.00 0.00 0.00 0.00 0.00 0.00 0.00 0.00 0.00 0.00
0.00 0.00 0.00 0.00 0.00 0.00 0.00 0.00 0.00 0.00 0.00 0.01 0.00 0.00 0.00 0.00 0.00 0.00 0.00 0.00 0.00 0.00 0.00 0.00 0.00 0.00 0.00 0.00 0.00 0.00 0.00 0.00 0.00 0.00 0.00 0.00 0.00 0.00 0.00 0.00 0.00 0.00 0.00 0.00
0.00 0.00 0.00 0.00 0.00 0.00 0.00 0.00 0.00 0.00 0.00 0.04 0.07 0.01 0.00 0.00 0.00 0.00 0.00 0.00 0.00 0.00 0.00 0.00 0.00 0.00 0.00 0.00 0.00 0.00 0.00 0.00 0.00 0.00 0.00 0.00 0.00 0.00 0.00 0.00 0.00 0.00 0.00 0.01
0.00 0.00 0.00 0.00 0.00 0.00 0.00 0.00 0.00 0.01 0.02 0.01 0.03 0.01 0.00 0.00 0.00 0.00 0.00 0.00 0.00 0.00 0.00 0.00 0.00 0.00 0.00 0.00 0.00 0.00 0.00 0.00 0.00 0.00 0.00 0.00 0.00 0.00 0.00 0.00 0.00 0.00 0.00 0.01
0.00 0.00 0.00 0.00 0.00 0.00 0.00 0.00 0.00 0.00 0.00 0.01 0.03 0.00 0.00 0.00 0.00 0.00 0.00 0.00 0.00 0.00 0.00 0.00 0.00 0.00 0.00 0.00 0.00 0.00 0.00 0.00 0.00 0.00 0.00 0.00 0.00 0.00 0.00 0.00 0.00 0.00 0.01 0.04
0.00 0.00 0.00 0.00 0.00 0.00 0.00 0.00 0.00 0.00 0.00 0.00 0.00 0.00 0.00 0.00 0.01 0.00 0.00 0.00 0.00 0.00 0.00 0.00 0.00 0.00 0.00 0.00 0.00 0.00 0.00 0.00 0.00 0.00 0.00 0.00 0.00 0.00 0.01 0.01 0.01 0.03 0.05 0.07
0.00 0.00 0.00 0.00 0.00 0.00 0.00 0.00 0.00 0.00 0.00 0.00 0.00 0.00 0.00 0.00 0.00 0.00 0.00 0.00 0.00 0.00 0.00 0.00 0.00 0.00 0.00 0.00 0.00 0.00 0.00 0.00 0.00 0.00 0.00 0.00 0.01 0.01 0.03 0.05 0.05 0.08 0.07 0.04
0.00 0.00 0.00 0.00 0.00 0.00 0.00 0.00 0.00 0.00 0.00 0.00 0.00 0.00 0.00 0.00 0.00 0.00 0.00 0.00 0.00 0.00 0.00 0.00 0.00 0.00 0.00 0.00 0.00 0.00 0.00 0.00 0.00 0.00 0.00 0.03 0.07 0.15 0.21 0.19 0.11 0.04 0.03 0.06
0.00 0.00 0.01 0.01 0.00 0.01 0.01 0.00 0.00 0.00 0.00 0.00 0.00 0.00 0.00 0.00 0.00 0.00 0.00 0.00 0.00 0.01 0.00 0.01 0.00 0.00 0.00 0.00 0.00 0.00 0.00 0.00 0.01 0.01 0.03 0.07 0.11 0.14 0.08 0.02 0.02 0.07 0.09 0.06
0.00 0.00 0.01 0.01 0.02 0.07 0.00 0.00 0.00 0.00 0.00 0.00 0.00 0.00 0.00 0.00 0.00 0.00 0.00 0.00 0.02 0.02 0.03 0.02 0.00 0.00 0.00 0.00 0.00 0.00 0.00 0.02 0.02 0.01 0.02 0.02 0.01 0.00 0.01 0.05 0.08 0.08 0.06 0.03
0.00 0.00 0.01 0.02 0.03 0.02 0.00 0.00 0.00 0.00 0.00 0.00 0.00 0.02 0.02 0.02 0.02 0.01 0.01 0.03 0.06 0.05 0.04 0.00 0.00 0.00 0.00 0.00 0.01 0.03 0.03 0.03 0.03 0.02 0.00 0.00 0.01 0.03 0.05 0.06 0.09 0.06 0.01 0.00
0.00 0.00 0.02 0.03 0.05 0.04 0.00 0.00 0.00 0.00 0.01 0.01 0.04 0.09 0.14 0.11 0.19 0.12 0.07 0.08 0.06 0.03 0.00 0.00 0.00 0.00 0.00 0.01 0.01 0.01 0.01 0.00 0.00 0.00 0.01 0.02 0.03 0.07 0.10 0.07 0.01 0.00 0.00 0.00
0.01 0.00 0.00 0.01 0.04 0.01 0.00 0.00 0.01 0.14 0.17 0.06 0.12 0.17 0.11 0.16 0.19 0.19 0.18 0.05 0.00 0.00 0.00 0.00 0.00 0.00 0.00 0.00 0.01 0.01 0.00 0.00 0.00 0.01 0.02 0.02 0.03 0.04 0.03 0.01 0.00 0.00 0.00 0.00
0.03 0.09 0.10 0.07 0.16 0.06 0.00 0.03 0.15 0.18 0.08 0.08 0.07 0.06 0.08 0.10 0.19 0.18 0.05 0.02 0.00 0.00 0.00 0.00 0.00 0.00 0.00 0.01 0.00 0.00 0.00 0.00 0.00 0.00 0.01 0.04 0.04 0.02 0.01 0.00 0.00 0.00 0.00 0.00
0.01 0.01 0.02 0.04 0.03 0.00 0.00 0.03 0.02 0.04 0.10 0.07 0.07 0.09 0.16 0.26 0.16 0.04 0.03 0.00 0.00 0.00 0.00 0.00 0.00 0.01 0.01 0.00 0.00 0.00 0.00 0.00 0.01 0.02 0.04 0.03 0.01 0.01 0.00 0.00 0.00 0.00 0.00 0.01
0.04 0.02 0.02 0.02 0.01 0.00 0.01 0.01 0.02 0.06 0.08 0.13 0.20 0.24 0.21 0.10 0.06 0.03 0.00 0.00 0.00 0.00 0.01 0.01 0.02 0.02 0.00 0.00 0.00 0.01 0.01 0.02 0.03 0.03 0.02 0.01 0.00 0.00 0.00 0.00 0.00 0.00 0.01 0.01
0.08 0.06 0.03 0.05 0.01 0.02 0.04 0.07 0.14 0.21 0.31 0.29 0.19 0.14 0.07 0.03 0.01 0.01 0.01 0.00 0.00 0.01 0.01 0.02 0.04 0.04 0.00 0.00 0.00 0.01 0.02 0.02 0.01 0.01 0.01 0.01 0.00 0.02 0.01 0.00 0.00 0.00 0.00 0.01
0.06 0.03 0.06 0.10 0.06 0.23 0.22 0.33 0.42 0.38 0.27 0.15 0.09 0.04 0.01 0.01 0.00 0.00 0.00 0.00 0.00 0.02 0.03 0.03 0.02 0.00 0.00 0.00 0.00 0.01 0.01 0.01 0.01 0.02 0.03 0.02 0.01 0.01 0.00 0.00 0.00 0.00 0.00 0.00

GFSCGP_prec_precacc_042.txt.gz
Total_Precipitation_Accumulation
0.00 0.00 0.00 0.00 0.00 0.00 0.00 0.00 0.00 0.00 0.00 0.00 0.00 0.00 0.00 0.00 0.00 0.00 0.00 0.00 0.00 0.00 0.00 0.00 0.00 0.01 0.02 0.06 0.24 0.54 0.60 0.61 0.37 0.26 0.14 0.04 0.01 0.01 0.00 0.00 0.00 0.00 0.00 0.00
0.00 0.00 0.00 0.00 0.00 0.00 0.00 0.00 0.00 0.00 0.00 0.00 0.00 0.00 0.00 0.00 0.00 0.00 0.00 0.00 0.00 0.00 0.00 0.00 0.02 0.08 0.12 0.22 0.29 0.21 0.12 0.04 0.01 0.00 0.00 0.00 0.00 0.00 0.00 0.00 0.00 0.00 0.00 0.00
0.00 0.00 0.00 0.00 0.00 0.00 0.00 0.00 0.00 0.00 0.00 0.00 0.00 0.00 0.00 0.00 0.00 0.00 0.00 0.00 0.00 0.00 0.00 0.02 0.08 0.11 0.12 0.10 0.03 0.00 0.00 0.00 0.00 0.00 0.00 0.00 0.00 0.00 0.00 0.00 0.00 0.00 0.00 0.00
0.00 0.00 0.00 0.00 0.00 0.00 0.00 0.00 0.00 0.00 0.00 0.00 0.00 0.00 0.00 0.00 0.00 0.00 0.00 0.00 0.00 0.00 0.01 0.01 0.01 0.00 0.00 0.00 0.00 0.00 0.00 0.00 0.00 0.00 0.00 0.00 0.00 0.00 0.00 0.00 0.00 0.00 0.00 0.00
0.00 0.00 0.00 0.00 0.00 0.00 0.00 0.00 0.00 0.00 0.00 0.00 0.00 0.00 0.00 0.00 0.00 0.00 0.00 0.00 0.00 0.00 0.00 0.00 0.00 0.00 0.00 0.00 0.00 0.00 0.00 0.00 0.00 0.00 0.00 0.00 0.00 0.00 0.00 0.00 0.00 0.00 0.00 0.00
0.00 0.00 0.00 0.00 0.00 0.00 0.00 0.00 0.00 0.00 0.00 0.00 0.00 0.00 0.00 0.00 0.00 0.00 0.00 0.00 0.00 0.00 0.00 0.00 0.00 0.00 0.00 0.00 0.00 0.00 0.00 0.00 0.00 0.00 0.00 0.00 0.00 0.00 0.00 0.00 0.00 0.00 0.00 0.00
0.00 0.00 0.00 0.00 0.00 0.00 0.00 0.00 0.00 0.00 0.01 0.02 0.04 0.04 0.01 0.00 0.00 0.00 0.00 0.00 0.00 0.00 0.00 0.00 0.00 0.00 0.00 0.00 0.00 0.00 0.00 0.00 0.00 0.00 0.00 0.00 0.00 0.00 0.00 0.00 0.00 0.00 0.00 0.00
0.00 0.00 0.00 0.00 0.00 0.00 0.00 0.00 0.00 0.00 0.01 0.02 0.01 0.00 0.00 0.00 0.00 0.00 0.00 0.00 0.00 0.00 0.00 0.00 0.00 0.00 0.00 0.00 0.00 0.00 0.00 0.00 0.00 0.00 0.00 0.00 0.00 0.00 0.00 0.00 0.00 0.00 0.00 0.00
0.00 0.00 0.00 0.00 0.00 0.00 0.00 0.00 0.00 0.00 0.00 0.00 0.00 0.00 0.00 0.00 0.00 0.00 0.00 0.00 0.00 0.00 0.00 0.00 0.00 0.00 0.00 0.00 0.00 0.00 0.00 0.00 0.00 0.00 0.00 0.00 0.00 0.00 0.00 0.00 0.00 0.00 0.00 0.00
0.00 0.00 0.00 0.00 0.00 0.00 0.00 0.00 0.00 0.00 0.00 0.01 0.00 0.00 0.00 0.00 0.00 0.00 0.00 0.00 0.00 0.00 0.00 0.00 0.00 0.00 0.00 0.00 0.00 0.00 0.00 0.00 0.00 0.00 0.00 0.00 0.00 0.00 0.00 0.00 0.00 0.00 0.00 0.00
0.00 0.00 0.00 0.00 0.00 0.00 0.00 0.00 0.00 0.00 0.00 0.04 0.07 0.01 0.00 0.00 0.00 0.00 0.00 0.00 0.00 0.00 0.00 0.00 0.00 0.00 0.00 0.00 0.00 0.00 0.00 0.00 0.00 0.00 0.00 0.00 0.00 0.00 0.00 0.00 0.00 0.00 0.00 0.01
0.00 0.00 0.00 0.00 0.00 0.00 0.00 0.00 0.00 0.01 0.02 0.01 0.03 0.01 0.00 0.00 0.00 0.00 0.00 0.00 0.00 0.00 0.00 0.00 0.00 0.00 0.00 0.00 0.00 0.00 0.00 0.00 0.00 0.00 0.00 0.00 0.00 0.00 0.00 0.00 0.00 0.00 0.00 0.01
0.00 0.00 0.00 0.00 0.00 0.00 0.00 0.00 0.00 0.00 0.00 0.01 0.03 0.00 0.00 0.00 0.00 0.00 0.00 0.00 0.00 0.00 0.00 0.00 0.00 0.00 0.00 0.00 0.00 0.00 0.00 0.00 0.00 0.00 0.00 0.00 0.00 0.00 0.00 0.00 0.00 0.00 0.01 0.04
0.00 0.00 0.00 0.00 0.00 0.00 0.00 0.00 0.00 0.00 0.00 0.00 0.00 0.00 0.00 0.00 0.01 0.00 0.00 0.00 0.00 0.00 0.00 0.00 0.00 0.00 0.00 0.00 0.00 0.00 0.00 0.00 0.00 0.00 0.00 0.00 0.00 0.00 0.01 0.01 0.01 0.03 0.05 0.07
0.00 0.00 0.00 0.00 0.00 0.00 0.00 0.00 0.00 0.00 0.00 0.00 0.00 0.00 0.00 0.00 0.00 0.00 0.00 0.00 0.00 0.00 0.00 0.00 0.00 0.00 0.00 0.00 0.00 0.00 0.00 0.00 0.00 0.00 0.00 0.00 0.01 0.01 0.03 0.05 0.05 0.08 0.07 0.04
0.00 0.00 0.00 0.00 0.00 0.00 0.00 0.00 0.00 0.00 0.00 0.00 0.00 0.00 0.00 0.00 0.00 0.00 0.00 0.00 0.00 0.00 0.00 0.00 0.00 0.00 0.00 0.00 0.00 0.00 0.00 0.00 0.00 0.00 0.00 0.03 0.07 0.15 0.21 0.19 0.11 0.04 0.03 0.06
0.00 0.00 0.01 0.01 0.00 0.01 0.01 0.00 0.00 0.00 0.00 0.00 0.00 0.00 0.00 0.00 0.00 0.00 0.00 0.00 0.00 0.01 0.00 0.01 0.00 0.00 0.00 0.00 0.00 0.00 0.00 0.00 0.01 0.01 0.03 0.07 0.11 0.14 0.08 0.02 0.02 0.07 0.09 0.06
0.00 0.00 0.01 0.01 0.02 0.07 0.00 0.00 0.00 0.00 0.00 0.00 0.00 0.00 0.00 0.00 0.00 0.00 0.00 0.00 0.02 0.02 0.03 0.02 0.00 0.00 0.00 0.00 0.00 0.00 0.00 0.02 0.02 0.01 0.02 0.02 0.01 0.00 0.01 0.05 0.08 0.08 0.06 0.03
0.00 0.00 0.01 0.02 0.03 0.02 0.00 0.00 0.00 0.00 0.00 0.00 0.00 0.02 0.02 0.02 0.02 0.01 0.01 0.03 0.06 0.05 0.04 0.00 0.00 0.00 0.00 0.00 0.01 0.03 0.03 0.03 0.03 0.02 0.00 0.00 0.01 0.03 0.05 0.06 0.09 0.06 0.01 0.00
0.00 0.00 0.02 0.03 0.05 0.04 0.00 0.00 0.00 0.00 0.01 0.01 0.04 0.09 0.14 0.11 0.19 0.12 0.07 0.08 0.06 0.03 0.00 0.00 0.00 0.00 0.00 0.01 0.01 0.01 0.01 0.00 0.00 0.00 0.01 0.02 0.03 0.07 0.10 0.07 0.01 0.00 0.00 0.00
0.01 0.00 0.00 0.01 0.04 0.01 0.00 0.00 0.01 0.14 0.17 0.06 0.12 0.17 0.11 0.16 0.19 0.19 0.18 0.05 0.00 0.00 0.00 0.00 0.00 0.00 0.00 0.00 0.01 0.01 0.00 0.00 0.00 0.01 0.02 0.02 0.03 0.04 0.03 0.01 0.00 0.00 0.00 0.01
0.03 0.09 0.10 0.07 0.16 0.06 0.00 0.03 0.15 0.18 0.08 0.08 0.07 0.06 0.08 0.10 0.19 0.18 0.05 0.02 0.00 0.00 0.00 0.00 0.00 0.00 0.00 0.01 0.00 0.00 0.00 0.00 0.00 0.00 0.01 0.04 0.04 0.02 0.01 0.00 0.00 0.00 0.01 0.01
0.01 0.01 0.02 0.04 0.03 0.00 0.00 0.03 0.02 0.04 0.10 0.07 0.07 0.09 0.16 0.26 0.16 0.04 0.03 0.00 0.00 0.00 0.00 0.00 0.00 0.01 0.01 0.00 0.00 0.00 0.00 0.00 0.01 0.02 0.04 0.04 0.01 0.01 0.00 0.00 0.00 0.00 0.00 0.01
0.04 0.02 0.02 0.02 0.01 0.00 0.01 0.01 0.02 0.06 0.08 0.13 0.20 0.24 0.21 0.10 0.06 0.03 0.00 0.00 0.00 0.00 0.01 0.01 0.02 0.02 0.00 0.00 0.00 0.01 0.01 0.02 0.03 0.03 0.02 0.02 0.01 0.00 0.01 0.01 0.01 0.00 0.01 0.01
0.08 0.06 0.03 0.05 0.01 0.02 0.04 0.07 0.14 0.21 0.31 0.29 0.19 0.14 0.07 0.03 0.01 0.01 0.01 0.00 0.00 0.01 0.01 0.02 0.04 0.04 0.00 0.00 0.00 0.01 0.02 0.02 0.02 0.01 0.01 0.01 0.00 0.02 0.02 0.00 0.00 0.00 0.00 0.01
0.06 0.03 0.06 0.10 0.06 0.23 0.22 0.33 0.42 0.38 0.27 0.15 0.09 0.04 0.01 0.01 0.01 0.00 0.00 0.00 0.00 0.02 0.03 0.03 0.02 0.00 0.00 0.00 0.00 0.01 0.01 0.01 0.01 0.02 0.03 0.03 0.01 0.02 0.01 0.00 0.00 0.00 0.00 0.00

GFSCGP_prec_precacc_045.txt.gz
Total_Precipitation_Accumulation
0.00 0.00 0.00 0.00 0.00 0.00 0.00 0.00 0.00 0.00 0.00 0.00 0.00 0.00 0.00 0.00 0.00 0.00 0.00 0.00 0.00 0.00 0.00 0.00 0.00 0.02 0.04 0.07 0.27 0.61 0.78 0.90 0.68 0.37 0.16 0.04 0.01 0.01 0.00 0.00 0.00 0.00 0.00 0.00
0.00 0.00 0.00 0.00 0.00 0.00 0.00 0.00 0.00 0.00 0.00 0.00 0.00 0.00 0.00 0.00 0.00 0.00 0.00 0.00 0.00 0.00 0.00 0.00 0.02 0.08 0.13 0.26 0.34 0.26 0.17 0.08 0.02 0.00 0.00 0.00 0.00 0.00 0.00 0.00 0.00 0.00 0.00 0.00
0.00 0.00 0.00 0.00 0.00 0.00 0.00 0.00 0.00 0.00 0.00 0.00 0.00 0.00 0.00 0.00 0.00 0.00 0.00 0.00 0.00 0.00 0.00 0.02 0.08 0.11 0.13 0.11 0.03 0.00 0.00 0.00 0.00 0.00 0.00 0.00 0.00 0.00 0.00 0.00 0.00 0.00 0.00 0.00
0.00 0.00 0.00 0.00 0.00 0.00 0.00 0.00 0.00 0.00 0.00 0.00 0.00 0.00 0.00 0.00 0.00 0.00 0.00 0.00 0.00 0.00 0.01 0.01 0.01 0.00 0.00 0.00 0.00 0.00 0.00 0.00 0.00 0.00 0.00 0.00 0.00 0.00 0.00 0.00 0.00 0.00 0.00 0.00
0.00 0.00 0.00 0.00 0.00 0.00 0.00 0.00 0.00 0.00 0.00 0.00 0.00 0.00 0.00 0.00 0.00 0.00 0.00 0.00 0.00 0.00 0.00 0.00 0.00 0.00 0.00 0.00 0.00 0.00 0.00 0.00 0.00 0.00 0.00 0.00 0.00 0.00 0.00 0.00 0.00 0.00 0.00 0.00
0.00 0.00 0.00 0.00 0.00 0.00 0.00 0.00 0.00 0.00 0.00 0.00 0.00 0.00 0.00 0.00 0.00 0.00 0.00 0.00 0.00 0.00 0.00 0.00 0.00 0.00 0.00 0.00 0.00 0.00 0.00 0.00 0.00 0.00 0.00 0.00 0.00 0.00 0.00 0.00 0.00 0.00 0.00 0.00
0.00 0.00 0.00 0.00 0.00 0.00 0.00 0.00 0.00 0.00 0.01 0.02 0.04 0.04 0.01 0.00 0.00 0.00 0.00 0.00 0.00 0.00 0.00 0.00 0.00 0.00 0.00 0.00 0.00 0.00 0.00 0.00 0.00 0.00 0.00 0.00 0.00 0.00 0.00 0.00 0.00 0.00 0.00 0.00
0.00 0.00 0.00 0.00 0.00 0.00 0.00 0.00 0.00 0.00 0.01 0.02 0.01 0.00 0.00 0.00 0.00 0.00 0.00 0.00 0.00 0.00 0.00 0.00 0.00 0.00 0.00 0.00 0.00 0.00 0.00 0.00 0.00 0.00 0.00 0.00 0.00 0.00 0.00 0.00 0.00 0.00 0.00 0.00
0.00 0.00 0.00 0.00 0.00 0.00 0.00 0.00 0.00 0.00 0.00 0.00 0.00 0.00 0.00 0.00 0.00 0.00 0.00 0.00 0.00 0.00 0.00 0.00 0.00 0.00 0.00 0.00 0.00 0.00 0.00 0.00 0.00 0.00 0.00 0.00 0.00 0.00 0.00 0.00 0.00 0.00 0.00 0.00
0.00 0.00 0.00 0.00 0.00 0.00 0.00 0.00 0.00 0.00 0.00 0.01 0.00 0.00 0.00 0.00 0.00 0.00 0.00 0.00 0.00 0.00 0.00 0.00 0.00 0.00 0.00 0.00 0.00 0.00 0.00 0.00 0.00 0.00 0.00 0.00 0.00 0.00 0.00 0.00 0.00 0.00 0.00 0.00
0.00 0.00 0.00 0.00 0.00 0.00 0.00 0.00 0.00 0.00 0.00 0.04 0.07 0.01 0.00 0.00 0.00 0.00 0.00 0.00 0.00 0.00 0.00 0.00 0.00 0.00 0.00 0.00 0.00 0.00 0.00 0.00 0.00 0.00 0.00 0.00 0.00 0.00 0.00 0.00 0.00 0.00 0.00 0.01
0.00 0.00 0.00 0.00 0.00 0.00 0.00 0.00 0.00 0.01 0.02 0.01 0.03 0.01 0.00 0.00 0.00 0.00 0.00 0.00 0.00 0.00 0.00 0.00 0.00 0.00 0.00 0.00 0.00 0.00 0.00 0.00 0.00 0.00 0.00 0.00 0.00 0.00 0.00 0.00 0.00 0.00 0.00 0.01
0.00 0.00 0.00 0.00 0.00 0.00 0.00 0.00 0.00 0.00 0.00 0.01 0.03 0.00 0.00 0.00 0.00 0.00 0.00 0.00 0.00 0.00 0.00 0.00 0.00 0.00 0.00 0.00 0.00 0.00 0.00 0.00 0.00 0.00 0.00 0.00 0.00 0.00 0.00 0.00 0.00 0.00 0.01 0.04
0.00 0.00 0.00 0.00 0.00 0.00 0.00 0.00 0.00 0.00 0.00 0.00 0.00 0.00 0.00 0.00 0.01 0.00 0.00 0.00 0.00 0.00 0.00 0.00 0.00 0.00 0.00 0.00 0.00 0.00 0.00 0.00 0.00 0.00 0.00 0.00 0.00 0.00 0.01 0.01 0.01 0.03 0.05 0.07
0.00 0.00 0.00 0.00 0.00 0.00 0.00 0.00 0.00 0.00 0.00 0.00 0.00 0.00 0.00 0.00 0.00 0.00 0.00 0.00 0.00 0.00 0.00 0.00 0.00 0.00 0.00 0.00 0.00 0.00 0.00 0.00 0.00 0.00 0.00 0.00 0.01 0.01 0.03 0.05 0.05 0.08 0.07 0.04
0.00 0.00 0.00 0.00 0.00 0.00 0.00 0.00 0.00 0.00 0.00 0.00 0.00 0.00 0.00 0.00 0.00 0.00 0.00 0.00 0.00 0.00 0.00 0.00 0.00 0.00 0.00 0.00 0.00 0.00 0.00 0.00 0.00 0.00 0.00 0.03 0.07 0.15 0.21 0.19 0.11 0.04 0.03 0.06
0.00 0.00 0.01 0.01 0.00 0.01 0.01 0.00 0.00 0.00 0.00 0.00 0.00 0.00 0.00 0.00 0.00 0.00 0.00 0.00 0.00 0.01 0.00 0.01 0.00 0.00 0.00 0.00 0.00 0.00 0.00 0.00 0.01 0.01 0.03 0.07 0.11 0.14 0.08 0.02 0.02 0.07 0.09 0.06
0.00 0.00 0.01 0.01 0.02 0.07 0.00 0.00 0.00 0.00 0.00 0.00 0.00 0.00 0.00 0.00 0.00 0.00 0.00 0.00 0.02 0.02 0.03 0.02 0.00 0.00 0.00 0.00 0.00 0.00 0.00 0.02 0.02 0.01 0.02 0.02 0.01 0.00 0.01 0.05 0.08 0.08 0.06 0.03
0.00 0.00 0.01 0.02 0.03 0.02 0.00 0.00 0.00 0.00 0.00 0.00 0.00 0.02 0.02 0.02 0.02 0.01 0.01 0.03 0.06 0.05 0.04 0.00 0.00 0.00 0.00 0.00 0.01 0.03 0.03 0.03 0.03 0.02 0.00 0.00 0.01 0.03 0.05 0.06 0.09 0.06 0.01 0.00
0.00 0.00 0.02 0.03 0.05 0.04 0.00 0.00 0.00 0.00 0.01 0.01 0.04 0.09 0.14 0.11 0.19 0.12 0.07 0.08 0.06 0.03 0.00 0.00 0.00 0.00 0.00 0.01 0.01 0.01 0.01 0.00 0.00 0.00 0.01 0.02 0.03 0.07 0.10 0.07 0.01 0.00 0.00 0.00
0.01 0.00 0.00 0.01 0.04 0.01 0.00 0.00 0.01 0.14 0.17 0.06 0.12 0.17 0.11 0.16 0.19 0.19 0.18 0.05 0.00 0.00 0.00 0.00 0.00 0.00 0.00 0.00 0.01 0.01 0.00 0.00 0.00 0.01 0.02 0.02 0.03 0.04 0.03 0.01 0.00 0.00 0.00 0.03
0.03 0.09 0.10 0.07 0.16 0.06 0.00 0.03 0.15 0.18 0.08 0.08 0.07 0.06 0.08 0.10 0.19 0.18 0.05 0.02 0.00 0.00 0.00 0.00 0.00 0.00 0.00 0.01 0.00 0.00 0.00 0.00 0.00 0.00 0.01 0.04 0.04 0.02 0.01 0.00 0.00 0.00 0.02 0.02
0.01 0.01 0.02 0.04 0.03 0.00 0.00 0.03 0.02 0.04 0.10 0.07 0.07 0.09 0.16 0.26 0.16 0.04 0.03 0.00 0.00 0.00 0.00 0.00 0.00 0.01 0.01 0.00 0.00 0.00 0.00 0.00 0.01 0.02 0.04 0.04 0.01 0.01 0.00 0.00 0.00 0.00 0.00 0.01
0.04 0.02 0.02 0.02 0.01 0.00 0.01 0.01 0.02 0.06 0.08 0.13 0.20 0.24 0.21 0.10 0.06 0.03 0.00 0.00 0.00 0.00 0.01 0.01 0.02 0.02 0.00 0.00 0.00 0.01 0.01 0.02 0.03 0.03 0.02 0.02 0.01 0.00 0.01 0.01 0.01 0.00 0.01 0.01
0.08 0.06 0.03 0.05 0.01 0.02 0.04 0.07 0.14 0.21 0.31 0.29 0.19 0.14 0.07 0.03 0.01 0.01 0.01 0.00 0.00 0.01 0.01 0.02 0.04 0.04 0.00 0.00 0.00 0.01 0.02 0.02 0.02 0.01 0.01 0.01 0.00 0.02 0.02 0.00 0.00 0.00 0.00 0.01
0.06 0.03 0.06 0.10 0.06 0.23 0.22 0.33 0.42 0.38 0.27 0.15 0.09 0.04 0.01 0.01 0.01 0.00 0.00 0.00 0.00 0.02 0.03 0.03 0.02 0.00 0.00 0.00 0.00 0.01 0.01 0.01 0.01 0.02 0.03 0.03 0.01 0.02 0.01 0.00 0.00 0.00 0.00 0.00

GFSCGP_prec_precacc_048.txt.gz
Total_Precipitation_Accumulation
0.00 0.00 0.00 0.00 0.00 0.00 0.00 0.00 0.00 0.00 0.00 0.00 0.00 0.00 0.00 0.00 0.00 0.00 0.00 0.00 0.00 0.00 0.00 0.00 0.00 0.02 0.04 0.08 0.27 0.62 0.80 0.98 0.87 0.59 0.20 0.04 0.01 0.01 0.00 0.00 0.00 0.00 0.00 0.00
0.00 0.00 0.00 0.00 0.00 0.00 0.00 0.00 0.00 0.00 0.00 0.00 0.00 0.00 0.00 0.00 0.00 0.00 0.00 0.00 0.00 0.00 0.00 0.01 0.03 0.09 0.13 0.26 0.34 0.26 0.18 0.08 0.02 0.00 0.00 0.00 0.00 0.00 0.00 0.00 0.00 0.00 0.00 0.00
0.00 0.00 0.00 0.00 0.00 0.00 0.00 0.00 0.00 0.00 0.00 0.00 0.00 0.00 0.00 0.00 0.00 0.00 0.00 0.00 0.00 0.00 0.00 0.02 0.08 0.11 0.13 0.11 0.03 0.00 0.00 0.00 0.00 0.00 0.00 0.00 0.00 0.00 0.00 0.00 0.00 0.00 0.00 0.00
0.00 0.00 0.00 0.00 0.00 0.00 0.00 0.00 0.00 0.00 0.00 0.00 0.00 0.00 0.00 0.00 0.00 0.00 0.00 0.00 0.00 0.00 0.01 0.01 0.01 0.00 0.00 0.00 0.00 0.00 0.00 0.00 0.00 0.00 0.00 0.00 0.00 0.00 0.00 0.00 0.00 0.00 0.00 0.00
0.00 0.00 0.00 0.00 0.00 0.00 0.00 0.00 0.00 0.00 0.00 0.00 0.00 0.00 0.00 0.00 0.00 0.00 0.00 0.00 0.00 0.00 0.00 0.00 0.00 0.00 0.00 0.00 0.00 0.00 0.00 0.00 0.00 0.00 0.00 0.00 0.00 0.00 0.00 0.00 0.00 0.00 0.00 0.00
0.00 0.00 0.00 0.00 0.00 0.00 0.00 0.00 0.00 0.00 0.00 0.00 0.00 0.00 0.00 0.00 0.00 0.00 0.00 0.00 0.00 0.00 0.00 0.00 0.00 0.00 0.00 0.00 0.00 0.00 0.00 0.00 0.00 0.00 0.00 0.00 0.00 0.00 0.00 0.00 0.00 0.00 0.00 0.00
0.00 0.00 0.00 0.00 0.00 0.00 0.00 0.00 0.00 0.00 0.01 0.02 0.04 0.04 0.01 0.00 0.00 0.00 0.00 0.00 0.00 0.00 0.00 0.00 0.00 0.00 0.00 0.00 0.00 0.00 0.00 0.00 0.00 0.00 0.00 0.00 0.00 0.00 0.00 0.00 0.00 0.00 0.00 0.00
0.00 0.00 0.00 0.00 0.00 0.00 0.00 0.00 0.00 0.00 0.01 0.02 0.01 0.00 0.00 0.00 0.00 0.00 0.00 0.00 0.00 0.00 0.00 0.00 0.00 0.00 0.00 0.00 0.00 0.00 0.00 0.00 0.00 0.00 0.00 0.00 0.00 0.00 0.00 0.00 0.00 0.00 0.00 0.00
0.00 0.00 0.00 0.00 0.00 0.00 0.00 0.00 0.00 0.00 0.00 0.00 0.00 0.00 0.00 0.00 0.00 0.00 0.00 0.00 0.00 0.00 0.00 0.00 0.00 0.00 0.00 0.00 0.00 0.00 0.00 0.00 0.00 0.00 0.00 0.00 0.00 0.00 0.00 0.00 0.00 0.00 0.00 0.00
0.00 0.00 0.00 0.00 0.00 0.00 0.00 0.00 0.00 0.00 0.00 0.01 0.00 0.00 0.00 0.00 0.00 0.00 0.00 0.00 0.00 0.00 0.00 0.00 0.00 0.00 0.00 0.00 0.00 0.00 0.00 0.00 0.00 0.00 0.00 0.00 0.00 0.00 0.00 0.00 0.00 0.00 0.00 0.00
0.00 0.00 0.00 0.00 0.00 0.00 0.00 0.00 0.00 0.00 0.00 0.04 0.07 0.01 0.00 0.00 0.00 0.00 0.00 0.00 0.00 0.00 0.00 0.00 0.00 0.00 0.00 0.00 0.00 0.00 0.00 0.00 0.00 0.00 0.00 0.00 0.00 0.00 0.00 0.00 0.00 0.00 0.00 0.01
0.00 0.00 0.00 0.00 0.00 0.00 0.00 0.00 0.00 0.01 0.02 0.01 0.03 0.01 0.00 0.00 0.00 0.00 0.00 0.00 0.00 0.00 0.00 0.00 0.00 0.00 0.00 0.00 0.00 0.00 0.00 0.00 0.00 0.00 0.00 0.00 0.00 0.00 0.00 0.00 0.00 0.00 0.00 0.01
0.00 0.00 0.00 0.00 0.00 0.00 0.00 0.00 0.00 0.00 0.00 0.01 0.03 0.00 0.00 0.00 0.00 0.00 0.00 0.00 0.00 0.00 0.00 0.00 0.00 0.00 0.00 0.00 0.00 0.00 0.00 0.00 0.00 0.00 0.00 0.00 0.00 0.00 0.00 0.00 0.00 0.00 0.01 0.04
0.00 0.00 0.00 0.00 0.00 0.00 0.00 0.00 0.00 0.00 0.00 0.00 0.00 0.00 0.00 0.00 0.01 0.00 0.00 0.00 0.00 0.00 0.00 0.00 0.00 0.00 0.00 0.00 0.00 0.00 0.00 0.00 0.00 0.00 0.00 0.00 0.00 0.00 0.01 0.01 0.01 0.03 0.05 0.07
0.00 0.00 0.00 0.00 0.00 0.00 0.00 0.00 0.00 0.00 0.00 0.00 0.00 0.00 0.00 0.00 0.00 0.00 0.00 0.00 0.00 0.00 0.00 0.00 0.00 0.00 0.00 0.00 0.00 0.00 0.00 0.00 0.00 0.00 0.00 0.00 0.01 0.01 0.03 0.05 0.05 0.08 0.07 0.04
0.00 0.00 0.00 0.00 0.00 0.00 0.00 0.00 0.00 0.00 0.00 0.00 0.00 0.00 0.00 0.00 0.00 0.00 0.00 0.00 0.00 0.00 0.00 0.00 0.00 0.00 0.00 0.00 0.00 0.00 0.00 0.00 0.00 0.00 0.00 0.03 0.07 0.15 0.21 0.19 0.11 0.04 0.03 0.06
0.00 0.00 0.01 0.01 0.00 0.01 0.01 0.00 0.00 0.00 0.00 0.00 0.00 0.00 0.00 0.00 0.00 0.00 0.00 0.00 0.00 0.01 0.00 0.01 0.00 0.00 0.00 0.00 0.00 0.00 0.00 0.00 0.01 0.01 0.03 0.07 0.11 0.14 0.08 0.02 0.02 0.07 0.09 0.06
0.00 0.00 0.01 0.01 0.02 0.07 0.00 0.00 0.00 0.00 0.00 0.00 0.00 0.00 0.00 0.00 0.00 0.00 0.00 0.00 0.02 0.02 0.03 0.02 0.00 0.00 0.00 0.00 0.00 0.00 0.00 0.02 0.02 0.01 0.02 0.02 0.01 0.00 0.01 0.05 0.08 0.08 0.06 0.03
0.00 0.00 0.01 0.02 0.03 0.02 0.00 0.00 0.00 0.00 0.00 0.00 0.00 0.02 0.02 0.02 0.02 0.01 0.01 0.03 0.06 0.05 0.04 0.00 0.00 0.00 0.00 0.00 0.01 0.03 0.03 0.03 0.03 0.02 0.00 0.00 0.01 0.03 0.05 0.06 0.09 0.06 0.01 0.00
0.00 0.00 0.02 0.03 0.05 0.04 0.00 0.00 0.00 0.00 0.01 0.01 0.04 0.09 0.14 0.11 0.19 0.12 0.07 0.08 0.06 0.03 0.00 0.00 0.00 0.00 0.00 0.01 0.01 0.01 0.01 0.00 0.00 0.00 0.01 0.02 0.03 0.07 0.10 0.07 0.01 0.00 0.00 0.00
0.01 0.00 0.00 0.01 0.04 0.01 0.00 0.00 0.01 0.14 0.17 0.06 0.12 0.17 0.11 0.16 0.19 0.19 0.18 0.05 0.00 0.00 0.00 0.00 0.00 0.00 0.00 0.00 0.01 0.01 0.00 0.00 0.00 0.01 0.02 0.02 0.03 0.04 0.03 0.01 0.00 0.00 0.00 0.03
0.03 0.09 0.10 0.07 0.16 0.06 0.00 0.03 0.15 0.18 0.08 0.08 0.07 0.06 0.08 0.10 0.19 0.18 0.05 0.02 0.00 0.00 0.00 0.00 0.00 0.00 0.00 0.01 0.00 0.00 0.00 0.00 0.00 0.00 0.01 0.04 0.04 0.02 0.01 0.00 0.00 0.00 0.02 0.03
0.01 0.01 0.02 0.04 0.03 0.00 0.00 0.03 0.02 0.04 0.10 0.07 0.07 0.09 0.16 0.26 0.16 0.04 0.03 0.00 0.00 0.00 0.00 0.00 0.00 0.01 0.01 0.00 0.00 0.00 0.00 0.00 0.01 0.02 0.04 0.04 0.01 0.01 0.00 0.00 0.00 0.00 0.01 0.01
0.04 0.02 0.02 0.02 0.01 0.00 0.01 0.01 0.02 0.06 0.08 0.13 0.20 0.24 0.21 0.10 0.06 0.03 0.00 0.00 0.00 0.00 0.01 0.01 0.02 0.02 0.00 0.00 0.00 0.01 0.01 0.02 0.03 0.03 0.02 0.02 0.01 0.00 0.01 0.01 0.01 0.01 0.01 0.02
0.08 0.06 0.03 0.05 0.01 0.02 0.04 0.07 0.14 0.21 0.31 0.29 0.19 0.14 0.07 0.03 0.01 0.01 0.01 0.00 0.00 0.01 0.02 0.02 0.04 0.04 0.00 0.00 0.00 0.01 0.02 0.02 0.02 0.01 0.01 0.01 0.00 0.03 0.02 0.00 0.00 0.00 0.01 0.02
0.06 0.03 0.06 0.10 0.06 0.23 0.22 0.33 0.42 0.38 0.27 0.15 0.09 0.04 0.01 0.01 0.01 0.00 0.00 0.00 0.01 0.02 0.03 0.03 0.02 0.00 0.00 0.00 0.00 0.01 0.01 0.01 0.01 0.02 0.03 0.03 0.02 0.02 0.01 0.00 0.00 0.00 0.00 0.00

GFSCGP_prec_precacc_051.txt.gz
Total_Precipitation_Accumulation
0.00 0.00 0.00 0.00 0.00 0.00 0.00 0.00 0.00 0.00 0.00 0.00 0.00 0.00 0.00 0.00 0.00 0.00 0.00 0.00 0.00 0.00 0.00 0.00 0.00 0.02 0.04 0.08 0.27 0.62 0.80 0.99 0.90 0.61 0.22 0.05 0.01 0.01 0.00 0.00 0.00 0.00 0.00 0.00
0.00 0.00 0.00 0.00 0.00 0.00 0.00 0.00 0.00 0.00 0.00 0.00 0.00 0.00 0.00 0.00 0.00 0.00 0.00 0.00 0.00 0.00 0.00 0.01 0.03 0.09 0.13 0.26 0.34 0.27 0.18 0.09 0.02 0.00 0.00 0.00 0.00 0.00 0.00 0.00 0.00 0.00 0.00 0.00
0.00 0.00 0.00 0.00 0.00 0.00 0.00 0.00 0.00 0.00 0.00 0.00 0.00 0.00 0.00 0.00 0.00 0.00 0.00 0.00 0.00 0.00 0.00 0.02 0.08 0.11 0.13 0.12 0.04 0.00 0.00 0.00 0.00 0.00 0.00 0.00 0.00 0.00 0.00 0.00 0.00 0.00 0.00 0.00
0.00 0.00 0.00 0.00 0.00 0.00 0.00 0.00 0.00 0.00 0.00 0.00 0.00 0.00 0.00 0.00 0.00 0.00 0.00 0.00 0.00 0.00 0.01 0.01 0.01 0.00 0.00 0.00 0.00 0.00 0.00 0.00 0.00 0.00 0.00 0.00 0.00 0.00 0.00 0.00 0.00 0.00 0.00 0.00
0.00 0.00 0.00 0.00 0.00 0.00 0.00 0.00 0.00 0.00 0.00 0.00 0.00 0.00 0.00 0.00 0.00 0.00 0.00 0.00 0.00 0.00 0.00 0.00 0.00 0.00 0.00 0.00 0.00 0.00 0.00 0.00 0.00 0.00 0.00 0.00 0.00 0.00 0.00 0.00 0.00 0.00 0.00 0.00
0.00 0.00 0.00 0.00 0.00 0.00 0.00 0.00 0.00 0.00 0.00 0.00 0.00 0.00 0.00 0.00 0.00 0.00 0.00 0.00 0.00 0.00 0.00 0.00 0.00 0.00 0.00 0.00 0.00 0.00 0.00 0.00 0.00 0.00 0.00 0.00 0.00 0.00 0.00 0.00 0.00 0.00 0.00 0.00
0.00 0.00 0.00 0.00 0.00 0.00 0.00 0.00 0.00 0.00 0.01 0.02 0.04 0.04 0.01 0.00 0.00 0.00 0.00 0.00 0.00 0.00 0.00 0.00 0.00 0.00 0.00 0.00 0.00 0.00 0.00 0.00 0.00 0.00 0.00 0.00 0.00 0.00 0.00 0.00 0.00 0.00 0.00 0.00
0.00 0.00 0.00 0.00 0.00 0.00 0.00 0.00 0.00 0.00 0.01 0.02 0.01 0.00 0.00 0.00 0.00 0.00 0.00 0.00 0.00 0.00 0.00 0.00 0.00 0.00 0.00 0.00 0.00 0.00 0.00 0.00 0.00 0.00 0.00 0.00 0.00 0.00 0.00 0.00 0.00 0.00 0.00 0.00
0.00 0.00 0.00 0.00 0.00 0.00 0.00 0.00 0.00 0.00 0.00 0.00 0.00 0.00 0.00 0.00 0.00 0.00 0.00 0.00 0.00 0.00 0.00 0.00 0.00 0.00 0.00 0.00 0.00 0.00 0.00 0.00 0.00 0.00 0.00 0.00 0.00 0.00 0.00 0.00 0.00 0.00 0.00 0.00
0.00 0.00 0.00 0.00 0.00 0.00 0.00 0.00 0.00 0.00 0.00 0.01 0.00 0.00 0.00 0.00 0.00 0.00 0.00 0.00 0.00 0.00 0.00 0.00 0.00 0.00 0.00 0.00 0.00 0.00 0.00 0.00 0.00 0.00 0.00 0.00 0.00 0.00 0.00 0.00 0.00 0.00 0.00 0.00
0.00 0.00 0.00 0.00 0.00 0.00 0.00 0.00 0.00 0.00 0.00 0.04 0.07 0.01 0.00 0.00 0.00 0.00 0.00 0.00 0.00 0.00 0.00 0.00 0.00 0.00 0.00 0.00 0.00 0.00 0.00 0.00 0.00 0.00 0.00 0.00 0.00 0.00 0.00 0.00 0.00 0.00 0.00 0.01
0.00 0.00 0.00 0.00 0.00 0.00 0.00 0.00 0.00 0.01 0.02 0.01 0.03 0.01 0.00 0.00 0.00 0.00 0.00 0.00 0.00 0.00 0.00 0.00 0.00 0.00 0.00 0.00 0.00 0.00 0.00 0.00 0.00 0.00 0.00 0.00 0.00 0.00 0.00 0.00 0.00 0.00 0.00 0.01
0.00 0.00 0.00 0.00 0.00 0.00 0.00 0.00 0.00 0.00 0.00 0.01 0.03 0.00 0.00 0.00 0.00 0.00 0.00 0.00 0.00 0.00 0.00 0.00 0.00 0.00 0.00 0.00 0.00 0.00 0.00 0.00 0.00 0.00 0.00 0.00 0.00 0.00 0.00 0.00 0.00 0.00 0.01 0.04
0.00 0.00 0.00 0.00 0.00 0.00 0.00 0.00 0.00 0.00 0.00 0.00 0.00 0.00 0.00 0.00 0.01 0.00 0.00 0.00 0.00 0.00 0.00 0.00 0.00 0.00 0.00 0.00 0.00 0.00 0.00 0.00 0.00 0.00 0.00 0.00 0.00 0.00 0.01 0.01 0.01 0.03 0.05 0.07
0.00 0.00 0.00 0.00 0.00 0.00 0.00 0.00 0.00 0.00 0.00 0.00 0.00 0.00 0.00 0.00 0.00 0.00 0.00 0.00 0.00 0.00 0.00 0.00 0.00 0.00 0.00 0.00 0.00 0.00 0.00 0.00 0.00 0.00 0.00 0.00 0.01 0.01 0.03 0.05 0.05 0.08 0.07 0.04
0.00 0.00 0.00 0.00 0.00 0.00 0.00 0.00 0.00 0.00 0.00 0.00 0.00 0.00 0.00 0.00 0.00 0.00 0.00 0.00 0.00 0.00 0.00 0.00 0.00 0.00 0.00 0.00 0.00 0.00 0.00 0.00 0.00 0.00 0.00 0.03 0.07 0.15 0.21 0.19 0.11 0.04 0.03 0.06
0.00 0.00 0.01 0.01 0.00 0.01 0.01 0.00 0.00 0.00 0.00 0.00 0.00 0.00 0.00 0.00 0.00 0.00 0.00 0.00 0.00 0.01 0.00 0.01 0.00 0.00 0.00 0.00 0.00 0.00 0.00 0.00 0.01 0.01 0.03 0.07 0.11 0.14 0.08 0.02 0.02 0.07 0.09 0.06
0.00 0.00 0.01 0.01 0.02 0.07 0.00 0.00 0.00 0.00 0.00 0.00 0.00 0.00 0.00 0.00 0.00 0.00 0.00 0.00 0.02 0.02 0.03 0.02 0.00 0.00 0.00 0.00 0.00 0.00 0.00 0.02 0.02 0.01 0.02 0.02 0.01 0.00 0.01 0.05 0.08 0.08 0.06 0.03
0.00 0.00 0.01 0.02 0.03 0.02 0.00 0.00 0.00 0.00 0.00 0.00 0.00 0.02 0.02 0.02 0.02 0.01 0.01 0.03 0.06 0.05 0.04 0.00 0.00 0.00 0.00 0.00 0.01 0.03 0.03 0.03 0.03 0.02 0.00 0.00 0.01 0.03 0.05 0.06 0.09 0.06 0.01 0.00
0.00 0.00 0.02 0.03 0.05 0.04 0.00 0.00 0.00 0.00 0.01 0.01 0.04 0.09 0.14 0.11 0.19 0.12 0.07 0.08 0.06 0.03 0.00 0.00 0.00 0.00 0.00 0.01 0.01 0.01 0.01 0.00 0.00 0.00 0.01 0.02 0.03 0.07 0.10 0.07 0.01 0.00 0.00 0.00
0.01 0.00 0.00 0.01 0.04 0.01 0.00 0.00 0.01 0.14 0.17 0.06 0.12 0.17 0.11 0.16 0.19 0.19 0.18 0.05 0.00 0.00 0.00 0.00 0.00 0.00 0.00 0.00 0.01 0.01 0.00 0.00 0.00 0.01 0.02 0.02 0.03 0.04 0.03 0.01 0.00 0.00 0.00 0.03
0.03 0.09 0.10 0.07 0.16 0.06 0.00 0.03 0.15 0.18 0.08 0.08 0.07 0.06 0.08 0.10 0.19 0.18 0.05 0.02 0.00 0.00 0.00 0.00 0.00 0.00 0.00 0.01 0.00 0.00 0.00 0.00 0.00 0.00 0.01 0.04 0.04 0.02 0.01 0.00 0.00 0.00 0.02 0.03
0.01 0.01 0.02 0.04 0.03 0.00 0.00 0.03 0.02 0.04 0.10 0.07 0.07 0.09 0.16 0.26 0.16 0.04 0.03 0.00 0.00 0.00 0.00 0.00 0.00 0.01 0.01 0.00 0.00 0.00 0.00 0.00 0.01 0.02 0.04 0.04 0.01 0.01 0.00 0.00 0.00 0.00 0.01 0.01
0.04 0.02 0.02 0.02 0.01 0.00 0.01 0.01 0.02 0.06 0.08 0.13 0.20 0.24 0.21 0.10 0.06 0.03 0.00 0.00 0.00 0.00 0.01 0.02 0.02 0.02 0.00 0.00 0.00 0.01 0.01 0.02 0.03 0.03 0.02 0.02 0.01 0.00 0.01 0.01 0.01 0.01 0.01 0.02
0.08 0.06 0.03 0.05 0.01 0.02 0.04 0.07 0.14 0.21 0.31 0.29 0.19 0.14 0.07 0.03 0.01 0.01 0.01 0.00 0.00 0.02 0.04 0.02 0.04 0.04 0.00 0.00 0.00 0.01 0.02 0.02 0.02 0.01 0.01 0.01 0.00 0.03 0.02 0.00 0.00 0.00 0.01 0.02
0.06 0.03 0.06 0.10 0.06 0.23 0.22 0.33 0.42 0.38 0.27 0.15 0.09 0.04 0.01 0.01 0.01 0.00 0.00 0.01 0.02 0.03 0.03 0.04 0.02 0.00 0.00 0.00 0.00 0.01 0.01 0.01 0.01 0.02 0.03 0.03 0.02 0.02 0.01 0.00 0.00 0.00 0.00 0.00

GFSCGP_prec_precacc_054.txt.gz
Total_Precipitation_Accumulation
0.00 0.00 0.00 0.00 0.00 0.00 0.00 0.00 0.00 0.00 0.00 0.00 0.00 0.00 0.00 0.00 0.00 0.01 0.00 0.00 0.00 0.00 0.00 0.00 0.00 0.02 0.04 0.08 0.27 0.69 0.86 1.00 0.90 0.62 0.22 0.05 0.01 0.01 0.00 0.00 0.00 0.00 0.00 0.00
0.00 0.00 0.00 0.00 0.00 0.00 0.00 0.00 0.00 0.00 0.00 0.00 0.00 0.00 0.00 0.00 0.00 0.00 0.00 0.00 0.00 0.00 0.00 0.01 0.03 0.09 0.13 0.26 0.35 0.32 0.19 0.09 0.03 0.00 0.00 0.00 0.00 0.00 0.00 0.00 0.00 0.00 0.00 0.00
0.00 0.02 0.00 0.00 0.00 0.00 0.00 0.00 0.00 0.00 0.00 0.00 0.00 0.00 0.00 0.00 0.00 0.00 0.00 0.00 0.00 0.00 0.00 0.02 0.08 0.12 0.13 0.13 0.09 0.02 0.00 0.00 0.00 0.00 0.00 0.00 0.00 0.00 0.00 0.00 0.00 0.00 0.00 0.00
0.00 0.00 0.00 0.00 0.00 0.00 0.00 0.00 0.00 0.00 0.00 0.00 0.00 0.00 0.01 0.00 0.00 0.00 0.00 0.00 0.00 0.00 0.01 0.01 0.01 0.01 0.00 0.00 0.00 0.00 0.00 0.00 0.00 0.00 0.00 0.00 0.00 0.00 0.00 0.00 0.00 0.00 0.00 0.00
0.00 0.00 0.00 0.00 0.00 0.00 0.03 0.00 0.00 0.00 0.00 0.01 0.01 0.00 0.01 0.00 0.00 0.00 0.00 0.00 0.00 0.00 0.00 0.00 0.00 0.00 0.00 0.00 0.00 0.00 0.00 0.00 0.00 0.00 0.00 0.00 0.00 0.00 0.00 0.00 0.00 0.00 0.00 0.00
0.00 0.00 0.00 0.00 0.00 0.00 0.00 0.00 0.00 0.00 0.00 0.00 0.01 0.00 0.00 0.00 0.01 0.00 0.00 0.00 0.00 0.00 0.00 0.00 0.00 0.00 0.00 0.00 0.00 0.00 0.00 0.00 0.00 0.00 0.00 0.00 0.00 0.00 0.00 0.00 0.00 0.00 0.00 0.00
0.00 0.00 0.00 0.00 0.00 0.00 0.00 0.00 0.00 0.05 0.02 0.02 0.04 0.04 0.02 0.01 0.01 0.01 0.00 0.00 0.00 0.00 0.00 0.00 0.00 0.00 0.00 0.00 0.00 0.00 0.00 0.00 0.00 0.00 0.00 0.00 0.00 0.00 0.00 0.00 0.00 0.00 0.00 0.00
0.00 0.00 0.00 0.00 0.00 0.01 0.00 0.00 0.00 0.01 0.01 0.02 0.01 0.00 0.00 0.00 0.00 0.00 0.00 0.00 0.00 0.00 0.00 0.00 0.00 0.00 0.00 0.00 0.00 0.00 0.00 0.00 0.00 0.00 0.00 0.00 0.00 0.00 0.00 0.00 0.00 0.00 0.00 0.00
0.00 0.00 0.00 0.00 0.00 0.00 0.00 0.00 0.00 0.00 0.00 0.00 0.00 0.00 0.00 0.00 0.00 0.00 0.00 0.00 0.00 0.00 0.00 0.00 0.00 0.00 0.00 0.00 0.00 0.00 0.00 0.00 0.00 0.00 0.00 0.00 0.00 0.00 0.00 0.00 0.00 0.00 0.00 0.00
0.01 0.03 0.00 0.00 0.00 0.00 0.00 0.00 0.00 0.00 0.00 0.01 0.00 0.00 0.00 0.00 0.00 0.00 0.00 0.00 0.00 0.00 0.00 0.00 0.00 0.00 0.00 0.00 0.00 0.00 0.00 0.00 0.00 0.00 0.00 0.00 0.00 0.00 0.00 0.00 0.00 0.00 0.00 0.00
0.00 0.01 0.00 0.00 0.00 0.00 0.00 0.00 0.00 0.00 0.00 0.04 0.07 0.01 0.00 0.00 0.00 0.00 0.00 0.00 0.00 0.00 0.00 0.00 0.00 0.00 0.00 0.00 0.00 0.00 0.00 0.00 0.00 0.00 0.00 0.00 0.00 0.00 0.00 0.00 0.00 0.00 0.00 0.01
0.00 0.00 0.00 0.00 0.00 0.00 0.00 0.00 0.00 0.01 0.02 0.01 0.03 0.01 0.00 0.00 0.00 0.00 0.00 0.00 0.00 0.00 0.00 0.00 0.00 0.00 0.00 0.00 0.00 0.00 0.00 0.00 0.00 0.00 0.00 0.00 0.00 0.00 0.00 0.00 0.00 0.00 0.00 0.01
0.00 0.00 0.00 0.00 0.00 0.00 0.00 0.00 0.00 0.00 0.00 0.01 0.03 0.00 0.00 0.00 0.00 0.00 0.00 0.00 0.00 0.00 0.00 0.00 0.00 0.00 0.00 0.00 0.00 0.00 0.00 0.00 0.00 0.00 0.00 0.00 0.00 0.00 0.00 0.00 0.00 0.00 0.01 0.04
0.00 0.00 0.00 0.00 0.00 0.00 0.00 0.00 0.00 0.00 0.00 0.00 0.00 0.00 0.00 0.00 0.01 0.00 0.00 0.00 0.00 0.00 0.00 0.00 0.00 0.00 0.00 0.00 0.00 0.00 0.00 0.00 0.00 0.00 0.00 0.00 0.00 0.00 0.01 0.01 0.01 0.03 0.05 0.07
0.00 0.00 0.00 0.00 0.00 0.00 0.00 0.00 0.00 0.00 0.00 0.00 0.00 0.00 0.00 0.00 0.00 0.00 0.00 0.00 0.00 0.00 0.00 0.00 0.00 0.00 0.00 0.00 0.00 0.00 0.00 0.00 0.00 0.00 0.00 0.00 0.01 0.01 0.03 0.05 0.05 0.08 0.07 0.04
0.00 0.00 0.00 0.00 0.00 0.00 0.00 0.00 0.00 0.00 0.00 0.00 0.00 0.00 0.00 0.00 0.00 0.00 0.00 0.00 0.00 0.00 0.00 0.00 0.00 0.00 0.00 0.00 0.00 0.00 0.00 0.00 0.00 0.00 0.00 0.03 0.07 0.15 0.21 0.19 0.11 0.04 0.03 0.06
0.00 0.00 0.01 0.01 0.00 0.01 0.01 0.00 0.00 0.00 0.00 0.00 0.00 0.00 0.00 0.00 0.00 0.00 0.00 0.00 0.00 0.01 0.00 0.01 0.00 0.00 0.00 0.00 0.00 0.00 0.00 0.00 0.01 0.01 0.03 0.07 0.11 0.14 0.08 0.02 0.02 0.07 0.09 0.06
0.00 0.00 0.01 0.01 0.02 0.07 0.00 0.00 0.00 0.00 0.00 0.00 0.00 0.00 0.00 0.00 0.00 0.00 0.00 0.00 0.02 0.02 0.03 0.02 0.00 0.00 0.00 0.00 0.00 0.00 0.00 0.02 0.02 0.01 0.02 0.02 0.01 0.00 0.01 0.05 0.08 0.08 0.06 0.03
0.00 0.00 0.01 0.02 0.03 0.02 0.00 0.00 0.00 0.00 0.00 0.00 0.00 0.02 0.02 0.02 0.02 0.01 0.01 0.03 0.06 0.05 0.04 0.00 0.00 0.00 0.00 0.00 0.01 0.03 0.03 0.03 0.03 0.02 0.00 0.00 0.01 0.03 0.05 0.06 0.09 0.06 0.01 0.00
0.00 0.00 0.02 0.03 0.05 0.04 0.00 0.00 0.00 0.00 0.01 0.01 0.04 0.09 0.14 0.11 0.19 0.12 0.07 0.08 0.06 0.03 0.00 0.00 0.00 0.00 0.00 0.01 0.01 0.01 0.01 0.00 0.00 0.00 0.01 0.02 0.03 0.07 0.10 0.07 0.01 0.00 0.00 0.00
0.01 0.00 0.00 0.01 0.04 0.01 0.00 0.00 0.01 0.14 0.17 0.06 0.12 0.17 0.11 0.16 0.19 0.19 0.18 0.05 0.00 0.00 0.00 0.00 0.00 0.00 0.00 0.00 0.01 0.01 0.00 0.00 0.00 0.01 0.02 0.02 0.03 0.04 0.03 0.01 0.00 0.00 0.00 0.03
0.03 0.09 0.10 0.07 0.16 0.06 0.00 0.03 0.15 0.18 0.08 0.08 0.07 0.06 0.08 0.10 0.19 0.18 0.05 0.02 0.00 0.00 0.00 0.00 0.00 0.00 0.00 0.01 0.00 0.00 0.00 0.00 0.00 0.00 0.01 0.04 0.04 0.02 0.01 0.00 0.00 0.00 0.02 0.03
0.01 0.01 0.02 0.04 0.03 0.00 0.00 0.03 0.02 0.04 0.10 0.07 0.07 0.09 0.16 0.26 0.16 0.04 0.03 0.00 0.00 0.00 0.00 0.00 0.00 0.01 0.01 0.00 0.00 0.00 0.00 0.00 0.01 0.02 0.04 0.04 0.01 0.01 0.00 0.00 0.00 0.00 0.01 0.01
0.04 0.02 0.02 0.02 0.01 0.00 0.01 0.01 0.02 0.06 0.08 0.13 0.20 0.24 0.21 0.10 0.06 0.03 0.00 0.00 0.00 0.00 0.01 0.02 0.03 0.02 0.00 0.00 0.00 0.01 0.01 0.02 0.03 0.03 0.02 0.02 0.01 0.00 0.01 0.01 0.01 0.01 0.01 0.02
0.08 0.06 0.03 0.05 0.01 0.02 0.04 0.07 0.14 0.21 0.31 0.29 0.19 0.14 0.07 0.03 0.01 0.01 0.01 0.00 0.00 0.02 0.04 0.03 0.04 0.04 0.00 0.00 0.00 0.01 0.02 0.02 0.02 0.01 0.01 0.01 0.00 0.03 0.02 0.00 0.00 0.00 0.01 0.02
0.06 0.03 0.06 0.10 0.06 0.23 0.22 0.33 0.42 0.38 0.27 0.15 0.09 0.04 0.01 0.01 0.01 0.00 0.00 0.01 0.02 0.03 0.03 0.04 0.03 0.01 0.00 0.00 0.00 0.01 0.01 0.01 0.01 0.02 0.03 0.03 0.02 0.02 0.01 0.00 0.00 0.00 0.00 0.00

GFSCGP_prec_precacc_057.txt.gz
Total_Precipitation_Accumulation
0.00 0.00 0.00 0.00 0.00 0.00 0.00 0.00 0.00 0.00 0.00 0.00 0.00 0.00 0.00 0.00 0.01 0.12 0.01 0.00 0.00 0.00 0.00 0.00 0.00 0.02 0.04 0.08 0.27 0.70 0.92 1.05 0.90 0.63 0.23 0.05 0.01 0.01 0.00 0.00 0.00 0.00 0.00 0.00
0.00 0.00 0.00 0.00 0.00 0.00 0.00 0.00 0.00 0.00 0.00 0.00 0.00 0.00 0.00 0.00 0.00 0.05 0.02 0.01 0.00 0.00 0.00 0.01 0.03 0.09 0.13 0.26 0.36 0.38 0.22 0.14 0.04 0.01 0.00 0.00 0.00 0.00 0.00 0.00 0.00 0.00 0.00 0.00
0.00 0.02 0.00 0.00 0.00 0.00 0.00 0.00 0.00 0.00 0.00 0.00 0.00 0.00 0.00 0.00 0.00 0.00 0.01 0.00 0.00 0.00 0.00 0.02 0.08 0.12 0.14 0.14 0.17 0.05 0.03 0.02 0.00 0.00 0.00 0.00 0.00 0.00 0.00 0.00 0.00 0.00 0.00 0.00
0.00 0.00 0.00 0.00 0.00 0.00 0.00 0.00 0.00 0.00 0.00 0.00 0.00 0.01 0.02 0.00 0.00 0.00 0.00 0.00 0.00 0.00 0.01 0.01 0.01 0.01 0.01 0.01 0.03 0.00 0.00 0.00 0.00 0.00 0.00 0.00 0.00 0.00 0.00 0.00 0.00 0.00 0.00 0.00
0.00 0.00 0.00 0.00 0.00 0.00 0.03 0.00 0.00 0.00 0.00 0.01 0.01 0.00 0.01 0.00 0.00 0.00 0.00 0.00 0.00 0.00 0.00 0.00 0.00 0.00 0.00 0.00 0.00 0.00 0.00 0.00 0.00 0.00 0.00 0.00 0.00 0.00 0.00 0.00 0.00 0.00 0.00 0.00
0.00 0.00 0.00 0.00 0.00 0.00 0.00 0.00 0.00 0.00 0.00 0.00 0.01 0.00 0.00 0.00 0.01 0.01 0.00 0.00 0.00 0.01 0.01 0.00 0.00 0.00 0.00 0.00 0.00 0.00 0.00 0.00 0.00 0.00 0.00 0.00 0.00 0.00 0.00 0.00 0.00 0.00 0.00 0.00
0.00 0.00 0.00 0.00 0.00 0.00 0.00 0.00 0.00 0.05 0.03 0.02 0.04 0.05 0.02 0.01 0.01 0.05 0.00 0.00 0.00 0.01 0.00 0.00 0.00 0.00 0.00 0.00 0.00 0.00 0.00 0.00 0.00 0.00 0.00 0.00 0.00 0.00 0.00 0.00 0.00 0.00 0.00 0.00
0.00 0.00 0.00 0.00 0.00 0.01 0.00 0.00 0.00 0.02 0.02 0.02 0.02 0.01 0.00 0.00 0.00 0.00 0.00 0.00 0.00 0.00 0.00 0.00 0.00 0.00 0.00 0.00 0.00 0.00 0.00 0.00 0.00 0.00 0.00 0.00 0.00 0.00 0.00 0.00 0.00 0.00 0.00 0.00
0.00 0.00 0.01 0.00 0.00 0.00 0.02 0.04 0.00 0.00 0.00 0.00 0.00 0.00 0.00 0.00 0.00 0.00 0.00 0.00 0.00 0.00 0.00 0.00 0.00 0.00 0.00 0.00 0.00 0.00 0.00 0.00 0.00 0.00 0.00 0.00 0.00 0.00 0.00 0.00 0.00 0.00 0.00 0.00
0.01 0.03 0.01 0.00 0.00 0.00 0.00 0.02 0.00 0.00 0.00 0.01 0.00 0.00 0.00 0.00 0.00 0.00 0.00 0.00 0.00 0.00 0.00 0.00 0.00 0.00 0.00 0.00 0.00 0.00 0.00 0.00 0.00 0.00 0.00 0.00 0.00 0.00 0.00 0.00 0.00 0.00 0.00 0.00
0.00 0.04 0.05 0.00 0.00 0.00 0.00 0.00 0.00 0.00 0.00 0.04 0.07 0.01 0.00 0.00 0.01 0.00 0.00 0.00 0.00 0.00 0.00 0.00 0.00 0.00 0.00 0.00 0.00 0.00 0.00 0.00 0.00 0.00 0.00 0.00 0.00 0.00 0.00 0.00 0.00 0.00 0.00 0.01
0.00 0.00 0.00 0.01 0.00 0.00 0.00 0.00 0.00 0.01 0.02 0.01 0.03 0.01 0.00 0.00 0.00 0.00 0.00 0.00 0.00 0.00 0.00 0.00 0.00 0.00 0.00 0.00 0.00 0.00 0.00 0.00 0.00 0.00 0.00 0.00 0.00 0.00 0.00 0.00 0.00 0.00 0.00 0.01
0.00 0.00 0.00 0.00 0.00 0.00 0.00 0.00 0.00 0.00 0.00 0.01 0.03 0.00 0.00 0.00 0.00 0.00 0.00 0.00 0.00 0.00 0.00 0.00 0.00 0.00 0.00 0.00 0.00 0.00 0.00 0.00 0.00 0.00 0.00 0.00 0.00 0.00 0.00 0.00 0.00 0.00 0.01 0.04
0.00 0.00 0.00 0.00 0.00 0.00 0.00 0.00 0.00 0.00 0.00 0.00 0.00 0.00 0.00 0.00 0.01 0.00 0.00 0.00 0.00 0.00 0.00 0.00 0.00 0.00 0.00 0.00 0.00 0.00 0.00 0.00 0.00 0.00 0.00 0.00 0.00 0.00 0.01 0.01 0.01 0.03 0.05 0.07
0.00 0.00 0.00 0.00 0.00 0.00 0.00 0.00 0.00 0.00 0.00 0.00 0.00 0.00 0.00 0.00 0.00 0.00 0.00 0.00 0.00 0.00 0.00 0.00 0.00 0.00 0.00 0.00 0.00 0.00 0.00 0.00 0.00 0.00 0.00 0.00 0.01 0.01 0.03 0.05 0.05 0.08 0.07 0.04
0.00 0.00 0.00 0.00 0.00 0.00 0.00 0.00 0.00 0.00 0.00 0.00 0.00 0.00 0.00 0.00 0.00 0.00 0.00 0.00 0.00 0.00 0.00 0.00 0.00 0.00 0.00 0.00 0.00 0.00 0.00 0.00 0.00 0.00 0.00 0.03 0.07 0.15 0.21 0.19 0.11 0.04 0.03 0.06
0.00 0.00 0.01 0.01 0.00 0.01 0.01 0.00 0.00 0.00 0.00 0.00 0.00 0.00 0.00 0.00 0.00 0.00 0.00 0.00 0.00 0.01 0.00 0.01 0.00 0.00 0.00 0.00 0.00 0.00 0.00 0.00 0.01 0.01 0.03 0.07 0.11 0.14 0.08 0.02 0.02 0.07 0.09 0.06
0.00 0.00 0.01 0.01 0.02 0.07 0.00 0.00 0.00 0.00 0.00 0.00 0.00 0.00 0.00 0.00 0.00 0.00 0.00 0.00 0.02 0.02 0.03 0.02 0.00 0.00 0.00 0.00 0.00 0.00 0.00 0.02 0.02 0.01 0.02 0.02 0.01 0.00 0.01 0.05 0.08 0.08 0.06 0.03
0.00 0.00 0.01 0.02 0.03 0.02 0.00 0.00 0.00 0.00 0.00 0.00 0.00 0.02 0.02 0.02 0.02 0.01 0.01 0.03 0.06 0.05 0.04 0.00 0.00 0.00 0.00 0.00 0.01 0.03 0.03 0.03 0.03 0.02 0.00 0.00 0.01 0.03 0.05 0.06 0.09 0.06 0.01 0.00
0.00 0.00 0.02 0.03 0.05 0.04 0.00 0.00 0.00 0.00 0.01 0.01 0.04 0.09 0.14 0.11 0.19 0.12 0.07 0.08 0.06 0.03 0.00 0.00 0.00 0.00 0.00 0.01 0.01 0.01 0.01 0.00 0.00 0.00 0.01 0.02 0.03 0.07 0.10 0.07 0.01 0.00 0.00 0.00
0.01 0.00 0.00 0.01 0.04 0.01 0.00 0.00 0.01 0.14 0.17 0.06 0.12 0.17 0.11 0.16 0.19 0.19 0.18 0.05 0.00 0.00 0.00 0.00 0.00 0.00 0.00 0.00 0.01 0.01 0.00 0.00 0.00 0.01 0.02 0.02 0.03 0.04 0.03 0.01 0.00 0.00 0.00 0.03
0.03 0.09 0.10 0.07 0.16 0.06 0.00 0.03 0.15 0.18 0.08 0.08 0.07 0.06 0.08 0.10 0.19 0.18 0.05 0.02 0.00 0.00 0.00 0.00 0.00 0.00 0.00 0.01 0.00 0.00 0.00 0.00 0.00 0.00 0.01 0.04 0.04 0.02 0.01 0.00 0.00 0.00 0.02 0.03
0.01 0.01 0.02 0.04 0.03 0.00 0.00 0.03 0.02 0.04 0.10 0.07 0.07 0.09 0.16 0.26 0.16 0.04 0.03 0.00 0.00 0.00 0.00 0.00 0.00 0.01 0.01 0.00 0.00 0.00 0.00 0.00 0.01 0.02 0.04 0.04 0.01 0.01 0.00 0.00 0.00 0.00 0.01 0.01
0.04 0.02 0.02 0.02 0.01 0.00 0.01 0.01 0.02 0.06 0.08 0.13 0.20 0.24 0.21 0.10 0.06 0.03 0.00 0.00 0.00 0.00 0.01 0.02 0.03 0.02 0.00 0.00 0.00 0.01 0.01 0.02 0.03 0.03 0.02 0.02 0.01 0.00 0.01 0.01 0.01 0.01 0.01 0.02
0.08 0.06 0.03 0.05 0.01 0.02 0.04 0.07 0.14 0.21 0.31 0.29 0.19 0.14 0.07 0.03 0.01 0.01 0.01 0.00 0.00 0.02 0.04 0.03 0.04 0.04 0.00 0.00 0.00 0.01 0.02 0.02 0.02 0.01 0.01 0.01 0.00 0.03 0.02 0.00 0.00 0.00 0.01 0.02
0.06 0.03 0.06 0.10 0.06 0.23 0.22 0.33 0.42 0.38 0.27 0.15 0.09 0.04 0.01 0.01 0.01 0.00 0.00 0.01 0.02 0.03 0.03 0.04 0.03 0.01 0.00 0.00 0.00 0.01 0.01 0.01 0.01 0.02 0.03 0.03 0.02 0.02 0.01 0.00 0.00 0.00 0.00 0.00

GFSCGP_prec_precacc_060.txt.gz
Total_Precipitation_Accumulation
0.00 0.00 0.00 0.00 0.00 0.00 0.00 0.00 0.00 0.00 0.00 0.00 0.00 0.00 0.00 0.00 0.01 0.13 0.01 0.00 0.00 0.00 0.00 0.00 0.00 0.02 0.04 0.08 0.27 0.70 0.92 1.06 0.90 0.63 0.23 0.05 0.01 0.01 0.00 0.00 0.00 0.00 0.00 0.00
0.00 0.00 0.00 0.00 0.00 0.00 0.00 0.00 0.00 0.00 0.00 0.00 0.00 0.00 0.00 0.00 0.00 0.05 0.02 0.01 0.00 0.00 0.00 0.01 0.03 0.09 0.13 0.26 0.36 0.39 0.22 0.16 0.04 0.01 0.00 0.00 0.00 0.00 0.00 0.00 0.00 0.00 0.00 0.00
0.00 0.02 0.00 0.00 0.00 0.00 0.00 0.00 0.00 0.00 0.00 0.00 0.00 0.00 0.00 0.00 0.00 0.01 0.01 0.00 0.00 0.00 0.00 0.02 0.08 0.12 0.14 0.14 0.17 0.06 0.04 0.04 0.00 0.00 0.00 0.00 0.00 0.00 0.00 0.00 0.00 0.00 0.00 0.00
0.00 0.00 0.00 0.00 0.00 0.00 0.00 0.00 0.00 0.00 0.00 0.00 0.00 0.01 0.02 0.00 0.00 0.00 0.01 0.00 0.01 0.00 0.01 0.01 0.01 0.01 0.01 0.01 0.03 0.02 0.03 0.02 0.00 0.00 0.00 0.00 0.00 0.00 0.00 0.00 0.00 0.00 0.00 0.00
0.00 0.00 0.00 0.00 0.00 0.00 0.03 0.00 0.00 0.00 0.00 0.01 0.01 0.00 0.01 0.00 0.00 0.00 0.00 0.00 0.00 0.00 0.00 0.00 0.00 0.00 0.00 0.00 0.02 0.08 0.04 0.01 0.00 0.00 0.00 0.00 0.00 0.00 0.00 0.00 0.00 0.00 0.00 0.00
0.00 0.00 0.00 0.00 0.00 0.00 0.00 0.00 0.00 0.00 0.00 0.00 0.01 0.00 0.00 0.00 0.01 0.01 0.00 0.00 0.00 0.01 0.01 0.00 0.00 0.00 0.00 0.03 0.06 0.04 0.00 0.00 0.00 0.00 0.00 0.00 0.00 0.00 0.00 0.00 0.00 0.00 0.00 0.00
0.00 0.00 0.00 0.00 0.00 0.00 0.00 0.00 0.00 0.06 0.03 0.02 0.04 0.05 0.02 0.01 0.01 0.05 0.00 0.00 0.00 0.01 0.00 0.00 0.02 0.05 0.03 0.02 0.01 0.00 0.00 0.00 0.00 0.00 0.00 0.00 0.00 0.00 0.00 0.00 0.00 0.00 0.00 0.00
0.00 0.00 0.00 0.00 0.00 0.01 0.00 0.00 0.00 0.02 0.02 0.02 0.02 0.01 0.00 0.00 0.00 0.00 0.00 0.00 0.00 0.00 0.00 0.00 0.01 0.02 0.00 0.00 0.00 0.00 0.00 0.00 0.00 0.00 0.00 0.00 0.00 0.00 0.00 0.00 0.00 0.00 0.00 0.00
0.00 0.00 0.01 0.00 0.00 0.00 0.02 0.04 0.01 0.00 0.00 0.00 0.00 0.00 0.00 0.00 0.00 0.00 0.00 0.00 0.00 0.00 0.00 0.00 0.00 0.00 0.00 0.00 0.00 0.00 0.00 0.00 0.00 0.00 0.00 0.00 0.00 0.00 0.00 0.00 0.00 0.00 0.01 0.00
0.01 0.03 0.01 0.00 0.00 0.00 0.00 0.02 0.02 0.01 0.00 0.01 0.00 0.00 0.00 0.00 0.00 0.00 0.00 0.00 0.00 0.00 0.00 0.00 0.00 0.00 0.00 0.00 0.00 0.00 0.00 0.00 0.00 0.00 0.00 0.00 0.00 0.00 0.00 0.00 0.00 0.00 0.00 0.00
0.00 0.04 0.05 0.00 0.00 0.00 0.00 0.00 0.00 0.00 0.00 0.04 0.07 0.01 0.00 0.00 0.01 0.00 0.00 0.00 0.00 0.00 0.00 0.00 0.00 0.00 0.00 0.00 0.00 0.00 0.00 0.00 0.00 0.00 0.00 0.00 0.00 0.00 0.00 0.00 0.00 0.00 0.00 0.01
0.00 0.00 0.00 0.01 0.00 0.00 0.00 0.00 0.01 0.01 0.02 0.01 0.03 0.01 0.00 0.00 0.00 0.00 0.00 0.00 0.00 0.00 0.00 0.00 0.00 0.00 0.00 0.00 0.00 0.00 0.00 0.00 0.00 0.00 0.00 0.00 0.00 0.01 0.01 0.00 0.00 0.00 0.00 0.01
0.00 0.00 0.00 0.00 0.00 0.01 0.00 0.00 0.00 0.00 0.00 0.01 0.03 0.00 0.00 0.00 0.00 0.00 0.00 0.00 0.00 0.00 0.00 0.00 0.00 0.00 0.00 0.00 0.00 0.00 0.00 0.00 0.01 0.01 0.00 0.00 0.00 0.00 0.00 0.00 0.00 0.00 0.01 0.04
0.00 0.00 0.00 0.00 0.00 0.00 0.00 0.00 0.00 0.00 0.00 0.00 0.00 0.00 0.00 0.00 0.01 0.00 0.00 0.00 0.00 0.00 0.00 0.00 0.00 0.00 0.00 0.00 0.00 0.01 0.01 0.02 0.02 0.01 0.00 0.00 0.00 0.00 0.01 0.01 0.01 0.03 0.05 0.07
0.00 0.00 0.00 0.00 0.00 0.00 0.00 0.00 0.00 0.00 0.00 0.00 0.00 0.00 0.00 0.00 0.00 0.00 0.00 0.00 0.00 0.00 0.00 0.00 0.00 0.01 0.01 0.01 0.02 0.02 0.02 0.01 0.00 0.00 0.00 0.00 0.01 0.01 0.03 0.05 0.05 0.08 0.07 0.04
0.00 0.00 0.00 0.00 0.00 0.00 0.00 0.00 0.00 0.00 0.00 0.00 0.00 0.00 0.00 0.00 0.00 0.00 0.00 0.00 0.00 0.00 0.00 0.01 0.02 0.01 0.02 0.02 0.02 0.01 0.00 0.00 0.00 0.00 0.00 0.03 0.07 0.15 0.21 0.19 0.11 0.04 0.03 0.06
0.00 0.00 0.01 0.01 0.00 0.01 0.01 0.00 0.00 0.00 0.00 0.00 0.00 0.00 0.00 0.00 0.00 0.00 0.00 0.00 0.00 0.01 0.00 0.02 0.01 0.01 0.01 0.00 0.00 0.00 0.00 0.00 0.01 0.01 0.03 0.07 0.11 0.14 0.08 0.02 0.02 0.07 0.09 0.06
0.00 0.00 0.01 0.01 0.02 0.07 0.00 0.00 0.00 0.00 0.00 0.00 0.00 0.00 0.00 0.00 0.00 0.00 0.00 0.00 0.02 0.02 0.03 0.02 0.00 0.00 0.00 0.00 0.00 0.00 0.00 0.02 0.02 0.01 0.02 0.02 0.01 0.00 0.01 0.05 0.08 0.08 0.06 0.03
0.00 0.00 0.01 0.02 0.03 0.02 0.00 0.00 0.00 0.00 0.00 0.00 0.00 0.02 0.02 0.02 0.02 0.01 0.01 0.03 0.06 0.05 0.04 0.00 0.00 0.00 0.00 0.00 0.01 0.03 0.03 0.03 0.03 0.02 0.00 0.00 0.01 0.03 0.05 0.06 0.09 0.06 0.01 0.00
0.00 0.01 0.02 0.03 0.05 0.04 0.00 0.00 0.00 0.00 0.01 0.01 0.04 0.09 0.14 0.11 0.19 0.12 0.07 0.08 0.06 0.03 0.00 0.00 0.00 0.00 0.00 0.01 0.01 0.01 0.01 0.00 0.00 0.00 0.01 0.02 0.03 0.07 0.10 0.07 0.01 0.00 0.00 0.00
0.01 0.00 0.00 0.01 0.04 0.01 0.00 0.00 0.01 0.14 0.17 0.06 0.12 0.17 0.11 0.16 0.19 0.19 0.18 0.05 0.00 0.00 0.00 0.00 0.00 0.00 0.00 0.00 0.01 0.01 0.00 0.00 0.00 0.01 0.02 0.02 0.03 0.04 0.03 0.01 0.00 0.00 0.00 0.03
0.03 0.09 0.10 0.07 0.16 0.06 0.00 0.03 0.15 0.18 0.08 0.08 0.07 0.06 0.08 0.10 0.19 0.18 0.05 0.02 0.00 0.00 0.00 0.00 0.00 0.00 0.00 0.01 0.00 0.00 0.00 0.00 0.00 0.00 0.01 0.04 0.04 0.02 0.01 0.00 0.00 0.00 0.02 0.03
0.01 0.01 0.02 0.04 0.03 0.00 0.00 0.03 0.02 0.04 0.10 0.07 0.07 0.09 0.16 0.26 0.16 0.04 0.03 0.00 0.00 0.00 0.00 0.00 0.00 0.01 0.01 0.00 0.00 0.00 0.00 0.00 0.01 0.02 0.04 0.04 0.01 0.01 0.00 0.00 0.00 0.00 0.01 0.01
0.04 0.02 0.02 0.02 0.01 0.00 0.01 0.01 0.02 0.06 0.08 0.13 0.20 0.24 0.21 0.10 0.06 0.03 0.00 0.00 0.00 0.00 0.01 0.02 0.03 0.02 0.00 0.00 0.00 0.01 0.01 0.02 0.03 0.03 0.02 0.02 0.01 0.00 0.01 0.01 0.01 0.01 0.01 0.02
0.08 0.06 0.03 0.05 0.01 0.02 0.04 0.07 0.14 0.21 0.31 0.29 0.19 0.14 0.07 0.03 0.01 0.01 0.01 0.00 0.00 0.02 0.04 0.03 0.04 0.04 0.00 0.00 0.00 0.01 0.02 0.02 0.02 0.01 0.01 0.01 0.00 0.03 0.02 0.00 0.00 0.00 0.01 0.02
0.06 0.03 0.06 0.10 0.06 0.23 0.22 0.33 0.42 0.38 0.27 0.15 0.09 0.04 0.01 0.01 0.01 0.00 0.00 0.01 0.02 0.03 0.03 0.04 0.03 0.01 0.00 0.00 0.00 0.01 0.01 0.01 0.01 0.02 0.03 0.03 0.02 0.02 0.01 0.00 0.00 0.00 0.00 0.00

GFSCGP_prec_precacc_063.txt.gz
Total_Precipitation_Accumulation
0.00 0.00 0.00 0.00 0.00 0.00 0.00 0.00 0.00 0.00 0.00 0.00 0.00 0.00 0.02 0.02 0.02 0.13 0.01 0.00 0.00 0.00 0.00 0.00 0.00 0.02 0.04 0.08 0.27 0.70 0.92 1.06 0.90 0.63 0.23 0.05 0.01 0.01 0.00 0.00 0.00 0.00 0.00 0.00
0.00 0.00 0.00 0.00 0.00 0.00 0.00 0.00 0.00 0.00 0.00 0.00 0.00 0.00 0.01 0.02 0.02 0.05 0.02 0.01 0.00 0.00 0.00 0.01 0.03 0.09 0.13 0.26 0.36 0.39 0.22 0.16 0.04 0.01 0.00 0.00 0.00 0.00 0.00 0.00 0.00 0.00 0.00 0.00
0.00 0.02 0.00 0.00 0.00 0.00 0.00 0.00 0.00 0.00 0.00 0.00 0.00 0.00 0.00 0.01 0.02 0.02 0.01 0.00 0.00 0.00 0.00 0.02 0.08 0.12 0.14 0.14 0.17 0.06 0.04 0.04 0.01 0.02 0.03 0.02 0.00 0.00 0.00 0.00 0.00 0.00 0.00 0.00
0.00 0.00 0.00 0.00 0.00 0.00 0.00 0.00 0.00 0.00 0.00 0.00 0.00 0.01 0.02 0.00 0.00 0.01 0.01 0.00 0.01 0.01 0.01 0.01 0.01 0.01 0.02 0.01 0.03 0.02 0.06 0.09 0.06 0.06 0.09 0.04 0.00 0.00 0.00 0.00 0.00 0.00 0.00 0.00
0.00 0.00 0.00 0.00 0.00 0.00 0.03 0.00 0.00 0.00 0.00 0.01 0.01 0.00 0.01 0.00 0.00 0.00 0.00 0.01 0.00 0.01 0.01 0.00 0.01 0.00 0.00 0.03 0.03 0.09 0.12 0.10 0.04 0.05 0.04 0.00 0.00 0.00 0.00 0.00 0.00 0.00 0.00 0.00
0.00 0.00 0.00 0.00 0.00 0.00 0.00 0.00 0.00 0.00 0.00 0.00 0.01 0.00 0.00 0.00 0.01 0.01 0.00 0.00 0.00 0.01 0.01 0.01 0.01 0.01 0.02 0.10 0.15 0.13 0.08 0.04 0.02 0.03 0.00 0.00 0.00 0.00 0.00 0.00 0.00 0.00 0.00 0.00
0.00 0.00 0.00 0.00 0.00 0.00 0.00 0.00 0.00 0.06 0.03 0.02 0.04 0.05 0.02 0.01 0.01 0.05 0.00 0.00 0.00 0.01 0.00 0.00 0.02 0.06 0.06 0.13 0.14 0.10 0.05 0.02 0.01 0.01 0.00 0.00 0.00 0.00 0.00 0.00 0.00 0.00 0.00 0.00
0.00 0.00 0.00 0.00 0.00 0.01 0.00 0.00 0.00 0.02 0.02 0.02 0.02 0.01 0.00 0.00 0.00 0.00 0.00 0.00 0.00 0.00 0.00 0.00 0.02 0.04 0.06 0.12 0.07 0.05 0.00 0.00 0.00 0.00 0.02 0.01 0.00 0.00 0.00 0.00 0.00 0.00 0.00 0.01
0.00 0.00 0.01 0.00 0.00 0.00 0.02 0.04 0.01 0.00 0.00 0.00 0.00 0.00 0.00 0.00 0.00 0.00 0.00 0.00 0.00 0.00 0.00 0.00 0.01 0.02 0.04 0.02 0.01 0.00 0.00 0.00 0.00 0.00 0.00 0.00 0.00 0.00 0.00 0.00 0.01 0.03 0.02 0.02
0.01 0.03 0.01 0.00 0.00 0.00 0.00 0.02 0.02 0.01 0.00 0.01 0.00 0.00 0.00 0.00 0.00 0.00 0.00 0.00 0.00 0.00 0.00 0.00 0.00 0.01 0.01 0.00 0.00 0.00 0.00 0.00 0.00 0.00 0.00 0.00 0.00 0.00 0.00 0.01 0.02 0.02 0.02 0.01
0.00 0.04 0.05 0.00 0.00 0.00 0.00 0.00 0.00 0.00 0.00 0.04 0.07 0.01 0.00 0.00 0.01 0.00 0.00 0.00 0.00 0.00 0.00 0.00 0.00 0.00 0.00 0.00 0.00 0.00 0.00 0.00 0.00 0.00 0.00 0.00 0.00 0.00 0.01 0.02 0.03 0.03 0.01 0.01
0.00 0.00 0.00 0.01 0.00 0.00 0.00 0.00 0.01 0.01 0.02 0.01 0.03 0.01 0.00 0.00 0.00 0.00 0.00 0.00 0.00 0.00 0.00 0.00 0.00 0.00 0.00 0.00 0.00 0.00 0.00 0.00 0.00 0.00 0.00 0.00 0.00 0.02 0.06 0.07 0.03 0.00 0.00 0.01
0.00 0.00 0.00 0.00 0.00 0.01 0.00 0.00 0.00 0.00 0.00 0.01 0.03 0.00 0.00 0.00 0.00 0.00 0.00 0.00 0.00 0.00 0.00 0.00 0.00 0.00 0.00 0.00 0.00 0.00 0.00 0.00 0.01 0.01 0.01 0.01 0.02 0.02 0.01 0.00 0.00 0.00 0.01 0.04
0.00 0.00 0.00 0.00 0.00 0.00 0.00 0.00 0.00 0.00 0.00 0.00 0.00 0.00 0.00 0.00 0.01 0.00 0.00 0.00 0.00 0.00 0.00 0.00 0.00 0.00 0.01 0.02 0.01 0.01 0.02 0.03 0.04 0.02 0.02 0.01 0.01 0.01 0.01 0.01 0.01 0.03 0.05 0.07
0.00 0.00 0.00 0.00 0.00 0.00 0.00 0.00 0.00 0.00 0.00 0.00 0.00 0.00 0.00 0.00 0.00 0.00 0.00 0.00 0.00 0.00 0.00 0.01 0.01 0.02 0.04 0.03 0.03 0.04 0.04 0.04 0.03 0.02 0.01 0.01 0.01 0.01 0.03 0.05 0.05 0.08 0.07 0.04
0.00 0.00 0.00 0.00 0.00 0.00 0.00 0.00 0.00 0.00 0.00 0.00 0.00 0.00 0.00 0.00 0.00 0.00 0.00 0.00 0.00 0.00 0.00 0.02 0.03 0.03 0.03 0.03 0.03 0.03 0.04 0.05 0.03 0.01 0.00 0.03 0.07 0.15 0.21 0.19 0.11 0.04 0.03 0.06
0.00 0.00 0.01 0.01 0.00 0.01 0.01 0.00 0.00 0.00 0.00 0.00 0.00 0.00 0.00 0.00 0.00 0.00 0.00 0.00 0.00 0.01 0.00 0.02 0.02 0.02 0.01 0.02 0.04 0.04 0.04 0.02 0.01 0.01 0.03 0.07 0.11 0.14 0.08 0.02 0.02 0.07 0.09 0.06
0.00 0.00 0.01 0.01 0.02 0.07 0.00 0.00 0.00 0.00 0.00 0.00 0.00 0.00 0.00 0.00 0.00 0.00 0.00 0.00 0.02 0.02 0.03 0.02 0.00 0.00 0.00 0.02 0.02 0.01 0.01 0.02 0.02 0.01 0.02 0.02 0.01 0.00 0.01 0.05 0.08 0.08 0.06 0.03
0.00 0.00 0.01 0.02 0.03 0.02 0.00 0.00 0.00 0.00 0.00 0.00 0.00 0.02 0.02 0.02 0.02 0.01 0.01 0.03 0.06 0.05 0.04 0.00 0.00 0.00 0.00 0.00 0.01 0.03 0.03 0.03 0.03 0.02 0.00 0.00 0.01 0.03 0.05 0.06 0.09 0.06 0.01 0.00
0.00 0.01 0.02 0.03 0.05 0.04 0.00 0.00 0.00 0.00 0.01 0.01 0.04 0.09 0.14 0.11 0.19 0.12 0.07 0.08 0.06 0.03 0.00 0.00 0.00 0.00 0.00 0.01 0.01 0.01 0.01 0.00 0.00 0.00 0.01 0.02 0.03 0.07 0.10 0.07 0.01 0.00 0.00 0.00
0.01 0.01 0.01 0.01 0.04 0.01 0.00 0.00 0.01 0.14 0.17 0.06 0.12 0.17 0.11 0.16 0.19 0.19 0.18 0.05 0.00 0.00 0.00 0.00 0.00 0.00 0.00 0.00 0.01 0.01 0.00 0.00 0.00 0.01 0.02 0.02 0.03 0.04 0.03 0.01 0.00 0.00 0.00 0.03
0.03 0.09 0.10 0.07 0.16 0.06 0.00 0.03 0.15 0.18 0.08 0.08 0.07 0.06 0.08 0.10 0.19 0.18 0.05 0.02 0.00 0.00 0.00 0.00 0.00 0.00 0.00 0.01 0.00 0.00 0.00 0.00 0.00 0.00 0.01 0.04 0.04 0.02 0.01 0.00 0.00 0.00 0.02 0.03
0.01 0.01 0.02 0.04 0.03 0.00 0.00 0.03 0.02 0.04 0.10 0.07 0.07 0.09 0.16 0.26 0.16 0.04 0.03 0.00 0.00 0.00 0.00 0.00 0.00 0.01 0.01 0.00 0.00 0.00 0.00 0.00 0.01 0.02 0.04 0.04 0.01 0.01 0.00 0.00 0.00 0.00 0.01 0.01
0.04 0.02 0.02 0.02 0.01 0.00 0.01 0.01 0.02 0.06 0.08 0.13 0.20 0.24 0.21 0.10 0.06 0.03 0.00 0.00 0.00 0.00 0.01 0.02 0.03 0.02 0.00 0.00 0.00 0.01 0.01 0.02 0.03 0.03 0.02 0.02 0.01 0.00 0.01 0.01 0.01 0.01 0.01 0.02
0.08 0.06 0.03 0.05 0.01 0.02 0.04 0.07 0.14 0.21 0.31 0.29 0.19 0.14 0.07 0.03 0.01 0.01 0.01 0.00 0.00 0.02 0.04 0.03 0.04 0.04 0.00 0.00 0.00 0.01 0.02 0.02 0.02 0.01 0.01 0.01 0.00 0.03 0.02 0.00 0.00 0.00 0.01 0.02
0.06 0.03 0.06 0.10 0.06 0.23 0.22 0.33 0.42 0.38 0.27 0.15 0.09 0.04 0.01 0.01 0.01 0.00 0.00 0.01 0.02 0.03 0.03 0.04 0.03 0.01 0.00 0.00 0.00 0.01 0.01 0.01 0.01 0.02 0.03 0.03 0.02 0.02 0.01 0.00 0.00 0.00 0.00 0.00

GFSCGP_prec_precacc_066.txt.gz
Total_Precipitation_Accumulation
0.00 0.00 0.00 0.00 0.00 0.00 0.00 0.00 0.00 0.00 0.00 0.00 0.00 0.00 0.02 0.03 0.03 0.13 0.01 0.00 0.00 0.00 0.00 0.00 0.00 0.02 0.04 0.08 0.27 0.70 0.92 1.06 0.90 0.63 0.23 0.05 0.03 0.02 0.01 0.00 0.00 0.00 0.00 0.00
0.00 0.00 0.00 0.00 0.00 0.00 0.00 0.00 0.00 0.00 0.00 0.00 0.00 0.00 0.01 0.02 0.02 0.05 0.02 0.01 0.00 0.00 0.00 0.01 0.03 0.09 0.13 0.26 0.36 0.39 0.22 0.16 0.04 0.01 0.00 0.01 0.01 0.00 0.00 0.00 0.00 0.00 0.00 0.00
0.00 0.02 0.00 0.00 0.00 0.00 0.00 0.00 0.00 0.00 0.00 0.00 0.00 0.00 0.00 0.01 0.02 0.02 0.01 0.00 0.00 0.00 0.00 0.02 0.08 0.12 0.14 0.14 0.17 0.06 0.04 0.04 0.02 0.02 0.06 0.09 0.04 0.01 0.00 0.00 0.00 0.00 0.00 0.00
0.00 0.00 0.00 0.00 0.00 0.00 0.00 0.00 0.00 0.00 0.00 0.00 0.00 0.01 0.02 0.00 0.00 0.01 0.01 0.00 0.01 0.01 0.01 0.01 0.01 0.01 0.02 0.01 0.03 0.02 0.06 0.09 0.09 0.10 0.19 0.16 0.07 0.01 0.00 0.00 0.00 0.00 0.00 0.00
0.00 0.00 0.00 0.00 0.00 0.00 0.03 0.00 0.00 0.00 0.00 0.01 0.01 0.00 0.01 0.00 0.00 0.00 0.00 0.01 0.00 0.01 0.01 0.00 0.01 0.02 0.01 0.04 0.04 0.09 0.13 0.14 0.09 0.13 0.20 0.12 0.07 0.02 0.00 0.00 0.00 0.00 0.00 0.00
0.00 0.00 0.00 0.00 0.00 0.00 0.00 0.00 0.00 0.00 0.00 0.00 0.01 0.00 0.00 0.00 0.01 0.01 0.00 0.00 0.00 0.01 0.01 0.01 0.02 0.01 0.02 0.11 0.17 0.15 0.13 0.12 0.08 0.13 0.17 0.13 0.05 0.01 0.00 0.00 0.00 0.00 0.00 0.00
0.00 0.00 0.00 0.00 0.00 0.00 0.00 0.00 0.00 0.06 0.03 0.02 0.04 0.05 0.02 0.01 0.01 0.05 0.00 0.00 0.00 0.01 0.00 0.00 0.02 0.06 0.07 0.18 0.21 0.14 0.11 0.10 0.10 0.12 0.10 0.08 0.02 0.00 0.00 0.00 0.00 0.00 0.00 0.00
0.00 0.00 0.00 0.00 0.00 0.01 0.00 0.00 0.00 0.02 0.02 0.02 0.02 0.01 0.00 0.00 0.00 0.00 0.00 0.00 0.00 0.00 0.00 0.00 0.02 0.05 0.08 0.27 0.20 0.08 0.02 0.01 0.02 0.06 0.08 0.04 0.03 0.04 0.00 0.00 0.00 0.00 0.01 0.02
0.00 0.00 0.01 0.00 0.00 0.00 0.02 0.04 0.01 0.00 0.00 0.00 0.00 0.00 0.00 0.00 0.00 0.00 0.00 0.00 0.00 0.00 0.00 0.00 0.01 0.03 0.05 0.16 0.07 0.00 0.00 0.00 0.00 0.02 0.03 0.03 0.03 0.01 0.00 0.00 0.01 0.03 0.03 0.02
0.01 0.03 0.01 0.00 0.00 0.00 0.00 0.02 0.02 0.01 0.00 0.01 0.00 0.00 0.00 0.00 0.00 0.00 0.00 0.00 0.00 0.00 0.00 0.00 0.00 0.01 0.01 0.05 0.01 0.00 0.00 0.00 0.00 0.00 0.01 0.01 0.00 0.00 0.00 0.01 0.02 0.02 0.02 0.05
0.00 0.04 0.05 0.00 0.00 0.00 0.00 0.00 0.00 0.00 0.00 0.04 0.07 0.01 0.00 0.00 0.01 0.00 0.00 0.00 0.00 0.00 0.00 0.00 0.00 0.00 0.00 0.02 0.03 0.00 0.00 0.00 0.00 0.00 0.00 0.00 0.00 0.00 0.01 0.02 0.03 0.04 0.05 0.05
0.00 0.00 0.00 0.01 0.00 0.00 0.00 0.00 0.01 0.01 0.02 0.01 0.03 0.01 0.00 0.00 0.00 0.00 0.00 0.00 0.00 0.00 0.00 0.00 0.00 0.00 0.00 0.04 0.05 0.00 0.00 0.00 0.00 0.00 0.00 0.00 0.00 0.02 0.06 0.07 0.05 0.03 0.02 0.01
0.00 0.00 0.00 0.00 0.00 0.01 0.00 0.00 0.00 0.00 0.00 0.01 0.03 0.00 0.00 0.00 0.00 0.00 0.00 0.00 0.00 0.00 0.00 0.00 0.00 0.00 0.01 0.02 0.03 0.01 0.01 0.01 0.01 0.02 0.01 0.02 0.02 0.02 0.02 0.04 0.05 0.02 0.01 0.04
0.00 0.00 0.00 0.00 0.00 0.00 0.00 0.00 0.00 0.00 0.00 0.00 0.00 0.00 0.00 0.00 0.01 0.00 0.00 0.00 0.00 0.00 0.00 0.00 0.00 0.00 0.04 0.08 0.08 0.05 0.08 0.07 0.06 0.05 0.04 0.03 0.03 0.02 0.02 0.02 0.01 0.03 0.05 0.07
0.00 0.00 0.00 0.00 0.00 0.00 0.00 0.00 0.00 0.00 0.00 0.00 0.00 0.00 0.00 0.00 0.00 0.00 0.00 0.00 0.00 0.00 0.00 0.01 0.01 0.03 0.08 0.10 0.09 0.10 0.09 0.08 0.06 0.06 0.04 0.05 0.03 0.01 0.03 0.05 0.05 0.08 0.07 0.04
0.00 0.00 0.00 0.00 0.00 0.00 0.00 0.00 0.00 0.00 0.00 0.00 0.00 0.00 0.00 0.00 0.00 0.00 0.00 0.00 0.00 0.00 0.00 0.02 0.03 0.03 0.07 0.08 0.07 0.07 0.06 0.09 0.08 0.06 0.07 0.06 0.07 0.15 0.21 0.19 0.11 0.04 0.03 0.06
0.00 0.00 0.01 0.01 0.00 0.01 0.01 0.00 0.00 0.00 0.00 0.00 0.00 0.00 0.00 0.00 0.00 0.00 0.00 0.00 0.00 0.01 0.00 0.02 0.02 0.03 0.04 0.04 0.06 0.08 0.08 0.07 0.05 0.03 0.03 0.07 0.11 0.14 0.08 0.02 0.02 0.07 0.09 0.06
0.00 0.00 0.01 0.01 0.02 0.07 0.00 0.00 0.00 0.00 0.00 0.00 0.00 0.00 0.00 0.00 0.00 0.00 0.00 0.00 0.02 0.02 0.03 0.02 0.00 0.01 0.01 0.03 0.02 0.02 0.01 0.02 0.02 0.01 0.02 0.02 0.01 0.00 0.01 0.05 0.08 0.08 0.06 0.03
0.00 0.00 0.01 0.02 0.03 0.02 0.00 0.00 0.00 0.00 0.00 0.00 0.00 0.02 0.02 0.02 0.02 0.01 0.01 0.03 0.06 0.05 0.04 0.00 0.00 0.00 0.00 0.00 0.01 0.03 0.03 0.03 0.03 0.02 0.00 0.00 0.01 0.03 0.05 0.06 0.09 0.06 0.01 0.00
0.00 0.01 0.02 0.03 0.05 0.04 0.00 0.00 0.00 0.00 0.01 0.01 0.04 0.09 0.14 0.11 0.19 0.12 0.07 0.08 0.06 0.03 0.00 0.00 0.00 0.00 0.00 0.01 0.01 0.01 0.01 0.00 0.00 0.00 0.01 0.02 0.03 0.07 0.10 0.07 0.01 0.00 0.00 0.00
0.01 0.01 0.01 0.01 0.04 0.01 0.00 0.00 0.01 0.14 0.17 0.06 0.12 0.17 0.11 0.16 0.19 0.19 0.18 0.05 0.00 0.00 0.00 0.00 0.00 0.00 0.00 0.00 0.01 0.01 0.00 0.00 0.00 0.01 0.02 0.02 0.03 0.04 0.03 0.01 0.00 0.00 0.00 0.03
0.03 0.09 0.10 0.07 0.16 0.06 0.00 0.03 0.15 0.18 0.08 0.08 0.07 0.06 0.08 0.10 0.19 0.18 0.05 0.02 0.00 0.00 0.00 0.00 0.00 0.00 0.00 0.01 0.00 0.00 0.00 0.00 0.00 0.00 0.01 0.04 0.04 0.02 0.01 0.00 0.00 0.00 0.02 0.03
0.01 0.01 0.02 0.04 0.03 0.00 0.00 0.03 0.02 0.04 0.10 0.07 0.07 0.09 0.16 0.26 0.16 0.04 0.03 0.00 0.00 0.00 0.00 0.00 0.00 0.01 0.01 0.00 0.00 0.00 0.00 0.00 0.01 0.02 0.04 0.04 0.01 0.01 0.00 0.00 0.00 0.00 0.01 0.01
0.04 0.02 0.02 0.02 0.01 0.00 0.01 0.01 0.02 0.06 0.08 0.13 0.20 0.24 0.21 0.10 0.06 0.03 0.00 0.00 0.00 0.00 0.01 0.02 0.03 0.02 0.00 0.00 0.00 0.01 0.01 0.02 0.03 0.03 0.02 0.02 0.01 0.00 0.01 0.01 0.01 0.01 0.01 0.02
0.08 0.06 0.03 0.05 0.01 0.02 0.04 0.07 0.14 0.21 0.31 0.29 0.19 0.14 0.07 0.03 0.01 0.01 0.01 0.00 0.00 0.02 0.04 0.03 0.04 0.04 0.00 0.00 0.00 0.01 0.02 0.02 0.02 0.01 0.01 0.01 0.00 0.03 0.02 0.00 0.00 0.00 0.01 0.02
0.06 0.03 0.06 0.10 0.06 0.23 0.22 0.33 0.42 0.38 0.27 0.15 0.09 0.04 0.01 0.01 0.01 0.00 0.00 0.01 0.02 0.03 0.03 0.04 0.03 0.01 0.00 0.00 0.00 0.01 0.01 0.01 0.01 0.02 0.03 0.03 0.02 0.02 0.01 0.00 0.00 0.00 0.00 0.00

GFSCGP_prec_precacc_069.txt.gz
Total_Precipitation_Accumulation
0.00 0.00 0.00 0.00 0.00 0.00 0.00 0.00 0.00 0.00 0.00 0.00 0.00 0.00 0.02 0.03 0.03 0.13 0.01 0.00 0.00 0.00 0.00 0.00 0.00 0.02 0.04 0.08 0.27 0.70 0.92 1.07 0.90 0.63 0.23 0.05 0.05 0.07 0.09 0.03 0.01 0.00 0.00 0.00
0.00 0.00 0.00 0.00 0.00 0.00 0.00 0.00 0.00 0.00 0.00 0.00 0.00 0.00 0.01 0.02 0.02 0.05 0.02 0.01 0.00 0.00 0.00 0.01 0.03 0.09 0.13 0.26 0.36 0.39 0.22 0.16 0.04 0.01 0.00 0.01 0.02 0.03 0.03 0.01 0.00 0.00 0.00 0.00
0.00 0.02 0.00 0.00 0.00 0.00 0.00 0.00 0.00 0.00 0.00 0.00 0.00 0.00 0.00 0.01 0.02 0.02 0.01 0.00 0.00 0.00 0.00 0.02 0.08 0.12 0.14 0.14 0.17 0.06 0.04 0.04 0.02 0.02 0.06 0.09 0.09 0.06 0.02 0.01 0.00 0.00 0.00 0.00
0.00 0.00 0.00 0.00 0.00 0.00 0.00 0.00 0.00 0.00 0.00 0.00 0.00 0.01 0.02 0.00 0.00 0.01 0.01 0.00 0.01 0.01 0.01 0.01 0.01 0.01 0.02 0.01 0.03 0.02 0.06 0.09 0.09 0.11 0.20 0.18 0.13 0.11 0.05 0.00 0.00 0.00 0.00 0.00
0.00 0.00 0.00 0.00 0.00 0.00 0.03 0.00 0.00 0.00 0.00 0.01 0.01 0.00 0.01 0.00 0.00 0.00 0.00 0.01 0.00 0.01 0.01 0.00 0.01 0.02 0.01 0.04 0.04 0.09 0.13 0.14 0.10 0.15 0.23 0.17 0.15 0.12 0.05 0.00 0.00 0.00 0.00 0.00
0.00 0.00 0.00 0.00 0.00 0.00 0.00 0.00 0.00 0.00 0.00 0.00 0.01 0.00 0.00 0.00 0.01 0.01 0.00 0.00 0.00 0.01 0.01 0.01 0.02 0.02 0.03 0.11 0.17 0.15 0.13 0.14 0.14 0.20 0.23 0.22 0.16 0.09 0.03 0.00 0.00 0.00 0.00 0.00
0.00 0.00 0.00 0.00 0.00 0.00 0.00 0.00 0.00 0.06 0.03 0.02 0.04 0.05 0.02 0.01 0.01 0.05 0.00 0.00 0.00 0.01 0.00 0.00 0.02 0.06 0.09 0.20 0.21 0.16 0.13 0.11 0.15 0.17 0.14 0.16 0.12 0.05 0.02 0.00 0.00 0.00 0.00 0.00
0.00 0.00 0.00 0.00 0.00 0.01 0.00 0.00 0.00 0.02 0.02 0.02 0.02 0.01 0.00 0.00 0.00 0.00 0.00 0.00 0.00 0.00 0.00 0.00 0.02 0.05 0.10 0.30 0.22 0.10 0.04 0.03 0.04 0.07 0.12 0.10 0.10 0.08 0.01 0.00 0.00 0.00 0.01 0.02
0.00 0.00 0.01 0.00 0.00 0.00 0.02 0.04 0.01 0.00 0.00 0.00 0.00 0.00 0.00 0.00 0.00 0.00 0.00 0.00 0.00 0.00 0.00 0.00 0.01 0.03 0.07 0.18 0.12 0.04 0.01 0.00 0.00 0.02 0.06 0.09 0.07 0.03 0.02 0.01 0.01 0.03 0.03 0.02
0.01 0.03 0.01 0.00 0.00 0.00 0.00 0.02 0.02 0.01 0.00 0.01 0.00 0.00 0.00 0.00 0.00 0.00 0.00 0.00 0.00 0.00 0.00 0.00 0.00 0.01 0.02 0.07 0.04 0.02 0.02 0.01 0.00 0.01 0.03 0.04 0.04 0.03 0.02 0.03 0.02 0.02 0.02 0.05
0.00 0.04 0.05 0.00 0.00 0.00 0.00 0.00 0.00 0.00 0.00 0.04 0.07 0.01 0.00 0.00 0.01 0.00 0.00 0.00 0.00 0.00 0.00 0.00 0.00 0.00 0.00 0.03 0.04 0.02 0.05 0.02 0.00 0.00 0.01 0.02 0.02 0.02 0.05 0.05 0.04 0.05 0.06 0.09
0.00 0.00 0.00 0.01 0.00 0.00 0.00 0.00 0.01 0.01 0.02 0.01 0.03 0.01 0.00 0.00 0.00 0.00 0.00 0.00 0.00 0.00 0.00 0.00 0.00 0.00 0.00 0.05 0.06 0.03 0.04 0.01 0.00 0.00 0.01 0.03 0.04 0.05 0.08 0.08 0.06 0.08 0.11 0.09
0.00 0.00 0.00 0.00 0.00 0.01 0.00 0.00 0.00 0.00 0.00 0.01 0.03 0.00 0.00 0.00 0.00 0.00 0.00 0.00 0.00 0.00 0.00 0.00 0.00 0.00 0.01 0.03 0.07 0.04 0.05 0.03 0.02 0.04 0.06 0.07 0.06 0.03 0.04 0.12 0.14 0.04 0.02 0.04
0.00 0.00 0.00 0.00 0.00 0.00 0.00 0.00 0.00 0.00 0.00 0.00 0.00 0.00 0.00 0.00 0.01 0.00 0.00 0.00 0.00 0.00 0.00 0.00 0.00 0.00 0.04 0.10 0.14 0.10 0.19 0.14 0.13 0.11 0.10 0.08 0.05 0.05 0.08 0.05 0.03 0.03 0.06 0.07
0.00 0.00 0.00 0.00 0.00 0.00 0.00 0.00 0.00 0.00 0.00 0.00 0.00 0.00 0.00 0.00 0.00 0.00 0.00 0.00 0.00 0.00 0.00 0.01 0.01 0.03 0.08 0.14 0.16 0.17 0.17 0.18 0.17 0.15 0.10 0.09 0.17 0.28 0.24 0.11 0.06 0.08 0.08 0.04
0.00 0.00 0.00 0.00 0.00 0.00 0.00 0.00 0.00 0.00 0.00 0.00 0.00 0.00 0.00 0.00 0.00 0.00 0.00 0.00 0.00 0.00 0.00 0.02 0.03 0.03 0.09 0.16 0.13 0.12 0.14 0.14 0.12 0.08 0.10 0.21 0.29 0.25 0.22 0.19 0.12 0.05 0.03 0.06
0.00 0.00 0.01 0.01 0.00 0.01 0.01 0.00 0.00 0.00 0.00 0.00 0.00 0.00 0.00 0.00 0.00 0.00 0.00 0.00 0.00 0.01 0.00 0.02 0.02 0.03 0.04 0.09 0.10 0.11 0.11 0.08 0.06 0.03 0.05 0.09 0.12 0.14 0.08 0.02 0.02 0.07 0.09 0.06
0.00 0.00 0.01 0.01 0.02 0.07 0.00 0.00 0.00 0.00 0.00 0.00 0.00 0.00 0.00 0.00 0.00 0.00 0.00 0.00 0.02 0.02 0.03 0.02 0.00 0.01 0.01 0.03 0.03 0.02 0.02 0.02 0.02 0.01 0.02 0.02 0.01 0.00 0.01 0.05 0.08 0.08 0.06 0.03
0.00 0.00 0.01 0.02 0.03 0.02 0.00 0.00 0.00 0.00 0.00 0.00 0.00 0.02 0.02 0.02 0.02 0.01 0.01 0.03 0.06 0.05 0.04 0.00 0.00 0.00 0.00 0.00 0.01 0.03 0.03 0.03 0.03 0.02 0.00 0.00 0.01 0.03 0.05 0.06 0.09 0.06 0.01 0.00
0.00 0.01 0.02 0.03 0.05 0.04 0.00 0.00 0.00 0.00 0.01 0.01 0.04 0.09 0.14 0.11 0.19 0.12 0.07 0.08 0.06 0.03 0.00 0.00 0.00 0.00 0.00 0.01 0.01 0.01 0.01 0.00 0.00 0.00 0.01 0.02 0.03 0.07 0.10 0.07 0.01 0.00 0.00 0.00
0.01 0.01 0.01 0.01 0.04 0.01 0.00 0.00 0.01 0.14 0.17 0.06 0.12 0.17 0.11 0.16 0.19 0.19 0.18 0.05 0.00 0.00 0.00 0.00 0.00 0.00 0.00 0.00 0.01 0.01 0.00 0.00 0.00 0.01 0.02 0.02 0.03 0.04 0.03 0.01 0.00 0.00 0.00 0.03
0.03 0.09 0.10 0.07 0.16 0.06 0.00 0.03 0.15 0.18 0.08 0.08 0.07 0.06 0.08 0.10 0.19 0.18 0.05 0.02 0.00 0.00 0.00 0.00 0.00 0.00 0.00 0.01 0.00 0.00 0.00 0.00 0.00 0.00 0.01 0.04 0.04 0.02 0.01 0.00 0.00 0.00 0.02 0.03
0.01 0.01 0.02 0.04 0.03 0.00 0.00 0.03 0.02 0.04 0.10 0.07 0.07 0.09 0.16 0.26 0.16 0.04 0.03 0.00 0.00 0.00 0.00 0.00 0.00 0.01 0.01 0.00 0.00 0.00 0.00 0.00 0.01 0.02 0.04 0.04 0.01 0.01 0.00 0.00 0.00 0.00 0.01 0.01
0.05 0.03 0.03 0.03 0.01 0.00 0.01 0.01 0.02 0.06 0.08 0.13 0.20 0.24 0.21 0.10 0.06 0.03 0.00 0.00 0.00 0.00 0.01 0.02 0.03 0.02 0.00 0.00 0.00 0.01 0.01 0.02 0.03 0.03 0.02 0.02 0.01 0.00 0.01 0.01 0.01 0.01 0.01 0.02
0.08 0.07 0.04 0.05 0.01 0.02 0.04 0.07 0.14 0.21 0.31 0.29 0.19 0.14 0.07 0.03 0.01 0.01 0.01 0.00 0.00 0.02 0.04 0.03 0.04 0.04 0.00 0.00 0.00 0.01 0.02 0.02 0.02 0.01 0.01 0.01 0.00 0.03 0.02 0.00 0.00 0.00 0.01 0.02
0.06 0.03 0.06 0.10 0.06 0.23 0.22 0.33 0.42 0.38 0.27 0.15 0.09 0.04 0.01 0.01 0.01 0.00 0.00 0.01 0.02 0.03 0.03 0.04 0.03 0.01 0.00 0.00 0.00 0.01 0.01 0.01 0.01 0.02 0.03 0.03 0.02 0.02 0.01 0.00 0.00 0.00 0.00 0.00

GFSCGP_prec_precacc_072.txt.gz
Total_Precipitation_Accumulation
0.00 0.00 0.00 0.00 0.00 0.00 0.00 0.00 0.00 0.00 0.00 0.00 0.00 0.00 0.02 0.03 0.03 0.13 0.01 0.00 0.00 0.00 0.00 0.00 0.00 0.02 0.04 0.08 0.27 0.70 0.92 1.09 0.90 0.63 0.23 0.05 0.06 0.10 0.14 0.08 0.08 0.04 0.00 0.00
0.00 0.00 0.00 0.00 0.00 0.00 0.00 0.00 0.00 0.00 0.00 0.00 0.00 0.00 0.01 0.02 0.02 0.05 0.02 0.01 0.00 0.00 0.00 0.01 0.03 0.09 0.13 0.26 0.36 0.39 0.22 0.17 0.06 0.01 0.00 0.01 0.02 0.06 0.08 0.04 0.02 0.00 0.00 0.00
0.00 0.02 0.00 0.00 0.00 0.00 0.00 0.00 0.00 0.00 0.00 0.00 0.00 0.00 0.00 0.01 0.02 0.02 0.01 0.00 0.00 0.00 0.00 0.02 0.08 0.12 0.14 0.14 0.17 0.06 0.04 0.05 0.03 0.03 0.06 0.09 0.09 0.06 0.05 0.04 0.03 0.00 0.00 0.00
0.00 0.00 0.00 0.00 0.00 0.00 0.00 0.00 0.00 0.00 0.00 0.00 0.00 0.01 0.02 0.00 0.00 0.01 0.01 0.00 0.01 0.01 0.01 0.01 0.01 0.01 0.02 0.01 0.03 0.02 0.06 0.09 0.09 0.11 0.20 0.18 0.13 0.13 0.09 0.05 0.02 0.00 0.00 0.00
0.00 0.00 0.00 0.00 0.00 0.00 0.03 0.00 0.00 0.00 0.00 0.01 0.01 0.00 0.01 0.00 0.00 0.00 0.00 0.01 0.00 0.01 0.01 0.00 0.01 0.02 0.01 0.04 0.04 0.09 0.13 0.14 0.10 0.15 0.23 0.18 0.15 0.14 0.12 0.07 0.04 0.00 0.00 0.00
0.00 0.00 0.00 0.00 0.00 0.00 0.00 0.00 0.00 0.00 0.00 0.00 0.01 0.00 0.00 0.00 0.01 0.01 0.00 0.00 0.00 0.01 0.01 0.01 0.02 0.02 0.03 0.11 0.17 0.15 0.13 0.14 0.14 0.20 0.25 0.24 0.18 0.12 0.09 0.07 0.04 0.01 0.00 0.00
0.00 0.00 0.00 0.00 0.00 0.00 0.00 0.00 0.00 0.06 0.03 0.02 0.04 0.05 0.02 0.01 0.01 0.05 0.00 0.00 0.00 0.01 0.00 0.00 0.02 0.06 0.09 0.20 0.21 0.16 0.13 0.11 0.15 0.19 0.25 0.20 0.13 0.07 0.06 0.03 0.01 0.00 0.00 0.00
0.00 0.00 0.00 0.00 0.00 0.01 0.00 0.00 0.00 0.02 0.02 0.02 0.02 0.01 0.00 0.00 0.00 0.00 0.00 0.00 0.00 0.00 0.00 0.00 0.02 0.05 0.10 0.30 0.22 0.10 0.04 0.03 0.05 0.08 0.15 0.13 0.11 0.09 0.04 0.02 0.00 0.00 0.01 0.02
0.00 0.00 0.01 0.00 0.00 0.00 0.02 0.04 0.01 0.00 0.00 0.00 0.00 0.00 0.00 0.00 0.00 0.00 0.00 0.00 0.00 0.00 0.00 0.00 0.01 0.03 0.07 0.19 0.13 0.04 0.01 0.00 0.01 0.02 0.06 0.09 0.07 0.04 0.05 0.03 0.01 0.03 0.03 0.02
0.01 0.03 0.01 0.00 0.00 0.00 0.00 0.02 0.02 0.01 0.00 0.01 0.00 0.00 0.00 0.00 0.00 0.00 0.00 0.00 0.00 0.00 0.00 0.00 0.00 0.01 0.02 0.07 0.04 0.02 0.02 0.01 0.00 0.01 0.04 0.04 0.04 0.05 0.05 0.06 0.03 0.02 0.02 0.05
0.00 0.04 0.05 0.00 0.00 0.00 0.00 0.00 0.00 0.00 0.00 0.04 0.07 0.01 0.00 0.00 0.01 0.00 0.00 0.00 0.00 0.00 0.00 0.00 0.00 0.00 0.00 0.03 0.04 0.02 0.05 0.02 0.00 0.00 0.02 0.03 0.05 0.05 0.09 0.11 0.08 0.06 0.07 0.09
0.00 0.00 0.00 0.01 0.00 0.00 0.00 0.00 0.01 0.01 0.02 0.01 0.03 0.01 0.00 0.00 0.00 0.00 0.00 0.00 0.00 0.00 0.00 0.00 0.00 0.00 0.00 0.05 0.06 0.03 0.05 0.03 0.01 0.01 0.03 0.06 0.09 0.11 0.13 0.13 0.09 0.11 0.15 0.13
0.00 0.00 0.00 0.00 0.00 0.01 0.00 0.00 0.00 0.00 0.00 0.01 0.03 0.00 0.00 0.00 0.00 0.00 0.00 0.00 0.00 0.00 0.00 0.00 0.00 0.00 0.01 0.03 0.07 0.04 0.06 0.04 0.04 0.08 0.10 0.11 0.12 0.11 0.11 0.16 0.23 0.22 0.16 0.10
0.00 0.00 0.00 0.00 0.00 0.00 0.00 0.00 0.00 0.00 0.00 0.00 0.00 0.00 0.00 0.00 0.01 0.00 0.00 0.00 0.00 0.00 0.00 0.00 0.00 0.00 0.04 0.10 0.14 0.10 0.22 0.17 0.21 0.19 0.14 0.10 0.08 0.08 0.11 0.15 0.22 0.23 0.16 0.11
0.00 0.00 0.00 0.00 0.00 0.00 0.00 0.00 0.00 0.00 0.00 0.00 0.00 0.00 0.00 0.00 0.00 0.00 0.00 0.00 0.00 0.00 0.00 0.01 0.01 0.03 0.08 0.14 0.16 0.18 0.22 0.22 0.21 0.20 0.15 0.11 0.18 0.30 0.32 0.34 0.28 0.17 0.10 0.06
0.00 0.00 0.00 0.00 0.00 0.00 0.00 0.00 0.00 0.00 0.00 0.00 0.00 0.00 0.00 0.00 0.00 0.00 0.00 0.00 0.00 0.00 0.00 0.02 0.03 0.03 0.09 0.16 0.14 0.12 0.18 0.18 0.13 0.09 0.10 0.21 0.30 0.29 0.30 0.26 0.15 0.06 0.03 0.06
0.00 0.00 0.01 0.01 0.00 0.01 0.01 0.00 0.00 0.00 0.00 0.00 0.00 0.00 0.00 0.00 0.00 0.00 0.00 0.00 0.00 0.01 0.00 0.02 0.02 0.03 0.04 0.10 0.14 0.16 0.14 0.10 0.07 0.04 0.05 0.09 0.12 0.15 0.08 0.02 0.02 0.07 0.09 0.06
0.00 0.00 0.01 0.01 0.02 0.07 0.00 0.00 0.00 0.00 0.00 0.00 0.00 0.00 0.00 0.00 0.00 0.00 0.00 0.00 0.02 0.02 0.03 0.02 0.00 0.01 0.01 0.03 0.04 0.05 0.04 0.04 0.03 0.02 0.02 0.02 0.01 0.00 0.01 0.05 0.08 0.08 0.06 0.03
0.00 0.00 0.01 0.02 0.03 0.02 0.00 0.00 0.00 0.00 0.00 0.00 0.00 0.02 0.02 0.02 0.02 0.01 0.01 0.03 0.06 0.05 0.04 0.00 0.00 0.00 0.00 0.00 0.01 0.03 0.03 0.03 0.03 0.02 0.00 0.00 0.01 0.03 0.05 0.07 0.09 0.06 0.01 0.00
0.00 0.01 0.02 0.03 0.05 0.04 0.00 0.00 0.00 0.00 0.01 0.01 0.04 0.09 0.14 0.11 0.19 0.12 0.07 0.08 0.06 0.03 0.00 0.00 0.00 0.00 0.00 0.01 0.01 0.01 0.01 0.00 0.00 0.00 0.01 0.02 0.03 0.07 0.10 0.07 0.01 0.00 0.00 0.00
0.01 0.01 0.01 0.01 0.04 0.01 0.00 0.00 0.01 0.14 0.17 0.06 0.12 0.17 0.11 0.16 0.19 0.19 0.18 0.05 0.00 0.00 0.00 0.00 0.00 0.00 0.00 0.00 0.01 0.01 0.00 0.00 0.00 0.01 0.02 0.02 0.03 0.04 0.03 0.01 0.00 0.00 0.00 0.03
0.03 0.09 0.10 0.07 0.16 0.06 0.00 0.03 0.15 0.18 0.08 0.08 0.07 0.06 0.08 0.10 0.19 0.18 0.05 0.02 0.00 0.00 0.00 0.00 0.00 0.00 0.00 0.01 0.00 0.00 0.00 0.00 0.00 0.00 0.01 0.04 0.04 0.02 0.01 0.00 0.00 0.00 0.02 0.03
0.01 0.01 0.03 0.04 0.03 0.00 0.00 0.03 0.02 0.04 0.10 0.07 0.07 0.09 0.16 0.26 0.16 0.04 0.03 0.00 0.00 0.00 0.00 0.00 0.00 0.01 0.01 0.00 0.00 0.00 0.00 0.00 0.01 0.02 0.04 0.04 0.01 0.01 0.00 0.00 0.00 0.00 0.01 0.01
0.05 0.03 0.03 0.03 0.01 0.00 0.01 0.01 0.02 0.06 0.08 0.13 0.20 0.24 0.21 0.10 0.06 0.03 0.00 0.00 0.00 0.00 0.01 0.02 0.03 0.02 0.00 0.00 0.00 0.01 0.01 0.02 0.03 0.03 0.02 0.02 0.01 0.00 0.01 0.01 0.01 0.01 0.01 0.02
0.08 0.07 0.04 0.05 0.01 0.03 0.04 0.08 0.14 0.21 0.31 0.29 0.19 0.14 0.07 0.03 0.01 0.01 0.01 0.00 0.00 0.02 0.04 0.03 0.04 0.04 0.00 0.00 0.00 0.01 0.02 0.02 0.02 0.01 0.01 0.01 0.00 0.03 0.02 0.00 0.00 0.00 0.01 0.02
0.06 0.03 0.06 0.10 0.07 0.23 0.22 0.33 0.42 0.38 0.27 0.15 0.09 0.04 0.01 0.01 0.01 0.00 0.00 0.01 0.02 0.03 0.03 0.04 0.03 0.01 0.00 0.00 0.00 0.01 0.01 0.01 0.01 0.02 0.03 0.03 0.02 0.02 0.01 0.00 0.00 0.00 0.00 0.00

GFSCGP_prec_precacc_075.txt.gz
Total_Precipitation_Accumulation
0.00 0.00 0.00 0.00 0.00 0.00 0.00 0.00 0.00 0.00 0.00 0.00 0.00 0.00 0.02 0.03 0.03 0.13 0.01 0.00 0.00 0.00 0.00 0.00 0.00 0.02 0.04 0.08 0.27 0.70 0.97 1.19 0.95 0.65 0.23 0.05 0.07 0.12 0.17 0.12 0.10 0.05 0.02 0.00
0.00 0.00 0.00 0.00 0.00 0.00 0.00 0.00 0.00 0.00 0.00 0.00 0.00 0.00 0.01 0.02 0.02 0.05 0.02 0.01 0.00 0.00 0.00 0.01 0.03 0.09 0.13 0.26 0.36 0.40 0.27 0.25 0.10 0.01 0.00 0.01 0.03 0.07 0.11 0.11 0.04 0.01 0.01 0.00
0.00 0.02 0.00 0.00 0.00 0.00 0.00 0.00 0.00 0.00 0.00 0.00 0.00 0.00 0.00 0.01 0.02 0.02 0.01 0.00 0.00 0.00 0.00 0.02 0.08 0.12 0.14 0.14 0.17 0.06 0.05 0.11 0.09 0.05 0.06 0.09 0.14 0.08 0.07 0.09 0.04 0.02 0.01 0.00
0.00 0.00 0.00 0.00 0.00 0.00 0.00 0.00 0.00 0.00 0.00 0.01 0.00 0.01 0.02 0.00 0.00 0.01 0.01 0.00 0.01 0.01 0.01 0.01 0.01 0.01 0.02 0.01 0.03 0.02 0.06 0.10 0.13 0.17 0.21 0.18 0.15 0.14 0.09 0.05 0.04 0.03 0.02 0.00
0.00 0.00 0.00 0.00 0.00 0.00 0.03 0.00 0.00 0.00 0.00 0.01 0.01 0.00 0.01 0.00 0.00 0.00 0.00 0.01 0.00 0.01 0.01 0.00 0.01 0.02 0.01 0.04 0.04 0.09 0.13 0.14 0.11 0.16 0.26 0.18 0.16 0.16 0.15 0.08 0.07 0.07 0.05 0.01
0.00 0.00 0.00 0.00 0.00 0.00 0.00 0.00 0.00 0.00 0.00 0.00 0.01 0.00 0.00 0.00 0.01 0.01 0.00 0.00 0.00 0.01 0.01 0.01 0.02 0.02 0.03 0.11 0.17 0.15 0.13 0.14 0.14 0.20 0.26 0.24 0.18 0.13 0.09 0.08 0.07 0.04 0.01 0.00
0.00 0.00 0.00 0.00 0.00 0.00 0.00 0.00 0.01 0.07 0.03 0.02 0.05 0.05 0.02 0.01 0.01 0.05 0.00 0.00 0.00 0.01 0.00 0.00 0.02 0.06 0.09 0.20 0.21 0.16 0.13 0.11 0.15 0.19 0.25 0.20 0.14 0.08 0.07 0.04 0.03 0.03 0.02 0.01
0.00 0.00 0.00 0.00 0.00 0.01 0.00 0.00 0.02 0.04 0.02 0.03 0.02 0.01 0.00 0.00 0.00 0.00 0.00 0.00 0.00 0.00 0.00 0.00 0.02 0.05 0.10 0.30 0.22 0.10 0.04 0.03 0.05 0.08 0.15 0.13 0.11 0.09 0.04 0.03 0.02 0.03 0.02 0.02
0.00 0.00 0.01 0.00 0.00 0.00 0.02 0.04 0.01 0.00 0.00 0.00 0.00 0.00 0.00 0.00 0.00 0.00 0.00 0.00 0.00 0.00 0.00 0.00 0.01 0.03 0.07 0.19 0.13 0.04 0.01 0.00 0.01 0.02 0.06 0.09 0.07 0.04 0.06 0.06 0.04 0.05 0.05 0.02
0.01 0.03 0.01 0.00 0.00 0.00 0.00 0.02 0.02 0.01 0.00 0.01 0.00 0.00 0.00 0.00 0.00 0.00 0.00 0.00 0.00 0.00 0.00 0.00 0.00 0.01 0.02 0.07 0.04 0.02 0.02 0.01 0.00 0.01 0.04 0.04 0.05 0.06 0.06 0.09 0.08 0.07 0.04 0.05
0.00 0.04 0.05 0.00 0.00 0.00 0.00 0.00 0.00 0.00 0.00 0.04 0.07 0.01 0.00 0.00 0.01 0.00 0.00 0.00 0.00 0.00 0.00 0.00 0.00 0.00 0.00 0.03 0.04 0.02 0.05 0.02 0.00 0.00 0.02 0.03 0.06 0.06 0.10 0.14 0.15 0.15 0.10 0.10
0.00 0.00 0.00 0.01 0.00 0.00 0.00 0.00 0.01 0.01 0.02 0.01 0.03 0.01 0.00 0.00 0.00 0.00 0.00 0.00 0.00 0.00 0.00 0.00 0.00 0.00 0.00 0.05 0.06 0.03 0.05 0.03 0.01 0.01 0.03 0.07 0.11 0.13 0.15 0.15 0.14 0.16 0.20 0.22
0.00 0.00 0.00 0.00 0.00 0.01 0.00 0.00 0.00 0.00 0.00 0.01 0.04 0.01 0.00 0.00 0.00 0.00 0.00 0.00 0.00 0.00 0.00 0.00 0.00 0.00 0.01 0.03 0.07 0.04 0.06 0.04 0.04 0.09 0.12 0.14 0.13 0.11 0.12 0.20 0.30 0.31 0.31 0.30
0.00 0.00 0.00 0.00 0.00 0.00 0.00 0.00 0.00 0.00 0.00 0.00 0.00 0.00 0.00 0.00 0.01 0.00 0.00 0.00 0.00 0.00 0.00 0.00 0.00 0.00 0.04 0.10 0.14 0.10 0.22 0.17 0.22 0.21 0.16 0.11 0.08 0.08 0.12 0.16 0.28 0.39 0.32 0.26
0.00 0.00 0.00 0.00 0.00 0.00 0.00 0.00 0.00 0.00 0.00 0.00 0.00 0.00 0.00 0.00 0.00 0.00 0.00 0.00 0.00 0.00 0.00 0.01 0.01 0.03 0.08 0.14 0.16 0.18 0.22 0.23 0.22 0.22 0.18 0.14 0.20 0.31 0.33 0.35 0.29 0.22 0.17 0.11
0.00 0.00 0.00 0.00 0.00 0.00 0.00 0.00 0.00 0.00 0.00 0.00 0.00 0.00 0.00 0.00 0.00 0.00 0.00 0.00 0.00 0.00 0.00 0.02 0.03 0.03 0.09 0.16 0.14 0.12 0.18 0.19 0.15 0.13 0.15 0.28 0.36 0.31 0.31 0.27 0.16 0.07 0.04 0.06
0.00 0.00 0.01 0.01 0.00 0.01 0.01 0.00 0.00 0.00 0.00 0.00 0.00 0.00 0.00 0.00 0.00 0.00 0.00 0.00 0.00 0.01 0.00 0.02 0.02 0.03 0.04 0.10 0.14 0.18 0.17 0.16 0.13 0.11 0.11 0.14 0.14 0.15 0.08 0.02 0.02 0.07 0.09 0.06
0.00 0.00 0.01 0.01 0.02 0.07 0.00 0.00 0.00 0.00 0.00 0.00 0.00 0.00 0.00 0.00 0.00 0.00 0.00 0.00 0.02 0.02 0.03 0.02 0.00 0.01 0.01 0.03 0.05 0.11 0.09 0.10 0.08 0.06 0.05 0.03 0.01 0.00 0.01 0.05 0.08 0.08 0.06 0.03
0.00 0.00 0.02 0.02 0.03 0.02 0.00 0.00 0.00 0.00 0.00 0.00 0.00 0.02 0.02 0.02 0.02 0.01 0.01 0.03 0.06 0.05 0.04 0.00 0.00 0.00 0.00 0.00 0.01 0.04 0.06 0.06 0.05 0.02 0.01 0.00 0.01 0.03 0.05 0.07 0.09 0.06 0.01 0.00
0.00 0.01 0.04 0.04 0.05 0.04 0.00 0.00 0.00 0.00 0.01 0.01 0.04 0.09 0.14 0.11 0.19 0.12 0.07 0.08 0.06 0.03 0.00 0.00 0.00 0.00 0.00 0.01 0.01 0.01 0.01 0.00 0.00 0.00 0.01 0.02 0.03 0.07 0.10 0.07 0.01 0.00 0.00 0.00
0.01 0.01 0.02 0.03 0.05 0.01 0.00 0.00 0.01 0.14 0.17 0.06 0.12 0.17 0.11 0.16 0.19 0.19 0.18 0.05 0.00 0.00 0.00 0.00 0.00 0.00 0.00 0.00 0.01 0.01 0.00 0.00 0.00 0.01 0.02 0.02 0.03 0.04 0.03 0.01 0.00 0.00 0.00 0.03
0.04 0.12 0.12 0.10 0.18 0.06 0.00 0.03 0.15 0.18 0.08 0.08 0.07 0.06 0.08 0.10 0.19 0.18 0.05 0.02 0.00 0.00 0.00 0.00 0.00 0.00 0.00 0.01 0.00 0.00 0.00 0.00 0.00 0.00 0.01 0.04 0.04 0.02 0.01 0.00 0.00 0.00 0.02 0.03
0.01 0.02 0.06 0.06 0.03 0.00 0.00 0.03 0.02 0.04 0.10 0.07 0.07 0.09 0.16 0.26 0.16 0.04 0.03 0.00 0.00 0.00 0.00 0.00 0.00 0.01 0.01 0.00 0.00 0.00 0.00 0.00 0.01 0.02 0.04 0.04 0.01 0.01 0.00 0.00 0.00 0.00 0.01 0.01
0.05 0.03 0.03 0.03 0.01 0.00 0.01 0.01 0.02 0.06 0.08 0.13 0.20 0.24 0.21 0.10 0.06 0.03 0.00 0.00 0.00 0.00 0.01 0.02 0.03 0.02 0.00 0.00 0.00 0.01 0.01 0.02 0.03 0.03 0.02 0.02 0.01 0.00 0.01 0.01 0.01 0.01 0.01 0.02
0.08 0.07 0.04 0.05 0.01 0.03 0.04 0.08 0.14 0.21 0.31 0.29 0.19 0.14 0.07 0.03 0.01 0.01 0.01 0.00 0.00 0.02 0.04 0.03 0.04 0.04 0.00 0.00 0.00 0.01 0.02 0.02 0.02 0.01 0.01 0.01 0.00 0.03 0.02 0.00 0.00 0.00 0.01 0.02
0.06 0.03 0.06 0.10 0.07 0.23 0.22 0.33 0.42 0.38 0.27 0.15 0.09 0.04 0.01 0.01 0.01 0.00 0.00 0.01 0.02 0.03 0.03 0.04 0.03 0.01 0.00 0.00 0.00 0.01 0.01 0.01 0.01 0.02 0.03 0.03 0.02 0.02 0.01 0.00 0.00 0.00 0.00 0.00

GFSCGP_prec_precacc_081.txt.gz
Total_Precipitation_Accumulation
0.00 0.00 0.00 0.00 0.00 0.00 0.00 0.00 0.00 0.00 0.00 0.00 0.00 0.00 0.02 0.04 0.03 0.13 0.01 0.00 0.00 0.00 0.00 0.01 0.00 0.02 0.04 0.08 0.27 0.70 0.98 1.22 0.98 0.68 0.23 0.05 0.08 0.15 0.23 0.21 0.22 0.15 0.17 0.09
0.00 0.00 0.00 0.00 0.00 0.00 0.00 0.00 0.00 0.00 0.00 0.00 0.00 0.00 0.01 0.02 0.02 0.05 0.02 0.01 0.00 0.00 0.00 0.01 0.03 0.09 0.13 0.26 0.36 0.40 0.28 0.29 0.13 0.05 0.00 0.01 0.03 0.09 0.16 0.23 0.12 0.11 0.19 0.17
0.00 0.02 0.00 0.00 0.00 0.00 0.00 0.00 0.00 0.00 0.00 0.00 0.00 0.00 0.00 0.01 0.03 0.02 0.02 0.00 0.00 0.00 0.00 0.02 0.08 0.12 0.14 0.14 0.17 0.06 0.05 0.15 0.11 0.05 0.06 0.09 0.15 0.14 0.13 0.28 0.20 0.09 0.18 0.25
0.00 0.00 0.00 0.00 0.00 0.00 0.00 0.00 0.00 0.00 0.00 0.01 0.00 0.01 0.02 0.00 0.01 0.01 0.01 0.01 0.01 0.01 0.01 0.01 0.01 0.01 0.02 0.01 0.03 0.02 0.06 0.11 0.15 0.19 0.23 0.18 0.16 0.14 0.09 0.09 0.06 0.07 0.07 0.03
0.00 0.00 0.00 0.00 0.00 0.00 0.03 0.00 0.00 0.00 0.00 0.01 0.01 0.00 0.01 0.00 0.00 0.00 0.00 0.01 0.00 0.01 0.01 0.00 0.01 0.02 0.01 0.04 0.04 0.09 0.13 0.14 0.11 0.17 0.31 0.19 0.17 0.18 0.18 0.09 0.09 0.08 0.09 0.06
0.00 0.00 0.00 0.00 0.00 0.00 0.00 0.00 0.00 0.00 0.00 0.00 0.01 0.01 0.01 0.01 0.01 0.01 0.00 0.00 0.00 0.02 0.01 0.01 0.02 0.02 0.03 0.11 0.17 0.15 0.13 0.14 0.14 0.21 0.26 0.26 0.18 0.14 0.10 0.08 0.09 0.07 0.04 0.03
0.00 0.00 0.00 0.00 0.00 0.00 0.00 0.00 0.01 0.11 0.04 0.02 0.05 0.06 0.02 0.01 0.01 0.05 0.00 0.00 0.00 0.01 0.01 0.02 0.02 0.06 0.09 0.20 0.21 0.16 0.13 0.11 0.15 0.19 0.26 0.20 0.14 0.09 0.08 0.04 0.04 0.04 0.03 0.03
0.00 0.00 0.00 0.00 0.00 0.01 0.00 0.00 0.02 0.08 0.07 0.07 0.08 0.01 0.01 0.00 0.00 0.00 0.00 0.00 0.00 0.00 0.00 0.01 0.04 0.06 0.10 0.30 0.22 0.10 0.04 0.03 0.05 0.08 0.15 0.13 0.13 0.10 0.08 0.07 0.12 0.05 0.03 0.03
0.00 0.00 0.01 0.00 0.00 0.00 0.02 0.04 0.01 0.00 0.02 0.02 0.01 0.01 0.00 0.01 0.00 0.00 0.00 0.00 0.00 0.00 0.00 0.00 0.02 0.04 0.09 0.19 0.13 0.04 0.01 0.00 0.01 0.02 0.06 0.10 0.11 0.07 0.13 0.31 0.17 0.16 0.07 0.04
0.01 0.03 0.01 0.00 0.00 0.00 0.00 0.02 0.02 0.01 0.01 0.02 0.00 0.01 0.01 0.01 0.00 0.00 0.00 0.00 0.00 0.00 0.00 0.00 0.01 0.02 0.05 0.13 0.05 0.03 0.04 0.01 0.00 0.01 0.04 0.04 0.10 0.10 0.15 0.29 0.13 0.15 0.10 0.11
0.00 0.04 0.05 0.00 0.00 0.00 0.00 0.00 0.00 0.00 0.00 0.04 0.08 0.01 0.00 0.01 0.01 0.00 0.00 0.00 0.00 0.00 0.00 0.00 0.00 0.00 0.04 0.10 0.08 0.03 0.11 0.06 0.01 0.02 0.02 0.04 0.18 0.16 0.16 0.22 0.29 0.24 0.28 0.26
0.00 0.00 0.00 0.01 0.00 0.00 0.00 0.00 0.01 0.01 0.02 0.01 0.03 0.01 0.00 0.00 0.00 0.00 0.00 0.00 0.00 0.00 0.00 0.00 0.00 0.00 0.01 0.10 0.11 0.04 0.09 0.07 0.03 0.06 0.10 0.13 0.28 0.29 0.30 0.33 0.28 0.31 0.32 0.35
0.00 0.00 0.00 0.00 0.00 0.01 0.00 0.00 0.00 0.00 0.00 0.01 0.04 0.01 0.00 0.00 0.00 0.00 0.00 0.00 0.00 0.00 0.00 0.00 0.00 0.00 0.01 0.05 0.12 0.08 0.11 0.08 0.08 0.23 0.29 0.23 0.37 0.38 0.46 0.46 0.50 0.46 0.38 0.35
0.00 0.00 0.00 0.00 0.00 0.00 0.00 0.00 0.00 0.00 0.00 0.00 0.00 0.00 0.00 0.00 0.01 0.00 0.00 0.00 0.00 0.00 0.00 0.00 0.00 0.00 0.04 0.10 0.15 0.15 0.27 0.24 0.28 0.37 0.38 0.31 0.33 0.40 0.34 0.36 0.40 0.48 0.35 0.28
0.00 0.00 0.00 0.00 0.00 0.00 0.00 0.00 0.00 0.00 0.00 0.00 0.00 0.00 0.00 0.00 0.00 0.00 0.00 0.00 0.00 0.00 0.00 0.01 0.01 0.03 0.08 0.14 0.16 0.18 0.25 0.28 0.36 0.36 0.39 0.35 0.49 0.69 0.54 0.50 0.38 0.26 0.21 0.15
0.00 0.00 0.00 0.00 0.00 0.00 0.00 0.00 0.00 0.00 0.00 0.00 0.00 0.00 0.00 0.00 0.00 0.00 0.00 0.00 0.00 0.00 0.00 0.02 0.03 0.03 0.09 0.16 0.14 0.14 0.23 0.27 0.27 0.26 0.26 0.43 0.56 0.44 0.46 0.36 0.20 0.09 0.04 0.07
0.00 0.00 0.01 0.02 0.00 0.01 0.01 0.00 0.00 0.00 0.00 0.00 0.00 0.00 0.00 0.00 0.00 0.00 0.00 0.00 0.00 0.01 0.00 0.02 0.02 0.03 0.04 0.10 0.17 0.19 0.20 0.20 0.17 0.16 0.19 0.26 0.25 0.22 0.14 0.05 0.04 0.08 0.10 0.07
0.01 0.00 0.01 0.03 0.02 0.08 0.00 0.00 0.00 0.00 0.00 0.00 0.00 0.00 0.00 0.00 0.00 0.00 0.00 0.00 0.02 0.02 0.03 0.02 0.00 0.01 0.01 0.05 0.07 0.12 0.10 0.12 0.11 0.10 0.10 0.08 0.05 0.03 0.03 0.07 0.11 0.10 0.07 0.03
0.01 0.02 0.08 0.07 0.06 0.02 0.00 0.00 0.00 0.00 0.00 0.00 0.00 0.02 0.02 0.02 0.02 0.01 0.01 0.03 0.06 0.05 0.04 0.00 0.00 0.00 0.00 0.00 0.01 0.04 0.07 0.07 0.06 0.03 0.02 0.01 0.01 0.03 0.06 0.08 0.10 0.06 0.01 0.00
0.01 0.01 0.08 0.13 0.08 0.05 0.00 0.00 0.00 0.00 0.01 0.01 0.04 0.09 0.14 0.11 0.19 0.12 0.07 0.08 0.06 0.03 0.00 0.00 0.00 0.00 0.00 0.01 0.01 0.01 0.01 0.00 0.00 0.00 0.01 0.02 0.03 0.07 0.10 0.08 0.01 0.00 0.00 0.00
0.03 0.03 0.05 0.07 0.14 0.02 0.00 0.00 0.01 0.14 0.17 0.06 0.12 0.17 0.11 0.16 0.19 0.19 0.18 0.05 0.00 0.00 0.00 0.00 0.00 0.00 0.00 0.00 0.01 0.01 0.00 0.00 0.00 0.01 0.02 0.02 0.03 0.04 0.03 0.01 0.00 0.00 0.00 0.03
0.12 0.16 0.15 0.13 0.22 0.08 0.00 0.03 0.15 0.18 0.08 0.08 0.07 0.06 0.08 0.10 0.19 0.18 0.05 0.02 0.00 0.00 0.00 0.00 0.00 0.00 0.00 0.01 0.00 0.00 0.00 0.00 0.00 0.00 0.01 0.04 0.04 0.02 0.01 0.00 0.00 0.00 0.02 0.03
0.01 0.04 0.09 0.07 0.04 0.00 0.00 0.03 0.02 0.04 0.10 0.07 0.07 0.09 0.16 0.26 0.16 0.04 0.03 0.00 0.00 0.00 0.00 0.00 0.00 0.01 0.01 0.00 0.00 0.00 0.00 0.00 0.01 0.02 0.04 0.04 0.01 0.01 0.00 0.00 0.00 0.00 0.01 0.01
0.05 0.03 0.03 0.04 0.01 0.02 0.04 0.05 0.02 0.06 0.09 0.13 0.20 0.24 0.21 0.10 0.06 0.03 0.00 0.00 0.00 0.00 0.01 0.02 0.03 0.02 0.00 0.00 0.00 0.01 0.01 0.02 0.03 0.03 0.02 0.02 0.01 0.00 0.01 0.01 0.01 0.01 0.01 0.02
0.08 0.07 0.04 0.06 0.01 0.03 0.04 0.08 0.15 0.21 0.32 0.29 0.19 0.14 0.07 0.03 0.01 0.01 0.01 0.00 0.00 0.02 0.04 0.03 0.04 0.04 0.00 0.00 0.00 0.01 0.02 0.02 0.02 0.01 0.01 0.01 0.00 0.03 0.02 0.00 0.00 0.00 0.01 0.02
0.06 0.03 0.06 0.10 0.07 0.23 0.22 0.33 0.42 0.38 0.27 0.15 0.09 0.04 0.01 0.01 0.01 0.00 0.00 0.01 0.02 0.03 0.03 0.04 0.03 0.01 0.00 0.00 0.00 0.01 0.01 0.01 0.01 0.02 0.03 0.03 0.02 0.02 0.02 0.01 0.01 0.00 0.00 0.00

GFSCGP_prec_precacc_084.txt.gz
Total_Precipitation_Accumulation
0.00 0.00 0.00 0.00 0.00 0.00 0.00 0.00 0.00 0.00 0.00 0.00 0.00 0.00 0.02 0.04 0.03 0.13 0.01 0.00 0.00 0.00 0.00 0.01 0.01 0.04 0.05 0.08 0.27 0.71 0.98 1.22 0.99 0.68 0.23 0.06 0.08 0.15 0.23 0.21 0.22 0.15 0.17 0.10
0.00 0.00 0.00 0.00 0.00 0.00 0.00 0.00 0.00 0.00 0.00 0.00 0.00 0.00 0.01 0.02 0.02 0.05 0.02 0.01 0.00 0.00 0.00 0.01 0.03 0.09 0.13 0.26 0.36 0.40 0.28 0.29 0.13 0.05 0.00 0.01 0.03 0.09 0.16 0.23 0.12 0.11 0.19 0.18
0.00 0.02 0.00 0.00 0.00 0.00 0.00 0.00 0.00 0.00 0.00 0.00 0.00 0.00 0.00 0.01 0.03 0.02 0.03 0.01 0.00 0.00 0.00 0.02 0.08 0.12 0.14 0.14 0.17 0.06 0.05 0.15 0.11 0.05 0.06 0.09 0.15 0.14 0.13 0.28 0.20 0.09 0.18 0.28
0.00 0.00 0.00 0.00 0.00 0.00 0.00 0.00 0.00 0.00 0.00 0.01 0.00 0.01 0.02 0.00 0.01 0.01 0.01 0.01 0.01 0.01 0.01 0.01 0.01 0.01 0.02 0.01 0.03 0.02 0.06 0.11 0.15 0.19 0.23 0.18 0.16 0.14 0.09 0.09 0.06 0.07 0.08 0.09
0.00 0.00 0.00 0.00 0.00 0.00 0.03 0.00 0.00 0.00 0.00 0.01 0.01 0.00 0.01 0.00 0.00 0.00 0.00 0.01 0.00 0.01 0.01 0.00 0.01 0.02 0.01 0.04 0.04 0.09 0.13 0.14 0.11 0.17 0.31 0.19 0.17 0.18 0.18 0.09 0.09 0.08 0.10 0.08
0.00 0.00 0.00 0.00 0.00 0.00 0.00 0.00 0.00 0.00 0.00 0.00 0.01 0.01 0.01 0.01 0.01 0.01 0.00 0.00 0.00 0.02 0.01 0.01 0.02 0.02 0.03 0.11 0.17 0.15 0.13 0.14 0.14 0.21 0.26 0.26 0.18 0.14 0.10 0.08 0.09 0.07 0.05 0.06
0.00 0.00 0.00 0.00 0.00 0.00 0.00 0.00 0.01 0.11 0.04 0.02 0.05 0.06 0.02 0.01 0.01 0.05 0.00 0.00 0.00 0.01 0.01 0.02 0.02 0.06 0.09 0.20 0.21 0.16 0.13 0.11 0.15 0.19 0.26 0.20 0.14 0.09 0.08 0.04 0.04 0.04 0.03 0.03
0.00 0.00 0.00 0.00 0.00 0.01 0.00 0.00 0.02 0.08 0.07 0.07 0.08 0.01 0.01 0.00 0.00 0.00 0.00 0.00 0.00 0.00 0.00 0.01 0.04 0.06 0.10 0.30 0.22 0.10 0.04 0.03 0.05 0.08 0.15 0.13 0.13 0.10 0.08 0.07 0.12 0.06 0.03 0.03
0.00 0.00 0.01 0.00 0.00 0.00 0.02 0.04 0.01 0.01 0.02 0.02 0.01 0.01 0.01 0.01 0.00 0.00 0.00 0.00 0.00 0.00 0.00 0.00 0.02 0.04 0.09 0.20 0.14 0.04 0.01 0.00 0.01 0.02 0.06 0.11 0.14 0.07 0.13 0.31 0.18 0.17 0.08 0.05
0.01 0.03 0.01 0.00 0.00 0.00 0.00 0.02 0.02 0.01 0.01 0.02 0.00 0.01 0.01 0.01 0.00 0.00 0.00 0.00 0.00 0.00 0.00 0.00 0.01 0.02 0.05 0.14 0.10 0.11 0.08 0.02 0.00 0.01 0.04 0.04 0.13 0.15 0.17 0.29 0.13 0.16 0.18 0.22
0.00 0.04 0.05 0.00 0.00 0.00 0.00 0.00 0.00 0.00 0.00 0.04 0.08 0.01 0.00 0.01 0.01 0.00 0.00 0.00 0.00 0.00 0.00 0.00 0.00 0.00 0.04 0.11 0.13 0.11 0.20 0.14 0.05 0.02 0.02 0.04 0.18 0.18 0.28 0.28 0.32 0.28 0.43 0.47
0.00 0.00 0.00 0.01 0.00 0.00 0.00 0.00 0.01 0.01 0.02 0.01 0.03 0.01 0.00 0.00 0.00 0.00 0.00 0.00 0.00 0.00 0.00 0.00 0.00 0.00 0.01 0.10 0.14 0.07 0.16 0.15 0.10 0.09 0.11 0.13 0.30 0.35 0.40 0.54 0.51 0.57 0.63 0.58
0.00 0.00 0.00 0.00 0.00 0.01 0.00 0.00 0.00 0.00 0.00 0.01 0.05 0.01 0.00 0.00 0.00 0.00 0.00 0.00 0.00 0.00 0.00 0.00 0.00 0.00 0.01 0.05 0.12 0.09 0.12 0.11 0.15 0.26 0.33 0.23 0.37 0.39 0.66 0.75 0.97 1.02 0.86 0.57
0.00 0.00 0.00 0.00 0.00 0.00 0.00 0.00 0.00 0.00 0.00 0.00 0.00 0.00 0.00 0.00 0.01 0.00 0.00 0.00 0.00 0.00 0.00 0.00 0.00 0.00 0.04 0.10 0.15 0.15 0.27 0.24 0.31 0.38 0.39 0.31 0.33 0.43 0.55 0.64 0.72 0.79 0.44 0.35
0.00 0.00 0.00 0.00 0.00 0.00 0.00 0.00 0.00 0.00 0.00 0.00 0.00 0.00 0.00 0.00 0.00 0.00 0.00 0.00 0.00 0.00 0.00 0.01 0.01 0.03 0.08 0.14 0.16 0.18 0.25 0.28 0.37 0.42 0.48 0.42 0.56 0.90 0.92 0.91 0.60 0.37 0.26 0.20
0.00 0.00 0.00 0.00 0.00 0.00 0.00 0.00 0.00 0.00 0.00 0.00 0.00 0.00 0.00 0.00 0.00 0.00 0.00 0.00 0.00 0.00 0.00 0.02 0.03 0.03 0.09 0.16 0.14 0.14 0.23 0.27 0.29 0.29 0.30 0.48 0.61 0.51 0.54 0.44 0.29 0.14 0.07 0.09
0.02 0.01 0.01 0.02 0.00 0.01 0.02 0.00 0.00 0.00 0.00 0.00 0.00 0.00 0.00 0.00 0.00 0.00 0.00 0.00 0.00 0.01 0.00 0.02 0.02 0.03 0.04 0.10 0.17 0.19 0.20 0.21 0.20 0.18 0.21 0.27 0.26 0.23 0.16 0.08 0.06 0.10 0.12 0.08
0.13 0.02 0.02 0.03 0.03 0.10 0.02 0.00 0.00 0.00 0.00 0.00 0.00 0.00 0.00 0.00 0.00 0.00 0.00 0.00 0.02 0.02 0.03 0.02 0.00 0.01 0.01 0.05 0.07 0.12 0.11 0.12 0.12 0.12 0.11 0.08 0.05 0.03 0.04 0.08 0.12 0.11 0.11 0.07
0.08 0.06 0.09 0.10 0.06 0.03 0.00 0.00 0.00 0.00 0.00 0.00 0.00 0.02 0.02 0.02 0.02 0.01 0.01 0.03 0.06 0.05 0.04 0.00 0.00 0.00 0.00 0.00 0.01 0.04 0.07 0.07 0.06 0.04 0.02 0.01 0.01 0.04 0.06 0.08 0.11 0.08 0.05 0.04
0.02 0.03 0.11 0.17 0.10 0.05 0.00 0.00 0.00 0.00 0.01 0.01 0.04 0.09 0.14 0.11 0.19 0.12 0.07 0.08 0.06 0.03 0.00 0.00 0.00 0.00 0.00 0.01 0.01 0.01 0.01 0.00 0.00 0.01 0.01 0.02 0.03 0.07 0.11 0.08 0.03 0.01 0.01 0.01
0.05 0.04 0.06 0.10 0.18 0.03 0.00 0.00 0.01 0.14 0.17 0.06 0.12 0.17 0.11 0.16 0.19 0.19 0.18 0.05 0.00 0.00 0.00 0.00 0.00 0.00 0.00 0.00 0.01 0.01 0.00 0.00 0.00 0.01 0.02 0.02 0.03 0.04 0.03 0.01 0.00 0.01 0.01 0.03
0.17 0.16 0.15 0.13 0.23 0.08 0.00 0.03 0.15 0.18 0.08 0.08 0.07 0.06 0.08 0.10 0.19 0.18 0.05 0.02 0.00 0.00 0.00 0.00 0.00 0.00 0.00 0.01 0.00 0.00 0.00 0.00 0.00 0.00 0.01 0.04 0.04 0.02 0.01 0.00 0.00 0.00 0.02 0.04
0.03 0.05 0.09 0.07 0.04 0.00 0.01 0.03 0.02 0.04 0.10 0.07 0.07 0.09 0.16 0.26 0.16 0.04 0.03 0.00 0.00 0.00 0.00 0.00 0.00 0.01 0.01 0.00 0.00 0.00 0.00 0.00 0.01 0.02 0.04 0.04 0.01 0.01 0.00 0.00 0.00 0.01 0.01 0.01
0.05 0.03 0.03 0.04 0.01 0.02 0.05 0.05 0.02 0.06 0.09 0.13 0.20 0.24 0.21 0.10 0.06 0.03 0.00 0.00 0.00 0.00 0.01 0.02 0.03 0.02 0.00 0.00 0.00 0.01 0.01 0.02 0.03 0.03 0.02 0.02 0.01 0.00 0.01 0.01 0.01 0.01 0.01 0.02
0.08 0.07 0.04 0.06 0.01 0.03 0.04 0.08 0.15 0.21 0.32 0.29 0.20 0.14 0.07 0.03 0.01 0.01 0.01 0.00 0.00 0.02 0.04 0.03 0.04 0.04 0.00 0.00 0.00 0.01 0.02 0.02 0.02 0.01 0.01 0.01 0.00 0.03 0.02 0.01 0.00 0.00 0.02 0.03
0.06 0.03 0.06 0.10 0.07 0.23 0.22 0.33 0.42 0.38 0.27 0.15 0.09 0.04 0.01 0.01 0.01 0.00 0.00 0.01 0.02 0.03 0.03 0.04 0.03 0.01 0.00 0.00 0.00 0.01 0.01 0.01 0.01 0.02 0.03 0.03 0.02 0.03 0.02 0.02 0.03 0.02 0.01 0.01

GFSCGP_prec_precacc_087.txt.gz
Total_Precipitation_Accumulation
0.00 0.00 0.00 0.00 0.00 0.00 0.00 0.00 0.00 0.00 0.00 0.00 0.00 0.00 0.02 0.04 0.03 0.13 0.01 0.00 0.00 0.00 0.00 0.01 0.01 0.04 0.07 0.10 0.29 0.75 1.08 1.30 1.00 0.71 0.24 0.06 0.09 0.19 0.25 0.21 0.22 0.15 0.17 0.10
0.00 0.00 0.00 0.00 0.00 0.00 0.00 0.00 0.00 0.00 0.00 0.00 0.00 0.00 0.01 0.02 0.02 0.05 0.02 0.01 0.00 0.00 0.01 0.01 0.03 0.09 0.13 0.26 0.36 0.40 0.30 0.31 0.14 0.07 0.00 0.01 0.04 0.10 0.17 0.23 0.12 0.11 0.19 0.18
0.00 0.02 0.00 0.00 0.00 0.00 0.00 0.00 0.00 0.00 0.00 0.00 0.00 0.00 0.00 0.01 0.03 0.02 0.03 0.01 0.00 0.00 0.00 0.02 0.08 0.12 0.14 0.14 0.17 0.06 0.05 0.15 0.11 0.05 0.06 0.09 0.15 0.14 0.13 0.28 0.20 0.09 0.18 0.28
0.00 0.00 0.00 0.00 0.00 0.00 0.00 0.00 0.00 0.00 0.00 0.01 0.00 0.01 0.02 0.00 0.01 0.01 0.01 0.01 0.01 0.01 0.01 0.01 0.01 0.02 0.02 0.01 0.03 0.02 0.06 0.11 0.15 0.19 0.23 0.18 0.16 0.14 0.09 0.09 0.06 0.07 0.08 0.09
0.00 0.00 0.00 0.00 0.00 0.00 0.03 0.00 0.00 0.00 0.00 0.01 0.01 0.00 0.01 0.00 0.00 0.00 0.00 0.01 0.00 0.01 0.01 0.00 0.01 0.02 0.01 0.04 0.04 0.09 0.13 0.14 0.11 0.17 0.31 0.19 0.17 0.18 0.18 0.09 0.09 0.08 0.10 0.08
0.00 0.00 0.00 0.00 0.00 0.00 0.00 0.00 0.00 0.00 0.00 0.00 0.01 0.01 0.01 0.01 0.01 0.01 0.00 0.00 0.00 0.02 0.01 0.01 0.02 0.02 0.03 0.11 0.17 0.15 0.13 0.14 0.14 0.21 0.26 0.26 0.18 0.14 0.10 0.08 0.09 0.07 0.05 0.06
0.00 0.00 0.00 0.00 0.00 0.00 0.00 0.00 0.01 0.11 0.04 0.02 0.05 0.06 0.02 0.01 0.01 0.05 0.00 0.00 0.00 0.01 0.01 0.02 0.02 0.06 0.09 0.20 0.21 0.16 0.13 0.11 0.15 0.19 0.26 0.20 0.14 0.09 0.08 0.04 0.04 0.04 0.03 0.03
0.00 0.00 0.00 0.00 0.00 0.01 0.00 0.00 0.02 0.08 0.07 0.07 0.08 0.01 0.01 0.00 0.00 0.00 0.00 0.00 0.00 0.00 0.00 0.01 0.04 0.06 0.10 0.30 0.22 0.10 0.04 0.03 0.05 0.08 0.15 0.13 0.13 0.10 0.08 0.07 0.12 0.06 0.03 0.03
0.00 0.00 0.01 0.00 0.00 0.00 0.02 0.04 0.01 0.01 0.02 0.02 0.01 0.01 0.01 0.01 0.00 0.00 0.00 0.00 0.00 0.00 0.00 0.00 0.02 0.05 0.11 0.22 0.16 0.04 0.01 0.00 0.01 0.02 0.06 0.11 0.14 0.07 0.13 0.31 0.18 0.17 0.08 0.06
0.01 0.03 0.01 0.00 0.00 0.00 0.00 0.02 0.02 0.01 0.01 0.02 0.00 0.01 0.01 0.01 0.00 0.00 0.00 0.00 0.00 0.00 0.00 0.00 0.01 0.02 0.07 0.16 0.16 0.18 0.10 0.02 0.00 0.01 0.04 0.04 0.13 0.15 0.17 0.29 0.14 0.17 0.18 0.23
0.00 0.04 0.05 0.00 0.00 0.00 0.00 0.00 0.00 0.00 0.00 0.04 0.08 0.01 0.00 0.01 0.01 0.00 0.00 0.00 0.00 0.00 0.00 0.00 0.00 0.00 0.04 0.13 0.15 0.17 0.26 0.18 0.06 0.02 0.02 0.04 0.18 0.18 0.28 0.28 0.33 0.32 0.48 0.54
0.00 0.00 0.00 0.01 0.00 0.00 0.00 0.00 0.01 0.01 0.02 0.01 0.03 0.01 0.00 0.00 0.00 0.00 0.00 0.00 0.00 0.00 0.00 0.00 0.00 0.00 0.01 0.10 0.14 0.08 0.22 0.22 0.22 0.16 0.12 0.13 0.30 0.35 0.41 0.56 0.53 0.62 0.77 0.78
0.01 0.01 0.00 0.00 0.00 0.01 0.00 0.00 0.00 0.00 0.00 0.01 0.05 0.01 0.00 0.00 0.00 0.00 0.00 0.00 0.00 0.00 0.00 0.00 0.00 0.00 0.01 0.05 0.12 0.09 0.12 0.15 0.23 0.34 0.37 0.25 0.40 0.40 0.67 0.76 1.02 1.15 1.15 1.22
0.07 0.04 0.00 0.00 0.00 0.00 0.00 0.00 0.00 0.00 0.00 0.00 0.00 0.00 0.00 0.00 0.01 0.00 0.00 0.00 0.00 0.00 0.00 0.00 0.00 0.00 0.04 0.10 0.15 0.15 0.27 0.24 0.31 0.38 0.40 0.32 0.33 0.44 0.56 0.68 0.82 1.19 1.25 0.94
0.07 0.04 0.00 0.00 0.00 0.00 0.00 0.00 0.00 0.00 0.00 0.00 0.00 0.00 0.00 0.00 0.00 0.00 0.00 0.00 0.00 0.00 0.00 0.01 0.01 0.03 0.08 0.14 0.16 0.18 0.25 0.28 0.37 0.42 0.48 0.42 0.56 0.92 0.97 1.00 0.83 0.62 0.39 0.27
0.12 0.06 0.00 0.00 0.00 0.00 0.00 0.00 0.00 0.00 0.00 0.00 0.00 0.00 0.00 0.00 0.00 0.00 0.00 0.00 0.00 0.00 0.00 0.02 0.03 0.03 0.09 0.16 0.14 0.14 0.23 0.27 0.29 0.29 0.30 0.48 0.62 0.53 0.56 0.49 0.35 0.21 0.13 0.14
0.25 0.14 0.03 0.02 0.00 0.01 0.02 0.00 0.00 0.00 0.00 0.00 0.00 0.00 0.00 0.00 0.00 0.00 0.00 0.00 0.00 0.01 0.00 0.02 0.02 0.03 0.04 0.10 0.17 0.19 0.20 0.21 0.20 0.19 0.21 0.28 0.27 0.24 0.18 0.10 0.10 0.13 0.14 0.12
0.29 0.18 0.15 0.05 0.03 0.11 0.02 0.00 0.00 0.00 0.00 0.00 0.00 0.00 0.00 0.00 0.00 0.00 0.00 0.00 0.02 0.02 0.03 0.02 0.00 0.01 0.01 0.05 0.07 0.12 0.11 0.12 0.13 0.12 0.11 0.09 0.06 0.04 0.04 0.08 0.13 0.12 0.12 0.08
0.10 0.17 0.24 0.16 0.06 0.03 0.00 0.00 0.00 0.00 0.00 0.00 0.00 0.02 0.02 0.02 0.02 0.01 0.01 0.03 0.06 0.05 0.04 0.00 0.00 0.00 0.00 0.00 0.01 0.04 0.07 0.07 0.07 0.05 0.03 0.02 0.02 0.04 0.06 0.08 0.11 0.09 0.06 0.06
0.03 0.09 0.26 0.33 0.17 0.05 0.00 0.00 0.00 0.01 0.01 0.01 0.04 0.09 0.14 0.11 0.19 0.12 0.07 0.08 0.06 0.03 0.00 0.00 0.00 0.00 0.00 0.01 0.01 0.01 0.01 0.01 0.01 0.02 0.02 0.03 0.03 0.07 0.11 0.08 0.03 0.02 0.03 0.06
0.12 0.08 0.15 0.20 0.26 0.03 0.00 0.00 0.02 0.18 0.18 0.06 0.12 0.17 0.11 0.16 0.19 0.19 0.18 0.05 0.00 0.00 0.00 0.00 0.00 0.00 0.00 0.00 0.01 0.01 0.00 0.00 0.00 0.01 0.02 0.02 0.03 0.04 0.03 0.01 0.01 0.01 0.02 0.04
0.34 0.35 0.20 0.16 0.25 0.09 0.00 0.04 0.15 0.18 0.09 0.08 0.07 0.06 0.08 0.10 0.19 0.18 0.05 0.02 0.00 0.00 0.00 0.00 0.00 0.00 0.00 0.01 0.00 0.00 0.00 0.00 0.00 0.00 0.01 0.04 0.04 0.02 0.01 0.00 0.00 0.00 0.03 0.04
0.03 0.08 0.13 0.09 0.04 0.00 0.01 0.04 0.02 0.04 0.10 0.07 0.07 0.09 0.16 0.26 0.16 0.04 0.03 0.00 0.00 0.00 0.00 0.00 0.00 0.01 0.01 0.00 0.00 0.00 0.00 0.00 0.01 0.02 0.04 0.04 0.01 0.01 0.00 0.00 0.00 0.01 0.01 0.02
0.05 0.04 0.03 0.04 0.01 0.02 0.05 0.05 0.03 0.06 0.09 0.13 0.20 0.24 0.21 0.10 0.07 0.03 0.00 0.00 0.00 0.00 0.01 0.02 0.03 0.02 0.00 0.00 0.00 0.01 0.01 0.02 0.03 0.03 0.02 0.02 0.01 0.00 0.01 0.02 0.01 0.02 0.02 0.03
0.08 0.09 0.06 0.06 0.01 0.03 0.04 0.08 0.15 0.21 0.32 0.29 0.20 0.15 0.07 0.03 0.01 0.02 0.01 0.00 0.00 0.02 0.04 0.03 0.04 0.04 0.00 0.00 0.00 0.01 0.02 0.02 0.02 0.01 0.01 0.01 0.00 0.03 0.02 0.01 0.01 0.02 0.08 0.10
0.06 0.03 0.06 0.10 0.07 0.23 0.22 0.33 0.42 0.38 0.27 0.15 0.09 0.04 0.02 0.01 0.01 0.00 0.00 0.01 0.02 0.03 0.03 0.04 0.03 0.01 0.00 0.00 0.00 0.01 0.01 0.01 0.01 0.02 0.03 0.04 0.03 0.04 0.05 0.07 0.10 0.09 0.07 0.05

GFSCGP_prec_precacc_090.txt.gz
Total_Precipitation_Accumulation
0.00 0.00 0.00 0.00 0.00 0.00 0.00 0.00 0.00 0.00 0.00 0.00 0.00 0.00 0.02 0.04 0.03 0.13 0.01 0.00 0.00 0.00 0.00 0.01 0.01 0.04 0.08 0.12 0.30 0.80 1.18 1.44 1.02 0.72 0.27 0.12 0.12 0.20 0.25 0.21 0.22 0.15 0.17 0.10
0.00 0.00 0.00 0.00 0.00 0.00 0.00 0.00 0.00 0.00 0.00 0.00 0.00 0.00 0.01 0.02 0.02 0.05 0.02 0.01 0.00 0.00 0.01 0.02 0.03 0.09 0.14 0.27 0.37 0.41 0.35 0.47 0.16 0.08 0.03 0.05 0.05 0.10 0.18 0.24 0.13 0.12 0.20 0.19
0.00 0.02 0.00 0.00 0.00 0.00 0.00 0.00 0.00 0.00 0.00 0.00 0.00 0.00 0.00 0.01 0.03 0.02 0.03 0.01 0.00 0.00 0.00 0.02 0.09 0.12 0.15 0.15 0.17 0.06 0.06 0.19 0.12 0.07 0.09 0.11 0.15 0.14 0.14 0.28 0.20 0.09 0.18 0.30
0.00 0.00 0.00 0.00 0.00 0.00 0.00 0.00 0.00 0.00 0.00 0.01 0.00 0.01 0.02 0.00 0.01 0.01 0.01 0.01 0.01 0.01 0.01 0.01 0.01 0.02 0.02 0.02 0.03 0.02 0.06 0.12 0.15 0.19 0.23 0.18 0.16 0.15 0.09 0.09 0.06 0.07 0.08 0.10
0.00 0.00 0.00 0.00 0.00 0.00 0.03 0.00 0.00 0.00 0.00 0.01 0.01 0.00 0.01 0.00 0.00 0.00 0.00 0.01 0.00 0.01 0.01 0.00 0.01 0.02 0.01 0.04 0.04 0.09 0.13 0.14 0.11 0.17 0.31 0.19 0.17 0.18 0.18 0.09 0.09 0.08 0.10 0.08
0.00 0.00 0.00 0.00 0.00 0.00 0.00 0.00 0.00 0.00 0.00 0.00 0.01 0.01 0.01 0.01 0.01 0.01 0.00 0.00 0.00 0.02 0.01 0.01 0.02 0.02 0.03 0.11 0.17 0.15 0.13 0.14 0.14 0.21 0.26 0.26 0.18 0.14 0.10 0.08 0.09 0.07 0.05 0.06
0.00 0.00 0.00 0.00 0.00 0.00 0.00 0.00 0.01 0.11 0.04 0.02 0.05 0.06 0.02 0.01 0.01 0.05 0.00 0.00 0.00 0.01 0.01 0.02 0.02 0.06 0.09 0.20 0.21 0.16 0.13 0.11 0.15 0.19 0.26 0.20 0.14 0.09 0.08 0.04 0.04 0.04 0.03 0.03
0.00 0.00 0.00 0.00 0.00 0.01 0.00 0.00 0.02 0.08 0.07 0.07 0.08 0.01 0.01 0.00 0.00 0.00 0.00 0.00 0.00 0.00 0.00 0.01 0.04 0.06 0.10 0.30 0.22 0.10 0.04 0.03 0.05 0.08 0.15 0.13 0.13 0.10 0.08 0.07 0.12 0.06 0.03 0.03
0.00 0.00 0.01 0.00 0.00 0.00 0.02 0.04 0.01 0.01 0.02 0.02 0.01 0.01 0.01 0.01 0.00 0.00 0.00 0.00 0.00 0.00 0.00 0.00 0.02 0.05 0.11 0.22 0.16 0.04 0.01 0.00 0.01 0.02 0.06 0.11 0.14 0.07 0.13 0.31 0.18 0.17 0.08 0.06
0.01 0.03 0.01 0.00 0.00 0.00 0.00 0.02 0.02 0.01 0.01 0.02 0.00 0.01 0.01 0.01 0.00 0.00 0.00 0.00 0.00 0.00 0.00 0.00 0.01 0.02 0.07 0.16 0.16 0.19 0.10 0.02 0.00 0.01 0.04 0.04 0.13 0.15 0.17 0.29 0.14 0.17 0.18 0.23
0.00 0.04 0.05 0.00 0.00 0.00 0.00 0.00 0.00 0.00 0.00 0.04 0.08 0.01 0.00 0.01 0.01 0.00 0.00 0.00 0.00 0.00 0.00 0.00 0.00 0.00 0.04 0.13 0.15 0.19 0.29 0.19 0.06 0.02 0.02 0.04 0.18 0.18 0.28 0.28 0.33 0.32 0.48 0.55
0.00 0.00 0.00 0.01 0.00 0.00 0.00 0.00 0.01 0.01 0.02 0.01 0.03 0.01 0.00 0.00 0.00 0.00 0.00 0.00 0.00 0.00 0.00 0.00 0.00 0.00 0.01 0.10 0.14 0.08 0.24 0.25 0.26 0.17 0.12 0.13 0.30 0.35 0.41 0.56 0.53 0.63 0.78 0.82
0.02 0.02 0.01 0.00 0.00 0.01 0.00 0.00 0.00 0.00 0.00 0.01 0.05 0.01 0.00 0.00 0.00 0.00 0.00 0.00 0.00 0.00 0.00 0.00 0.00 0.00 0.01 0.05 0.12 0.09 0.12 0.15 0.25 0.38 0.39 0.26 0.40 0.40 0.68 0.77 1.02 1.16 1.16 1.25
0.07 0.05 0.02 0.01 0.00 0.00 0.00 0.00 0.00 0.00 0.00 0.00 0.00 0.00 0.00 0.00 0.01 0.00 0.00 0.00 0.00 0.00 0.00 0.00 0.00 0.00 0.04 0.10 0.15 0.15 0.27 0.24 0.31 0.39 0.40 0.32 0.35 0.46 0.58 0.69 0.83 1.21 1.28 1.03
0.08 0.08 0.01 0.01 0.01 0.00 0.00 0.00 0.00 0.00 0.00 0.00 0.00 0.00 0.00 0.00 0.00 0.00 0.00 0.00 0.00 0.00 0.00 0.01 0.01 0.03 0.08 0.14 0.16 0.18 0.25 0.28 0.37 0.42 0.48 0.42 0.56 0.93 0.98 1.04 0.88 0.69 0.47 0.37
0.15 0.09 0.01 0.01 0.00 0.00 0.00 0.00 0.00 0.00 0.00 0.00 0.00 0.00 0.00 0.00 0.00 0.00 0.00 0.00 0.00 0.00 0.00 0.02 0.03 0.03 0.09 0.16 0.14 0.14 0.23 0.27 0.29 0.29 0.30 0.48 0.62 0.54 0.59 0.53 0.38 0.24 0.18 0.19
0.37 0.24 0.11 0.05 0.00 0.03 0.03 0.00 0.00 0.00 0.00 0.00 0.00 0.00 0.00 0.00 0.00 0.00 0.00 0.00 0.00 0.01 0.00 0.02 0.02 0.03 0.04 0.10 0.17 0.19 0.20 0.21 0.20 0.19 0.21 0.28 0.28 0.25 0.19 0.12 0.12 0.16 0.18 0.15
0.33 0.33 0.31 0.16 0.08 0.16 0.03 0.00 0.00 0.00 0.00 0.00 0.00 0.00 0.00 0.00 0.00 0.00 0.00 0.00 0.02 0.02 0.03 0.02 0.00 0.01 0.01 0.05 0.07 0.12 0.11 0.12 0.13 0.12 0.12 0.09 0.06 0.05 0.05 0.09 0.14 0.14 0.14 0.10
0.10 0.22 0.35 0.26 0.16 0.09 0.01 0.00 0.00 0.00 0.00 0.00 0.00 0.02 0.02 0.02 0.02 0.01 0.01 0.03 0.06 0.05 0.04 0.00 0.00 0.00 0.00 0.00 0.01 0.04 0.07 0.07 0.07 0.05 0.05 0.03 0.03 0.05 0.08 0.10 0.13 0.10 0.07 0.07
0.04 0.11 0.29 0.36 0.21 0.07 0.01 0.00 0.00 0.01 0.01 0.01 0.04 0.09 0.14 0.11 0.19 0.12 0.07 0.08 0.06 0.03 0.00 0.00 0.00 0.00 0.00 0.01 0.01 0.01 0.01 0.01 0.02 0.03 0.03 0.04 0.04 0.09 0.12 0.09 0.04 0.03 0.05 0.10
0.18 0.12 0.19 0.22 0.31 0.07 0.01 0.01 0.02 0.18 0.18 0.06 0.12 0.17 0.11 0.16 0.19 0.19 0.18 0.05 0.00 0.00 0.00 0.00 0.00 0.00 0.00 0.01 0.01 0.01 0.01 0.01 0.01 0.02 0.03 0.02 0.03 0.04 0.03 0.02 0.01 0.02 0.03 0.05
0.37 0.44 0.30 0.26 0.34 0.10 0.01 0.07 0.19 0.19 0.10 0.09 0.07 0.06 0.08 0.10 0.19 0.18 0.05 0.02 0.00 0.00 0.00 0.00 0.00 0.00 0.00 0.01 0.00 0.00 0.00 0.00 0.00 0.01 0.01 0.04 0.04 0.02 0.01 0.00 0.01 0.01 0.03 0.05
0.03 0.09 0.16 0.15 0.09 0.01 0.01 0.04 0.03 0.05 0.12 0.08 0.08 0.09 0.16 0.26 0.16 0.04 0.03 0.00 0.00 0.00 0.00 0.00 0.00 0.01 0.01 0.00 0.00 0.00 0.00 0.00 0.01 0.02 0.04 0.04 0.01 0.01 0.00 0.00 0.00 0.01 0.01 0.02
0.05 0.04 0.04 0.05 0.01 0.02 0.05 0.05 0.03 0.06 0.09 0.14 0.21 0.25 0.21 0.10 0.07 0.03 0.00 0.00 0.00 0.00 0.01 0.02 0.03 0.02 0.00 0.00 0.00 0.01 0.01 0.02 0.03 0.03 0.02 0.02 0.01 0.00 0.01 0.02 0.02 0.02 0.03 0.04
0.09 0.11 0.08 0.06 0.02 0.03 0.04 0.08 0.15 0.21 0.32 0.29 0.20 0.15 0.08 0.04 0.02 0.02 0.01 0.01 0.00 0.02 0.04 0.03 0.04 0.04 0.00 0.00 0.00 0.01 0.02 0.02 0.02 0.01 0.01 0.01 0.00 0.03 0.02 0.01 0.02 0.04 0.13 0.16
0.06 0.03 0.06 0.10 0.07 0.23 0.22 0.33 0.42 0.38 0.27 0.15 0.09 0.04 0.02 0.02 0.02 0.01 0.01 0.01 0.02 0.03 0.03 0.04 0.03 0.01 0.00 0.00 0.00 0.01 0.01 0.01 0.01 0.02 0.03 0.04 0.03 0.04 0.05 0.08 0.14 0.15 0.14 0.13

GFSCGP_prec_precacc_093.txt.gz
Total_Precipitation_Accumulation
0.00 0.00 0.00 0.00 0.00 0.00 0.00 0.00 0.00 0.00 0.00 0.00 0.00 0.00 0.02 0.04 0.03 0.13 0.01 0.00 0.00 0.00 0.00 0.01 0.02 0.04 0.08 0.12 0.31 0.81 1.20 1.51 1.13 0.74 0.33 0.17 0.14 0.22 0.26 0.22 0.23 0.16 0.18 0.12
0.00 0.00 0.00 0.00 0.00 0.00 0.00 0.00 0.00 0.00 0.00 0.00 0.00 0.00 0.01 0.02 0.02 0.05 0.02 0.01 0.00 0.00 0.01 0.02 0.03 0.09 0.14 0.27 0.37 0.41 0.36 0.53 0.21 0.10 0.07 0.12 0.08 0.11 0.18 0.24 0.13 0.12 0.20 0.20
0.00 0.02 0.00 0.00 0.00 0.00 0.00 0.00 0.00 0.00 0.00 0.00 0.00 0.00 0.00 0.01 0.03 0.02 0.03 0.01 0.00 0.00 0.00 0.02 0.09 0.12 0.15 0.15 0.17 0.06 0.06 0.27 0.21 0.08 0.10 0.14 0.23 0.16 0.14 0.28 0.20 0.09 0.18 0.31
0.00 0.00 0.00 0.00 0.00 0.00 0.00 0.00 0.00 0.00 0.00 0.01 0.00 0.01 0.02 0.00 0.01 0.01 0.01 0.01 0.01 0.01 0.01 0.01 0.01 0.02 0.02 0.02 0.03 0.02 0.06 0.13 0.17 0.19 0.23 0.19 0.17 0.17 0.10 0.09 0.06 0.07 0.08 0.10
0.01 0.00 0.00 0.00 0.00 0.00 0.03 0.00 0.00 0.00 0.00 0.01 0.01 0.00 0.01 0.00 0.00 0.00 0.00 0.01 0.00 0.01 0.01 0.00 0.01 0.02 0.01 0.04 0.04 0.09 0.13 0.15 0.12 0.17 0.31 0.19 0.17 0.18 0.18 0.09 0.09 0.08 0.10 0.09
0.00 0.00 0.00 0.00 0.00 0.00 0.00 0.00 0.00 0.00 0.00 0.00 0.01 0.01 0.01 0.01 0.01 0.01 0.00 0.00 0.00 0.02 0.01 0.01 0.02 0.02 0.03 0.11 0.17 0.15 0.13 0.14 0.15 0.21 0.26 0.26 0.18 0.14 0.10 0.08 0.09 0.07 0.05 0.06
0.00 0.00 0.00 0.00 0.00 0.00 0.00 0.00 0.01 0.11 0.04 0.02 0.05 0.06 0.02 0.01 0.01 0.05 0.00 0.00 0.00 0.01 0.01 0.02 0.02 0.06 0.09 0.20 0.21 0.16 0.13 0.11 0.15 0.19 0.26 0.20 0.14 0.09 0.08 0.04 0.04 0.04 0.03 0.03
0.00 0.00 0.00 0.00 0.00 0.01 0.00 0.00 0.02 0.08 0.07 0.07 0.08 0.01 0.01 0.00 0.00 0.00 0.00 0.00 0.00 0.00 0.00 0.01 0.04 0.06 0.10 0.30 0.22 0.10 0.04 0.03 0.05 0.08 0.15 0.13 0.13 0.10 0.08 0.07 0.12 0.06 0.03 0.03
0.00 0.00 0.01 0.00 0.00 0.00 0.02 0.04 0.01 0.01 0.02 0.02 0.01 0.01 0.01 0.01 0.00 0.00 0.00 0.00 0.00 0.00 0.00 0.00 0.02 0.05 0.11 0.22 0.16 0.04 0.01 0.00 0.01 0.02 0.06 0.11 0.14 0.07 0.13 0.31 0.18 0.17 0.08 0.06
0.01 0.03 0.01 0.00 0.00 0.00 0.00 0.02 0.02 0.01 0.01 0.02 0.00 0.01 0.01 0.01 0.00 0.00 0.00 0.00 0.00 0.00 0.00 0.00 0.01 0.02 0.07 0.16 0.16 0.19 0.11 0.02 0.00 0.01 0.04 0.04 0.13 0.15 0.17 0.29 0.14 0.17 0.18 0.23
0.00 0.04 0.05 0.00 0.00 0.00 0.00 0.00 0.00 0.00 0.00 0.04 0.08 0.01 0.00 0.01 0.01 0.00 0.00 0.00 0.00 0.00 0.00 0.00 0.00 0.00 0.04 0.13 0.15 0.20 0.31 0.20 0.07 0.02 0.02 0.04 0.18 0.18 0.28 0.28 0.33 0.32 0.48 0.55
0.00 0.00 0.00 0.01 0.00 0.00 0.00 0.00 0.01 0.01 0.02 0.01 0.03 0.01 0.00 0.00 0.00 0.00 0.00 0.00 0.00 0.00 0.00 0.00 0.00 0.00 0.01 0.10 0.14 0.08 0.25 0.26 0.29 0.18 0.12 0.13 0.30 0.35 0.41 0.56 0.53 0.63 0.78 0.82
0.02 0.03 0.01 0.00 0.00 0.01 0.00 0.00 0.00 0.00 0.00 0.01 0.05 0.01 0.00 0.00 0.00 0.00 0.00 0.00 0.00 0.00 0.00 0.00 0.00 0.00 0.01 0.05 0.12 0.09 0.12 0.15 0.25 0.38 0.40 0.26 0.40 0.40 0.68 0.77 1.02 1.16 1.16 1.25
0.07 0.05 0.02 0.01 0.00 0.00 0.00 0.00 0.00 0.00 0.00 0.00 0.00 0.00 0.00 0.00 0.01 0.00 0.00 0.00 0.00 0.00 0.00 0.00 0.00 0.00 0.04 0.10 0.15 0.15 0.27 0.24 0.31 0.39 0.40 0.32 0.35 0.46 0.59 0.70 0.83 1.22 1.29 1.03
0.08 0.09 0.01 0.01 0.01 0.00 0.00 0.00 0.00 0.00 0.00 0.00 0.00 0.00 0.00 0.00 0.00 0.00 0.00 0.00 0.00 0.00 0.00 0.01 0.01 0.03 0.08 0.14 0.16 0.18 0.25 0.28 0.37 0.42 0.48 0.42 0.56 0.93 0.98 1.04 0.89 0.70 0.49 0.40
0.20 0.12 0.01 0.01 0.00 0.00 0.00 0.00 0.00 0.00 0.00 0.00 0.00 0.00 0.00 0.00 0.00 0.00 0.00 0.00 0.00 0.00 0.00 0.02 0.03 0.03 0.09 0.16 0.14 0.14 0.23 0.27 0.29 0.29 0.30 0.48 0.62 0.54 0.59 0.53 0.39 0.26 0.20 0.21
0.39 0.27 0.16 0.06 0.00 0.03 0.05 0.00 0.00 0.00 0.00 0.00 0.00 0.00 0.00 0.00 0.00 0.00 0.00 0.00 0.00 0.01 0.00 0.02 0.02 0.03 0.04 0.10 0.17 0.19 0.20 0.21 0.20 0.19 0.21 0.28 0.28 0.25 0.20 0.13 0.12 0.17 0.18 0.16
0.33 0.35 0.37 0.19 0.09 0.17 0.03 0.00 0.00 0.00 0.00 0.00 0.00 0.00 0.00 0.00 0.00 0.00 0.00 0.00 0.02 0.02 0.03 0.02 0.00 0.01 0.01 0.05 0.07 0.12 0.11 0.12 0.13 0.12 0.12 0.09 0.07 0.05 0.05 0.10 0.15 0.15 0.15 0.12
0.10 0.22 0.37 0.29 0.19 0.10 0.02 0.01 0.00 0.00 0.00 0.00 0.00 0.02 0.02 0.02 0.02 0.01 0.01 0.03 0.06 0.05 0.04 0.00 0.00 0.00 0.00 0.00 0.01 0.04 0.07 0.07 0.07 0.05 0.05 0.03 0.04 0.06 0.09 0.12 0.14 0.11 0.09 0.11
0.04 0.11 0.31 0.38 0.23 0.07 0.02 0.01 0.01 0.01 0.01 0.01 0.04 0.09 0.14 0.11 0.19 0.12 0.07 0.08 0.06 0.03 0.00 0.00 0.00 0.00 0.00 0.01 0.01 0.01 0.01 0.01 0.02 0.03 0.04 0.05 0.06 0.10 0.14 0.11 0.05 0.05 0.08 0.12
0.21 0.14 0.20 0.23 0.33 0.08 0.01 0.02 0.03 0.20 0.20 0.08 0.14 0.17 0.11 0.16 0.19 0.19 0.18 0.05 0.00 0.00 0.00 0.00 0.00 0.00 0.00 0.01 0.01 0.01 0.01 0.01 0.01 0.03 0.04 0.04 0.05 0.06 0.05 0.04 0.03 0.04 0.05 0.06
0.40 0.60 0.47 0.36 0.43 0.12 0.01 0.08 0.26 0.33 0.15 0.10 0.08 0.06 0.08 0.10 0.19 0.18 0.05 0.02 0.00 0.00 0.00 0.00 0.00 0.00 0.01 0.01 0.00 0.00 0.00 0.00 0.01 0.01 0.02 0.05 0.05 0.03 0.01 0.01 0.01 0.01 0.04 0.05
0.03 0.09 0.20 0.31 0.20 0.05 0.01 0.04 0.04 0.06 0.14 0.10 0.09 0.10 0.16 0.26 0.16 0.04 0.03 0.00 0.00 0.00 0.00 0.00 0.00 0.01 0.01 0.00 0.00 0.00 0.00 0.00 0.01 0.02 0.04 0.04 0.01 0.01 0.00 0.00 0.00 0.01 0.01 0.03
0.05 0.04 0.04 0.05 0.01 0.02 0.05 0.05 0.03 0.06 0.09 0.14 0.22 0.26 0.23 0.11 0.07 0.03 0.02 0.01 0.00 0.00 0.01 0.02 0.03 0.02 0.00 0.00 0.00 0.01 0.01 0.02 0.03 0.03 0.02 0.02 0.01 0.00 0.01 0.02 0.02 0.02 0.03 0.05
0.09 0.11 0.08 0.06 0.02 0.03 0.04 0.08 0.15 0.21 0.32 0.29 0.20 0.15 0.09 0.05 0.02 0.02 0.01 0.01 0.01 0.02 0.04 0.03 0.04 0.04 0.00 0.00 0.00 0.01 0.02 0.02 0.02 0.01 0.01 0.01 0.00 0.03 0.02 0.02 0.03 0.05 0.15 0.18
0.06 0.03 0.06 0.10 0.07 0.23 0.22 0.33 0.42 0.38 0.27 0.15 0.09 0.04 0.02 0.04 0.03 0.02 0.02 0.01 0.02 0.03 0.03 0.04 0.04 0.02 0.01 0.00 0.00 0.01 0.01 0.01 0.01 0.02 0.03 0.04 0.03 0.04 0.05 0.08 0.14 0.16 0.15 0.14

GFSCGP_prec_precacc_096.txt.gz
Total_Precipitation_Accumulation
0.00 0.00 0.00 0.00 0.00 0.00 0.00 0.00 0.00 0.00 0.00 0.00 0.00 0.00 0.02 0.04 0.03 0.13 0.01 0.00 0.00 0.00 0.00 0.01 0.02 0.05 0.08 0.12 0.31 0.81 1.21 1.52 1.14 0.77 0.50 0.57 0.42 0.45 0.49 0.45 0.44 0.31 0.21 0.12
0.00 0.00 0.00 0.00 0.00 0.00 0.00 0.00 0.00 0.00 0.00 0.00 0.00 0.00 0.01 0.02 0.02 0.05 0.02 0.01 0.00 0.00 0.01 0.02 0.04 0.10 0.14 0.27 0.37 0.41 0.37 0.53 0.21 0.14 0.18 0.31 0.19 0.24 0.29 0.34 0.22 0.18 0.22 0.21
0.00 0.02 0.00 0.00 0.00 0.00 0.00 0.00 0.00 0.00 0.00 0.00 0.00 0.00 0.00 0.01 0.03 0.02 0.03 0.01 0.00 0.00 0.00 0.02 0.09 0.13 0.15 0.15 0.17 0.06 0.06 0.27 0.21 0.10 0.13 0.21 0.32 0.24 0.19 0.32 0.24 0.12 0.20 0.31
0.00 0.00 0.00 0.00 0.00 0.00 0.00 0.00 0.00 0.00 0.00 0.01 0.00 0.01 0.02 0.00 0.01 0.01 0.01 0.01 0.01 0.01 0.01 0.01 0.01 0.02 0.02 0.02 0.03 0.02 0.06 0.13 0.18 0.19 0.23 0.21 0.22 0.21 0.11 0.09 0.06 0.08 0.09 0.10
0.01 0.00 0.00 0.00 0.00 0.00 0.03 0.00 0.00 0.00 0.00 0.01 0.01 0.00 0.01 0.00 0.00 0.00 0.00 0.01 0.00 0.01 0.01 0.00 0.01 0.02 0.01 0.04 0.04 0.09 0.13 0.15 0.12 0.17 0.31 0.19 0.17 0.19 0.22 0.10 0.09 0.08 0.10 0.09
0.00 0.00 0.00 0.00 0.00 0.00 0.00 0.00 0.00 0.00 0.00 0.00 0.01 0.01 0.01 0.01 0.01 0.01 0.00 0.00 0.00 0.02 0.01 0.01 0.02 0.02 0.03 0.12 0.17 0.15 0.13 0.14 0.15 0.21 0.26 0.26 0.18 0.14 0.10 0.09 0.10 0.07 0.05 0.06
0.00 0.00 0.00 0.00 0.00 0.00 0.00 0.00 0.01 0.11 0.04 0.02 0.05 0.06 0.02 0.01 0.01 0.05 0.00 0.00 0.00 0.01 0.01 0.02 0.02 0.06 0.09 0.20 0.22 0.16 0.13 0.11 0.15 0.19 0.26 0.20 0.14 0.09 0.08 0.04 0.04 0.04 0.03 0.03
0.00 0.00 0.00 0.00 0.00 0.01 0.00 0.00 0.02 0.08 0.07 0.07 0.08 0.01 0.01 0.00 0.00 0.00 0.00 0.00 0.00 0.00 0.00 0.01 0.04 0.06 0.10 0.30 0.22 0.10 0.04 0.03 0.05 0.08 0.15 0.13 0.13 0.10 0.08 0.07 0.12 0.06 0.03 0.03
0.00 0.00 0.01 0.00 0.00 0.00 0.02 0.04 0.01 0.01 0.02 0.02 0.01 0.01 0.01 0.01 0.00 0.00 0.00 0.00 0.00 0.00 0.00 0.00 0.02 0.05 0.11 0.22 0.16 0.04 0.01 0.00 0.01 0.02 0.06 0.11 0.14 0.07 0.13 0.31 0.18 0.17 0.08 0.06
0.01 0.03 0.01 0.00 0.00 0.00 0.00 0.02 0.02 0.01 0.01 0.02 0.00 0.01 0.01 0.01 0.00 0.00 0.00 0.00 0.00 0.00 0.00 0.00 0.01 0.02 0.07 0.16 0.16 0.19 0.11 0.02 0.00 0.01 0.04 0.04 0.13 0.15 0.17 0.29 0.14 0.17 0.18 0.23
0.00 0.04 0.05 0.00 0.00 0.00 0.00 0.00 0.00 0.00 0.00 0.04 0.08 0.01 0.00 0.01 0.01 0.00 0.00 0.00 0.00 0.00 0.00 0.00 0.00 0.00 0.04 0.13 0.15 0.20 0.31 0.20 0.07 0.02 0.02 0.04 0.18 0.18 0.28 0.28 0.33 0.32 0.48 0.55
0.00 0.00 0.00 0.01 0.00 0.00 0.00 0.00 0.01 0.01 0.02 0.01 0.03 0.01 0.00 0.00 0.00 0.00 0.00 0.00 0.00 0.00 0.00 0.00 0.00 0.00 0.01 0.10 0.14 0.08 0.25 0.26 0.29 0.18 0.12 0.13 0.30 0.35 0.41 0.56 0.53 0.63 0.78 0.82
0.02 0.04 0.01 0.00 0.00 0.01 0.00 0.00 0.00 0.00 0.00 0.01 0.05 0.01 0.00 0.00 0.00 0.00 0.00 0.00 0.00 0.00 0.00 0.00 0.00 0.00 0.01 0.05 0.12 0.09 0.12 0.15 0.25 0.38 0.40 0.26 0.40 0.40 0.68 0.77 1.02 1.16 1.16 1.25
0.07 0.05 0.02 0.01 0.00 0.00 0.00 0.00 0.00 0.00 0.00 0.00 0.00 0.00 0.00 0.00 0.01 0.00 0.00 0.00 0.00 0.00 0.00 0.00 0.00 0.00 0.04 0.10 0.15 0.15 0.27 0.24 0.31 0.39 0.40 0.32 0.35 0.46 0.59 0.70 0.83 1.22 1.29 1.03
0.09 0.09 0.01 0.01 0.01 0.00 0.00 0.00 0.00 0.00 0.00 0.00 0.00 0.00 0.00 0.00 0.00 0.00 0.00 0.00 0.00 0.00 0.00 0.01 0.01 0.03 0.08 0.14 0.16 0.18 0.25 0.28 0.37 0.42 0.48 0.42 0.56 0.93 0.98 1.04 0.89 0.70 0.49 0.41
0.20 0.12 0.02 0.02 0.00 0.00 0.00 0.00 0.00 0.00 0.00 0.00 0.00 0.00 0.00 0.00 0.00 0.00 0.00 0.00 0.00 0.00 0.00 0.02 0.03 0.03 0.09 0.16 0.14 0.14 0.23 0.27 0.29 0.29 0.30 0.48 0.62 0.54 0.59 0.53 0.39 0.26 0.21 0.22
0.40 0.28 0.17 0.07 0.01 0.05 0.05 0.00 0.00 0.00 0.00 0.00 0.00 0.00 0.00 0.00 0.00 0.00 0.00 0.00 0.00 0.01 0.00 0.02 0.02 0.03 0.04 0.10 0.17 0.19 0.20 0.21 0.20 0.19 0.21 0.28 0.28 0.25 0.20 0.13 0.13 0.17 0.19 0.16
0.33 0.35 0.38 0.19 0.10 0.19 0.03 0.00 0.00 0.00 0.00 0.00 0.00 0.00 0.00 0.00 0.00 0.00 0.00 0.00 0.02 0.02 0.03 0.02 0.00 0.01 0.01 0.05 0.07 0.12 0.11 0.12 0.13 0.12 0.12 0.09 0.07 0.05 0.06 0.10 0.17 0.17 0.16 0.12
0.10 0.22 0.37 0.29 0.19 0.10 0.02 0.01 0.01 0.00 0.00 0.00 0.00 0.02 0.02 0.02 0.02 0.01 0.01 0.03 0.06 0.05 0.04 0.00 0.00 0.00 0.00 0.00 0.01 0.04 0.07 0.07 0.07 0.05 0.05 0.03 0.04 0.06 0.11 0.16 0.19 0.13 0.11 0.13
0.04 0.11 0.31 0.39 0.24 0.07 0.02 0.01 0.01 0.01 0.02 0.03 0.04 0.09 0.14 0.11 0.19 0.12 0.07 0.08 0.06 0.03 0.00 0.00 0.00 0.00 0.00 0.01 0.01 0.01 0.01 0.01 0.02 0.03 0.04 0.05 0.06 0.11 0.15 0.12 0.07 0.06 0.09 0.13
0.22 0.16 0.23 0.24 0.34 0.08 0.01 0.03 0.05 0.21 0.21 0.10 0.14 0.17 0.11 0.16 0.19 0.19 0.18 0.05 0.00 0.00 0.00 0.00 0.00 0.00 0.00 0.01 0.01 0.01 0.01 0.01 0.01 0.03 0.04 0.04 0.05 0.06 0.05 0.04 0.04 0.05 0.06 0.07
0.41 0.61 0.49 0.37 0.46 0.13 0.03 0.16 0.33 0.36 0.17 0.15 0.10 0.07 0.09 0.10 0.19 0.18 0.05 0.02 0.00 0.00 0.00 0.00 0.00 0.00 0.01 0.01 0.00 0.00 0.00 0.00 0.01 0.01 0.02 0.05 0.05 0.03 0.02 0.01 0.01 0.02 0.04 0.06
0.03 0.09 0.20 0.35 0.25 0.06 0.03 0.07 0.07 0.07 0.16 0.17 0.16 0.12 0.18 0.27 0.16 0.04 0.03 0.01 0.00 0.00 0.00 0.00 0.01 0.02 0.02 0.00 0.00 0.00 0.00 0.00 0.01 0.02 0.04 0.04 0.01 0.01 0.00 0.00 0.00 0.01 0.01 0.03
0.05 0.04 0.04 0.05 0.01 0.03 0.09 0.09 0.04 0.07 0.09 0.16 0.22 0.27 0.27 0.15 0.08 0.04 0.02 0.01 0.00 0.00 0.01 0.02 0.03 0.02 0.00 0.00 0.00 0.01 0.01 0.02 0.03 0.03 0.02 0.02 0.01 0.00 0.01 0.02 0.02 0.02 0.03 0.05
0.09 0.11 0.08 0.06 0.02 0.03 0.04 0.08 0.15 0.21 0.32 0.30 0.21 0.17 0.09 0.07 0.06 0.04 0.04 0.02 0.02 0.04 0.05 0.03 0.04 0.04 0.00 0.00 0.00 0.01 0.02 0.02 0.02 0.01 0.01 0.01 0.00 0.03 0.02 0.02 0.03 0.05 0.16 0.18
0.06 0.03 0.06 0.10 0.07 0.23 0.22 0.33 0.42 0.38 0.27 0.16 0.11 0.05 0.03 0.04 0.03 0.03 0.02 0.02 0.04 0.06 0.06 0.04 0.04 0.02 0.01 0.00 0.00 0.01 0.01 0.01 0.01 0.02 0.03 0.04 0.03 0.04 0.05 0.08 0.15 0.17 0.15 0.14

GFSCGP_prec_precacc_099.txt.gz
Total_Precipitation_Accumulation
0.00 0.00 0.00 0.00 0.00 0.00 0.00 0.00 0.00 0.00 0.00 0.00 0.00 0.00 0.02 0.04 0.03 0.13 0.01 0.00 0.00 0.00 0.00 0.01 0.02 0.05 0.08 0.12 0.31 0.81 1.21 1.52 1.15 0.77 0.55 0.82 0.78 0.71 0.74 0.60 0.56 0.45 0.32 0.17
0.00 0.00 0.00 0.00 0.00 0.00 0.00 0.00 0.00 0.00 0.00 0.00 0.00 0.00 0.01 0.02 0.02 0.05 0.02 0.01 0.00 0.00 0.01 0.02 0.04 0.10 0.14 0.27 0.38 0.41 0.37 0.54 0.22 0.15 0.22 0.50 0.57 0.60 0.52 0.57 0.47 0.44 0.37 0.26
0.00 0.02 0.00 0.00 0.00 0.00 0.00 0.00 0.00 0.00 0.00 0.00 0.00 0.00 0.00 0.01 0.03 0.02 0.03 0.01 0.00 0.00 0.00 0.02 0.09 0.13 0.15 0.15 0.17 0.06 0.06 0.27 0.22 0.10 0.16 0.36 0.61 0.53 0.49 0.63 0.53 0.43 0.36 0.35
0.00 0.00 0.00 0.00 0.00 0.00 0.00 0.00 0.00 0.00 0.00 0.01 0.00 0.01 0.02 0.00 0.01 0.01 0.01 0.01 0.01 0.01 0.01 0.01 0.01 0.02 0.02 0.02 0.03 0.02 0.06 0.13 0.18 0.20 0.24 0.28 0.43 0.42 0.34 0.33 0.30 0.28 0.21 0.14
0.01 0.00 0.00 0.00 0.00 0.00 0.03 0.00 0.00 0.00 0.00 0.01 0.01 0.00 0.01 0.00 0.00 0.00 0.00 0.01 0.00 0.01 0.01 0.00 0.01 0.02 0.01 0.04 0.04 0.09 0.13 0.15 0.12 0.17 0.31 0.20 0.23 0.27 0.33 0.23 0.22 0.22 0.20 0.15
0.00 0.00 0.00 0.00 0.00 0.00 0.00 0.00 0.00 0.00 0.00 0.00 0.01 0.01 0.01 0.01 0.01 0.01 0.00 0.00 0.00 0.02 0.01 0.01 0.02 0.02 0.03 0.12 0.17 0.15 0.13 0.14 0.15 0.21 0.26 0.27 0.19 0.14 0.13 0.14 0.12 0.11 0.10 0.09
0.00 0.00 0.00 0.00 0.00 0.00 0.00 0.00 0.01 0.11 0.04 0.02 0.05 0.06 0.02 0.01 0.01 0.05 0.00 0.00 0.00 0.01 0.01 0.02 0.02 0.06 0.09 0.20 0.22 0.16 0.13 0.11 0.15 0.19 0.26 0.20 0.15 0.09 0.08 0.05 0.06 0.05 0.03 0.03
0.00 0.00 0.00 0.00 0.00 0.01 0.00 0.00 0.03 0.08 0.07 0.07 0.08 0.01 0.01 0.00 0.00 0.00 0.00 0.00 0.00 0.00 0.00 0.01 0.04 0.06 0.10 0.30 0.22 0.10 0.04 0.03 0.05 0.08 0.15 0.13 0.13 0.10 0.08 0.07 0.12 0.06 0.04 0.03
0.00 0.00 0.01 0.00 0.00 0.00 0.02 0.04 0.01 0.01 0.02 0.03 0.02 0.01 0.01 0.01 0.00 0.00 0.00 0.00 0.00 0.00 0.00 0.00 0.02 0.05 0.11 0.22 0.16 0.04 0.01 0.00 0.01 0.02 0.06 0.11 0.14 0.07 0.13 0.31 0.18 0.18 0.08 0.06
0.01 0.03 0.01 0.00 0.00 0.00 0.00 0.02 0.02 0.01 0.01 0.02 0.00 0.01 0.01 0.01 0.00 0.00 0.00 0.00 0.00 0.00 0.00 0.00 0.01 0.02 0.07 0.16 0.16 0.19 0.11 0.02 0.00 0.01 0.04 0.04 0.13 0.15 0.17 0.29 0.14 0.17 0.18 0.23
0.00 0.04 0.05 0.00 0.00 0.00 0.00 0.00 0.00 0.00 0.00 0.04 0.08 0.01 0.00 0.01 0.01 0.00 0.00 0.00 0.00 0.00 0.00 0.00 0.00 0.00 0.04 0.13 0.15 0.20 0.31 0.20 0.07 0.02 0.02 0.04 0.18 0.18 0.28 0.28 0.33 0.32 0.48 0.55
0.00 0.00 0.00 0.01 0.00 0.00 0.00 0.00 0.01 0.01 0.02 0.01 0.03 0.01 0.00 0.00 0.00 0.00 0.00 0.00 0.00 0.00 0.00 0.00 0.00 0.00 0.01 0.10 0.14 0.08 0.25 0.26 0.29 0.18 0.12 0.13 0.30 0.35 0.41 0.56 0.53 0.63 0.78 0.82
0.02 0.04 0.01 0.00 0.01 0.01 0.00 0.00 0.00 0.00 0.00 0.01 0.05 0.01 0.00 0.00 0.00 0.00 0.00 0.00 0.00 0.00 0.00 0.00 0.00 0.00 0.01 0.05 0.12 0.09 0.12 0.15 0.25 0.38 0.40 0.26 0.40 0.40 0.68 0.77 1.02 1.16 1.16 1.25
0.07 0.05 0.02 0.01 0.01 0.01 0.00 0.00 0.00 0.00 0.01 0.00 0.00 0.00 0.00 0.00 0.01 0.00 0.00 0.00 0.00 0.00 0.00 0.00 0.00 0.00 0.04 0.10 0.15 0.15 0.27 0.24 0.31 0.39 0.40 0.32 0.35 0.46 0.59 0.70 0.83 1.22 1.29 1.03
0.09 0.09 0.01 0.01 0.01 0.00 0.00 0.00 0.00 0.00 0.00 0.00 0.00 0.00 0.00 0.00 0.00 0.00 0.00 0.00 0.00 0.00 0.00 0.01 0.01 0.03 0.08 0.14 0.16 0.18 0.25 0.28 0.37 0.42 0.48 0.42 0.56 0.93 0.98 1.04 0.89 0.70 0.49 0.41
0.23 0.14 0.02 0.02 0.00 0.00 0.00 0.00 0.00 0.00 0.00 0.00 0.00 0.00 0.00 0.00 0.00 0.00 0.00 0.00 0.00 0.00 0.00 0.02 0.03 0.03 0.09 0.16 0.14 0.14 0.23 0.27 0.29 0.29 0.30 0.48 0.62 0.54 0.59 0.53 0.39 0.26 0.21 0.22
0.43 0.30 0.19 0.08 0.02 0.05 0.05 0.00 0.00 0.00 0.00 0.00 0.00 0.00 0.00 0.00 0.00 0.00 0.00 0.00 0.00 0.01 0.00 0.02 0.02 0.03 0.04 0.10 0.17 0.19 0.20 0.21 0.20 0.19 0.21 0.28 0.28 0.25 0.20 0.13 0.13 0.17 0.19 0.16
0.34 0.37 0.40 0.20 0.11 0.21 0.03 0.00 0.00 0.00 0.00 0.00 0.00 0.00 0.00 0.00 0.00 0.00 0.00 0.00 0.02 0.02 0.03 0.02 0.00 0.01 0.01 0.05 0.07 0.12 0.11 0.12 0.13 0.12 0.12 0.09 0.07 0.05 0.06 0.10 0.17 0.17 0.17 0.13
0.11 0.24 0.41 0.30 0.20 0.10 0.02 0.01 0.01 0.00 0.00 0.00 0.01 0.03 0.02 0.02 0.02 0.01 0.01 0.03 0.06 0.05 0.04 0.00 0.00 0.00 0.00 0.00 0.01 0.04 0.07 0.07 0.07 0.05 0.05 0.03 0.04 0.06 0.11 0.16 0.19 0.16 0.13 0.16
0.04 0.12 0.35 0.41 0.25 0.08 0.02 0.01 0.02 0.01 0.04 0.06 0.07 0.12 0.16 0.11 0.21 0.12 0.07 0.08 0.06 0.03 0.00 0.00 0.00 0.00 0.00 0.01 0.01 0.01 0.01 0.01 0.02 0.03 0.04 0.05 0.06 0.11 0.15 0.12 0.08 0.07 0.11 0.16
0.27 0.22 0.26 0.26 0.37 0.09 0.01 0.03 0.05 0.24 0.26 0.10 0.15 0.17 0.12 0.16 0.22 0.19 0.18 0.05 0.00 0.00 0.00 0.00 0.00 0.00 0.00 0.01 0.01 0.01 0.01 0.01 0.01 0.03 0.04 0.04 0.05 0.06 0.05 0.05 0.05 0.07 0.08 0.09
0.45 0.65 0.52 0.40 0.51 0.15 0.03 0.18 0.35 0.39 0.18 0.15 0.10 0.07 0.09 0.11 0.20 0.19 0.05 0.02 0.00 0.00 0.00 0.00 0.00 0.00 0.01 0.01 0.00 0.00 0.00 0.00 0.01 0.01 0.02 0.05 0.05 0.03 0.02 0.01 0.01 0.02 0.04 0.06
0.05 0.11 0.23 0.37 0.26 0.06 0.03 0.11 0.13 0.14 0.17 0.17 0.16 0.13 0.18 0.28 0.18 0.05 0.04 0.01 0.00 0.00 0.00 0.00 0.01 0.02 0.02 0.00 0.00 0.00 0.01 0.01 0.01 0.02 0.04 0.04 0.01 0.01 0.00 0.00 0.00 0.01 0.01 0.03
0.05 0.04 0.04 0.06 0.01 0.03 0.10 0.11 0.08 0.13 0.10 0.16 0.23 0.31 0.34 0.21 0.10 0.04 0.02 0.02 0.01 0.00 0.01 0.02 0.03 0.02 0.01 0.00 0.00 0.01 0.01 0.02 0.03 0.03 0.02 0.02 0.01 0.00 0.01 0.02 0.02 0.02 0.03 0.05
0.09 0.12 0.08 0.06 0.02 0.03 0.04 0.08 0.16 0.21 0.32 0.30 0.23 0.21 0.22 0.23 0.10 0.07 0.07 0.04 0.03 0.05 0.06 0.03 0.05 0.04 0.01 0.01 0.00 0.01 0.02 0.02 0.02 0.01 0.01 0.01 0.00 0.03 0.02 0.02 0.03 0.05 0.16 0.19
0.06 0.03 0.07 0.10 0.07 0.23 0.22 0.33 0.42 0.38 0.27 0.16 0.12 0.19 0.12 0.06 0.05 0.06 0.08 0.16 0.17 0.11 0.13 0.13 0.08 0.03 0.01 0.00 0.00 0.01 0.01 0.01 0.01 0.02 0.03 0.04 0.03 0.04 0.05 0.08 0.15 0.17 0.16 0.14

GFSCGP_prec_precacc_102.txt.gz
Total_Precipitation_Accumulation
0.00 0.00 0.00 0.00 0.00 0.00 0.00 0.00 0.00 0.00 0.00 0.00 0.00 0.00 0.02 0.04 0.03 0.13 0.01 0.00 0.00 0.00 0.00 0.01 0.02 0.05 0.08 0.12 0.31 0.81 1.21 1.52 1.15 0.77 0.56 0.83 0.79 0.72 0.81 0.68 0.60 0.47 0.36 0.22
0.00 0.00 0.00 0.00 0.00 0.00 0.00 0.00 0.00 0.00 0.00 0.00 0.00 0.00 0.01 0.02 0.02 0.05 0.02 0.01 0.00 0.00 0.01 0.02 0.04 0.10 0.14 0.27 0.38 0.41 0.37 0.54 0.22 0.15 0.23 0.51 0.58 0.64 0.64 0.75 0.58 0.46 0.39 0.30
0.00 0.02 0.00 0.00 0.00 0.00 0.00 0.00 0.00 0.00 0.00 0.00 0.00 0.00 0.00 0.01 0.03 0.02 0.03 0.01 0.00 0.00 0.00 0.02 0.09 0.13 0.15 0.15 0.17 0.06 0.06 0.27 0.22 0.10 0.16 0.40 0.65 0.72 0.81 0.95 0.76 0.50 0.43 0.40
0.00 0.00 0.00 0.00 0.00 0.00 0.00 0.00 0.00 0.00 0.00 0.01 0.00 0.01 0.02 0.00 0.01 0.01 0.01 0.01 0.01 0.01 0.01 0.01 0.01 0.02 0.02 0.02 0.03 0.02 0.06 0.13 0.18 0.20 0.24 0.32 0.62 0.64 0.71 0.67 0.46 0.44 0.36 0.24
0.01 0.00 0.00 0.00 0.00 0.00 0.03 0.00 0.00 0.00 0.00 0.01 0.01 0.00 0.01 0.00 0.00 0.00 0.00 0.01 0.00 0.01 0.01 0.00 0.01 0.02 0.01 0.04 0.04 0.10 0.13 0.15 0.12 0.17 0.31 0.22 0.31 0.44 0.60 0.63 0.58 0.46 0.40 0.26
0.00 0.00 0.00 0.00 0.00 0.00 0.00 0.00 0.00 0.00 0.00 0.00 0.01 0.01 0.01 0.01 0.01 0.01 0.00 0.00 0.00 0.02 0.01 0.01 0.02 0.02 0.03 0.12 0.17 0.16 0.13 0.14 0.15 0.21 0.27 0.27 0.19 0.16 0.22 0.37 0.41 0.37 0.30 0.21
0.00 0.00 0.00 0.00 0.00 0.00 0.00 0.00 0.01 0.11 0.04 0.02 0.05 0.06 0.02 0.01 0.01 0.05 0.00 0.00 0.00 0.01 0.01 0.02 0.02 0.06 0.09 0.20 0.22 0.16 0.13 0.12 0.15 0.19 0.26 0.20 0.15 0.09 0.08 0.08 0.14 0.18 0.16 0.10
0.00 0.00 0.00 0.00 0.00 0.01 0.00 0.00 0.03 0.09 0.07 0.08 0.08 0.02 0.01 0.00 0.00 0.00 0.00 0.00 0.00 0.00 0.00 0.01 0.04 0.06 0.10 0.30 0.22 0.10 0.04 0.04 0.05 0.08 0.15 0.13 0.13 0.10 0.09 0.07 0.13 0.07 0.08 0.06
0.00 0.00 0.01 0.00 0.00 0.00 0.02 0.04 0.01 0.01 0.02 0.04 0.02 0.01 0.01 0.01 0.00 0.00 0.00 0.00 0.00 0.00 0.00 0.00 0.02 0.05 0.11 0.22 0.16 0.04 0.01 0.00 0.01 0.02 0.06 0.11 0.14 0.07 0.13 0.31 0.18 0.18 0.08 0.07
0.01 0.03 0.01 0.00 0.00 0.00 0.00 0.02 0.02 0.01 0.02 0.03 0.00 0.01 0.01 0.01 0.00 0.00 0.00 0.00 0.00 0.00 0.00 0.00 0.01 0.02 0.07 0.16 0.16 0.19 0.11 0.02 0.00 0.01 0.04 0.04 0.13 0.15 0.17 0.29 0.14 0.17 0.19 0.23
0.00 0.04 0.05 0.00 0.00 0.00 0.00 0.00 0.00 0.00 0.00 0.05 0.08 0.01 0.00 0.01 0.01 0.00 0.00 0.00 0.00 0.00 0.00 0.00 0.00 0.00 0.04 0.13 0.15 0.20 0.31 0.20 0.07 0.02 0.02 0.04 0.18 0.18 0.28 0.28 0.33 0.32 0.48 0.55
0.00 0.00 0.01 0.01 0.01 0.01 0.01 0.00 0.01 0.01 0.02 0.01 0.03 0.02 0.00 0.00 0.00 0.00 0.00 0.00 0.00 0.00 0.00 0.00 0.00 0.00 0.01 0.10 0.14 0.08 0.25 0.26 0.29 0.18 0.12 0.13 0.30 0.35 0.41 0.56 0.53 0.63 0.78 0.82
0.02 0.04 0.01 0.00 0.01 0.01 0.00 0.00 0.00 0.00 0.00 0.01 0.06 0.01 0.00 0.00 0.00 0.00 0.00 0.00 0.00 0.00 0.00 0.00 0.00 0.00 0.01 0.05 0.12 0.09 0.12 0.15 0.25 0.38 0.40 0.26 0.40 0.40 0.68 0.77 1.02 1.16 1.16 1.25
0.07 0.05 0.02 0.01 0.01 0.02 0.01 0.00 0.00 0.01 0.10 0.03 0.00 0.00 0.00 0.00 0.01 0.00 0.00 0.00 0.00 0.00 0.00 0.00 0.00 0.00 0.04 0.10 0.15 0.15 0.27 0.24 0.31 0.39 0.40 0.32 0.35 0.46 0.59 0.70 0.83 1.22 1.29 1.03
0.09 0.09 0.01 0.01 0.01 0.00 0.01 0.00 0.00 0.00 0.01 0.05 0.00 0.00 0.00 0.00 0.00 0.00 0.00 0.00 0.00 0.00 0.00 0.01 0.01 0.03 0.08 0.14 0.16 0.18 0.25 0.28 0.37 0.42 0.48 0.42 0.56 0.93 0.98 1.04 0.89 0.70 0.49 0.41
0.23 0.15 0.03 0.02 0.00 0.00 0.00 0.00 0.00 0.00 0.00 0.00 0.00 0.00 0.00 0.00 0.00 0.00 0.00 0.00 0.00 0.00 0.00 0.02 0.03 0.03 0.09 0.16 0.14 0.14 0.23 0.27 0.29 0.29 0.30 0.48 0.62 0.54 0.59 0.53 0.39 0.26 0.21 0.22
0.49 0.34 0.21 0.09 0.02 0.05 0.05 0.00 0.00 0.00 0.00 0.00 0.00 0.00 0.00 0.00 0.00 0.00 0.00 0.00 0.00 0.01 0.00 0.02 0.02 0.03 0.04 0.10 0.17 0.19 0.20 0.21 0.20 0.19 0.21 0.28 0.28 0.25 0.20 0.13 0.13 0.17 0.19 0.16
0.40 0.44 0.47 0.23 0.13 0.22 0.03 0.00 0.00 0.00 0.00 0.00 0.00 0.00 0.00 0.00 0.00 0.00 0.00 0.00 0.02 0.02 0.03 0.02 0.00 0.01 0.01 0.05 0.07 0.12 0.11 0.12 0.13 0.12 0.12 0.09 0.07 0.05 0.06 0.10 0.17 0.17 0.17 0.14
0.11 0.26 0.46 0.32 0.20 0.11 0.02 0.01 0.01 0.02 0.02 0.02 0.03 0.04 0.02 0.02 0.02 0.01 0.01 0.03 0.06 0.05 0.04 0.00 0.00 0.00 0.00 0.00 0.01 0.04 0.07 0.07 0.07 0.05 0.05 0.03 0.04 0.06 0.11 0.16 0.19 0.16 0.14 0.17
0.05 0.14 0.40 0.46 0.27 0.08 0.02 0.02 0.02 0.02 0.12 0.11 0.10 0.15 0.16 0.11 0.22 0.12 0.07 0.08 0.06 0.03 0.00 0.00 0.00 0.00 0.00 0.01 0.01 0.01 0.01 0.01 0.02 0.03 0.04 0.05 0.06 0.11 0.15 0.12 0.08 0.08 0.12 0.18
0.29 0.28 0.29 0.28 0.41 0.09 0.01 0.03 0.05 0.26 0.33 0.13 0.15 0.18 0.12 0.16 0.22 0.19 0.18 0.05 0.00 0.00 0.00 0.00 0.00 0.00 0.00 0.01 0.01 0.01 0.01 0.01 0.01 0.03 0.04 0.04 0.05 0.07 0.06 0.05 0.06 0.09 0.10 0.12
0.53 0.72 0.57 0.42 0.55 0.17 0.03 0.18 0.37 0.41 0.18 0.15 0.10 0.07 0.09 0.11 0.20 0.19 0.05 0.02 0.00 0.00 0.00 0.00 0.00 0.00 0.01 0.01 0.00 0.00 0.00 0.01 0.01 0.01 0.02 0.06 0.05 0.03 0.03 0.03 0.04 0.05 0.07 0.09
0.15 0.13 0.28 0.39 0.27 0.06 0.04 0.12 0.14 0.14 0.17 0.17 0.16 0.13 0.19 0.28 0.19 0.07 0.04 0.01 0.00 0.00 0.00 0.00 0.01 0.02 0.02 0.00 0.00 0.00 0.01 0.01 0.02 0.02 0.05 0.05 0.02 0.01 0.02 0.03 0.03 0.04 0.04 0.04
0.08 0.07 0.06 0.08 0.02 0.05 0.11 0.11 0.08 0.13 0.10 0.16 0.23 0.31 0.34 0.24 0.16 0.09 0.03 0.02 0.01 0.01 0.01 0.02 0.03 0.02 0.01 0.00 0.00 0.01 0.02 0.04 0.04 0.03 0.03 0.03 0.03 0.02 0.02 0.03 0.02 0.03 0.04 0.05
0.11 0.14 0.11 0.09 0.04 0.03 0.05 0.08 0.16 0.22 0.32 0.30 0.23 0.22 0.27 0.35 0.31 0.24 0.16 0.05 0.03 0.05 0.06 0.04 0.05 0.04 0.02 0.03 0.02 0.02 0.03 0.05 0.04 0.03 0.03 0.03 0.02 0.04 0.03 0.02 0.04 0.06 0.17 0.19
0.06 0.03 0.08 0.13 0.11 0.24 0.23 0.33 0.42 0.38 0.27 0.16 0.12 0.22 0.17 0.09 0.09 0.14 0.18 0.23 0.24 0.18 0.17 0.15 0.11 0.05 0.04 0.04 0.05 0.05 0.05 0.04 0.03 0.04 0.04 0.05 0.03 0.05 0.06 0.09 0.17 0.19 0.16 0.14

GFSCGP_prec_precacc_105.txt.gz
Total_Precipitation_Accumulation
0.00 0.00 0.00 0.00 0.00 0.00 0.00 0.00 0.00 0.00 0.00 0.00 0.00 0.00 0.02 0.04 0.03 0.13 0.01 0.00 0.00 0.00 0.00 0.01 0.02 0.05 0.08 0.12 0.31 0.81 1.22 1.52 1.15 0.77 0.56 0.83 0.79 0.75 0.84 0.69 0.60 0.48 0.36 0.25
0.00 0.00 0.00 0.00 0.00 0.00 0.00 0.00 0.00 0.00 0.00 0.00 0.00 0.00 0.01 0.02 0.02 0.05 0.02 0.01 0.00 0.00 0.01 0.02 0.04 0.10 0.14 0.27 0.38 0.41 0.37 0.54 0.22 0.15 0.23 0.51 0.58 0.65 0.68 0.84 0.60 0.46 0.40 0.31
0.00 0.02 0.00 0.00 0.00 0.00 0.00 0.00 0.00 0.00 0.00 0.00 0.00 0.00 0.00 0.01 0.03 0.02 0.03 0.01 0.00 0.00 0.00 0.02 0.09 0.13 0.15 0.15 0.17 0.06 0.06 0.27 0.22 0.10 0.16 0.40 0.66 0.72 0.84 1.17 1.00 0.53 0.44 0.41
0.00 0.00 0.00 0.00 0.00 0.00 0.00 0.00 0.00 0.00 0.00 0.01 0.00 0.02 0.02 0.00 0.01 0.01 0.01 0.01 0.01 0.01 0.01 0.01 0.01 0.02 0.02 0.02 0.03 0.02 0.07 0.13 0.18 0.20 0.24 0.32 0.62 0.65 0.73 0.75 0.86 0.59 0.42 0.28
0.01 0.00 0.00 0.00 0.00 0.00 0.03 0.00 0.00 0.00 0.00 0.01 0.01 0.01 0.01 0.00 0.00 0.00 0.00 0.01 0.00 0.01 0.01 0.00 0.01 0.02 0.01 0.04 0.04 0.10 0.13 0.15 0.12 0.17 0.31 0.22 0.31 0.45 0.63 0.76 0.81 0.81 0.58 0.34
0.00 0.00 0.00 0.00 0.00 0.00 0.00 0.00 0.00 0.00 0.00 0.00 0.01 0.01 0.01 0.01 0.01 0.01 0.00 0.00 0.00 0.02 0.01 0.01 0.02 0.02 0.03 0.12 0.17 0.16 0.13 0.14 0.15 0.21 0.27 0.27 0.21 0.17 0.24 0.48 0.72 0.74 0.64 0.42
0.00 0.00 0.00 0.00 0.00 0.00 0.00 0.00 0.01 0.11 0.04 0.02 0.05 0.06 0.02 0.01 0.01 0.05 0.00 0.00 0.00 0.01 0.01 0.02 0.02 0.06 0.09 0.20 0.22 0.16 0.13 0.12 0.15 0.19 0.26 0.20 0.15 0.09 0.08 0.10 0.22 0.40 0.48 0.43
0.00 0.00 0.00 0.00 0.00 0.01 0.00 0.00 0.03 0.09 0.07 0.09 0.08 0.02 0.01 0.00 0.00 0.00 0.00 0.00 0.00 0.00 0.00 0.01 0.04 0.06 0.10 0.30 0.22 0.10 0.04 0.04 0.05 0.08 0.15 0.13 0.13 0.10 0.09 0.08 0.14 0.11 0.15 0.20
0.00 0.00 0.01 0.00 0.00 0.00 0.02 0.04 0.01 0.01 0.02 0.04 0.02 0.01 0.01 0.01 0.00 0.00 0.00 0.00 0.00 0.00 0.00 0.00 0.02 0.05 0.11 0.22 0.16 0.04 0.01 0.00 0.01 0.02 0.06 0.11 0.14 0.07 0.13 0.31 0.18 0.18 0.09 0.09
0.01 0.03 0.01 0.00 0.00 0.00 0.00 0.02 0.02 0.02 0.03 0.04 0.00 0.01 0.03 0.05 0.00 0.00 0.00 0.00 0.00 0.00 0.00 0.00 0.01 0.02 0.07 0.16 0.16 0.19 0.11 0.02 0.00 0.01 0.04 0.04 0.13 0.15 0.17 0.29 0.14 0.17 0.19 0.23
0.00 0.04 0.05 0.00 0.01 0.02 0.01 0.00 0.00 0.01 0.00 0.05 0.08 0.01 0.00 0.04 0.05 0.02 0.00 0.00 0.00 0.00 0.00 0.00 0.00 0.00 0.04 0.13 0.15 0.20 0.31 0.20 0.07 0.02 0.02 0.04 0.18 0.18 0.28 0.28 0.33 0.32 0.48 0.55
0.00 0.00 0.01 0.01 0.01 0.03 0.04 0.03 0.01 0.01 0.02 0.01 0.04 0.02 0.00 0.00 0.01 0.01 0.00 0.00 0.00 0.00 0.01 0.00 0.00 0.00 0.01 0.10 0.14 0.08 0.25 0.26 0.29 0.18 0.12 0.13 0.30 0.35 0.41 0.56 0.53 0.63 0.78 0.82
0.02 0.04 0.02 0.00 0.01 0.01 0.01 0.02 0.06 0.02 0.00 0.01 0.06 0.02 0.00 0.00 0.01 0.01 0.00 0.00 0.00 0.00 0.00 0.00 0.00 0.00 0.01 0.05 0.12 0.09 0.12 0.15 0.25 0.38 0.40 0.26 0.40 0.40 0.68 0.77 1.02 1.16 1.16 1.25
0.07 0.05 0.03 0.02 0.01 0.02 0.01 0.01 0.05 0.09 0.22 0.11 0.02 0.00 0.00 0.00 0.02 0.02 0.00 0.00 0.00 0.00 0.00 0.03 0.02 0.00 0.04 0.10 0.15 0.15 0.27 0.24 0.31 0.39 0.40 0.32 0.35 0.46 0.59 0.70 0.83 1.22 1.29 1.03
0.09 0.09 0.01 0.01 0.01 0.00 0.01 0.00 0.00 0.00 0.04 0.25 0.12 0.01 0.00 0.00 0.00 0.01 0.00 0.00 0.00 0.00 0.01 0.02 0.06 0.06 0.08 0.14 0.16 0.18 0.25 0.28 0.37 0.42 0.48 0.42 0.56 0.93 0.98 1.04 0.89 0.70 0.49 0.41
0.23 0.15 0.03 0.02 0.00 0.00 0.00 0.00 0.00 0.00 0.00 0.00 0.00 0.00 0.00 0.00 0.00 0.00 0.00 0.00 0.00 0.00 0.00 0.02 0.04 0.06 0.11 0.16 0.14 0.14 0.23 0.27 0.29 0.29 0.30 0.48 0.62 0.54 0.59 0.53 0.39 0.26 0.21 0.22
0.50 0.35 0.22 0.09 0.02 0.05 0.05 0.00 0.00 0.00 0.00 0.00 0.00 0.00 0.00 0.00 0.00 0.00 0.00 0.00 0.00 0.01 0.00 0.02 0.02 0.05 0.14 0.14 0.17 0.19 0.20 0.21 0.20 0.19 0.21 0.28 0.28 0.25 0.20 0.13 0.13 0.18 0.19 0.16
0.40 0.47 0.51 0.25 0.16 0.25 0.03 0.00 0.00 0.00 0.00 0.01 0.01 0.00 0.00 0.00 0.00 0.00 0.00 0.00 0.02 0.02 0.03 0.02 0.00 0.01 0.02 0.07 0.09 0.12 0.11 0.13 0.13 0.12 0.12 0.09 0.07 0.05 0.06 0.10 0.17 0.17 0.18 0.14
0.11 0.27 0.54 0.39 0.23 0.11 0.02 0.01 0.02 0.03 0.11 0.06 0.04 0.04 0.02 0.02 0.02 0.01 0.01 0.03 0.06 0.05 0.04 0.00 0.00 0.00 0.00 0.00 0.06 0.13 0.11 0.10 0.12 0.07 0.05 0.03 0.04 0.06 0.11 0.16 0.20 0.17 0.16 0.18
0.05 0.14 0.42 0.49 0.29 0.08 0.02 0.03 0.02 0.02 0.16 0.13 0.10 0.16 0.16 0.11 0.22 0.12 0.07 0.08 0.06 0.03 0.00 0.00 0.00 0.00 0.01 0.02 0.04 0.04 0.04 0.03 0.04 0.04 0.04 0.05 0.06 0.11 0.15 0.13 0.10 0.10 0.15 0.20
0.31 0.29 0.30 0.29 0.46 0.11 0.01 0.04 0.06 0.26 0.33 0.13 0.15 0.18 0.12 0.16 0.22 0.19 0.18 0.05 0.00 0.00 0.00 0.00 0.00 0.00 0.00 0.02 0.04 0.04 0.03 0.02 0.07 0.09 0.07 0.07 0.07 0.07 0.06 0.08 0.09 0.12 0.14 0.16
0.61 0.74 0.58 0.44 0.57 0.17 0.05 0.19 0.39 0.43 0.18 0.16 0.10 0.07 0.09 0.11 0.20 0.19 0.05 0.02 0.00 0.00 0.00 0.00 0.00 0.00 0.01 0.02 0.02 0.05 0.07 0.07 0.10 0.08 0.10 0.13 0.12 0.07 0.05 0.04 0.06 0.08 0.10 0.13
0.32 0.16 0.31 0.39 0.27 0.08 0.08 0.18 0.19 0.14 0.17 0.17 0.16 0.13 0.19 0.28 0.19 0.07 0.04 0.01 0.00 0.00 0.00 0.00 0.01 0.02 0.02 0.00 0.00 0.02 0.02 0.05 0.06 0.09 0.14 0.12 0.08 0.05 0.03 0.04 0.04 0.06 0.06 0.07
0.33 0.17 0.28 0.22 0.07 0.10 0.15 0.13 0.09 0.13 0.10 0.16 0.23 0.31 0.34 0.25 0.16 0.11 0.04 0.02 0.01 0.01 0.01 0.02 0.03 0.02 0.01 0.00 0.00 0.01 0.02 0.04 0.05 0.05 0.06 0.05 0.06 0.04 0.05 0.06 0.06 0.06 0.06 0.07
0.25 0.32 0.28 0.20 0.14 0.08 0.08 0.10 0.16 0.22 0.32 0.30 0.23 0.23 0.27 0.36 0.31 0.26 0.23 0.09 0.03 0.05 0.06 0.05 0.06 0.05 0.03 0.03 0.02 0.02 0.05 0.07 0.07 0.06 0.06 0.06 0.06 0.08 0.08 0.08 0.10 0.12 0.22 0.22
0.07 0.04 0.09 0.17 0.20 0.30 0.23 0.33 0.42 0.38 0.27 0.16 0.13 0.22 0.17 0.09 0.10 0.15 0.19 0.29 0.30 0.21 0.19 0.16 0.12 0.07 0.06 0.06 0.07 0.07 0.08 0.08 0.07 0.07 0.08 0.10 0.08 0.09 0.11 0.16 0.26 0.28 0.26 0.23

GFSCGP_prec_precacc_108.txt.gz
Total_Precipitation_Accumulation
0.00 0.00 0.00 0.00 0.00 0.00 0.00 0.00 0.00 0.00 0.00 0.00 0.00 0.00 0.02 0.04 0.03 0.13 0.01 0.00 0.00 0.00 0.00 0.01 0.02 0.05 0.08 0.12 0.31 0.81 1.22 1.52 1.15 0.77 0.57 0.84 0.80 0.75 0.85 0.70 0.62 0.55 0.42 0.27
0.00 0.00 0.00 0.00 0.00 0.00 0.00 0.00 0.00 0.00 0.00 0.00 0.00 0.00 0.01 0.02 0.02 0.05 0.02 0.01 0.00 0.00 0.01 0.02 0.04 0.10 0.14 0.27 0.38 0.41 0.37 0.54 0.22 0.15 0.23 0.51 0.60 0.66 0.69 0.84 0.61 0.47 0.42 0.32
0.00 0.02 0.00 0.00 0.00 0.00 0.00 0.00 0.00 0.00 0.00 0.00 0.00 0.00 0.00 0.01 0.03 0.02 0.03 0.01 0.00 0.00 0.00 0.02 0.09 0.13 0.15 0.15 0.17 0.06 0.06 0.27 0.22 0.10 0.16 0.40 0.66 0.76 0.89 1.21 1.01 0.54 0.45 0.41
0.00 0.00 0.00 0.00 0.00 0.00 0.00 0.00 0.00 0.00 0.00 0.01 0.00 0.02 0.02 0.00 0.01 0.01 0.01 0.01 0.01 0.01 0.01 0.01 0.01 0.02 0.02 0.02 0.03 0.02 0.07 0.13 0.18 0.20 0.24 0.32 0.62 0.65 0.75 0.79 0.99 0.64 0.45 0.29
0.01 0.00 0.00 0.00 0.00 0.00 0.03 0.00 0.00 0.00 0.00 0.01 0.01 0.01 0.01 0.00 0.00 0.00 0.00 0.01 0.00 0.01 0.01 0.00 0.01 0.02 0.01 0.04 0.04 0.10 0.13 0.15 0.12 0.17 0.32 0.22 0.31 0.45 0.64 0.78 1.08 1.15 0.78 0.47
0.00 0.00 0.00 0.00 0.00 0.00 0.00 0.00 0.00 0.00 0.00 0.00 0.01 0.01 0.01 0.01 0.01 0.01 0.00 0.00 0.00 0.02 0.01 0.01 0.02 0.02 0.03 0.12 0.17 0.16 0.13 0.14 0.15 0.21 0.27 0.28 0.21 0.17 0.24 0.49 0.76 1.26 1.11 0.72
0.00 0.00 0.00 0.00 0.00 0.00 0.00 0.00 0.01 0.11 0.04 0.02 0.05 0.06 0.02 0.01 0.01 0.05 0.00 0.00 0.00 0.01 0.01 0.02 0.02 0.06 0.09 0.20 0.22 0.16 0.13 0.12 0.16 0.20 0.26 0.20 0.15 0.09 0.08 0.11 0.26 0.53 0.95 0.81
0.00 0.00 0.00 0.00 0.00 0.01 0.00 0.00 0.03 0.09 0.07 0.09 0.08 0.02 0.01 0.00 0.00 0.00 0.00 0.00 0.00 0.00 0.00 0.01 0.04 0.06 0.10 0.30 0.22 0.10 0.04 0.04 0.06 0.09 0.16 0.13 0.13 0.10 0.09 0.08 0.16 0.16 0.28 0.50
0.00 0.00 0.01 0.00 0.00 0.00 0.02 0.04 0.01 0.01 0.02 0.05 0.02 0.01 0.01 0.01 0.00 0.00 0.00 0.00 0.00 0.00 0.00 0.00 0.02 0.05 0.11 0.22 0.16 0.04 0.01 0.00 0.01 0.03 0.07 0.11 0.14 0.07 0.13 0.31 0.20 0.28 0.16 0.27
0.01 0.03 0.01 0.00 0.00 0.00 0.00 0.02 0.02 0.02 0.04 0.04 0.00 0.01 0.04 0.05 0.01 0.02 0.02 0.00 0.00 0.00 0.00 0.00 0.01 0.02 0.07 0.16 0.16 0.19 0.11 0.02 0.00 0.01 0.04 0.04 0.13 0.15 0.17 0.29 0.14 0.20 0.22 0.33
0.00 0.04 0.05 0.01 0.01 0.02 0.02 0.00 0.00 0.01 0.01 0.06 0.08 0.01 0.02 0.04 0.09 0.07 0.04 0.00 0.01 0.00 0.01 0.01 0.00 0.00 0.04 0.13 0.15 0.20 0.31 0.20 0.07 0.02 0.02 0.05 0.18 0.18 0.28 0.28 0.33 0.32 0.48 0.58
0.00 0.00 0.01 0.01 0.01 0.03 0.05 0.05 0.04 0.04 0.02 0.01 0.04 0.02 0.00 0.01 0.03 0.12 0.12 0.00 0.01 0.00 0.02 0.04 0.02 0.00 0.01 0.10 0.14 0.08 0.25 0.26 0.29 0.18 0.12 0.14 0.30 0.35 0.41 0.56 0.53 0.63 0.78 0.82
0.02 0.04 0.02 0.00 0.01 0.01 0.02 0.03 0.07 0.06 0.02 0.01 0.06 0.02 0.00 0.00 0.02 0.07 0.14 0.03 0.01 0.00 0.01 0.02 0.04 0.01 0.02 0.05 0.12 0.09 0.12 0.15 0.25 0.38 0.40 0.26 0.40 0.40 0.68 0.77 1.02 1.16 1.16 1.25
0.07 0.05 0.03 0.02 0.01 0.02 0.01 0.01 0.05 0.15 0.31 0.14 0.02 0.00 0.00 0.00 0.02 0.05 0.10 0.03 0.04 0.01 0.01 0.05 0.08 0.08 0.09 0.12 0.15 0.15 0.27 0.24 0.31 0.39 0.40 0.32 0.35 0.46 0.59 0.70 0.83 1.22 1.29 1.03
0.09 0.09 0.01 0.01 0.01 0.00 0.01 0.00 0.00 0.02 0.07 0.26 0.13 0.01 0.00 0.00 0.01 0.01 0.06 0.03 0.01 0.01 0.01 0.02 0.09 0.16 0.16 0.19 0.20 0.19 0.25 0.28 0.37 0.42 0.48 0.42 0.56 0.93 0.98 1.04 0.89 0.70 0.49 0.41
0.23 0.15 0.03 0.02 0.00 0.00 0.00 0.00 0.00 0.00 0.00 0.00 0.00 0.00 0.00 0.00 0.00 0.00 0.01 0.01 0.02 0.01 0.00 0.02 0.04 0.10 0.16 0.23 0.21 0.19 0.26 0.27 0.29 0.29 0.30 0.48 0.62 0.54 0.59 0.53 0.39 0.26 0.21 0.22
0.50 0.36 0.22 0.09 0.02 0.05 0.05 0.00 0.00 0.00 0.00 0.00 0.00 0.00 0.00 0.00 0.01 0.01 0.02 0.02 0.02 0.01 0.00 0.02 0.02 0.05 0.16 0.19 0.22 0.26 0.28 0.27 0.21 0.19 0.21 0.28 0.28 0.25 0.20 0.13 0.13 0.18 0.19 0.16
0.40 0.48 0.52 0.26 0.16 0.25 0.03 0.00 0.00 0.00 0.01 0.01 0.02 0.01 0.00 0.00 0.05 0.03 0.00 0.00 0.03 0.02 0.03 0.02 0.00 0.01 0.02 0.09 0.15 0.23 0.27 0.29 0.21 0.14 0.12 0.09 0.07 0.05 0.06 0.10 0.17 0.17 0.18 0.15
0.11 0.27 0.54 0.41 0.26 0.12 0.02 0.02 0.03 0.04 0.14 0.10 0.06 0.06 0.03 0.03 0.04 0.03 0.01 0.03 0.06 0.05 0.04 0.00 0.00 0.00 0.00 0.01 0.09 0.24 0.29 0.31 0.27 0.16 0.09 0.05 0.04 0.06 0.11 0.16 0.20 0.17 0.16 0.20
0.05 0.14 0.43 0.49 0.33 0.09 0.04 0.04 0.03 0.03 0.17 0.16 0.12 0.16 0.16 0.12 0.23 0.12 0.07 0.08 0.06 0.03 0.00 0.00 0.00 0.00 0.01 0.05 0.09 0.06 0.07 0.11 0.14 0.13 0.10 0.08 0.07 0.11 0.15 0.13 0.10 0.11 0.16 0.21
0.36 0.29 0.30 0.29 0.47 0.11 0.01 0.04 0.07 0.29 0.35 0.14 0.15 0.18 0.12 0.16 0.22 0.19 0.18 0.05 0.00 0.00 0.00 0.00 0.00 0.00 0.00 0.05 0.09 0.10 0.09 0.08 0.16 0.17 0.17 0.13 0.09 0.07 0.07 0.08 0.10 0.14 0.16 0.18
0.77 0.84 0.59 0.44 0.58 0.17 0.05 0.22 0.45 0.46 0.19 0.16 0.10 0.07 0.09 0.11 0.20 0.19 0.05 0.02 0.00 0.00 0.00 0.00 0.00 0.00 0.01 0.02 0.05 0.11 0.16 0.15 0.20 0.17 0.18 0.20 0.16 0.09 0.05 0.05 0.07 0.09 0.12 0.16
0.64 0.21 0.32 0.39 0.27 0.08 0.09 0.24 0.30 0.15 0.17 0.17 0.16 0.13 0.19 0.28 0.19 0.07 0.04 0.01 0.00 0.00 0.00 0.00 0.01 0.02 0.02 0.00 0.00 0.04 0.07 0.08 0.11 0.16 0.21 0.18 0.13 0.11 0.09 0.09 0.08 0.11 0.12 0.12
0.55 0.33 0.37 0.28 0.08 0.11 0.16 0.14 0.14 0.14 0.10 0.16 0.23 0.31 0.34 0.25 0.16 0.11 0.04 0.02 0.01 0.01 0.01 0.02 0.03 0.02 0.01 0.00 0.01 0.01 0.02 0.05 0.06 0.06 0.07 0.07 0.09 0.07 0.08 0.10 0.10 0.10 0.11 0.12
0.38 0.48 0.53 0.54 0.65 0.33 0.16 0.14 0.16 0.22 0.32 0.30 0.24 0.23 0.27 0.36 0.31 0.26 0.23 0.09 0.03 0.05 0.06 0.05 0.06 0.05 0.03 0.03 0.03 0.03 0.06 0.09 0.08 0.07 0.06 0.07 0.08 0.10 0.11 0.17 0.23 0.28 0.43 0.42
0.10 0.13 0.22 0.43 0.32 0.40 0.26 0.33 0.42 0.38 0.27 0.17 0.14 0.22 0.17 0.09 0.10 0.15 0.19 0.29 0.30 0.22 0.19 0.17 0.13 0.07 0.06 0.06 0.08 0.08 0.10 0.12 0.12 0.11 0.14 0.17 0.13 0.15 0.18 0.25 0.44 0.50 0.54 0.55

GFSCGP_prec_precacc_111.txt.gz
Total_Precipitation_Accumulation
0.00 0.00 0.00 0.00 0.00 0.00 0.00 0.00 0.00 0.00 0.00 0.00 0.00 0.00 0.02 0.04 0.03 0.13 0.01 0.00 0.00 0.00 0.00 0.01 0.02 0.05 0.08 0.12 0.31 0.81 1.22 1.52 1.15 0.77 0.57 0.84 0.80 0.75 0.85 0.88 0.83 0.65 0.51 0.31
0.00 0.00 0.00 0.00 0.00 0.00 0.00 0.00 0.00 0.00 0.00 0.00 0.00 0.00 0.01 0.02 0.02 0.05 0.02 0.01 0.00 0.00 0.01 0.02 0.04 0.10 0.14 0.27 0.38 0.41 0.37 0.54 0.22 0.15 0.23 0.51 0.60 0.66 0.69 0.85 0.67 0.59 0.53 0.39
0.00 0.02 0.00 0.00 0.00 0.00 0.00 0.00 0.00 0.00 0.00 0.00 0.00 0.00 0.00 0.01 0.03 0.02 0.03 0.01 0.00 0.00 0.00 0.02 0.09 0.13 0.15 0.15 0.17 0.06 0.06 0.27 0.22 0.10 0.16 0.40 0.67 0.77 0.91 1.23 1.04 0.59 0.53 0.51
0.00 0.00 0.00 0.00 0.00 0.00 0.00 0.00 0.00 0.00 0.00 0.01 0.00 0.02 0.02 0.00 0.01 0.01 0.01 0.01 0.01 0.01 0.01 0.01 0.01 0.02 0.02 0.02 0.03 0.02 0.07 0.13 0.18 0.20 0.24 0.32 0.63 0.67 0.77 0.80 1.00 0.66 0.47 0.33
0.01 0.00 0.00 0.00 0.00 0.00 0.03 0.00 0.00 0.00 0.00 0.01 0.01 0.01 0.01 0.00 0.00 0.00 0.00 0.01 0.00 0.01 0.01 0.00 0.01 0.02 0.01 0.04 0.04 0.10 0.13 0.15 0.12 0.17 0.32 0.22 0.31 0.45 0.65 0.81 1.10 1.19 0.82 0.48
0.00 0.00 0.00 0.00 0.00 0.00 0.00 0.00 0.00 0.00 0.00 0.00 0.01 0.01 0.01 0.01 0.01 0.01 0.00 0.00 0.00 0.02 0.01 0.01 0.02 0.02 0.03 0.12 0.17 0.16 0.13 0.14 0.15 0.21 0.27 0.28 0.21 0.17 0.24 0.50 0.79 1.35 1.37 0.85
0.00 0.00 0.00 0.00 0.00 0.00 0.00 0.00 0.01 0.11 0.04 0.02 0.05 0.06 0.02 0.01 0.01 0.05 0.00 0.00 0.00 0.01 0.01 0.02 0.02 0.06 0.09 0.20 0.22 0.16 0.13 0.12 0.16 0.20 0.26 0.20 0.15 0.09 0.08 0.11 0.27 0.58 1.34 1.32
0.00 0.00 0.00 0.00 0.00 0.01 0.00 0.00 0.03 0.09 0.07 0.09 0.08 0.02 0.01 0.00 0.00 0.00 0.00 0.00 0.00 0.00 0.00 0.01 0.04 0.06 0.10 0.30 0.22 0.10 0.04 0.04 0.06 0.09 0.16 0.13 0.13 0.10 0.09 0.08 0.17 0.23 0.40 0.89
0.00 0.00 0.01 0.00 0.00 0.00 0.02 0.04 0.01 0.01 0.02 0.05 0.02 0.01 0.01 0.01 0.00 0.00 0.00 0.00 0.00 0.00 0.00 0.00 0.02 0.05 0.11 0.22 0.16 0.04 0.01 0.00 0.01 0.03 0.07 0.11 0.14 0.07 0.13 0.31 0.20 0.35 0.34 0.50
0.01 0.03 0.01 0.00 0.00 0.00 0.00 0.02 0.02 0.02 0.04 0.04 0.00 0.01 0.04 0.05 0.01 0.02 0.02 0.00 0.01 0.00 0.00 0.00 0.01 0.02 0.07 0.16 0.16 0.19 0.11 0.02 0.00 0.01 0.04 0.04 0.13 0.15 0.17 0.29 0.14 0.22 0.31 0.49
0.00 0.04 0.05 0.01 0.01 0.02 0.02 0.00 0.00 0.01 0.01 0.06 0.08 0.01 0.03 0.05 0.10 0.07 0.07 0.05 0.01 0.00 0.01 0.01 0.00 0.00 0.04 0.15 0.16 0.20 0.31 0.20 0.07 0.02 0.02 0.05 0.18 0.18 0.28 0.28 0.33 0.33 0.50 0.68
0.00 0.00 0.01 0.01 0.01 0.03 0.05 0.05 0.06 0.11 0.05 0.01 0.04 0.02 0.00 0.02 0.06 0.12 0.21 0.23 0.12 0.02 0.02 0.05 0.04 0.02 0.04 0.13 0.17 0.09 0.25 0.26 0.29 0.18 0.12 0.14 0.30 0.35 0.41 0.56 0.53 0.63 0.78 0.83
0.02 0.04 0.02 0.00 0.01 0.01 0.03 0.03 0.07 0.07 0.04 0.03 0.08 0.02 0.00 0.00 0.04 0.07 0.18 0.21 0.18 0.06 0.01 0.02 0.04 0.05 0.11 0.13 0.18 0.09 0.12 0.15 0.25 0.38 0.40 0.26 0.40 0.40 0.68 0.77 1.02 1.16 1.16 1.25
0.07 0.05 0.03 0.02 0.01 0.02 0.01 0.01 0.05 0.15 0.31 0.14 0.02 0.00 0.00 0.00 0.02 0.07 0.11 0.11 0.12 0.07 0.02 0.05 0.09 0.10 0.14 0.20 0.26 0.19 0.27 0.24 0.31 0.39 0.40 0.32 0.35 0.46 0.59 0.70 0.83 1.22 1.29 1.03
0.09 0.09 0.01 0.01 0.01 0.00 0.01 0.00 0.00 0.02 0.07 0.26 0.13 0.01 0.00 0.00 0.01 0.02 0.06 0.07 0.07 0.14 0.08 0.03 0.10 0.18 0.19 0.25 0.29 0.28 0.26 0.28 0.37 0.42 0.48 0.42 0.56 0.93 0.98 1.04 0.89 0.70 0.49 0.41
0.23 0.15 0.03 0.02 0.00 0.00 0.00 0.00 0.00 0.00 0.00 0.00 0.00 0.00 0.00 0.00 0.00 0.00 0.01 0.03 0.14 0.21 0.06 0.04 0.04 0.13 0.18 0.28 0.29 0.30 0.33 0.28 0.29 0.29 0.30 0.48 0.62 0.54 0.59 0.53 0.39 0.26 0.21 0.22
0.50 0.36 0.22 0.09 0.02 0.05 0.05 0.00 0.00 0.00 0.00 0.00 0.00 0.00 0.00 0.00 0.03 0.05 0.08 0.07 0.08 0.08 0.04 0.03 0.02 0.06 0.19 0.21 0.24 0.29 0.37 0.37 0.24 0.19 0.21 0.28 0.28 0.25 0.20 0.13 0.13 0.18 0.19 0.16
0.40 0.48 0.52 0.26 0.16 0.25 0.03 0.00 0.00 0.00 0.01 0.01 0.02 0.01 0.01 0.01 0.09 0.06 0.03 0.03 0.04 0.03 0.05 0.04 0.01 0.01 0.03 0.09 0.15 0.24 0.30 0.39 0.36 0.21 0.12 0.09 0.07 0.05 0.06 0.10 0.17 0.17 0.18 0.15
0.11 0.27 0.54 0.41 0.26 0.12 0.02 0.03 0.07 0.07 0.15 0.11 0.07 0.07 0.04 0.04 0.08 0.08 0.03 0.06 0.08 0.06 0.05 0.01 0.00 0.00 0.00 0.01 0.09 0.24 0.33 0.38 0.36 0.29 0.21 0.08 0.04 0.06 0.11 0.16 0.20 0.18 0.16 0.20
0.07 0.17 0.43 0.50 0.33 0.10 0.05 0.05 0.03 0.07 0.26 0.22 0.16 0.19 0.18 0.13 0.24 0.15 0.08 0.09 0.07 0.03 0.00 0.00 0.00 0.00 0.01 0.06 0.14 0.09 0.11 0.13 0.16 0.16 0.18 0.19 0.12 0.12 0.15 0.13 0.10 0.12 0.16 0.22
0.41 0.36 0.33 0.29 0.47 0.11 0.01 0.05 0.07 0.35 0.49 0.16 0.16 0.19 0.12 0.16 0.23 0.19 0.18 0.05 0.00 0.00 0.00 0.00 0.00 0.00 0.00 0.05 0.16 0.26 0.21 0.13 0.16 0.19 0.20 0.18 0.15 0.13 0.08 0.08 0.10 0.14 0.18 0.19
0.95 1.07 0.67 0.47 0.58 0.17 0.05 0.24 0.50 0.51 0.20 0.17 0.12 0.08 0.09 0.11 0.20 0.19 0.05 0.02 0.00 0.00 0.00 0.00 0.00 0.00 0.01 0.02 0.05 0.16 0.28 0.23 0.22 0.19 0.21 0.26 0.23 0.13 0.07 0.05 0.07 0.10 0.13 0.17
0.81 0.42 0.39 0.40 0.27 0.08 0.10 0.27 0.37 0.20 0.17 0.17 0.16 0.13 0.19 0.28 0.19 0.07 0.04 0.01 0.00 0.00 0.00 0.00 0.01 0.02 0.02 0.00 0.00 0.04 0.09 0.14 0.15 0.19 0.31 0.31 0.26 0.24 0.22 0.19 0.14 0.16 0.16 0.17
0.69 0.50 0.56 0.30 0.09 0.11 0.17 0.17 0.20 0.16 0.11 0.16 0.23 0.31 0.34 0.25 0.16 0.11 0.04 0.02 0.01 0.01 0.01 0.02 0.03 0.02 0.01 0.00 0.01 0.01 0.02 0.05 0.07 0.08 0.09 0.11 0.12 0.11 0.15 0.26 0.30 0.31 0.32 0.35
0.60 0.65 0.69 0.66 0.83 0.44 0.18 0.16 0.17 0.22 0.32 0.30 0.24 0.23 0.27 0.36 0.31 0.26 0.23 0.09 0.03 0.05 0.06 0.05 0.06 0.05 0.03 0.03 0.03 0.03 0.07 0.09 0.08 0.07 0.08 0.08 0.11 0.12 0.12 0.20 0.28 0.31 0.50 0.50
0.18 0.17 0.29 0.57 0.47 0.64 0.32 0.34 0.42 0.38 0.27 0.18 0.14 0.22 0.17 0.09 0.10 0.15 0.19 0.29 0.30 0.22 0.19 0.17 0.13 0.08 0.07 0.07 0.09 0.09 0.10 0.12 0.13 0.14 0.17 0.23 0.17 0.20 0.24 0.33 0.62 0.72 0.80 0.86

GFSCGP_prec_precacc_114.txt.gz
Total_Precipitation_Accumulation
0.00 0.00 0.00 0.00 0.00 0.00 0.00 0.00 0.00 0.00 0.00 0.00 0.00 0.00 0.02 0.04 0.03 0.13 0.01 0.00 0.00 0.00 0.00 0.01 0.02 0.05 0.08 0.12 0.31 0.81 1.22 1.52 1.15 0.77 0.58 0.86 0.80 0.75 0.85 0.91 0.89 0.71 0.82 0.68
0.00 0.00 0.00 0.00 0.00 0.00 0.00 0.00 0.00 0.00 0.00 0.00 0.00 0.00 0.01 0.02 0.02 0.05 0.02 0.01 0.00 0.00 0.01 0.02 0.04 0.10 0.14 0.27 0.38 0.41 0.37 0.54 0.22 0.15 0.23 0.52 0.60 0.66 0.69 0.86 0.71 0.65 0.77 0.58
0.00 0.02 0.00 0.00 0.00 0.00 0.00 0.00 0.00 0.00 0.00 0.00 0.00 0.00 0.00 0.01 0.03 0.02 0.03 0.01 0.00 0.00 0.00 0.02 0.09 0.13 0.15 0.15 0.17 0.06 0.06 0.27 0.22 0.10 0.16 0.40 0.67 0.77 0.91 1.23 1.06 0.66 0.68 0.62
0.00 0.00 0.00 0.00 0.00 0.00 0.00 0.00 0.00 0.00 0.00 0.01 0.00 0.02 0.02 0.00 0.01 0.01 0.01 0.01 0.01 0.01 0.01 0.01 0.01 0.02 0.02 0.02 0.03 0.02 0.07 0.13 0.18 0.20 0.24 0.32 0.63 0.67 0.77 0.80 1.01 0.68 0.54 0.45
0.01 0.00 0.00 0.00 0.00 0.00 0.03 0.00 0.00 0.00 0.00 0.01 0.01 0.01 0.01 0.00 0.00 0.00 0.00 0.01 0.00 0.01 0.01 0.00 0.01 0.02 0.01 0.04 0.04 0.10 0.13 0.15 0.12 0.17 0.32 0.22 0.31 0.45 0.65 0.81 1.10 1.21 0.85 0.53
0.00 0.00 0.00 0.00 0.00 0.00 0.00 0.00 0.00 0.00 0.00 0.00 0.01 0.01 0.01 0.01 0.01 0.01 0.00 0.00 0.00 0.02 0.01 0.01 0.02 0.02 0.03 0.12 0.17 0.16 0.13 0.14 0.16 0.22 0.27 0.28 0.21 0.17 0.24 0.50 0.79 1.37 1.41 0.87
0.00 0.00 0.00 0.00 0.00 0.00 0.00 0.00 0.01 0.11 0.04 0.02 0.05 0.06 0.02 0.01 0.01 0.05 0.00 0.00 0.00 0.01 0.01 0.02 0.02 0.06 0.09 0.20 0.22 0.16 0.13 0.12 0.16 0.20 0.26 0.20 0.15 0.09 0.08 0.11 0.27 0.59 1.36 1.36
0.00 0.00 0.00 0.00 0.00 0.01 0.00 0.00 0.03 0.09 0.07 0.09 0.08 0.02 0.01 0.00 0.00 0.00 0.00 0.00 0.00 0.00 0.00 0.01 0.04 0.06 0.10 0.30 0.22 0.10 0.04 0.04 0.06 0.09 0.16 0.13 0.13 0.10 0.09 0.08 0.18 0.24 0.42 0.94
0.00 0.00 0.01 0.00 0.00 0.00 0.02 0.04 0.01 0.01 0.02 0.05 0.02 0.01 0.01 0.01 0.00 0.00 0.00 0.00 0.00 0.00 0.00 0.00 0.02 0.05 0.11 0.22 0.16 0.04 0.01 0.00 0.02 0.03 0.07 0.11 0.14 0.07 0.13 0.31 0.20 0.35 0.35 0.58
0.01 0.03 0.01 0.00 0.00 0.00 0.00 0.02 0.02 0.02 0.04 0.04 0.00 0.01 0.04 0.05 0.01 0.02 0.02 0.00 0.01 0.00 0.00 0.00 0.01 0.02 0.07 0.16 0.16 0.19 0.12 0.06 0.02 0.01 0.04 0.05 0.13 0.15 0.17 0.29 0.14 0.22 0.32 0.57
0.00 0.04 0.05 0.01 0.01 0.02 0.02 0.00 0.00 0.01 0.01 0.06 0.08 0.01 0.03 0.05 0.10 0.07 0.07 0.05 0.01 0.00 0.01 0.01 0.00 0.00 0.04 0.15 0.18 0.25 0.37 0.24 0.09 0.02 0.03 0.05 0.18 0.18 0.28 0.28 0.33 0.33 0.51 0.69
0.00 0.00 0.01 0.01 0.01 0.03 0.05 0.05 0.06 0.11 0.06 0.02 0.05 0.02 0.00 0.02 0.06 0.12 0.21 0.23 0.12 0.03 0.02 0.05 0.04 0.02 0.04 0.14 0.19 0.14 0.30 0.29 0.30 0.18 0.12 0.14 0.30 0.36 0.41 0.56 0.53 0.63 0.78 0.84
0.02 0.04 0.02 0.00 0.01 0.02 0.03 0.03 0.07 0.07 0.04 0.03 0.10 0.03 0.00 0.00 0.04 0.07 0.18 0.21 0.18 0.10 0.02 0.02 0.04 0.05 0.12 0.16 0.22 0.13 0.15 0.17 0.25 0.38 0.40 0.27 0.41 0.41 0.68 0.77 1.02 1.16 1.16 1.25
0.08 0.05 0.03 0.02 0.01 0.03 0.01 0.01 0.05 0.15 0.31 0.14 0.03 0.00 0.00 0.00 0.02 0.07 0.11 0.11 0.12 0.14 0.09 0.09 0.10 0.11 0.16 0.24 0.31 0.27 0.31 0.25 0.31 0.39 0.40 0.33 0.35 0.46 0.60 0.70 0.83 1.22 1.29 1.03
0.09 0.09 0.01 0.01 0.01 0.00 0.01 0.00 0.00 0.02 0.07 0.26 0.13 0.01 0.00 0.00 0.01 0.02 0.06 0.07 0.08 0.25 0.31 0.17 0.13 0.20 0.21 0.29 0.34 0.37 0.31 0.30 0.37 0.42 0.48 0.43 0.57 0.94 0.99 1.04 0.90 0.70 0.49 0.41
0.23 0.15 0.03 0.02 0.00 0.00 0.00 0.00 0.00 0.00 0.00 0.00 0.00 0.00 0.00 0.00 0.00 0.00 0.01 0.03 0.15 0.33 0.24 0.23 0.15 0.15 0.20 0.30 0.33 0.35 0.38 0.32 0.29 0.29 0.30 0.49 0.63 0.55 0.60 0.54 0.40 0.26 0.21 0.22
0.50 0.36 0.22 0.09 0.02 0.05 0.05 0.00 0.00 0.00 0.00 0.00 0.00 0.00 0.00 0.00 0.03 0.06 0.08 0.09 0.11 0.11 0.06 0.14 0.14 0.11 0.22 0.22 0.28 0.31 0.38 0.41 0.26 0.19 0.21 0.28 0.28 0.26 0.20 0.14 0.14 0.18 0.20 0.17
0.40 0.48 0.52 0.26 0.16 0.25 0.03 0.00 0.00 0.00 0.01 0.01 0.02 0.01 0.01 0.01 0.11 0.09 0.04 0.03 0.04 0.03 0.06 0.06 0.07 0.05 0.11 0.17 0.25 0.29 0.33 0.41 0.42 0.24 0.12 0.09 0.07 0.05 0.06 0.11 0.17 0.17 0.19 0.16
0.11 0.27 0.54 0.41 0.26 0.12 0.02 0.03 0.08 0.08 0.15 0.11 0.08 0.07 0.04 0.04 0.10 0.10 0.04 0.06 0.08 0.06 0.05 0.01 0.01 0.01 0.02 0.08 0.18 0.41 0.39 0.43 0.41 0.32 0.22 0.08 0.04 0.06 0.11 0.17 0.20 0.18 0.17 0.22
0.07 0.17 0.46 0.50 0.33 0.10 0.05 0.06 0.03 0.07 0.28 0.29 0.22 0.25 0.22 0.14 0.26 0.18 0.09 0.10 0.07 0.03 0.00 0.00 0.00 0.00 0.02 0.07 0.19 0.19 0.19 0.26 0.24 0.19 0.20 0.20 0.12 0.12 0.15 0.13 0.11 0.12 0.17 0.23
0.44 0.42 0.40 0.33 0.50 0.11 0.01 0.05 0.07 0.35 0.62 0.38 0.22 0.25 0.15 0.18 0.24 0.19 0.18 0.05 0.00 0.00 0.00 0.00 0.00 0.00 0.00 0.05 0.17 0.41 0.36 0.27 0.29 0.22 0.23 0.21 0.17 0.14 0.08 0.08 0.11 0.15 0.19 0.20
1.05 1.20 0.74 0.58 0.62 0.18 0.07 0.27 0.53 0.54 0.24 0.22 0.21 0.11 0.11 0.14 0.21 0.19 0.05 0.02 0.00 0.00 0.00 0.00 0.00 0.00 0.01 0.02 0.05 0.19 0.41 0.41 0.34 0.22 0.22 0.28 0.30 0.19 0.09 0.06 0.08 0.10 0.14 0.18
0.96 0.60 0.52 0.41 0.28 0.08 0.11 0.31 0.41 0.27 0.19 0.17 0.16 0.14 0.22 0.30 0.19 0.07 0.04 0.01 0.00 0.00 0.00 0.00 0.01 0.02 0.02 0.00 0.00 0.05 0.11 0.19 0.28 0.35 0.42 0.39 0.33 0.39 0.38 0.29 0.26 0.23 0.19 0.18
0.79 0.67 0.79 0.33 0.10 0.11 0.17 0.18 0.23 0.37 0.22 0.16 0.23 0.34 0.36 0.25 0.16 0.11 0.04 0.02 0.01 0.01 0.01 0.02 0.03 0.02 0.01 0.00 0.01 0.02 0.04 0.07 0.09 0.14 0.17 0.23 0.38 0.32 0.34 0.44 0.47 0.51 0.57 0.55
0.71 0.72 0.78 0.78 0.91 0.47 0.19 0.16 0.17 0.22 0.33 0.30 0.24 0.23 0.27 0.36 0.31 0.26 0.23 0.09 0.03 0.05 0.06 0.05 0.07 0.05 0.03 0.04 0.03 0.04 0.08 0.12 0.12 0.10 0.10 0.13 0.13 0.14 0.14 0.21 0.29 0.32 0.51 0.53
0.22 0.20 0.39 0.73 0.58 0.83 0.43 0.40 0.43 0.40 0.30 0.20 0.15 0.23 0.17 0.09 0.10 0.15 0.19 0.29 0.30 0.22 0.19 0.17 0.14 0.09 0.08 0.09 0.10 0.10 0.11 0.14 0.16 0.18 0.22 0.28 0.20 0.23 0.27 0.37 0.73 0.84 0.93 0.96

GFSCGP_prec_precacc_117.txt.gz
Total_Precipitation_Accumulation
0.00 0.00 0.00 0.00 0.00 0.00 0.00 0.00 0.00 0.00 0.00 0.00 0.00 0.00 0.02 0.04 0.03 0.13 0.01 0.00 0.00 0.00 0.00 0.01 0.02 0.05 0.08 0.12 0.31 0.81 1.22 1.52 1.15 0.77 0.58 0.86 0.80 0.75 0.86 0.91 0.89 0.72 0.84 0.82
0.00 0.00 0.00 0.00 0.00 0.00 0.00 0.00 0.00 0.00 0.00 0.00 0.00 0.00 0.01 0.02 0.02 0.05 0.02 0.01 0.00 0.00 0.01 0.02 0.04 0.10 0.14 0.27 0.38 0.41 0.37 0.54 0.22 0.15 0.23 0.52 0.60 0.66 0.69 0.86 0.71 0.65 0.79 0.64
0.00 0.02 0.00 0.00 0.00 0.00 0.00 0.00 0.00 0.00 0.00 0.00 0.00 0.00 0.00 0.01 0.03 0.02 0.03 0.01 0.00 0.00 0.00 0.02 0.09 0.13 0.15 0.15 0.17 0.06 0.06 0.27 0.22 0.10 0.16 0.40 0.68 0.78 0.92 1.24 1.07 0.67 0.76 0.74
0.01 0.00 0.00 0.00 0.00 0.00 0.00 0.00 0.00 0.00 0.00 0.01 0.00 0.02 0.02 0.00 0.01 0.01 0.01 0.01 0.01 0.01 0.01 0.01 0.01 0.02 0.02 0.02 0.03 0.02 0.07 0.13 0.18 0.20 0.24 0.32 0.63 0.68 0.77 0.80 1.01 0.69 0.58 0.57
0.03 0.00 0.00 0.00 0.00 0.00 0.03 0.00 0.00 0.00 0.00 0.01 0.01 0.01 0.01 0.00 0.00 0.00 0.00 0.01 0.00 0.01 0.01 0.00 0.01 0.02 0.01 0.04 0.04 0.10 0.13 0.15 0.12 0.18 0.32 0.22 0.31 0.46 0.65 0.82 1.11 1.22 0.85 0.58
0.00 0.00 0.00 0.00 0.00 0.00 0.00 0.00 0.00 0.00 0.00 0.00 0.01 0.01 0.01 0.01 0.01 0.01 0.00 0.00 0.00 0.02 0.01 0.01 0.02 0.02 0.03 0.12 0.17 0.16 0.13 0.14 0.16 0.22 0.27 0.28 0.21 0.17 0.24 0.50 0.80 1.38 1.42 0.88
0.00 0.00 0.00 0.00 0.00 0.00 0.00 0.00 0.01 0.11 0.04 0.02 0.05 0.06 0.02 0.01 0.01 0.05 0.00 0.00 0.00 0.01 0.01 0.02 0.02 0.06 0.09 0.20 0.22 0.16 0.13 0.13 0.16 0.20 0.26 0.20 0.15 0.09 0.08 0.11 0.27 0.61 1.42 1.39
0.00 0.00 0.00 0.00 0.00 0.01 0.00 0.00 0.03 0.09 0.07 0.09 0.08 0.02 0.01 0.00 0.00 0.00 0.00 0.00 0.00 0.00 0.00 0.01 0.04 0.06 0.10 0.30 0.22 0.10 0.05 0.04 0.06 0.09 0.18 0.15 0.13 0.10 0.09 0.08 0.18 0.24 0.46 1.00
0.00 0.00 0.01 0.00 0.00 0.00 0.02 0.04 0.01 0.01 0.02 0.05 0.02 0.01 0.01 0.01 0.00 0.00 0.00 0.00 0.00 0.00 0.00 0.00 0.02 0.05 0.11 0.22 0.16 0.05 0.02 0.01 0.05 0.09 0.10 0.11 0.14 0.07 0.13 0.31 0.20 0.36 0.36 0.60
0.01 0.03 0.01 0.01 0.00 0.00 0.00 0.02 0.02 0.02 0.04 0.04 0.00 0.01 0.04 0.05 0.01 0.02 0.02 0.00 0.01 0.00 0.00 0.00 0.01 0.02 0.07 0.16 0.16 0.19 0.12 0.08 0.06 0.05 0.05 0.05 0.13 0.15 0.17 0.29 0.14 0.22 0.32 0.58
0.00 0.04 0.05 0.01 0.01 0.03 0.02 0.01 0.00 0.01 0.01 0.06 0.08 0.01 0.03 0.05 0.10 0.07 0.07 0.05 0.01 0.00 0.01 0.01 0.00 0.00 0.04 0.15 0.18 0.25 0.38 0.25 0.11 0.05 0.03 0.05 0.18 0.18 0.28 0.28 0.33 0.33 0.51 0.69
0.00 0.00 0.01 0.01 0.01 0.03 0.05 0.06 0.06 0.11 0.06 0.02 0.05 0.02 0.00 0.02 0.06 0.12 0.21 0.23 0.12 0.03 0.02 0.05 0.04 0.02 0.04 0.14 0.21 0.15 0.31 0.30 0.32 0.18 0.12 0.14 0.31 0.36 0.41 0.56 0.53 0.63 0.78 0.84
0.02 0.04 0.02 0.01 0.02 0.02 0.03 0.03 0.07 0.07 0.04 0.03 0.10 0.03 0.00 0.00 0.04 0.07 0.18 0.21 0.18 0.10 0.02 0.02 0.04 0.05 0.12 0.19 0.26 0.15 0.15 0.18 0.28 0.39 0.40 0.27 0.41 0.41 0.69 0.77 1.02 1.16 1.16 1.26
0.08 0.05 0.03 0.03 0.03 0.03 0.01 0.01 0.05 0.15 0.31 0.14 0.03 0.00 0.00 0.00 0.02 0.07 0.11 0.11 0.12 0.14 0.09 0.09 0.12 0.13 0.16 0.25 0.38 0.38 0.46 0.38 0.40 0.43 0.41 0.33 0.36 0.47 0.60 0.70 0.83 1.22 1.29 1.04
0.10 0.10 0.01 0.01 0.01 0.00 0.01 0.00 0.00 0.02 0.07 0.26 0.13 0.01 0.00 0.00 0.01 0.02 0.06 0.07 0.08 0.25 0.31 0.19 0.19 0.25 0.22 0.29 0.38 0.51 0.46 0.43 0.45 0.44 0.48 0.43 0.57 0.94 1.00 1.05 0.90 0.71 0.50 0.41
0.23 0.15 0.03 0.02 0.00 0.00 0.00 0.00 0.00 0.00 0.00 0.00 0.00 0.00 0.00 0.00 0.00 0.00 0.01 0.03 0.15 0.33 0.24 0.24 0.19 0.21 0.24 0.30 0.34 0.44 0.51 0.42 0.34 0.30 0.30 0.49 0.63 0.55 0.60 0.55 0.40 0.27 0.22 0.23
0.50 0.36 0.22 0.09 0.02 0.05 0.05 0.00 0.00 0.00 0.00 0.00 0.00 0.00 0.00 0.00 0.03 0.06 0.08 0.09 0.11 0.11 0.06 0.15 0.21 0.17 0.27 0.28 0.30 0.37 0.45 0.47 0.28 0.19 0.21 0.28 0.28 0.26 0.21 0.15 0.15 0.20 0.22 0.19
0.40 0.48 0.52 0.26 0.16 0.25 0.03 0.00 0.00 0.00 0.01 0.01 0.02 0.01 0.01 0.01 0.11 0.09 0.05 0.04 0.04 0.03 0.06 0.06 0.09 0.06 0.12 0.25 0.43 0.45 0.40 0.45 0.45 0.24 0.12 0.09 0.07 0.05 0.06 0.12 0.19 0.19 0.21 0.17
0.11 0.27 0.54 0.41 0.26 0.12 0.02 0.03 0.08 0.08 0.15 0.11 0.08 0.07 0.04 0.04 0.11 0.10 0.05 0.06 0.08 0.06 0.05 0.01 0.01 0.01 0.02 0.10 0.36 0.67 0.63 0.46 0.44 0.33 0.22 0.08 0.04 0.06 0.12 0.17 0.22 0.19 0.19 0.24
0.07 0.17 0.46 0.51 0.34 0.10 0.05 0.06 0.03 0.07 0.28 0.29 0.25 0.28 0.24 0.16 0.28 0.20 0.10 0.10 0.07 0.03 0.00 0.00 0.00 0.00 0.02 0.08 0.23 0.36 0.60 0.48 0.30 0.22 0.20 0.20 0.12 0.12 0.16 0.14 0.11 0.14 0.18 0.25
0.53 0.54 0.48 0.37 0.58 0.12 0.01 0.05 0.07 0.35 0.62 0.47 0.54 0.40 0.18 0.27 0.33 0.23 0.20 0.06 0.00 0.00 0.00 0.00 0.00 0.00 0.00 0.05 0.18 0.46 0.63 0.81 0.62 0.33 0.25 0.22 0.17 0.14 0.08 0.08 0.11 0.16 0.20 0.21
1.17 1.28 0.81 0.65 0.68 0.18 0.07 0.31 0.56 0.56 0.31 0.36 0.47 0.27 0.16 0.21 0.25 0.22 0.06 0.02 0.00 0.00 0.00 0.00 0.00 0.00 0.01 0.03 0.06 0.20 0.51 1.01 1.09 0.63 0.31 0.31 0.32 0.19 0.09 0.06 0.08 0.11 0.14 0.19
1.09 0.81 0.66 0.44 0.28 0.08 0.11 0.31 0.43 0.28 0.29 0.23 0.16 0.15 0.25 0.33 0.19 0.07 0.04 0.01 0.00 0.00 0.00 0.00 0.01 0.02 0.02 0.01 0.02 0.07 0.15 0.30 0.77 1.08 0.84 0.49 0.38 0.42 0.41 0.31 0.28 0.24 0.19 0.19
0.83 0.76 0.98 0.40 0.12 0.12 0.17 0.19 0.24 0.39 0.33 0.18 0.23 0.35 0.37 0.25 0.16 0.11 0.04 0.02 0.01 0.01 0.01 0.02 0.03 0.02 0.01 0.00 0.02 0.04 0.06 0.12 0.16 0.37 0.58 0.52 0.52 0.40 0.47 0.67 0.67 0.77 0.82 0.64
0.76 0.75 0.84 0.92 1.04 0.62 0.26 0.21 0.17 0.23 0.33 0.31 0.24 0.23 0.27 0.36 0.31 0.26 0.23 0.09 0.03 0.05 0.06 0.05 0.07 0.06 0.03 0.04 0.03 0.05 0.10 0.15 0.16 0.17 0.20 0.33 0.59 0.43 0.26 0.33 0.47 0.44 0.70 0.73
0.24 0.25 0.55 0.91 0.89 1.19 0.77 0.82 0.59 0.45 0.31 0.24 0.15 0.23 0.17 0.09 0.10 0.15 0.19 0.29 0.30 0.22 0.19 0.17 0.14 0.09 0.08 0.09 0.10 0.10 0.11 0.16 0.19 0.22 0.28 0.38 0.45 0.48 0.34 0.39 0.77 0.92 1.02 1.04

GFSCGP_prec_precacc_120.txt.gz
Total_Precipitation_Accumulation
0.00 0.00 0.00 0.00 0.00 0.00 0.00 0.00 0.00 0.00 0.00 0.00 0.00 0.00 0.02 0.04 0.03 0.13 0.01 0.00 0.00 0.00 0.00 0.01 0.02 0.05 0.08 0.12 0.31 0.81 1.22 1.52 1.15 0.77 0.58 0.86 0.80 0.75 0.86 0.92 0.89 0.72 0.85 0.84
0.00 0.00 0.00 0.00 0.00 0.00 0.00 0.00 0.00 0.00 0.00 0.00 0.00 0.00 0.01 0.02 0.02 0.05 0.02 0.01 0.00 0.00 0.01 0.02 0.04 0.10 0.14 0.27 0.38 0.41 0.37 0.54 0.22 0.15 0.23 0.52 0.60 0.66 0.69 0.86 0.71 0.66 0.80 0.65
0.00 0.02 0.00 0.00 0.00 0.00 0.00 0.00 0.00 0.00 0.00 0.00 0.00 0.00 0.00 0.01 0.03 0.02 0.03 0.01 0.00 0.00 0.00 0.02 0.09 0.13 0.15 0.15 0.17 0.06 0.06 0.27 0.22 0.10 0.16 0.41 0.68 0.78 0.92 1.24 1.07 0.68 0.77 0.75
0.01 0.00 0.00 0.00 0.00 0.00 0.01 0.00 0.00 0.00 0.00 0.02 0.00 0.02 0.02 0.00 0.01 0.01 0.01 0.01 0.01 0.01 0.01 0.01 0.01 0.02 0.02 0.02 0.03 0.02 0.07 0.13 0.18 0.20 0.24 0.32 0.63 0.68 0.77 0.81 1.02 0.70 0.58 0.58
0.03 0.00 0.00 0.00 0.00 0.00 0.03 0.00 0.00 0.00 0.00 0.01 0.01 0.01 0.01 0.00 0.00 0.00 0.00 0.01 0.00 0.01 0.01 0.00 0.01 0.02 0.01 0.04 0.04 0.10 0.13 0.15 0.12 0.18 0.32 0.22 0.31 0.46 0.65 0.82 1.11 1.23 0.86 0.58
0.00 0.00 0.00 0.01 0.00 0.00 0.00 0.00 0.00 0.00 0.00 0.00 0.01 0.01 0.01 0.01 0.01 0.01 0.00 0.00 0.00 0.02 0.01 0.01 0.02 0.02 0.03 0.12 0.17 0.16 0.13 0.14 0.16 0.22 0.27 0.28 0.21 0.18 0.25 0.51 0.80 1.39 1.42 0.89
0.00 0.00 0.00 0.00 0.00 0.00 0.00 0.00 0.01 0.11 0.04 0.02 0.05 0.06 0.02 0.01 0.01 0.05 0.00 0.00 0.00 0.01 0.01 0.02 0.02 0.06 0.09 0.20 0.22 0.16 0.13 0.13 0.17 0.21 0.26 0.22 0.18 0.09 0.08 0.12 0.28 0.61 1.43 1.40
0.00 0.01 0.00 0.00 0.00 0.01 0.01 0.00 0.04 0.09 0.07 0.09 0.08 0.02 0.01 0.00 0.00 0.00 0.00 0.00 0.00 0.00 0.00 0.01 0.04 0.06 0.10 0.30 0.22 0.10 0.05 0.05 0.07 0.10 0.21 0.17 0.14 0.11 0.09 0.09 0.18 0.24 0.46 1.02
0.00 0.00 0.01 0.00 0.00 0.01 0.04 0.05 0.01 0.01 0.02 0.05 0.02 0.01 0.01 0.01 0.00 0.00 0.00 0.00 0.00 0.00 0.00 0.00 0.02 0.05 0.11 0.22 0.16 0.05 0.02 0.01 0.05 0.09 0.11 0.13 0.16 0.08 0.13 0.32 0.21 0.37 0.37 0.66
0.01 0.03 0.01 0.01 0.01 0.01 0.00 0.02 0.02 0.02 0.04 0.04 0.00 0.01 0.04 0.05 0.01 0.02 0.02 0.00 0.01 0.00 0.00 0.00 0.01 0.02 0.07 0.16 0.16 0.19 0.12 0.08 0.07 0.05 0.07 0.07 0.14 0.15 0.17 0.30 0.14 0.23 0.33 0.60
0.00 0.04 0.05 0.01 0.04 0.08 0.05 0.03 0.01 0.01 0.01 0.06 0.08 0.01 0.03 0.05 0.10 0.07 0.07 0.05 0.01 0.00 0.01 0.01 0.00 0.00 0.04 0.15 0.18 0.25 0.38 0.26 0.12 0.06 0.06 0.09 0.24 0.21 0.28 0.29 0.33 0.33 0.51 0.70
0.00 0.01 0.01 0.01 0.01 0.04 0.07 0.10 0.12 0.15 0.08 0.02 0.05 0.02 0.00 0.02 0.06 0.12 0.21 0.23 0.12 0.03 0.02 0.05 0.04 0.02 0.04 0.14 0.21 0.15 0.31 0.31 0.33 0.19 0.17 0.22 0.36 0.37 0.41 0.56 0.53 0.63 0.79 0.85
0.02 0.05 0.03 0.01 0.04 0.04 0.04 0.04 0.09 0.09 0.06 0.05 0.11 0.04 0.00 0.00 0.04 0.07 0.18 0.21 0.18 0.10 0.02 0.02 0.04 0.05 0.12 0.19 0.26 0.16 0.17 0.19 0.29 0.42 0.47 0.33 0.44 0.42 0.69 0.77 1.02 1.16 1.17 1.26
0.10 0.06 0.04 0.04 0.06 0.04 0.03 0.02 0.05 0.15 0.31 0.14 0.03 0.00 0.00 0.00 0.02 0.07 0.11 0.11 0.12 0.14 0.09 0.09 0.12 0.13 0.16 0.25 0.38 0.39 0.48 0.41 0.44 0.49 0.50 0.38 0.37 0.47 0.60 0.70 0.84 1.22 1.29 1.04
0.11 0.10 0.01 0.01 0.01 0.01 0.01 0.00 0.00 0.02 0.07 0.26 0.13 0.01 0.00 0.00 0.01 0.02 0.06 0.07 0.08 0.25 0.31 0.19 0.19 0.25 0.23 0.30 0.38 0.52 0.48 0.48 0.53 0.55 0.56 0.45 0.58 0.94 1.00 1.05 0.90 0.71 0.50 0.41
0.25 0.16 0.03 0.02 0.00 0.00 0.00 0.00 0.00 0.00 0.00 0.00 0.00 0.00 0.00 0.00 0.00 0.00 0.01 0.03 0.15 0.33 0.24 0.24 0.19 0.21 0.25 0.31 0.34 0.46 0.55 0.49 0.46 0.42 0.36 0.50 0.64 0.56 0.61 0.55 0.40 0.27 0.22 0.23
0.51 0.37 0.24 0.10 0.02 0.05 0.05 0.00 0.00 0.00 0.00 0.00 0.00 0.00 0.00 0.00 0.03 0.06 0.08 0.09 0.11 0.11 0.06 0.15 0.21 0.17 0.27 0.29 0.30 0.42 0.55 0.54 0.39 0.31 0.27 0.29 0.29 0.27 0.21 0.15 0.15 0.20 0.22 0.19
0.41 0.50 0.55 0.27 0.17 0.25 0.03 0.00 0.00 0.00 0.01 0.01 0.02 0.01 0.01 0.01 0.11 0.09 0.05 0.04 0.05 0.03 0.06 0.06 0.09 0.06 0.12 0.26 0.44 0.51 0.54 0.57 0.54 0.34 0.19 0.10 0.07 0.06 0.07 0.12 0.19 0.19 0.21 0.18
0.11 0.28 0.56 0.42 0.26 0.12 0.02 0.03 0.08 0.08 0.15 0.11 0.08 0.07 0.04 0.04 0.11 0.11 0.07 0.07 0.08 0.06 0.05 0.01 0.01 0.01 0.02 0.10 0.37 0.75 0.87 0.65 0.59 0.42 0.28 0.09 0.04 0.07 0.12 0.17 0.22 0.19 0.19 0.24
0.10 0.19 0.47 0.51 0.35 0.10 0.05 0.06 0.04 0.08 0.29 0.30 0.25 0.29 0.25 0.16 0.29 0.24 0.12 0.10 0.07 0.03 0.00 0.00 0.00 0.00 0.02 0.08 0.23 0.39 0.74 0.81 0.53 0.41 0.28 0.22 0.13 0.12 0.16 0.14 0.12 0.14 0.19 0.25
0.63 0.67 0.56 0.41 0.67 0.13 0.01 0.06 0.08 0.35 0.63 0.48 0.64 0.78 0.41 0.38 0.53 0.27 0.23 0.07 0.00 0.00 0.00 0.00 0.00 0.00 0.00 0.05 0.18 0.47 0.69 1.04 0.90 0.57 0.40 0.27 0.17 0.14 0.09 0.09 0.12 0.16 0.20 0.21
1.29 1.35 0.91 0.73 0.76 0.22 0.08 0.35 0.60 0.59 0.34 0.44 0.82 0.66 0.32 0.29 0.41 0.35 0.09 0.02 0.00 0.00 0.00 0.00 0.00 0.00 0.01 0.03 0.06 0.20 0.53 1.14 1.50 1.00 0.60 0.42 0.33 0.20 0.10 0.07 0.09 0.12 0.15 0.19
1.16 0.94 0.83 0.51 0.31 0.10 0.12 0.32 0.44 0.32 0.34 0.40 0.22 0.18 0.31 0.36 0.19 0.07 0.04 0.01 0.00 0.00 0.00 0.00 0.01 0.02 0.02 0.01 0.02 0.07 0.15 0.34 1.09 1.56 1.40 0.90 0.45 0.43 0.42 0.33 0.29 0.25 0.20 0.19
0.84 0.81 1.16 0.57 0.25 0.21 0.22 0.21 0.26 0.40 0.35 0.20 0.24 0.35 0.37 0.25 0.16 0.11 0.04 0.02 0.01 0.01 0.01 0.02 0.03 0.02 0.01 0.01 0.02 0.04 0.06 0.14 0.31 0.73 1.07 1.29 1.11 0.55 0.52 0.72 0.70 0.80 0.84 0.65
0.84 0.79 0.89 1.13 1.30 0.77 0.40 0.37 0.30 0.29 0.38 0.41 0.26 0.23 0.27 0.36 0.31 0.26 0.23 0.09 0.03 0.05 0.06 0.05 0.07 0.06 0.03 0.04 0.04 0.06 0.11 0.16 0.20 0.36 0.60 0.71 1.15 0.94 0.45 0.45 0.67 0.70 0.91 0.98
0.27 0.31 0.64 1.07 1.12 1.39 1.01 1.19 0.90 0.64 0.37 0.28 0.16 0.23 0.17 0.09 0.10 0.15 0.19 0.29 0.30 0.22 0.19 0.17 0.14 0.09 0.09 0.09 0.11 0.11 0.13 0.18 0.22 0.28 0.52 0.65 0.73 1.08 0.87 0.62 0.92 1.13 1.35 1.34

GFSCGP_prec_precacc_123.txt.gz
Total_Precipitation_Accumulation
0.00 0.00 0.00 0.00 0.00 0.00 0.00 0.00 0.00 0.00 0.00 0.00 0.00 0.00 0.02 0.04 0.03 0.13 0.01 0.00 0.00 0.00 0.00 0.01 0.02 0.05 0.08 0.12 0.31 0.81 1.22 1.52 1.15 0.77 0.58 0.86 0.81 0.76 0.86 0.92 0.89 0.72 0.86 0.85
0.00 0.00 0.00 0.00 0.00 0.00 0.00 0.00 0.00 0.00 0.00 0.00 0.00 0.00 0.01 0.02 0.02 0.05 0.02 0.01 0.00 0.00 0.01 0.02 0.04 0.10 0.14 0.27 0.38 0.41 0.37 0.54 0.22 0.15 0.23 0.52 0.61 0.67 0.70 0.86 0.71 0.66 0.80 0.66
0.00 0.02 0.00 0.00 0.00 0.00 0.00 0.00 0.00 0.00 0.00 0.00 0.00 0.00 0.00 0.01 0.03 0.02 0.03 0.01 0.00 0.00 0.00 0.02 0.09 0.13 0.15 0.15 0.17 0.06 0.06 0.27 0.22 0.10 0.16 0.41 0.68 0.78 0.93 1.25 1.08 0.68 0.77 0.75
0.01 0.00 0.00 0.00 0.00 0.00 0.01 0.00 0.00 0.00 0.01 0.02 0.00 0.02 0.02 0.00 0.01 0.01 0.01 0.01 0.01 0.01 0.01 0.01 0.01 0.02 0.02 0.02 0.03 0.02 0.07 0.13 0.18 0.20 0.24 0.32 0.64 0.68 0.78 0.81 1.02 0.70 0.59 0.58
0.03 0.00 0.00 0.00 0.00 0.00 0.03 0.00 0.00 0.00 0.00 0.01 0.01 0.01 0.01 0.00 0.00 0.00 0.00 0.01 0.00 0.01 0.01 0.00 0.01 0.02 0.01 0.04 0.04 0.10 0.13 0.15 0.12 0.18 0.32 0.22 0.32 0.46 0.65 0.82 1.11 1.24 0.86 0.59
0.00 0.00 0.00 0.01 0.00 0.00 0.00 0.00 0.00 0.00 0.00 0.00 0.01 0.01 0.01 0.01 0.01 0.01 0.00 0.00 0.00 0.02 0.01 0.01 0.02 0.02 0.03 0.12 0.17 0.16 0.13 0.14 0.16 0.22 0.27 0.28 0.21 0.18 0.25 0.51 0.81 1.41 1.43 0.89
0.00 0.00 0.00 0.00 0.00 0.00 0.00 0.00 0.02 0.13 0.04 0.02 0.05 0.06 0.02 0.01 0.01 0.05 0.00 0.00 0.00 0.01 0.01 0.02 0.02 0.06 0.09 0.20 0.22 0.16 0.13 0.13 0.17 0.21 0.26 0.23 0.19 0.10 0.09 0.12 0.29 0.62 1.44 1.40
0.00 0.01 0.00 0.00 0.00 0.01 0.01 0.00 0.05 0.10 0.07 0.09 0.08 0.02 0.01 0.00 0.00 0.00 0.00 0.00 0.00 0.00 0.00 0.01 0.04 0.06 0.10 0.30 0.22 0.10 0.05 0.05 0.07 0.10 0.21 0.18 0.15 0.12 0.09 0.09 0.19 0.25 0.47 1.02
0.00 0.00 0.01 0.00 0.00 0.01 0.04 0.05 0.01 0.02 0.03 0.05 0.02 0.01 0.02 0.01 0.00 0.00 0.00 0.00 0.00 0.00 0.00 0.00 0.02 0.05 0.11 0.22 0.16 0.05 0.02 0.01 0.05 0.10 0.11 0.15 0.21 0.10 0.14 0.32 0.22 0.37 0.37 0.67
0.01 0.03 0.01 0.01 0.01 0.04 0.01 0.02 0.04 0.06 0.09 0.04 0.00 0.01 0.04 0.05 0.01 0.02 0.02 0.00 0.01 0.00 0.00 0.00 0.01 0.02 0.07 0.16 0.16 0.19 0.12 0.08 0.07 0.06 0.08 0.09 0.19 0.18 0.17 0.30 0.15 0.24 0.34 0.61
0.00 0.05 0.05 0.01 0.05 0.12 0.11 0.07 0.03 0.03 0.01 0.06 0.09 0.01 0.03 0.05 0.10 0.07 0.07 0.05 0.01 0.00 0.01 0.01 0.00 0.00 0.04 0.15 0.18 0.25 0.38 0.26 0.13 0.07 0.06 0.11 0.33 0.31 0.31 0.29 0.33 0.34 0.52 0.71
0.00 0.01 0.01 0.01 0.02 0.04 0.08 0.18 0.33 0.32 0.13 0.03 0.06 0.03 0.00 0.02 0.06 0.12 0.21 0.23 0.12 0.03 0.02 0.05 0.04 0.02 0.04 0.14 0.21 0.15 0.31 0.31 0.33 0.19 0.17 0.24 0.43 0.41 0.43 0.57 0.54 0.64 0.80 0.86
0.04 0.07 0.05 0.01 0.05 0.07 0.06 0.05 0.15 0.20 0.19 0.16 0.15 0.06 0.01 0.01 0.04 0.07 0.18 0.21 0.18 0.10 0.02 0.02 0.04 0.05 0.12 0.19 0.26 0.16 0.17 0.19 0.29 0.43 0.48 0.34 0.47 0.43 0.70 0.77 1.02 1.17 1.17 1.27
0.12 0.07 0.06 0.05 0.08 0.09 0.04 0.02 0.06 0.15 0.33 0.17 0.09 0.03 0.03 0.04 0.02 0.07 0.11 0.11 0.12 0.14 0.09 0.09 0.12 0.13 0.16 0.25 0.38 0.39 0.48 0.41 0.44 0.50 0.52 0.41 0.42 0.49 0.63 0.71 0.84 1.23 1.29 1.04
0.13 0.13 0.02 0.01 0.01 0.01 0.01 0.00 0.00 0.02 0.07 0.26 0.13 0.02 0.01 0.01 0.01 0.02 0.06 0.07 0.08 0.25 0.31 0.19 0.19 0.25 0.23 0.30 0.38 0.52 0.48 0.48 0.54 0.57 0.59 0.50 0.62 0.97 1.02 1.06 0.91 0.71 0.50 0.41
0.26 0.19 0.05 0.02 0.00 0.00 0.00 0.00 0.00 0.00 0.00 0.00 0.00 0.00 0.00 0.00 0.00 0.00 0.01 0.03 0.15 0.33 0.24 0.24 0.19 0.21 0.25 0.31 0.34 0.46 0.55 0.49 0.46 0.45 0.41 0.57 0.70 0.60 0.63 0.57 0.42 0.28 0.23 0.24
0.57 0.42 0.28 0.12 0.02 0.05 0.05 0.00 0.00 0.00 0.00 0.00 0.00 0.00 0.00 0.00 0.03 0.06 0.08 0.09 0.11 0.12 0.06 0.15 0.21 0.17 0.27 0.29 0.30 0.42 0.55 0.55 0.40 0.34 0.34 0.36 0.35 0.31 0.24 0.17 0.16 0.21 0.23 0.19
0.47 0.55 0.58 0.31 0.20 0.28 0.03 0.00 0.00 0.00 0.01 0.01 0.02 0.01 0.01 0.01 0.11 0.09 0.05 0.04 0.06 0.04 0.06 0.06 0.09 0.06 0.12 0.26 0.44 0.51 0.54 0.59 0.55 0.36 0.26 0.18 0.13 0.10 0.09 0.14 0.20 0.20 0.21 0.18
0.12 0.31 0.58 0.44 0.28 0.14 0.02 0.03 0.08 0.08 0.15 0.11 0.08 0.07 0.04 0.04 0.11 0.11 0.09 0.07 0.09 0.06 0.05 0.01 0.01 0.01 0.02 0.10 0.37 0.75 0.87 0.66 0.62 0.46 0.34 0.18 0.12 0.10 0.14 0.18 0.22 0.19 0.19 0.24
0.12 0.21 0.49 0.53 0.41 0.12 0.06 0.06 0.04 0.08 0.31 0.32 0.26 0.29 0.25 0.17 0.30 0.29 0.14 0.11 0.07 0.03 0.00 0.00 0.00 0.00 0.02 0.08 0.23 0.39 0.74 0.85 0.60 0.54 0.41 0.37 0.23 0.15 0.16 0.14 0.12 0.14 0.19 0.25
0.64 0.75 0.67 0.45 0.75 0.16 0.04 0.06 0.08 0.38 0.71 0.53 0.65 0.84 0.65 0.63 0.69 0.41 0.30 0.09 0.01 0.00 0.00 0.00 0.00 0.00 0.00 0.05 0.18 0.47 0.69 1.06 1.04 0.70 0.62 0.44 0.29 0.16 0.09 0.09 0.12 0.16 0.20 0.21
1.37 1.41 1.03 0.86 0.88 0.41 0.12 0.36 0.68 0.65 0.38 0.50 0.95 1.03 0.78 0.59 0.53 0.40 0.14 0.05 0.00 0.00 0.00 0.00 0.00 0.00 0.01 0.03 0.06 0.20 0.53 1.15 1.59 1.27 0.83 0.73 0.54 0.22 0.10 0.07 0.10 0.12 0.15 0.19
1.24 1.07 1.02 0.66 0.47 0.22 0.13 0.34 0.46 0.34 0.42 0.50 0.37 0.43 0.39 0.38 0.19 0.07 0.04 0.01 0.00 0.00 0.00 0.00 0.01 0.02 0.02 0.01 0.02 0.07 0.16 0.35 1.17 1.83 1.80 1.30 0.78 0.55 0.46 0.33 0.30 0.26 0.21 0.19
0.88 0.86 1.32 0.78 0.42 0.31 0.28 0.25 0.31 0.49 0.42 0.24 0.31 0.37 0.37 0.25 0.16 0.11 0.04 0.02 0.01 0.01 0.01 0.02 0.03 0.02 0.01 0.01 0.02 0.04 0.07 0.15 0.41 0.90 1.46 1.71 1.65 0.83 0.60 0.76 0.74 0.83 0.85 0.66
0.89 0.83 0.90 1.22 1.37 0.85 0.46 0.47 0.46 0.42 0.47 0.52 0.31 0.23 0.27 0.36 0.31 0.26 0.23 0.09 0.03 0.05 0.06 0.05 0.07 0.06 0.03 0.04 0.04 0.06 0.12 0.16 0.23 0.53 0.93 1.14 1.61 1.52 0.63 0.53 0.77 0.77 0.96 1.01
0.30 0.33 0.68 1.10 1.16 1.44 1.05 1.24 0.96 0.69 0.39 0.29 0.16 0.23 0.17 0.09 0.10 0.15 0.19 0.29 0.30 0.22 0.19 0.17 0.14 0.09 0.09 0.09 0.11 0.12 0.14 0.18 0.24 0.42 0.76 1.00 1.15 1.56 1.46 0.90 1.11 1.39 1.56 1.50

GFSCGP_prec_precacc_126.txt.gz
Total_Precipitation_Accumulation
0.00 0.00 0.00 0.00 0.00 0.00 0.00 0.00 0.00 0.00 0.00 0.00 0.00 0.00 0.02 0.04 0.03 0.13 0.01 0.00 0.00 0.00 0.00 0.01 0.02 0.05 0.08 0.12 0.31 0.81 1.22 1.52 1.15 0.77 0.58 0.86 0.81 0.76 0.86 0.92 0.90 0.73 0.86 0.86
0.00 0.00 0.00 0.00 0.00 0.00 0.00 0.00 0.00 0.00 0.00 0.00 0.00 0.00 0.01 0.02 0.02 0.05 0.02 0.01 0.00 0.00 0.01 0.02 0.04 0.10 0.14 0.27 0.38 0.41 0.37 0.54 0.22 0.15 0.23 0.52 0.61 0.67 0.70 0.87 0.72 0.67 0.81 0.66
0.00 0.02 0.00 0.00 0.00 0.00 0.00 0.00 0.00 0.00 0.00 0.00 0.00 0.00 0.00 0.01 0.03 0.02 0.03 0.01 0.00 0.00 0.00 0.02 0.09 0.13 0.15 0.15 0.17 0.06 0.06 0.27 0.22 0.10 0.16 0.41 0.69 0.79 0.93 1.25 1.08 0.68 0.77 0.77
0.01 0.00 0.00 0.00 0.00 0.00 0.01 0.00 0.00 0.00 0.01 0.02 0.00 0.02 0.02 0.00 0.01 0.01 0.01 0.01 0.01 0.01 0.01 0.01 0.01 0.02 0.02 0.02 0.03 0.02 0.07 0.13 0.18 0.20 0.24 0.32 0.64 0.68 0.78 0.81 1.02 0.70 0.59 0.59
0.03 0.00 0.00 0.00 0.00 0.00 0.03 0.00 0.00 0.00 0.00 0.01 0.01 0.01 0.01 0.00 0.00 0.00 0.00 0.01 0.00 0.01 0.01 0.00 0.01 0.02 0.01 0.04 0.04 0.10 0.13 0.15 0.12 0.18 0.32 0.22 0.32 0.46 0.65 0.82 1.12 1.24 0.87 0.59
0.00 0.00 0.00 0.01 0.00 0.00 0.00 0.00 0.00 0.00 0.00 0.00 0.01 0.01 0.01 0.01 0.01 0.01 0.00 0.00 0.00 0.02 0.01 0.01 0.02 0.02 0.03 0.12 0.17 0.16 0.13 0.14 0.16 0.22 0.27 0.29 0.21 0.18 0.26 0.52 0.81 1.41 1.43 0.89
0.00 0.00 0.00 0.00 0.00 0.00 0.00 0.00 0.02 0.15 0.05 0.02 0.05 0.06 0.02 0.01 0.01 0.05 0.00 0.00 0.00 0.01 0.01 0.02 0.02 0.06 0.09 0.20 0.22 0.16 0.13 0.13 0.17 0.21 0.27 0.24 0.20 0.11 0.12 0.14 0.29 0.62 1.44 1.40
0.00 0.01 0.00 0.00 0.00 0.01 0.01 0.01 0.06 0.11 0.08 0.09 0.08 0.03 0.01 0.00 0.00 0.00 0.00 0.00 0.00 0.00 0.00 0.01 0.04 0.06 0.10 0.30 0.22 0.10 0.05 0.05 0.07 0.10 0.22 0.18 0.16 0.13 0.11 0.12 0.19 0.25 0.47 1.02
0.00 0.00 0.01 0.00 0.00 0.02 0.07 0.07 0.02 0.04 0.05 0.08 0.03 0.01 0.02 0.01 0.00 0.00 0.00 0.00 0.00 0.00 0.00 0.00 0.02 0.05 0.11 0.22 0.16 0.05 0.02 0.01 0.06 0.10 0.11 0.15 0.21 0.11 0.16 0.33 0.22 0.38 0.37 0.67
0.01 0.03 0.01 0.01 0.02 0.04 0.03 0.03 0.08 0.15 0.16 0.06 0.00 0.02 0.05 0.05 0.01 0.02 0.02 0.00 0.01 0.00 0.00 0.00 0.01 0.02 0.07 0.16 0.16 0.19 0.12 0.08 0.07 0.06 0.08 0.09 0.19 0.18 0.20 0.31 0.16 0.25 0.35 0.61
0.00 0.05 0.05 0.01 0.06 0.14 0.15 0.10 0.07 0.10 0.05 0.09 0.10 0.02 0.03 0.08 0.12 0.07 0.07 0.05 0.01 0.00 0.01 0.01 0.00 0.00 0.04 0.15 0.18 0.25 0.38 0.26 0.13 0.07 0.07 0.12 0.33 0.31 0.32 0.31 0.35 0.35 0.53 0.72
0.00 0.03 0.02 0.01 0.02 0.05 0.11 0.25 0.44 0.54 0.28 0.08 0.08 0.04 0.00 0.02 0.09 0.13 0.21 0.23 0.12 0.03 0.02 0.05 0.04 0.02 0.04 0.14 0.21 0.15 0.31 0.31 0.33 0.19 0.17 0.25 0.43 0.42 0.45 0.58 0.56 0.67 0.81 0.88
0.06 0.12 0.09 0.03 0.06 0.12 0.11 0.08 0.18 0.29 0.31 0.24 0.27 0.10 0.02 0.04 0.04 0.07 0.18 0.21 0.18 0.10 0.02 0.02 0.04 0.05 0.12 0.19 0.26 0.16 0.17 0.19 0.29 0.43 0.49 0.35 0.48 0.44 0.73 0.80 1.05 1.18 1.19 1.28
0.14 0.08 0.07 0.06 0.10 0.14 0.05 0.03 0.06 0.16 0.35 0.20 0.17 0.13 0.21 0.16 0.11 0.09 0.11 0.11 0.12 0.14 0.09 0.09 0.12 0.13 0.16 0.25 0.38 0.39 0.48 0.41 0.44 0.50 0.52 0.41 0.43 0.51 0.65 0.75 0.86 1.25 1.31 1.05
0.16 0.14 0.04 0.02 0.01 0.01 0.01 0.00 0.01 0.03 0.08 0.26 0.14 0.16 0.25 0.20 0.09 0.03 0.06 0.07 0.08 0.25 0.31 0.19 0.19 0.25 0.23 0.30 0.38 0.52 0.48 0.48 0.54 0.57 0.59 0.50 0.63 1.00 1.07 1.10 0.93 0.74 0.53 0.42
0.31 0.30 0.13 0.05 0.00 0.00 0.00 0.00 0.00 0.00 0.00 0.00 0.00 0.01 0.00 0.00 0.00 0.00 0.01 0.03 0.15 0.33 0.24 0.24 0.19 0.21 0.25 0.31 0.34 0.46 0.55 0.49 0.46 0.45 0.41 0.57 0.72 0.64 0.69 0.62 0.45 0.29 0.25 0.25
0.59 0.45 0.32 0.15 0.02 0.06 0.06 0.00 0.00 0.00 0.00 0.00 0.00 0.00 0.00 0.00 0.03 0.06 0.08 0.09 0.11 0.12 0.06 0.15 0.21 0.17 0.27 0.29 0.30 0.42 0.55 0.55 0.40 0.34 0.34 0.37 0.37 0.36 0.30 0.21 0.19 0.23 0.24 0.20
0.50 0.58 0.62 0.33 0.22 0.31 0.04 0.01 0.00 0.00 0.01 0.01 0.02 0.01 0.01 0.02 0.11 0.09 0.05 0.05 0.07 0.05 0.06 0.06 0.09 0.06 0.12 0.26 0.44 0.51 0.54 0.59 0.55 0.36 0.26 0.18 0.14 0.14 0.16 0.21 0.22 0.22 0.22 0.18
0.13 0.33 0.61 0.46 0.30 0.16 0.03 0.05 0.08 0.08 0.15 0.13 0.10 0.08 0.04 0.05 0.11 0.12 0.09 0.08 0.09 0.06 0.05 0.01 0.01 0.01 0.02 0.10 0.37 0.75 0.87 0.66 0.62 0.46 0.34 0.19 0.14 0.16 0.26 0.34 0.25 0.21 0.20 0.25
0.13 0.25 0.62 0.56 0.46 0.15 0.13 0.13 0.05 0.08 0.36 0.45 0.28 0.29 0.26 0.17 0.30 0.30 0.14 0.11 0.07 0.03 0.00 0.00 0.00 0.00 0.02 0.08 0.23 0.39 0.74 0.85 0.60 0.54 0.41 0.39 0.29 0.28 0.35 0.30 0.16 0.15 0.19 0.26
0.65 0.77 0.85 0.53 0.84 0.25 0.13 0.07 0.09 0.45 0.91 0.67 0.66 0.84 0.67 0.70 0.76 0.47 0.34 0.15 0.04 0.00 0.00 0.00 0.00 0.00 0.00 0.05 0.18 0.47 0.69 1.06 1.04 0.70 0.62 0.48 0.37 0.37 0.29 0.22 0.15 0.17 0.22 0.23
1.42 1.43 1.05 0.95 1.05 0.63 0.19 0.38 0.78 0.83 0.41 0.51 0.98 1.11 0.94 0.82 0.66 0.43 0.14 0.06 0.02 0.00 0.00 0.00 0.00 0.00 0.01 0.03 0.06 0.20 0.53 1.15 1.59 1.27 0.84 0.78 0.64 0.39 0.27 0.19 0.13 0.14 0.18 0.21
1.28 1.13 1.16 0.82 0.62 0.38 0.27 0.46 0.58 0.41 0.46 0.56 0.48 0.56 0.43 0.38 0.19 0.07 0.04 0.01 0.00 0.00 0.00 0.00 0.01 0.02 0.02 0.01 0.02 0.07 0.16 0.35 1.17 1.83 1.81 1.35 0.88 0.75 0.67 0.55 0.37 0.30 0.26 0.23
0.90 0.92 1.37 0.87 0.48 0.33 0.38 0.31 0.39 0.60 0.55 0.35 0.37 0.39 0.37 0.25 0.16 0.11 0.04 0.02 0.01 0.01 0.01 0.02 0.03 0.02 0.01 0.01 0.02 0.04 0.07 0.15 0.41 0.90 1.49 1.86 1.87 1.12 0.97 1.09 0.89 0.87 0.90 0.72
0.93 0.87 0.91 1.27 1.40 0.86 0.48 0.50 0.51 0.50 0.55 0.57 0.34 0.24 0.27 0.36 0.31 0.26 0.23 0.09 0.03 0.05 0.06 0.05 0.07 0.06 0.03 0.04 0.04 0.06 0.12 0.17 0.24 0.55 0.96 1.26 1.93 1.90 1.07 0.89 0.98 0.85 1.07 1.10
0.31 0.34 0.70 1.12 1.18 1.47 1.06 1.25 0.97 0.70 0.40 0.29 0.17 0.23 0.17 0.09 0.10 0.15 0.19 0.29 0.30 0.22 0.19 0.17 0.14 0.09 0.09 0.09 0.11 0.12 0.15 0.21 0.25 0.46 0.87 1.16 1.43 2.00 1.95 1.33 1.41 1.61 1.74 1.66

GFSCGP_prec_precacc_129.txt.gz
Total_Precipitation_Accumulation
0.00 0.00 0.00 0.00 0.00 0.00 0.00 0.00 0.00 0.00 0.00 0.00 0.00 0.00 0.02 0.04 0.03 0.13 0.01 0.00 0.00 0.00 0.00 0.01 0.02 0.05 0.08 0.12 0.31 0.81 1.22 1.52 1.15 0.78 0.59 0.86 0.81 0.76 0.86 0.92 0.90 0.74 0.88 0.88
0.00 0.00 0.00 0.00 0.00 0.00 0.00 0.00 0.00 0.00 0.00 0.00 0.00 0.00 0.01 0.02 0.02 0.05 0.02 0.01 0.00 0.00 0.01 0.02 0.04 0.10 0.14 0.27 0.38 0.41 0.37 0.54 0.22 0.15 0.23 0.52 0.61 0.67 0.70 0.87 0.72 0.67 0.83 0.69
0.00 0.02 0.00 0.00 0.00 0.00 0.00 0.00 0.00 0.00 0.00 0.00 0.00 0.00 0.00 0.01 0.03 0.02 0.03 0.01 0.00 0.00 0.00 0.02 0.09 0.13 0.15 0.15 0.17 0.06 0.06 0.27 0.22 0.10 0.16 0.41 0.69 0.79 0.93 1.25 1.08 0.68 0.79 0.79
0.01 0.00 0.00 0.00 0.00 0.00 0.01 0.00 0.00 0.00 0.01 0.02 0.00 0.02 0.02 0.00 0.01 0.01 0.01 0.01 0.01 0.01 0.01 0.01 0.01 0.02 0.02 0.02 0.03 0.02 0.07 0.13 0.18 0.20 0.24 0.32 0.64 0.68 0.78 0.81 1.03 0.71 0.60 0.63
0.03 0.00 0.00 0.00 0.00 0.00 0.03 0.00 0.00 0.00 0.00 0.01 0.01 0.01 0.01 0.00 0.00 0.00 0.00 0.01 0.00 0.01 0.01 0.00 0.01 0.02 0.01 0.04 0.04 0.10 0.13 0.15 0.12 0.18 0.32 0.22 0.32 0.46 0.65 0.82 1.12 1.25 0.87 0.61
0.00 0.00 0.00 0.01 0.00 0.00 0.00 0.00 0.00 0.00 0.00 0.00 0.01 0.01 0.01 0.01 0.01 0.01 0.00 0.00 0.00 0.02 0.01 0.01 0.02 0.02 0.03 0.12 0.17 0.16 0.13 0.14 0.16 0.22 0.27 0.29 0.21 0.18 0.26 0.52 0.81 1.41 1.44 0.90
0.00 0.00 0.00 0.00 0.00 0.00 0.00 0.00 0.03 0.15 0.05 0.02 0.05 0.06 0.02 0.01 0.01 0.05 0.00 0.00 0.00 0.01 0.01 0.02 0.02 0.06 0.09 0.20 0.22 0.16 0.13 0.13 0.17 0.21 0.27 0.24 0.21 0.12 0.12 0.14 0.30 0.63 1.45 1.41
0.00 0.01 0.00 0.00 0.00 0.01 0.01 0.03 0.13 0.18 0.09 0.10 0.08 0.03 0.01 0.00 0.00 0.00 0.00 0.00 0.00 0.00 0.00 0.01 0.04 0.06 0.10 0.30 0.22 0.10 0.05 0.05 0.07 0.10 0.22 0.18 0.16 0.15 0.13 0.14 0.21 0.26 0.47 1.02
0.00 0.00 0.01 0.00 0.00 0.03 0.08 0.09 0.06 0.13 0.11 0.12 0.03 0.01 0.02 0.01 0.00 0.00 0.00 0.00 0.01 0.01 0.01 0.00 0.02 0.05 0.11 0.22 0.16 0.05 0.02 0.01 0.06 0.10 0.11 0.15 0.22 0.11 0.17 0.36 0.25 0.40 0.38 0.67
0.01 0.03 0.01 0.01 0.02 0.04 0.03 0.04 0.10 0.24 0.32 0.14 0.01 0.02 0.05 0.05 0.03 0.06 0.06 0.01 0.02 0.01 0.01 0.00 0.01 0.02 0.07 0.16 0.16 0.19 0.12 0.08 0.07 0.06 0.08 0.09 0.20 0.19 0.21 0.34 0.20 0.28 0.36 0.62
0.00 0.05 0.05 0.01 0.06 0.14 0.16 0.13 0.12 0.14 0.10 0.17 0.14 0.03 0.09 0.12 0.17 0.15 0.12 0.08 0.03 0.01 0.01 0.01 0.00 0.00 0.04 0.15 0.18 0.25 0.38 0.26 0.13 0.07 0.07 0.12 0.33 0.31 0.33 0.35 0.40 0.40 0.55 0.72
0.00 0.03 0.02 0.01 0.02 0.05 0.12 0.31 0.56 0.73 0.35 0.14 0.11 0.06 0.06 0.07 0.10 0.20 0.31 0.25 0.13 0.03 0.02 0.05 0.04 0.02 0.04 0.14 0.21 0.15 0.31 0.31 0.33 0.19 0.17 0.25 0.44 0.43 0.45 0.61 0.62 0.71 0.85 0.90
0.09 0.15 0.15 0.03 0.10 0.15 0.14 0.10 0.23 0.39 0.37 0.28 0.41 0.16 0.05 0.11 0.17 0.13 0.25 0.22 0.18 0.10 0.02 0.02 0.04 0.05 0.12 0.19 0.26 0.16 0.17 0.19 0.29 0.43 0.49 0.35 0.48 0.45 0.74 0.81 1.09 1.24 1.27 1.34
0.18 0.09 0.08 0.06 0.11 0.17 0.09 0.03 0.06 0.18 0.36 0.21 0.20 0.15 0.27 0.26 0.29 0.17 0.12 0.11 0.12 0.14 0.09 0.09 0.12 0.13 0.16 0.25 0.38 0.39 0.48 0.41 0.44 0.50 0.52 0.41 0.43 0.52 0.67 0.76 0.89 1.31 1.41 1.11
0.21 0.20 0.05 0.02 0.01 0.01 0.02 0.01 0.01 0.03 0.08 0.27 0.14 0.17 0.27 0.31 0.31 0.18 0.08 0.07 0.08 0.25 0.31 0.19 0.19 0.25 0.23 0.30 0.38 0.52 0.48 0.48 0.54 0.57 0.59 0.50 0.63 1.00 1.09 1.13 0.97 0.77 0.64 0.52
0.34 0.37 0.17 0.09 0.00 0.00 0.00 0.00 0.00 0.00 0.00 0.00 0.00 0.01 0.00 0.01 0.06 0.04 0.05 0.05 0.16 0.33 0.24 0.24 0.19 0.21 0.25 0.31 0.34 0.46 0.55 0.49 0.46 0.45 0.41 0.57 0.72 0.64 0.70 0.64 0.49 0.33 0.31 0.31
0.62 0.46 0.33 0.16 0.02 0.06 0.06 0.00 0.00 0.00 0.00 0.00 0.01 0.02 0.01 0.03 0.04 0.09 0.11 0.09 0.11 0.12 0.07 0.15 0.21 0.17 0.27 0.29 0.30 0.42 0.55 0.55 0.40 0.34 0.34 0.37 0.37 0.36 0.31 0.23 0.25 0.29 0.30 0.24
0.51 0.58 0.62 0.33 0.22 0.31 0.05 0.02 0.01 0.03 0.03 0.03 0.05 0.04 0.03 0.03 0.11 0.09 0.05 0.05 0.07 0.06 0.07 0.06 0.09 0.06 0.12 0.26 0.44 0.51 0.54 0.59 0.55 0.36 0.26 0.18 0.14 0.14 0.17 0.27 0.33 0.32 0.31 0.21
0.13 0.33 0.63 0.46 0.30 0.16 0.06 0.09 0.11 0.12 0.20 0.17 0.14 0.09 0.05 0.05 0.11 0.12 0.09 0.08 0.09 0.06 0.05 0.01 0.01 0.01 0.02 0.10 0.37 0.75 0.87 0.66 0.62 0.46 0.34 0.19 0.14 0.16 0.26 0.40 0.47 0.32 0.29 0.30
0.13 0.26 0.74 0.60 0.48 0.20 0.19 0.16 0.07 0.12 0.43 0.67 0.34 0.30 0.26 0.17 0.30 0.30 0.14 0.11 0.07 0.03 0.00 0.00 0.00 0.00 0.02 0.08 0.23 0.39 0.74 0.85 0.60 0.54 0.41 0.39 0.29 0.28 0.36 0.35 0.28 0.27 0.32 0.31
0.65 0.77 0.87 0.62 0.98 0.44 0.16 0.07 0.09 0.50 1.04 0.80 0.70 0.86 0.70 0.72 0.81 0.52 0.35 0.15 0.04 0.00 0.00 0.00 0.00 0.00 0.00 0.05 0.18 0.47 0.69 1.06 1.04 0.70 0.62 0.48 0.37 0.37 0.31 0.27 0.27 0.33 0.35 0.28
1.44 1.44 1.06 0.97 1.07 0.68 0.20 0.39 0.82 0.89 0.47 0.59 1.07 1.27 1.05 0.89 0.70 0.44 0.14 0.06 0.02 0.00 0.00 0.00 0.00 0.00 0.01 0.03 0.06 0.20 0.53 1.15 1.59 1.27 0.84 0.78 0.64 0.39 0.30 0.26 0.25 0.31 0.39 0.37
1.28 1.18 1.22 0.89 0.71 0.46 0.33 0.55 0.68 0.53 0.57 0.67 0.60 0.65 0.47 0.39 0.19 0.07 0.04 0.01 0.00 0.00 0.00 0.00 0.01 0.02 0.02 0.01 0.02 0.07 0.16 0.35 1.17 1.83 1.81 1.35 0.88 0.75 0.69 0.66 0.59 0.51 0.46 0.40
0.91 0.94 1.38 0.93 0.58 0.35 0.49 0.36 0.46 0.67 0.61 0.38 0.40 0.40 0.37 0.25 0.16 0.11 0.04 0.02 0.01 0.01 0.01 0.02 0.03 0.02 0.01 0.01 0.02 0.04 0.07 0.15 0.41 0.91 1.49 1.86 1.87 1.12 0.97 1.13 1.12 1.25 1.20 0.92
0.95 0.88 0.91 1.28 1.42 0.87 0.51 0.54 0.53 0.52 0.56 0.58 0.34 0.24 0.27 0.36 0.31 0.26 0.23 0.09 0.03 0.05 0.06 0.05 0.07 0.06 0.03 0.04 0.04 0.06 0.12 0.18 0.25 0.56 0.97 1.27 1.94 1.90 1.08 0.98 1.19 1.14 1.40 1.41
0.32 0.34 0.70 1.14 1.22 1.51 1.10 1.26 0.97 0.70 0.40 0.29 0.17 0.23 0.17 0.09 0.10 0.15 0.19 0.29 0.30 0.22 0.19 0.17 0.14 0.09 0.10 0.10 0.13 0.13 0.15 0.22 0.28 0.48 0.88 1.17 1.43 2.02 2.01 1.43 1.64 1.96 2.06 1.93

GFSCGP_prec_precacc_132.txt.gz
Total_Precipitation_Accumulation
0.00 0.00 0.00 0.00 0.00 0.00 0.00 0.00 0.00 0.00 0.00 0.00 0.00 0.00 0.02 0.04 0.03 0.13 0.01 0.00 0.00 0.00 0.00 0.01 0.02 0.05 0.08 0.12 0.31 0.81 1.22 1.53 1.21 0.82 0.63 0.89 0.83 0.78 0.87 0.93 0.90 0.74 0.90 0.98
0.00 0.00 0.00 0.00 0.00 0.00 0.00 0.00 0.00 0.00 0.00 0.00 0.00 0.00 0.01 0.02 0.02 0.05 0.02 0.01 0.00 0.00 0.01 0.02 0.04 0.10 0.14 0.27 0.38 0.41 0.37 0.54 0.22 0.15 0.24 0.54 0.61 0.68 0.70 0.87 0.72 0.68 0.84 0.75
0.00 0.02 0.00 0.00 0.00 0.00 0.00 0.00 0.00 0.00 0.00 0.00 0.00 0.00 0.00 0.01 0.03 0.02 0.03 0.01 0.00 0.00 0.00 0.02 0.09 0.13 0.15 0.15 0.17 0.06 0.06 0.27 0.22 0.10 0.16 0.41 0.69 0.79 0.93 1.25 1.08 0.69 0.80 0.82
0.01 0.00 0.00 0.00 0.00 0.00 0.01 0.00 0.00 0.00 0.01 0.02 0.00 0.02 0.02 0.00 0.01 0.01 0.01 0.01 0.01 0.01 0.01 0.01 0.01 0.02 0.02 0.02 0.03 0.02 0.07 0.13 0.18 0.20 0.24 0.32 0.64 0.68 0.78 0.81 1.03 0.73 0.64 0.67
0.03 0.00 0.00 0.00 0.00 0.00 0.03 0.00 0.00 0.00 0.00 0.01 0.01 0.01 0.01 0.00 0.00 0.00 0.00 0.01 0.00 0.01 0.01 0.00 0.01 0.02 0.01 0.04 0.04 0.10 0.13 0.15 0.12 0.18 0.32 0.23 0.32 0.46 0.65 0.82 1.13 1.26 0.89 0.63
0.00 0.00 0.00 0.01 0.00 0.00 0.00 0.00 0.00 0.00 0.00 0.00 0.01 0.01 0.01 0.01 0.01 0.01 0.00 0.00 0.00 0.02 0.01 0.01 0.02 0.02 0.03 0.12 0.17 0.16 0.13 0.14 0.16 0.22 0.27 0.29 0.21 0.19 0.26 0.52 0.83 1.45 1.46 0.92
0.00 0.00 0.00 0.00 0.00 0.00 0.00 0.00 0.03 0.16 0.05 0.02 0.05 0.06 0.02 0.01 0.01 0.05 0.00 0.00 0.00 0.01 0.01 0.02 0.02 0.06 0.09 0.20 0.22 0.16 0.13 0.13 0.17 0.21 0.27 0.24 0.21 0.13 0.14 0.18 0.32 0.66 1.47 1.42
0.00 0.01 0.00 0.00 0.00 0.01 0.01 0.03 0.14 0.24 0.11 0.11 0.09 0.03 0.01 0.00 0.00 0.00 0.00 0.00 0.00 0.00 0.00 0.01 0.04 0.06 0.10 0.30 0.22 0.10 0.05 0.05 0.07 0.10 0.22 0.18 0.16 0.15 0.14 0.16 0.23 0.28 0.48 1.03
0.00 0.00 0.01 0.00 0.00 0.03 0.08 0.09 0.07 0.17 0.12 0.14 0.04 0.01 0.02 0.01 0.01 0.00 0.00 0.01 0.02 0.01 0.01 0.01 0.02 0.05 0.11 0.22 0.16 0.05 0.02 0.01 0.06 0.10 0.11 0.15 0.22 0.12 0.17 0.37 0.28 0.43 0.40 0.69
0.01 0.03 0.01 0.01 0.02 0.04 0.03 0.04 0.12 0.27 0.40 0.22 0.08 0.05 0.08 0.06 0.06 0.12 0.12 0.07 0.06 0.06 0.03 0.01 0.01 0.02 0.07 0.16 0.16 0.19 0.12 0.08 0.07 0.06 0.08 0.09 0.20 0.19 0.21 0.34 0.22 0.31 0.39 0.65
0.00 0.05 0.05 0.01 0.06 0.14 0.16 0.14 0.15 0.18 0.16 0.23 0.17 0.10 0.13 0.15 0.21 0.30 0.32 0.17 0.10 0.05 0.03 0.03 0.00 0.00 0.04 0.15 0.18 0.25 0.38 0.26 0.13 0.07 0.07 0.12 0.33 0.31 0.33 0.35 0.40 0.43 0.62 0.80
0.00 0.03 0.02 0.01 0.02 0.07 0.16 0.34 0.59 0.83 0.54 0.26 0.18 0.08 0.06 0.09 0.16 0.30 0.74 0.49 0.30 0.08 0.06 0.10 0.06 0.02 0.04 0.14 0.21 0.15 0.31 0.31 0.33 0.19 0.17 0.25 0.44 0.43 0.46 0.61 0.62 0.74 0.91 0.98
0.09 0.15 0.15 0.03 0.10 0.15 0.15 0.11 0.24 0.42 0.46 0.34 0.46 0.17 0.05 0.12 0.29 0.26 0.48 0.43 0.29 0.16 0.06 0.04 0.07 0.06 0.12 0.19 0.26 0.16 0.17 0.19 0.29 0.43 0.49 0.35 0.48 0.45 0.74 0.81 1.09 1.26 1.32 1.44
0.18 0.09 0.10 0.09 0.11 0.17 0.09 0.04 0.07 0.19 0.38 0.21 0.20 0.15 0.27 0.26 0.33 0.47 0.35 0.17 0.15 0.15 0.12 0.10 0.13 0.14 0.16 0.25 0.38 0.39 0.48 0.41 0.44 0.50 0.52 0.41 0.43 0.52 0.67 0.76 0.89 1.32 1.45 1.23
0.21 0.21 0.05 0.02 0.01 0.01 0.02 0.01 0.01 0.03 0.08 0.27 0.14 0.17 0.27 0.31 0.33 0.43 0.18 0.17 0.12 0.27 0.32 0.20 0.19 0.25 0.23 0.30 0.38 0.52 0.48 0.48 0.54 0.57 0.59 0.50 0.63 1.00 1.09 1.13 0.97 0.78 0.65 0.60
0.34 0.38 0.17 0.09 0.00 0.00 0.00 0.00 0.00 0.01 0.01 0.01 0.00 0.02 0.00 0.02 0.06 0.07 0.06 0.07 0.17 0.34 0.25 0.24 0.19 0.21 0.25 0.31 0.34 0.46 0.55 0.49 0.46 0.45 0.41 0.57 0.72 0.64 0.70 0.64 0.49 0.33 0.32 0.40
0.67 0.48 0.33 0.16 0.02 0.06 0.07 0.01 0.02 0.08 0.03 0.01 0.02 0.03 0.02 0.04 0.04 0.09 0.12 0.10 0.11 0.12 0.07 0.15 0.21 0.17 0.27 0.29 0.30 0.42 0.55 0.55 0.40 0.34 0.34 0.37 0.37 0.36 0.31 0.23 0.25 0.30 0.31 0.27
0.54 0.58 0.62 0.33 0.22 0.32 0.12 0.04 0.03 0.11 0.06 0.04 0.06 0.04 0.03 0.03 0.11 0.09 0.05 0.05 0.07 0.06 0.07 0.06 0.09 0.06 0.12 0.26 0.44 0.51 0.54 0.59 0.55 0.36 0.26 0.18 0.14 0.14 0.17 0.27 0.34 0.35 0.33 0.25
0.13 0.33 0.64 0.47 0.30 0.16 0.07 0.09 0.13 0.16 0.25 0.18 0.15 0.09 0.05 0.05 0.11 0.12 0.09 0.08 0.09 0.06 0.05 0.01 0.01 0.01 0.02 0.10 0.37 0.75 0.87 0.66 0.62 0.46 0.34 0.19 0.14 0.16 0.26 0.40 0.47 0.39 0.34 0.41
0.13 0.26 0.75 0.62 0.50 0.21 0.19 0.16 0.07 0.13 0.47 0.68 0.36 0.31 0.27 0.18 0.31 0.31 0.15 0.11 0.07 0.03 0.00 0.00 0.00 0.00 0.02 0.08 0.23 0.39 0.74 0.85 0.60 0.54 0.41 0.39 0.29 0.28 0.36 0.35 0.28 0.28 0.38 0.39
0.65 0.77 0.87 0.62 1.04 0.50 0.17 0.07 0.09 0.50 1.07 0.82 0.73 0.91 0.75 0.77 0.86 0.54 0.35 0.15 0.04 0.00 0.00 0.00 0.00 0.00 0.00 0.05 0.18 0.47 0.69 1.06 1.04 0.70 0.62 0.48 0.37 0.37 0.31 0.27 0.27 0.33 0.37 0.45
1.44 1.44 1.06 0.97 1.07 0.69 0.21 0.40 0.85 0.93 0.52 0.66 1.14 1.37 1.17 0.99 0.74 0.44 0.14 0.06 0.02 0.00 0.00 0.00 0.00 0.00 0.01 0.03 0.06 0.20 0.53 1.15 1.59 1.27 0.84 0.78 0.64 0.39 0.30 0.26 0.25 0.31 0.40 0.45
1.28 1.20 1.23 0.92 0.76 0.49 0.35 0.59 0.74 0.62 0.67 0.77 0.71 0.76 0.55 0.43 0.20 0.07 0.04 0.01 0.00 0.00 0.00 0.00 0.01 0.02 0.02 0.01 0.02 0.07 0.16 0.35 1.17 1.83 1.81 1.35 0.88 0.75 0.69 0.66 0.59 0.51 0.47 0.45
0.91 0.94 1.38 0.96 0.62 0.36 0.53 0.39 0.48 0.72 0.67 0.41 0.42 0.41 0.38 0.26 0.16 0.11 0.04 0.02 0.01 0.01 0.01 0.02 0.03 0.02 0.01 0.01 0.02 0.04 0.07 0.15 0.41 0.91 1.49 1.86 1.87 1.12 0.98 1.13 1.12 1.25 1.20 0.95
0.95 0.89 0.91 1.29 1.43 0.89 0.55 0.56 0.54 0.52 0.56 0.58 0.34 0.24 0.27 0.36 0.31 0.26 0.23 0.09 0.03 0.05 0.06 0.05 0.07 0.06 0.03 0.04 0.04 0.06 0.12 0.18 0.25 0.56 0.97 1.27 1.94 1.91 1.08 0.98 1.19 1.14 1.41 1.49
0.32 0.34 0.70 1.14 1.24 1.53 1.11 1.26 0.97 0.70 0.40 0.29 0.17 0.23 0.17 0.09 0.10 0.15 0.19 0.30 0.31 0.22 0.19 0.18 0.14 0.09 0.10 0.10 0.13 0.14 0.16 0.22 0.28 0.48 0.89 1.18 1.44 2.02 2.02 1.43 1.64 1.98 2.11 2.05

GFSCGP_prec_precacc_135.txt.gz
Total_Precipitation_Accumulation
0.00 0.00 0.00 0.00 0.00 0.00 0.00 0.00 0.00 0.00 0.00 0.00 0.00 0.00 0.02 0.04 0.03 0.13 0.01 0.00 0.00 0.00 0.00 0.01 0.02 0.05 0.08 0.12 0.31 0.81 1.22 1.53 1.22 0.84 0.67 0.93 0.85 0.79 0.89 0.97 0.91 0.75 0.90 0.99
0.00 0.00 0.00 0.00 0.00 0.00 0.00 0.00 0.00 0.00 0.00 0.00 0.00 0.00 0.01 0.02 0.02 0.05 0.02 0.01 0.00 0.00 0.01 0.02 0.04 0.10 0.14 0.27 0.38 0.41 0.37 0.54 0.23 0.16 0.25 0.55 0.62 0.68 0.71 0.92 0.73 0.68 0.85 0.75
0.00 0.02 0.00 0.00 0.00 0.00 0.00 0.00 0.00 0.00 0.00 0.00 0.00 0.00 0.00 0.01 0.03 0.02 0.03 0.01 0.00 0.00 0.00 0.02 0.09 0.13 0.15 0.15 0.17 0.06 0.06 0.27 0.23 0.12 0.20 0.43 0.69 0.79 0.93 1.25 1.09 0.70 0.81 0.88
0.01 0.00 0.00 0.00 0.00 0.00 0.01 0.00 0.00 0.00 0.01 0.02 0.00 0.02 0.02 0.00 0.01 0.01 0.01 0.01 0.01 0.01 0.01 0.01 0.01 0.02 0.02 0.02 0.03 0.02 0.07 0.13 0.18 0.20 0.25 0.33 0.64 0.68 0.78 0.81 1.03 0.75 0.67 0.75
0.03 0.00 0.00 0.00 0.00 0.00 0.03 0.00 0.00 0.00 0.00 0.01 0.01 0.01 0.01 0.00 0.00 0.00 0.00 0.01 0.00 0.01 0.01 0.00 0.01 0.02 0.01 0.04 0.04 0.10 0.13 0.15 0.12 0.18 0.32 0.23 0.33 0.46 0.65 0.82 1.14 1.27 0.90 0.66
0.00 0.00 0.00 0.01 0.00 0.00 0.00 0.00 0.00 0.00 0.00 0.00 0.01 0.01 0.01 0.01 0.01 0.01 0.00 0.00 0.00 0.02 0.01 0.01 0.02 0.02 0.03 0.12 0.17 0.16 0.13 0.14 0.16 0.22 0.27 0.29 0.21 0.19 0.26 0.52 0.84 1.48 1.49 0.95
0.00 0.00 0.00 0.00 0.00 0.00 0.00 0.00 0.03 0.16 0.05 0.02 0.05 0.06 0.02 0.01 0.01 0.05 0.00 0.00 0.00 0.01 0.01 0.02 0.02 0.06 0.09 0.20 0.22 0.16 0.13 0.13 0.17 0.21 0.27 0.24 0.21 0.13 0.14 0.18 0.33 0.69 1.52 1.46
0.00 0.01 0.00 0.00 0.00 0.01 0.01 0.03 0.14 0.24 0.11 0.11 0.09 0.03 0.01 0.00 0.00 0.00 0.00 0.00 0.00 0.00 0.00 0.01 0.04 0.06 0.10 0.30 0.23 0.11 0.05 0.05 0.07 0.10 0.22 0.18 0.16 0.15 0.14 0.16 0.23 0.29 0.50 1.05
0.00 0.00 0.01 0.00 0.00 0.03 0.08 0.09 0.07 0.17 0.12 0.14 0.04 0.01 0.02 0.01 0.01 0.00 0.00 0.01 0.02 0.01 0.01 0.01 0.04 0.06 0.12 0.24 0.17 0.05 0.02 0.01 0.06 0.10 0.11 0.15 0.22 0.12 0.17 0.37 0.28 0.43 0.41 0.69
0.01 0.03 0.01 0.01 0.02 0.04 0.03 0.04 0.12 0.28 0.40 0.22 0.08 0.08 0.13 0.06 0.06 0.12 0.12 0.09 0.09 0.09 0.09 0.09 0.09 0.07 0.10 0.18 0.17 0.19 0.12 0.08 0.07 0.06 0.08 0.09 0.20 0.19 0.21 0.34 0.22 0.31 0.39 0.65
0.00 0.05 0.05 0.01 0.06 0.14 0.16 0.15 0.16 0.20 0.20 0.27 0.18 0.13 0.15 0.16 0.21 0.30 0.37 0.31 0.20 0.14 0.12 0.10 0.08 0.04 0.07 0.16 0.18 0.25 0.38 0.26 0.13 0.07 0.07 0.12 0.33 0.31 0.33 0.35 0.40 0.43 0.62 0.83
0.00 0.03 0.02 0.01 0.02 0.07 0.16 0.34 0.63 0.89 0.59 0.35 0.32 0.13 0.07 0.09 0.16 0.30 0.81 0.83 0.50 0.23 0.24 0.26 0.23 0.18 0.10 0.15 0.21 0.15 0.31 0.31 0.33 0.19 0.17 0.25 0.44 0.43 0.46 0.61 0.62 0.74 0.91 0.99
0.09 0.15 0.15 0.03 0.10 0.15 0.15 0.11 0.25 0.47 0.51 0.38 0.51 0.17 0.06 0.12 0.29 0.27 0.53 0.64 0.53 0.31 0.21 0.43 0.39 0.25 0.19 0.20 0.26 0.16 0.17 0.19 0.29 0.43 0.49 0.35 0.48 0.45 0.74 0.81 1.09 1.26 1.32 1.44
0.18 0.09 0.10 0.09 0.11 0.17 0.09 0.04 0.07 0.20 0.39 0.22 0.20 0.15 0.28 0.27 0.34 0.51 0.37 0.32 0.45 0.35 0.24 0.24 0.27 0.26 0.22 0.27 0.38 0.39 0.48 0.41 0.44 0.50 0.52 0.41 0.43 0.52 0.67 0.76 0.89 1.32 1.45 1.23
0.21 0.21 0.05 0.02 0.01 0.01 0.02 0.01 0.01 0.03 0.08 0.27 0.14 0.17 0.28 0.32 0.35 0.49 0.28 0.40 0.24 0.52 0.61 0.34 0.27 0.28 0.25 0.31 0.38 0.52 0.48 0.48 0.54 0.57 0.59 0.50 0.63 1.00 1.09 1.13 0.97 0.78 0.65 0.60
0.34 0.38 0.17 0.09 0.00 0.00 0.00 0.00 0.00 0.01 0.02 0.02 0.01 0.02 0.01 0.04 0.09 0.08 0.09 0.10 0.19 0.35 0.28 0.28 0.21 0.22 0.25 0.31 0.34 0.46 0.55 0.49 0.46 0.45 0.41 0.57 0.72 0.64 0.70 0.64 0.49 0.33 0.32 0.40
0.67 0.48 0.33 0.16 0.02 0.06 0.09 0.02 0.03 0.14 0.20 0.05 0.06 0.07 0.02 0.04 0.06 0.10 0.12 0.10 0.12 0.12 0.07 0.15 0.21 0.17 0.27 0.29 0.30 0.42 0.55 0.55 0.40 0.34 0.34 0.37 0.37 0.36 0.31 0.23 0.25 0.30 0.31 0.27
0.54 0.58 0.62 0.33 0.22 0.32 0.15 0.04 0.04 0.18 0.12 0.05 0.08 0.05 0.04 0.03 0.12 0.10 0.05 0.05 0.07 0.06 0.07 0.06 0.09 0.06 0.12 0.26 0.44 0.51 0.54 0.59 0.55 0.36 0.26 0.18 0.14 0.14 0.17 0.27 0.34 0.35 0.33 0.25
0.13 0.33 0.64 0.47 0.30 0.16 0.07 0.09 0.13 0.17 0.26 0.19 0.16 0.10 0.05 0.05 0.11 0.14 0.09 0.08 0.09 0.06 0.05 0.01 0.01 0.01 0.02 0.10 0.37 0.75 0.87 0.66 0.62 0.46 0.34 0.19 0.14 0.16 0.26 0.40 0.47 0.39 0.34 0.41
0.13 0.26 0.75 0.62 0.52 0.22 0.19 0.16 0.07 0.13 0.50 0.69 0.38 0.31 0.28 0.18 0.33 0.33 0.15 0.11 0.07 0.03 0.00 0.00 0.00 0.00 0.02 0.08 0.23 0.39 0.74 0.85 0.60 0.54 0.41 0.39 0.29 0.28 0.36 0.35 0.28 0.28 0.38 0.39
0.65 0.77 0.87 0.62 1.04 0.50 0.17 0.07 0.09 0.51 1.08 0.83 0.75 0.93 0.77 0.80 0.91 0.56 0.35 0.15 0.04 0.00 0.00 0.00 0.00 0.00 0.00 0.05 0.18 0.47 0.69 1.06 1.04 0.70 0.62 0.48 0.37 0.37 0.31 0.27 0.27 0.33 0.37 0.45
1.44 1.44 1.06 0.98 1.07 0.69 0.21 0.40 0.85 0.95 0.54 0.68 1.16 1.41 1.21 1.06 0.78 0.45 0.14 0.06 0.02 0.00 0.00 0.00 0.00 0.00 0.01 0.03 0.06 0.20 0.53 1.15 1.59 1.27 0.84 0.78 0.64 0.39 0.30 0.26 0.25 0.31 0.40 0.45
1.28 1.20 1.23 0.92 0.76 0.50 0.36 0.61 0.77 0.66 0.71 0.80 0.73 0.79 0.55 0.44 0.20 0.07 0.04 0.01 0.00 0.00 0.00 0.00 0.01 0.02 0.02 0.01 0.02 0.07 0.16 0.35 1.17 1.83 1.81 1.35 0.88 0.75 0.69 0.66 0.59 0.51 0.47 0.45
0.91 0.94 1.38 0.97 0.63 0.36 0.53 0.40 0.48 0.72 0.69 0.43 0.42 0.41 0.38 0.26 0.16 0.11 0.04 0.02 0.01 0.01 0.01 0.02 0.03 0.02 0.01 0.01 0.02 0.04 0.07 0.15 0.42 0.91 1.49 1.86 1.87 1.12 0.98 1.13 1.12 1.25 1.20 0.95
0.95 0.89 0.91 1.29 1.43 0.90 0.57 0.56 0.54 0.52 0.56 0.58 0.34 0.24 0.27 0.36 0.31 0.26 0.23 0.09 0.03 0.05 0.06 0.05 0.07 0.06 0.03 0.04 0.04 0.06 0.12 0.18 0.25 0.56 0.97 1.27 1.94 1.91 1.09 0.98 1.19 1.14 1.41 1.49
0.32 0.34 0.70 1.14 1.24 1.53 1.12 1.26 0.97 0.70 0.40 0.29 0.17 0.23 0.17 0.09 0.10 0.15 0.20 0.30 0.31 0.22 0.19 0.18 0.14 0.09 0.10 0.10 0.13 0.14 0.16 0.22 0.28 0.49 0.89 1.18 1.44 2.02 2.02 1.43 1.64 1.98 2.11 2.05

GFSCGP_prec_precacc_141.txt.gz
Total_Precipitation_Accumulation
0.00 0.00 0.00 0.00 0.00 0.00 0.00 0.00 0.00 0.00 0.00 0.00 0.00 0.00 0.02 0.04 0.03 0.13 0.01 0.00 0.00 0.00 0.00 0.01 0.02 0.05 0.08 0.12 0.31 0.81 1.22 1.53 1.22 0.84 0.67 0.93 0.85 0.80 0.91 1.02 0.99 0.78 0.91 0.99
0.00 0.00 0.00 0.00 0.00 0.00 0.00 0.00 0.00 0.00 0.00 0.00 0.00 0.00 0.01 0.02 0.02 0.05 0.02 0.01 0.00 0.00 0.01 0.02 0.04 0.10 0.14 0.27 0.38 0.41 0.37 0.54 0.23 0.16 0.25 0.56 0.64 0.75 0.87 1.09 0.85 0.70 0.87 0.76
0.00 0.02 0.00 0.00 0.00 0.00 0.00 0.00 0.00 0.00 0.00 0.00 0.00 0.00 0.00 0.01 0.03 0.02 0.03 0.01 0.00 0.00 0.00 0.02 0.09 0.13 0.15 0.15 0.17 0.06 0.06 0.27 0.23 0.13 0.24 0.50 0.83 1.01 1.18 1.43 1.28 0.89 1.04 1.00
0.01 0.00 0.00 0.00 0.00 0.00 0.01 0.00 0.00 0.00 0.01 0.02 0.00 0.02 0.02 0.00 0.01 0.01 0.01 0.01 0.01 0.01 0.01 0.01 0.01 0.02 0.02 0.02 0.03 0.02 0.07 0.14 0.20 0.26 0.33 0.43 0.68 0.73 0.83 0.88 1.14 0.94 0.91 1.02
0.03 0.00 0.00 0.00 0.00 0.00 0.03 0.00 0.00 0.00 0.00 0.01 0.01 0.01 0.01 0.00 0.00 0.00 0.00 0.01 0.00 0.01 0.01 0.00 0.01 0.02 0.01 0.04 0.04 0.10 0.13 0.16 0.15 0.23 0.41 0.34 0.46 0.62 0.73 0.89 1.16 1.31 0.96 0.78
0.00 0.00 0.00 0.01 0.00 0.00 0.00 0.00 0.00 0.00 0.00 0.00 0.01 0.01 0.01 0.01 0.01 0.01 0.00 0.00 0.00 0.02 0.01 0.01 0.02 0.02 0.03 0.12 0.17 0.16 0.15 0.18 0.21 0.29 0.38 0.39 0.31 0.28 0.31 0.62 0.99 1.60 1.55 0.98
0.00 0.00 0.00 0.00 0.00 0.00 0.00 0.00 0.03 0.16 0.05 0.02 0.05 0.06 0.02 0.01 0.01 0.05 0.00 0.00 0.00 0.01 0.01 0.02 0.02 0.06 0.10 0.21 0.23 0.20 0.19 0.21 0.30 0.36 0.41 0.36 0.30 0.20 0.27 0.29 0.41 0.79 1.63 1.54
0.00 0.01 0.00 0.00 0.00 0.01 0.01 0.03 0.14 0.24 0.11 0.11 0.09 0.03 0.01 0.00 0.00 0.00 0.00 0.00 0.00 0.00 0.00 0.01 0.05 0.10 0.15 0.40 0.36 0.27 0.18 0.16 0.19 0.21 0.30 0.26 0.18 0.15 0.16 0.29 0.29 0.29 0.51 1.09
0.00 0.00 0.01 0.00 0.00 0.03 0.08 0.09 0.07 0.17 0.12 0.14 0.04 0.01 0.02 0.01 0.01 0.00 0.00 0.01 0.02 0.02 0.02 0.07 0.16 0.16 0.21 0.33 0.30 0.21 0.15 0.09 0.12 0.14 0.13 0.16 0.22 0.12 0.17 0.37 0.28 0.43 0.41 0.70
0.01 0.03 0.01 0.01 0.02 0.04 0.03 0.04 0.12 0.28 0.40 0.22 0.08 0.08 0.13 0.06 0.06 0.12 0.13 0.11 0.12 0.11 0.14 0.33 0.40 0.30 0.26 0.29 0.25 0.27 0.22 0.15 0.11 0.07 0.08 0.09 0.20 0.19 0.21 0.34 0.22 0.31 0.39 0.65
0.00 0.05 0.05 0.01 0.06 0.14 0.16 0.15 0.16 0.21 0.21 0.30 0.23 0.14 0.18 0.16 0.21 0.31 0.43 0.44 0.30 0.22 0.31 0.48 0.80 0.62 0.35 0.27 0.23 0.27 0.40 0.31 0.15 0.08 0.07 0.12 0.33 0.31 0.33 0.35 0.40 0.43 0.62 0.83
0.00 0.03 0.02 0.01 0.02 0.07 0.16 0.34 0.64 0.93 0.65 0.43 0.42 0.17 0.10 0.10 0.16 0.32 1.08 1.10 0.66 0.48 0.73 0.82 1.13 1.48 0.99 0.60 0.33 0.17 0.31 0.31 0.33 0.19 0.17 0.25 0.44 0.43 0.46 0.61 0.62 0.74 0.91 0.99
0.09 0.15 0.15 0.03 0.10 0.15 0.15 0.11 0.25 0.49 0.58 0.40 0.52 0.18 0.07 0.12 0.29 0.41 0.89 0.89 0.74 0.54 0.86 1.27 1.42 1.66 1.60 1.16 0.77 0.32 0.23 0.20 0.30 0.43 0.49 0.35 0.48 0.45 0.74 0.81 1.09 1.26 1.32 1.44
0.18 0.09 0.10 0.09 0.11 0.17 0.09 0.04 0.07 0.20 0.41 0.22 0.20 0.15 0.28 0.28 0.38 0.76 0.57 0.47 0.61 0.60 0.67 0.92 1.11 1.42 1.58 1.39 1.18 0.70 0.64 0.47 0.47 0.50 0.52 0.41 0.43 0.52 0.67 0.76 0.89 1.32 1.45 1.23
0.21 0.21 0.05 0.02 0.01 0.01 0.02 0.01 0.01 0.03 0.09 0.30 0.15 0.20 0.30 0.33 0.44 0.61 0.38 0.45 0.31 0.67 0.81 0.61 0.64 0.59 0.57 0.61 0.56 0.62 0.55 0.50 0.54 0.57 0.59 0.50 0.63 1.00 1.09 1.13 0.97 0.78 0.65 0.60
0.34 0.38 0.17 0.09 0.00 0.00 0.00 0.00 0.01 0.02 0.03 0.03 0.04 0.07 0.03 0.04 0.10 0.08 0.10 0.11 0.20 0.37 0.28 0.29 0.22 0.23 0.27 0.33 0.38 0.47 0.56 0.49 0.46 0.45 0.41 0.57 0.72 0.64 0.70 0.64 0.49 0.33 0.32 0.40
0.67 0.48 0.33 0.16 0.02 0.06 0.10 0.02 0.03 0.15 0.24 0.18 0.14 0.10 0.02 0.04 0.08 0.14 0.13 0.10 0.12 0.12 0.07 0.15 0.21 0.17 0.27 0.29 0.31 0.43 0.55 0.55 0.40 0.34 0.34 0.37 0.37 0.36 0.31 0.23 0.25 0.30 0.31 0.27
0.54 0.59 0.63 0.33 0.22 0.32 0.15 0.04 0.04 0.20 0.13 0.06 0.10 0.06 0.04 0.04 0.17 0.14 0.06 0.05 0.07 0.06 0.07 0.06 0.09 0.06 0.12 0.26 0.44 0.51 0.54 0.59 0.55 0.36 0.26 0.18 0.14 0.14 0.17 0.27 0.34 0.35 0.33 0.25
0.13 0.33 0.65 0.48 0.31 0.17 0.07 0.09 0.13 0.18 0.31 0.20 0.17 0.11 0.05 0.05 0.18 0.25 0.10 0.08 0.09 0.06 0.05 0.01 0.01 0.01 0.02 0.10 0.37 0.75 0.87 0.66 0.62 0.46 0.34 0.19 0.14 0.16 0.26 0.40 0.47 0.39 0.34 0.41
0.13 0.26 0.75 0.63 0.53 0.23 0.19 0.16 0.07 0.16 0.54 0.71 0.39 0.34 0.30 0.18 0.36 0.38 0.16 0.11 0.07 0.03 0.00 0.00 0.00 0.00 0.02 0.08 0.23 0.39 0.74 0.85 0.60 0.54 0.41 0.39 0.29 0.28 0.36 0.35 0.28 0.28 0.38 0.39
0.65 0.77 0.87 0.62 1.04 0.50 0.17 0.07 0.09 0.51 1.10 0.86 0.78 0.98 0.84 0.88 1.02 0.62 0.37 0.15 0.04 0.00 0.00 0.00 0.00 0.00 0.00 0.05 0.18 0.47 0.69 1.06 1.04 0.70 0.62 0.48 0.37 0.37 0.31 0.27 0.27 0.33 0.37 0.45
1.44 1.44 1.06 0.98 1.07 0.69 0.21 0.40 0.86 0.96 0.56 0.73 1.24 1.46 1.25 1.08 0.79 0.45 0.14 0.06 0.02 0.00 0.00 0.00 0.00 0.00 0.01 0.03 0.06 0.20 0.53 1.15 1.59 1.27 0.84 0.78 0.64 0.39 0.30 0.26 0.25 0.31 0.40 0.45
1.28 1.20 1.23 0.92 0.76 0.50 0.36 0.61 0.77 0.67 0.73 0.85 0.76 0.79 0.55 0.44 0.20 0.07 0.04 0.01 0.00 0.00 0.00 0.00 0.01 0.02 0.02 0.01 0.02 0.08 0.16 0.35 1.17 1.83 1.81 1.36 0.88 0.75 0.69 0.66 0.59 0.51 0.47 0.46
0.91 0.94 1.38 0.97 0.63 0.36 0.53 0.40 0.48 0.72 0.69 0.44 0.42 0.41 0.38 0.26 0.16 0.11 0.04 0.03 0.01 0.01 0.01 0.02 0.03 0.02 0.01 0.01 0.02 0.05 0.07 0.15 0.42 0.91 1.49 1.86 1.88 1.13 0.98 1.13 1.12 1.26 1.21 0.96
0.95 0.89 0.91 1.29 1.43 0.90 0.58 0.56 0.54 0.52 0.56 0.58 0.34 0.24 0.27 0.36 0.31 0.27 0.23 0.09 0.03 0.05 0.06 0.05 0.07 0.06 0.03 0.04 0.04 0.06 0.12 0.18 0.26 0.56 0.97 1.27 1.94 1.91 1.09 0.98 1.19 1.14 1.42 1.51
0.32 0.34 0.70 1.14 1.24 1.53 1.12 1.26 0.97 0.70 0.40 0.29 0.17 0.23 0.17 0.09 0.10 0.15 0.20 0.30 0.31 0.23 0.19 0.18 0.14 0.09 0.10 0.11 0.13 0.14 0.16 0.23 0.29 0.49 0.89 1.18 1.45 2.02 2.02 1.44 1.65 1.98 2.11 2.06

GFSCGP_prec_precacc_144.txt.gz
Total_Precipitation_Accumulation
0.00 0.00 0.00 0.00 0.00 0.00 0.00 0.00 0.00 0.00 0.00 0.00 0.00 0.00 0.02 0.04 0.03 0.13 0.01 0.00 0.00 0.00 0.00 0.01 0.02 0.05 0.08 0.12 0.31 0.81 1.22 1.53 1.22 0.84 0.67 0.93 0.85 0.80 0.91 1.02 0.99 0.78 0.91 0.99
0.00 0.00 0.00 0.00 0.00 0.00 0.00 0.00 0.00 0.00 0.00 0.00 0.00 0.00 0.01 0.02 0.02 0.05 0.02 0.01 0.00 0.00 0.01 0.02 0.04 0.10 0.14 0.27 0.38 0.41 0.37 0.54 0.23 0.16 0.25 0.56 0.64 0.75 0.87 1.09 0.85 0.71 0.87 0.76
0.00 0.02 0.00 0.00 0.00 0.00 0.00 0.00 0.00 0.00 0.00 0.00 0.00 0.00 0.00 0.01 0.03 0.02 0.03 0.01 0.00 0.00 0.00 0.02 0.09 0.13 0.15 0.15 0.17 0.06 0.06 0.27 0.23 0.13 0.24 0.50 0.84 1.02 1.19 1.44 1.29 0.90 1.04 1.00
0.01 0.00 0.00 0.00 0.00 0.00 0.01 0.00 0.00 0.00 0.01 0.02 0.00 0.02 0.02 0.00 0.01 0.01 0.01 0.01 0.01 0.01 0.01 0.01 0.01 0.02 0.02 0.02 0.03 0.02 0.07 0.14 0.20 0.26 0.33 0.43 0.68 0.73 0.84 0.89 1.14 0.95 0.91 1.02
0.03 0.00 0.00 0.00 0.00 0.00 0.03 0.00 0.00 0.00 0.00 0.01 0.01 0.01 0.01 0.00 0.00 0.00 0.00 0.01 0.00 0.01 0.01 0.00 0.01 0.02 0.01 0.04 0.04 0.10 0.13 0.16 0.15 0.23 0.41 0.35 0.47 0.63 0.75 0.90 1.17 1.32 0.97 0.78
0.00 0.00 0.00 0.01 0.00 0.00 0.00 0.00 0.00 0.00 0.00 0.00 0.01 0.01 0.01 0.01 0.01 0.01 0.00 0.00 0.00 0.02 0.01 0.01 0.02 0.02 0.03 0.12 0.17 0.16 0.16 0.18 0.21 0.29 0.38 0.41 0.36 0.35 0.37 0.66 1.02 1.68 1.67 1.09
0.00 0.00 0.00 0.00 0.00 0.00 0.00 0.00 0.03 0.16 0.05 0.02 0.05 0.06 0.02 0.01 0.01 0.05 0.00 0.00 0.00 0.01 0.01 0.02 0.02 0.06 0.10 0.22 0.25 0.22 0.21 0.22 0.31 0.37 0.43 0.43 0.48 0.38 0.35 0.33 0.47 0.92 1.94 2.00
0.00 0.01 0.00 0.00 0.00 0.01 0.01 0.03 0.14 0.24 0.11 0.11 0.09 0.03 0.01 0.00 0.00 0.00 0.01 0.00 0.00 0.00 0.01 0.01 0.05 0.11 0.17 0.44 0.40 0.32 0.23 0.20 0.23 0.27 0.36 0.35 0.31 0.29 0.22 0.30 0.31 0.31 0.54 1.17
0.00 0.00 0.01 0.00 0.00 0.03 0.08 0.09 0.07 0.17 0.12 0.14 0.04 0.01 0.02 0.01 0.01 0.00 0.01 0.01 0.02 0.03 0.03 0.08 0.18 0.26 0.31 0.40 0.36 0.27 0.22 0.15 0.17 0.20 0.19 0.25 0.32 0.26 0.28 0.43 0.31 0.45 0.42 0.71
0.01 0.03 0.01 0.01 0.02 0.04 0.03 0.04 0.12 0.28 0.40 0.22 0.08 0.08 0.13 0.06 0.06 0.12 0.13 0.12 0.13 0.13 0.15 0.35 0.47 0.40 0.39 0.41 0.35 0.33 0.26 0.23 0.19 0.11 0.11 0.12 0.23 0.25 0.27 0.37 0.23 0.32 0.40 0.65
0.00 0.05 0.05 0.01 0.06 0.14 0.16 0.15 0.16 0.21 0.21 0.30 0.23 0.15 0.19 0.16 0.21 0.31 0.43 0.46 0.33 0.26 0.37 0.56 0.90 0.80 0.53 0.41 0.33 0.35 0.45 0.39 0.34 0.16 0.10 0.14 0.34 0.32 0.35 0.35 0.40 0.43 0.62 0.83
0.00 0.03 0.02 0.01 0.02 0.07 0.16 0.34 0.64 0.93 0.66 0.44 0.43 0.17 0.11 0.10 0.16 0.32 1.09 1.12 0.68 0.51 0.79 0.87 1.21 1.60 1.11 0.75 0.54 0.31 0.37 0.32 0.50 0.58 0.33 0.28 0.44 0.43 0.46 0.61 0.62 0.74 0.91 0.99
0.09 0.15 0.15 0.03 0.10 0.15 0.15 0.11 0.25 0.49 0.59 0.41 0.54 0.19 0.08 0.13 0.29 0.42 0.90 0.90 0.75 0.55 0.89 1.30 1.46 1.73 1.69 1.30 0.99 0.59 0.43 0.28 0.30 0.47 0.66 0.53 0.56 0.46 0.74 0.81 1.09 1.26 1.32 1.44
0.18 0.09 0.10 0.09 0.11 0.17 0.09 0.04 0.07 0.21 0.42 0.23 0.21 0.15 0.29 0.28 0.38 0.77 0.58 0.47 0.61 0.60 0.67 0.94 1.13 1.45 1.63 1.53 1.39 0.94 0.90 0.65 0.51 0.50 0.52 0.42 0.44 0.53 0.67 0.76 0.89 1.32 1.45 1.23
0.21 0.21 0.05 0.02 0.01 0.01 0.02 0.01 0.01 0.03 0.09 0.30 0.15 0.20 0.31 0.33 0.44 0.62 0.38 0.45 0.31 0.67 0.81 0.61 0.64 0.59 0.58 0.65 0.68 0.75 0.64 0.58 0.58 0.58 0.59 0.50 0.63 1.00 1.09 1.13 0.97 0.78 0.65 0.60
0.34 0.38 0.17 0.09 0.00 0.00 0.00 0.00 0.01 0.02 0.03 0.04 0.05 0.08 0.03 0.04 0.10 0.09 0.10 0.11 0.21 0.37 0.28 0.29 0.22 0.23 0.27 0.33 0.39 0.52 0.60 0.51 0.47 0.45 0.41 0.57 0.72 0.64 0.70 0.64 0.49 0.33 0.32 0.40
0.67 0.48 0.33 0.16 0.02 0.06 0.10 0.02 0.03 0.15 0.24 0.18 0.15 0.11 0.02 0.04 0.08 0.15 0.13 0.10 0.12 0.12 0.07 0.15 0.21 0.17 0.27 0.29 0.31 0.44 0.57 0.56 0.41 0.34 0.34 0.37 0.37 0.36 0.31 0.23 0.25 0.30 0.31 0.27
0.54 0.59 0.63 0.33 0.22 0.32 0.15 0.04 0.04 0.20 0.14 0.07 0.10 0.06 0.04 0.04 0.17 0.14 0.07 0.05 0.08 0.06 0.07 0.06 0.09 0.06 0.12 0.26 0.44 0.51 0.54 0.60 0.56 0.37 0.26 0.18 0.14 0.14 0.17 0.27 0.34 0.35 0.33 0.25
0.13 0.33 0.65 0.48 0.31 0.17 0.07 0.09 0.13 0.18 0.32 0.21 0.17 0.11 0.05 0.05 0.19 0.28 0.11 0.08 0.09 0.06 0.05 0.01 0.01 0.01 0.02 0.10 0.37 0.75 0.87 0.66 0.62 0.46 0.34 0.20 0.14 0.16 0.26 0.40 0.47 0.39 0.34 0.41
0.13 0.26 0.75 0.63 0.53 0.23 0.20 0.16 0.07 0.16 0.55 0.71 0.40 0.34 0.30 0.19 0.37 0.39 0.16 0.11 0.07 0.03 0.00 0.00 0.00 0.00 0.02 0.08 0.23 0.39 0.74 0.85 0.60 0.54 0.41 0.39 0.29 0.28 0.36 0.35 0.28 0.28 0.38 0.39
0.65 0.77 0.87 0.62 1.05 0.50 0.17 0.07 0.09 0.52 1.11 0.87 0.80 1.00 0.85 0.89 1.03 0.63 0.37 0.15 0.04 0.00 0.00 0.00 0.00 0.00 0.00 0.05 0.18 0.47 0.69 1.06 1.04 0.70 0.62 0.48 0.37 0.37 0.31 0.27 0.27 0.33 0.37 0.45
1.44 1.44 1.06 0.98 1.07 0.69 0.21 0.40 0.86 0.96 0.56 0.74 1.25 1.47 1.25 1.08 0.79 0.45 0.14 0.06 0.02 0.00 0.00 0.00 0.00 0.00 0.01 0.03 0.06 0.20 0.53 1.15 1.59 1.27 0.84 0.78 0.64 0.39 0.30 0.26 0.25 0.31 0.40 0.45
1.28 1.20 1.23 0.92 0.76 0.50 0.36 0.61 0.77 0.67 0.73 0.85 0.76 0.79 0.55 0.44 0.20 0.07 0.04 0.01 0.00 0.00 0.00 0.00 0.01 0.02 0.02 0.01 0.02 0.08 0.16 0.35 1.17 1.83 1.81 1.36 0.88 0.75 0.69 0.66 0.60 0.51 0.47 0.46
0.91 0.94 1.38 0.97 0.63 0.36 0.53 0.40 0.48 0.72 0.70 0.44 0.42 0.41 0.38 0.26 0.16 0.11 0.04 0.03 0.01 0.01 0.01 0.02 0.03 0.02 0.01 0.01 0.02 0.05 0.07 0.16 0.42 0.91 1.50 1.86 1.88 1.13 0.98 1.13 1.13 1.26 1.22 0.96
0.95 0.89 0.91 1.29 1.43 0.90 0.58 0.56 0.54 0.52 0.57 0.58 0.34 0.24 0.27 0.36 0.31 0.27 0.23 0.09 0.03 0.05 0.06 0.05 0.07 0.06 0.03 0.04 0.04 0.06 0.13 0.18 0.26 0.56 0.98 1.27 1.94 1.91 1.09 0.98 1.20 1.15 1.43 1.52
0.32 0.34 0.70 1.14 1.24 1.53 1.12 1.26 0.97 0.70 0.40 0.29 0.17 0.23 0.17 0.09 0.10 0.15 0.20 0.30 0.31 0.23 0.19 0.18 0.14 0.09 0.10 0.11 0.13 0.14 0.16 0.23 0.29 0.49 0.89 1.19 1.45 2.03 2.02 1.44 1.65 1.98 2.11 2.06